<?xml version="1.0" encoding="UTF-8" standalone="no" ?>
<gpx xmlns="http://www.topografix.com/GPX/1/1" xmlns:xsi="http://www.w3.org/2001/XMLSchema-instance" xsi:schemaLocation="http://www.topografix.com/GPX/1/1 http://www.topografix.com/GPX/1/1/gpx.xsd" version="1.1" creator="VisuGPX - https://www.visugpx.com">
  <metadata>
    <name>Pornichet 11/07/2021</name>
    <desc><![CDATA[Sortie VTT du dimanche 11 juillet 2021]]></desc>
  </metadata>
  <trk>
    <name><![CDATA[Pornichet Cyclisme]]></name>
    <trkseg>
      <trkpt lat="47.26096" lon="-2.32241">
        <ele>3</ele>
        <time>2021-07-11T06:56:29.000Z</time>
      </trkpt>
      <trkpt lat="47.26087" lon="-2.32255">
        <ele>3</ele>
        <time>2021-07-11T06:56:32.000Z</time>
      </trkpt>
      <trkpt lat="47.26081" lon="-2.32258">
        <ele>3</ele>
        <time>2021-07-11T06:56:33.000Z</time>
      </trkpt>
      <trkpt lat="47.26077" lon="-2.32261">
        <ele>-0.20000000298023</ele>
        <time>2021-07-11T06:56:34.000Z</time>
      </trkpt>
      <trkpt lat="47.26067" lon="-2.32268">
        <ele>-0.20000000298023</ele>
        <time>2021-07-11T06:56:36.000Z</time>
      </trkpt>
      <trkpt lat="47.26049" lon="-2.32285">
        <ele>-0.20000000298023</ele>
        <time>2021-07-11T06:56:40.000Z</time>
      </trkpt>
      <trkpt lat="47.26013" lon="-2.3232">
        <ele>-0.20000000298023</ele>
        <time>2021-07-11T06:56:48.000Z</time>
      </trkpt>
      <trkpt lat="47.26009" lon="-2.32325">
        <ele>-0.20000000298023</ele>
        <time>2021-07-11T06:56:49.000Z</time>
      </trkpt>
      <trkpt lat="47.25989" lon="-2.32349">
        <ele>-0.20000000298023</ele>
        <time>2021-07-11T06:56:54.000Z</time>
      </trkpt>
      <trkpt lat="47.25948" lon="-2.32395">
        <ele>-0.20000000298023</ele>
        <time>2021-07-11T06:57:04.000Z</time>
      </trkpt>
      <trkpt lat="47.25925" lon="-2.32425">
        <ele>-0.20000000298023</ele>
        <time>2021-07-11T06:57:10.000Z</time>
      </trkpt>
      <trkpt lat="47.25921" lon="-2.32429">
        <ele>-0.20000000298023</ele>
        <time>2021-07-11T06:57:11.000Z</time>
      </trkpt>
      <trkpt lat="47.25895" lon="-2.32459">
        <ele>-0.20000000298023</ele>
        <time>2021-07-11T06:57:18.000Z</time>
      </trkpt>
      <trkpt lat="47.25879" lon="-2.32475">
        <ele>-0.20000000298023</ele>
        <time>2021-07-11T06:57:23.000Z</time>
      </trkpt>
      <trkpt lat="47.25875" lon="-2.32476">
        <ele>-0.20000000298023</ele>
        <time>2021-07-11T06:57:24.000Z</time>
      </trkpt>
      <trkpt lat="47.25853" lon="-2.32479">
        <ele>-0.20000000298023</ele>
        <time>2021-07-11T06:57:29.000Z</time>
      </trkpt>
      <trkpt lat="47.25848" lon="-2.32478">
        <ele>-0.20000000298023</ele>
        <time>2021-07-11T06:57:30.000Z</time>
      </trkpt>
      <trkpt lat="47.25816" lon="-2.32465">
        <ele>-0.20000000298023</ele>
        <time>2021-07-11T06:57:37.000Z</time>
      </trkpt>
      <trkpt lat="47.25803" lon="-2.3246">
        <ele>-0.20000000298023</ele>
        <time>2021-07-11T06:57:40.000Z</time>
      </trkpt>
      <trkpt lat="47.25794" lon="-2.32459">
        <ele>-0.20000000298023</ele>
        <time>2021-07-11T06:57:42.000Z</time>
      </trkpt>
      <trkpt lat="47.25777" lon="-2.32451">
        <ele>-0.20000000298023</ele>
        <time>2021-07-11T06:57:47.000Z</time>
      </trkpt>
      <trkpt lat="47.25765" lon="-2.32433">
        <ele>-0.20000000298023</ele>
        <time>2021-07-11T06:57:51.000Z</time>
      </trkpt>
      <trkpt lat="47.25756" lon="-2.32429">
        <ele>-0.20000000298023</ele>
        <time>2021-07-11T06:57:53.000Z</time>
      </trkpt>
      <trkpt lat="47.25746" lon="-2.32428">
        <ele>-0.20000000298023</ele>
        <time>2021-07-11T06:57:55.000Z</time>
      </trkpt>
      <trkpt lat="47.25725" lon="-2.32426">
        <ele>-0.20000000298023</ele>
        <time>2021-07-11T06:57:59.000Z</time>
      </trkpt>
      <trkpt lat="47.25692" lon="-2.32425">
        <ele>-0.20000000298023</ele>
        <time>2021-07-11T06:58:06.000Z</time>
      </trkpt>
      <trkpt lat="47.25664" lon="-2.32426">
        <ele>-0.20000000298023</ele>
        <time>2021-07-11T06:58:13.000Z</time>
      </trkpt>
      <trkpt lat="47.25662" lon="-2.32444">
        <ele>-0.20000000298023</ele>
        <time>2021-07-11T06:58:16.000Z</time>
      </trkpt>
      <trkpt lat="47.25662" lon="-2.32451">
        <ele>-0.20000000298023</ele>
        <time>2021-07-11T06:58:17.000Z</time>
      </trkpt>
      <trkpt lat="47.25667" lon="-2.32476">
        <ele>-0.20000000298023</ele>
        <time>2021-07-11T06:58:21.000Z</time>
      </trkpt>
      <trkpt lat="47.2567" lon="-2.32488">
        <ele>-0.20000000298023</ele>
        <time>2021-07-11T06:58:23.000Z</time>
      </trkpt>
      <trkpt lat="47.25674" lon="-2.32506">
        <ele>0.20000000298023</ele>
        <time>2021-07-11T06:58:26.000Z</time>
      </trkpt>
      <trkpt lat="47.25675" lon="-2.32513">
        <ele>0.60000002384186</ele>
        <time>2021-07-11T06:58:27.000Z</time>
      </trkpt>
      <trkpt lat="47.25676" lon="-2.3252">
        <ele>1</ele>
        <time>2021-07-11T06:58:28.000Z</time>
      </trkpt>
      <trkpt lat="47.25678" lon="-2.32526">
        <ele>1.3999999761581</ele>
        <time>2021-07-11T06:58:29.000Z</time>
      </trkpt>
      <trkpt lat="47.25679" lon="-2.32532">
        <ele>1.7999999523163</ele>
        <time>2021-07-11T06:58:30.000Z</time>
      </trkpt>
      <trkpt lat="47.2568" lon="-2.32538">
        <ele>1.7999999523163</ele>
        <time>2021-07-11T06:58:31.000Z</time>
      </trkpt>
      <trkpt lat="47.25686" lon="-2.32562">
        <ele>1.7999999523163</ele>
        <time>2021-07-11T06:58:35.000Z</time>
      </trkpt>
      <trkpt lat="47.25692" lon="-2.32587">
        <ele>2.2000000476837</ele>
        <time>2021-07-11T06:58:39.000Z</time>
      </trkpt>
      <trkpt lat="47.25694" lon="-2.32594">
        <ele>2.5999999046326</ele>
        <time>2021-07-11T06:58:40.000Z</time>
      </trkpt>
      <trkpt lat="47.25695" lon="-2.326">
        <ele>3</ele>
        <time>2021-07-11T06:58:41.000Z</time>
      </trkpt>
      <trkpt lat="47.25696" lon="-2.32607">
        <ele>3.4000000953674</ele>
        <time>2021-07-11T06:58:42.000Z</time>
      </trkpt>
      <trkpt lat="47.25697" lon="-2.32613">
        <ele>3.7999999523163</ele>
        <time>2021-07-11T06:58:43.000Z</time>
      </trkpt>
      <trkpt lat="47.257" lon="-2.32629">
        <ele>3.7999999523163</ele>
        <time>2021-07-11T06:58:46.000Z</time>
      </trkpt>
      <trkpt lat="47.25699" lon="-2.32639">
        <ele>3.7999999523163</ele>
        <time>2021-07-11T06:58:48.000Z</time>
      </trkpt>
      <trkpt lat="47.25687" lon="-2.32644">
        <ele>3.7999999523163</ele>
        <time>2021-07-11T06:58:52.000Z</time>
      </trkpt>
      <trkpt lat="47.2567" lon="-2.32649">
        <ele>4.1999998092651</ele>
        <time>2021-07-11T06:58:57.000Z</time>
      </trkpt>
      <trkpt lat="47.25666" lon="-2.3265">
        <ele>4.5999999046326</ele>
        <time>2021-07-11T06:58:58.000Z</time>
      </trkpt>
      <trkpt lat="47.25663" lon="-2.32651">
        <ele>5</ele>
        <time>2021-07-11T06:58:59.000Z</time>
      </trkpt>
      <trkpt lat="47.25659" lon="-2.32652">
        <ele>5.4000000953674</ele>
        <time>2021-07-11T06:59:00.000Z</time>
      </trkpt>
      <trkpt lat="47.25656" lon="-2.32654">
        <ele>6</ele>
        <time>2021-07-11T06:59:01.000Z</time>
      </trkpt>
      <trkpt lat="47.25638" lon="-2.32662">
        <ele>6</ele>
        <time>2021-07-11T06:59:06.000Z</time>
      </trkpt>
      <trkpt lat="47.2562" lon="-2.32669">
        <ele>6</ele>
        <time>2021-07-11T06:59:11.000Z</time>
      </trkpt>
      <trkpt lat="47.25613" lon="-2.32671">
        <ele>6.4000000953674</ele>
        <time>2021-07-11T06:59:13.000Z</time>
      </trkpt>
      <trkpt lat="47.25609" lon="-2.32672">
        <ele>6.8000001907349</ele>
        <time>2021-07-11T06:59:14.000Z</time>
      </trkpt>
      <trkpt lat="47.25605" lon="-2.32674">
        <ele>7.1999998092651</ele>
        <time>2021-07-11T06:59:15.000Z</time>
      </trkpt>
      <trkpt lat="47.25602" lon="-2.32676">
        <ele>7.5999999046326</ele>
        <time>2021-07-11T06:59:16.000Z</time>
      </trkpt>
      <trkpt lat="47.25598" lon="-2.32678">
        <ele>8</ele>
        <time>2021-07-11T06:59:17.000Z</time>
      </trkpt>
      <trkpt lat="47.25594" lon="-2.32679">
        <ele>8</ele>
        <time>2021-07-11T06:59:18.000Z</time>
      </trkpt>
      <trkpt lat="47.25561" lon="-2.32692">
        <ele>8</ele>
        <time>2021-07-11T06:59:26.000Z</time>
      </trkpt>
      <trkpt lat="47.25526" lon="-2.32704">
        <ele>8</ele>
        <time>2021-07-11T06:59:34.000Z</time>
      </trkpt>
      <trkpt lat="47.25497" lon="-2.32709">
        <ele>8</ele>
        <time>2021-07-11T06:59:41.000Z</time>
      </trkpt>
      <trkpt lat="47.25492" lon="-2.3271">
        <ele>8</ele>
        <time>2021-07-11T06:59:42.000Z</time>
      </trkpt>
      <trkpt lat="47.2548" lon="-2.32718">
        <ele>8</ele>
        <time>2021-07-11T06:59:45.000Z</time>
      </trkpt>
      <trkpt lat="47.25477" lon="-2.32721">
        <ele>8</ele>
        <time>2021-07-11T06:59:46.000Z</time>
      </trkpt>
      <trkpt lat="47.25473" lon="-2.32725">
        <ele>8</ele>
        <time>2021-07-11T06:59:47.000Z</time>
      </trkpt>
      <trkpt lat="47.25465" lon="-2.32739">
        <ele>8</ele>
        <time>2021-07-11T06:59:50.000Z</time>
      </trkpt>
      <trkpt lat="47.2544" lon="-2.32774">
        <ele>8</ele>
        <time>2021-07-11T06:59:58.000Z</time>
      </trkpt>
      <trkpt lat="47.25436" lon="-2.32785">
        <ele>7.5999999046326</ele>
        <time>2021-07-11T07:00:02.000Z</time>
      </trkpt>
      <trkpt lat="47.25434" lon="-2.32789">
        <ele>7.1999998092651</ele>
        <time>2021-07-11T07:00:03.000Z</time>
      </trkpt>
      <trkpt lat="47.25432" lon="-2.32793">
        <ele>6.5999999046326</ele>
        <time>2021-07-11T07:00:04.000Z</time>
      </trkpt>
      <trkpt lat="47.25428" lon="-2.32793">
        <ele>6.1999998092651</ele>
        <time>2021-07-11T07:00:05.000Z</time>
      </trkpt>
      <trkpt lat="47.25425" lon="-2.32797">
        <ele>5.8000001907349</ele>
        <time>2021-07-11T07:00:06.000Z</time>
      </trkpt>
      <trkpt lat="47.25405" lon="-2.32825">
        <ele>5.8000001907349</ele>
        <time>2021-07-11T07:00:12.000Z</time>
      </trkpt>
      <trkpt lat="47.25378" lon="-2.32858">
        <ele>5.8000001907349</ele>
        <time>2021-07-11T07:00:19.000Z</time>
      </trkpt>
      <trkpt lat="47.25343" lon="-2.32891">
        <ele>5.8000001907349</ele>
        <time>2021-07-11T07:00:28.000Z</time>
      </trkpt>
      <trkpt lat="47.25319" lon="-2.32915">
        <ele>5.8000001907349</ele>
        <time>2021-07-11T07:00:34.000Z</time>
      </trkpt>
      <trkpt lat="47.25315" lon="-2.32918">
        <ele>5.8000001907349</ele>
        <time>2021-07-11T07:00:35.000Z</time>
      </trkpt>
      <trkpt lat="47.25312" lon="-2.32922">
        <ele>5.8000001907349</ele>
        <time>2021-07-11T07:00:36.000Z</time>
      </trkpt>
      <trkpt lat="47.25308" lon="-2.32934">
        <ele>5.8000001907349</ele>
        <time>2021-07-11T07:00:38.000Z</time>
      </trkpt>
      <trkpt lat="47.25311" lon="-2.32957">
        <ele>5.8000001907349</ele>
        <time>2021-07-11T07:00:42.000Z</time>
      </trkpt>
      <trkpt lat="47.25315" lon="-2.32967">
        <ele>5.8000001907349</ele>
        <time>2021-07-11T07:00:44.000Z</time>
      </trkpt>
      <trkpt lat="47.25325" lon="-2.32994">
        <ele>5.8000001907349</ele>
        <time>2021-07-11T07:00:49.000Z</time>
      </trkpt>
      <trkpt lat="47.25344" lon="-2.33042">
        <ele>5.4000000953674</ele>
        <time>2021-07-11T07:00:58.000Z</time>
      </trkpt>
      <trkpt lat="47.25346" lon="-2.33048">
        <ele>5</ele>
        <time>2021-07-11T07:00:59.000Z</time>
      </trkpt>
      <trkpt lat="47.25348" lon="-2.33054">
        <ele>4.5999999046326</ele>
        <time>2021-07-11T07:01:00.000Z</time>
      </trkpt>
      <trkpt lat="47.2535" lon="-2.3306">
        <ele>4.1999998092651</ele>
        <time>2021-07-11T07:01:01.000Z</time>
      </trkpt>
      <trkpt lat="47.25352" lon="-2.33066">
        <ele>3.7999999523163</ele>
        <time>2021-07-11T07:01:02.000Z</time>
      </trkpt>
      <trkpt lat="47.25356" lon="-2.3308">
        <ele>3.7999999523163</ele>
        <time>2021-07-11T07:01:04.000Z</time>
      </trkpt>
      <trkpt lat="47.25366" lon="-2.33111">
        <ele>3.7999999523163</ele>
        <time>2021-07-11T07:01:09.000Z</time>
      </trkpt>
      <trkpt lat="47.25369" lon="-2.33129">
        <ele>3.7999999523163</ele>
        <time>2021-07-11T07:01:12.000Z</time>
      </trkpt>
      <trkpt lat="47.25369" lon="-2.33136">
        <ele>3.7999999523163</ele>
        <time>2021-07-11T07:01:13.000Z</time>
      </trkpt>
      <trkpt lat="47.25369" lon="-2.33149">
        <ele>3.7999999523163</ele>
        <time>2021-07-11T07:01:16.000Z</time>
      </trkpt>
      <trkpt lat="47.25368" lon="-2.33152">
        <ele>3.7999999523163</ele>
        <time>2021-07-11T07:01:18.000Z</time>
      </trkpt>
      <trkpt lat="47.25368" lon="-2.33152">
        <ele>3.7999999523163</ele>
        <time>2021-07-11T07:01:21.000Z</time>
      </trkpt>
      <trkpt lat="47.25369" lon="-2.33151">
        <ele>3.7999999523163</ele>
        <time>2021-07-11T07:01:22.000Z</time>
      </trkpt>
      <trkpt lat="47.25374" lon="-2.33134">
        <ele>3.7999999523163</ele>
        <time>2021-07-11T07:04:33.000Z</time>
      </trkpt>
      <trkpt lat="47.25378" lon="-2.33134">
        <ele>3.7999999523163</ele>
        <time>2021-07-11T07:04:35.000Z</time>
      </trkpt>
      <trkpt lat="47.25389" lon="-2.33136">
        <ele>3.7999999523163</ele>
        <time>2021-07-11T07:04:40.000Z</time>
      </trkpt>
      <trkpt lat="47.25402" lon="-2.33128">
        <ele>3.7999999523163</ele>
        <time>2021-07-11T07:04:44.000Z</time>
      </trkpt>
      <trkpt lat="47.25409" lon="-2.33125">
        <ele>3.7999999523163</ele>
        <time>2021-07-11T07:04:46.000Z</time>
      </trkpt>
      <trkpt lat="47.25436" lon="-2.33113">
        <ele>3.7999999523163</ele>
        <time>2021-07-11T07:04:53.000Z</time>
      </trkpt>
      <trkpt lat="47.25469" lon="-2.33099">
        <ele>3.7999999523163</ele>
        <time>2021-07-11T07:05:01.000Z</time>
      </trkpt>
      <trkpt lat="47.2549" lon="-2.33083">
        <ele>3.7999999523163</ele>
        <time>2021-07-11T07:05:07.000Z</time>
      </trkpt>
      <trkpt lat="47.25493" lon="-2.33085">
        <ele>3.7999999523163</ele>
        <time>2021-07-11T07:05:08.000Z</time>
      </trkpt>
      <trkpt lat="47.25497" lon="-2.33095">
        <ele>3.7999999523163</ele>
        <time>2021-07-11T07:05:10.000Z</time>
      </trkpt>
      <trkpt lat="47.25499" lon="-2.33111">
        <ele>3.7999999523163</ele>
        <time>2021-07-11T07:05:13.000Z</time>
      </trkpt>
      <trkpt lat="47.25501" lon="-2.33124">
        <ele>3.7999999523163</ele>
        <time>2021-07-11T07:05:15.000Z</time>
      </trkpt>
      <trkpt lat="47.25502" lon="-2.33145">
        <ele>3.7999999523163</ele>
        <time>2021-07-11T07:05:18.000Z</time>
      </trkpt>
      <trkpt lat="47.25505" lon="-2.33164">
        <ele>3.7999999523163</ele>
        <time>2021-07-11T07:05:21.000Z</time>
      </trkpt>
      <trkpt lat="47.25513" lon="-2.33224">
        <ele>3.7999999523163</ele>
        <time>2021-07-11T07:05:30.000Z</time>
      </trkpt>
      <trkpt lat="47.2552" lon="-2.33273">
        <ele>3.7999999523163</ele>
        <time>2021-07-11T07:05:37.000Z</time>
      </trkpt>
      <trkpt lat="47.25525" lon="-2.33315">
        <ele>3.7999999523163</ele>
        <time>2021-07-11T07:05:43.000Z</time>
      </trkpt>
      <trkpt lat="47.25531" lon="-2.33365">
        <ele>3.7999999523163</ele>
        <time>2021-07-11T07:05:50.000Z</time>
      </trkpt>
      <trkpt lat="47.2554" lon="-2.33415">
        <ele>3.7999999523163</ele>
        <time>2021-07-11T07:05:57.000Z</time>
      </trkpt>
      <trkpt lat="47.25556" lon="-2.33457">
        <ele>3.7999999523163</ele>
        <time>2021-07-11T07:06:03.000Z</time>
      </trkpt>
      <trkpt lat="47.25576" lon="-2.33501">
        <ele>3.7999999523163</ele>
        <time>2021-07-11T07:06:09.000Z</time>
      </trkpt>
      <trkpt lat="47.25585" lon="-2.33515">
        <ele>3.7999999523163</ele>
        <time>2021-07-11T07:06:11.000Z</time>
      </trkpt>
      <trkpt lat="47.25601" lon="-2.33532">
        <ele>3.7999999523163</ele>
        <time>2021-07-11T07:06:14.000Z</time>
      </trkpt>
      <trkpt lat="47.25616" lon="-2.33547">
        <ele>3.7999999523163</ele>
        <time>2021-07-11T07:06:17.000Z</time>
      </trkpt>
      <trkpt lat="47.25633" lon="-2.33559">
        <ele>3.7999999523163</ele>
        <time>2021-07-11T07:06:20.000Z</time>
      </trkpt>
      <trkpt lat="47.25663" lon="-2.33574">
        <ele>3.7999999523163</ele>
        <time>2021-07-11T07:06:26.000Z</time>
      </trkpt>
      <trkpt lat="47.25681" lon="-2.3358">
        <ele>3.7999999523163</ele>
        <time>2021-07-11T07:06:31.000Z</time>
      </trkpt>
      <trkpt lat="47.25682" lon="-2.33583">
        <ele>3.7999999523163</ele>
        <time>2021-07-11T07:06:32.000Z</time>
      </trkpt>
      <trkpt lat="47.25682" lon="-2.33584">
        <ele>3.7999999523163</ele>
        <time>2021-07-11T07:06:34.000Z</time>
      </trkpt>
      <trkpt lat="47.2568" lon="-2.33582">
        <ele>3.7999999523163</ele>
        <time>2021-07-11T07:06:35.000Z</time>
      </trkpt>
      <trkpt lat="47.25681" lon="-2.33576">
        <ele>3.7999999523163</ele>
        <time>2021-07-11T07:06:37.000Z</time>
      </trkpt>
      <trkpt lat="47.2569" lon="-2.33577">
        <ele>3.7999999523163</ele>
        <time>2021-07-11T07:06:40.000Z</time>
      </trkpt>
      <trkpt lat="47.25694" lon="-2.33578">
        <ele>3.7999999523163</ele>
        <time>2021-07-11T07:06:41.000Z</time>
      </trkpt>
      <trkpt lat="47.25714" lon="-2.33579">
        <ele>3.7999999523163</ele>
        <time>2021-07-11T07:06:45.000Z</time>
      </trkpt>
      <trkpt lat="47.25758" lon="-2.33576">
        <ele>3.7999999523163</ele>
        <time>2021-07-11T07:06:53.000Z</time>
      </trkpt>
      <trkpt lat="47.25794" lon="-2.33574">
        <ele>3.7999999523163</ele>
        <time>2021-07-11T07:07:00.000Z</time>
      </trkpt>
      <trkpt lat="47.25834" lon="-2.33572">
        <ele>3.7999999523163</ele>
        <time>2021-07-11T07:07:08.000Z</time>
      </trkpt>
      <trkpt lat="47.2587" lon="-2.3357">
        <ele>3.7999999523163</ele>
        <time>2021-07-11T07:07:15.000Z</time>
      </trkpt>
      <trkpt lat="47.25875" lon="-2.33568">
        <ele>3.7999999523163</ele>
        <time>2021-07-11T07:07:16.000Z</time>
      </trkpt>
      <trkpt lat="47.25897" lon="-2.33557">
        <ele>3.7999999523163</ele>
        <time>2021-07-11T07:07:20.000Z</time>
      </trkpt>
      <trkpt lat="47.25902" lon="-2.33553">
        <ele>3.4000000953674</ele>
        <time>2021-07-11T07:07:21.000Z</time>
      </trkpt>
      <trkpt lat="47.25907" lon="-2.33549">
        <ele>3</ele>
        <time>2021-07-11T07:07:22.000Z</time>
      </trkpt>
      <trkpt lat="47.25912" lon="-2.33544">
        <ele>2.5999999046326</ele>
        <time>2021-07-11T07:07:23.000Z</time>
      </trkpt>
      <trkpt lat="47.25917" lon="-2.3354">
        <ele>2</ele>
        <time>2021-07-11T07:07:24.000Z</time>
      </trkpt>
      <trkpt lat="47.25922" lon="-2.33535">
        <ele>1.6000000238419</ele>
        <time>2021-07-11T07:07:25.000Z</time>
      </trkpt>
      <trkpt lat="47.25961" lon="-2.335">
        <ele>1.6000000238419</ele>
        <time>2021-07-11T07:07:33.000Z</time>
      </trkpt>
      <trkpt lat="47.25966" lon="-2.33495">
        <ele>1.2000000476837</ele>
        <time>2021-07-11T07:07:35.000Z</time>
      </trkpt>
      <trkpt lat="47.25969" lon="-2.33492">
        <ele>0.80000001192093</ele>
        <time>2021-07-11T07:07:36.000Z</time>
      </trkpt>
      <trkpt lat="47.25972" lon="-2.33491">
        <ele>0.40000000596046</ele>
        <time>2021-07-11T07:07:37.000Z</time>
      </trkpt>
      <trkpt lat="47.25976" lon="-2.3349">
        <ele>3</ele>
        <time>2021-07-11T07:07:38.000Z</time>
      </trkpt>
      <trkpt lat="47.25979" lon="-2.3349">
        <ele>-0.40000000596046</ele>
        <time>2021-07-11T07:07:39.000Z</time>
      </trkpt>
      <trkpt lat="47.25998" lon="-2.33488">
        <ele>-0.40000000596046</ele>
        <time>2021-07-11T07:07:43.000Z</time>
      </trkpt>
      <trkpt lat="47.26029" lon="-2.33481">
        <ele>-0.40000000596046</ele>
        <time>2021-07-11T07:07:49.000Z</time>
      </trkpt>
      <trkpt lat="47.26033" lon="-2.33478">
        <ele>-0.40000000596046</ele>
        <time>2021-07-11T07:07:50.000Z</time>
      </trkpt>
      <trkpt lat="47.26049" lon="-2.33456">
        <ele>-0.40000000596046</ele>
        <time>2021-07-11T07:07:54.000Z</time>
      </trkpt>
      <trkpt lat="47.26053" lon="-2.3345">
        <ele>-0.40000000596046</ele>
        <time>2021-07-11T07:07:55.000Z</time>
      </trkpt>
      <trkpt lat="47.26066" lon="-2.33431">
        <ele>-0.40000000596046</ele>
        <time>2021-07-11T07:07:58.000Z</time>
      </trkpt>
      <trkpt lat="47.26069" lon="-2.33422">
        <ele>-0.40000000596046</ele>
        <time>2021-07-11T07:07:59.000Z</time>
      </trkpt>
      <trkpt lat="47.26076" lon="-2.33407">
        <ele>-0.40000000596046</ele>
        <time>2021-07-11T07:08:01.000Z</time>
      </trkpt>
      <trkpt lat="47.26086" lon="-2.33398">
        <ele>-0.40000000596046</ele>
        <time>2021-07-11T07:08:03.000Z</time>
      </trkpt>
      <trkpt lat="47.26101" lon="-2.33399">
        <ele>-0.40000000596046</ele>
        <time>2021-07-11T07:08:06.000Z</time>
      </trkpt>
      <trkpt lat="47.26113" lon="-2.33414">
        <ele>-0.40000000596046</ele>
        <time>2021-07-11T07:08:09.000Z</time>
      </trkpt>
      <trkpt lat="47.26117" lon="-2.3342">
        <ele>-0.40000000596046</ele>
        <time>2021-07-11T07:08:10.000Z</time>
      </trkpt>
      <trkpt lat="47.26124" lon="-2.33432">
        <ele>-0.40000000596046</ele>
        <time>2021-07-11T07:08:12.000Z</time>
      </trkpt>
      <trkpt lat="47.26133" lon="-2.33438">
        <ele>-0.40000000596046</ele>
        <time>2021-07-11T07:08:14.000Z</time>
      </trkpt>
      <trkpt lat="47.26148" lon="-2.3343">
        <ele>-0.40000000596046</ele>
        <time>2021-07-11T07:08:17.000Z</time>
      </trkpt>
      <trkpt lat="47.26158" lon="-2.33432">
        <ele>-0.40000000596046</ele>
        <time>2021-07-11T07:08:19.000Z</time>
      </trkpt>
      <trkpt lat="47.26163" lon="-2.33434">
        <ele>-0.40000000596046</ele>
        <time>2021-07-11T07:08:20.000Z</time>
      </trkpt>
      <trkpt lat="47.26178" lon="-2.33439">
        <ele>-0.40000000596046</ele>
        <time>2021-07-11T07:08:23.000Z</time>
      </trkpt>
      <trkpt lat="47.26188" lon="-2.33437">
        <ele>-0.40000000596046</ele>
        <time>2021-07-11T07:08:25.000Z</time>
      </trkpt>
      <trkpt lat="47.26198" lon="-2.33436">
        <ele>-0.40000000596046</ele>
        <time>2021-07-11T07:08:27.000Z</time>
      </trkpt>
      <trkpt lat="47.26209" lon="-2.33435">
        <ele>-0.40000000596046</ele>
        <time>2021-07-11T07:08:29.000Z</time>
      </trkpt>
      <trkpt lat="47.26241" lon="-2.33426">
        <ele>-0.40000000596046</ele>
        <time>2021-07-11T07:08:35.000Z</time>
      </trkpt>
      <trkpt lat="47.26251" lon="-2.33426">
        <ele>-0.40000000596046</ele>
        <time>2021-07-11T07:08:37.000Z</time>
      </trkpt>
      <trkpt lat="47.26263" lon="-2.33429">
        <ele>-0.40000000596046</ele>
        <time>2021-07-11T07:08:39.000Z</time>
      </trkpt>
      <trkpt lat="47.26274" lon="-2.33427">
        <ele>-0.40000000596046</ele>
        <time>2021-07-11T07:08:41.000Z</time>
      </trkpt>
      <trkpt lat="47.26291" lon="-2.33424">
        <ele>-0.40000000596046</ele>
        <time>2021-07-11T07:08:44.000Z</time>
      </trkpt>
      <trkpt lat="47.2631" lon="-2.33418">
        <ele>-0.40000000596046</ele>
        <time>2021-07-11T07:08:47.000Z</time>
      </trkpt>
      <trkpt lat="47.2632" lon="-2.3341">
        <ele>-0.40000000596046</ele>
        <time>2021-07-11T07:08:49.000Z</time>
      </trkpt>
      <trkpt lat="47.26331" lon="-2.33401">
        <ele>-0.40000000596046</ele>
        <time>2021-07-11T07:08:51.000Z</time>
      </trkpt>
      <trkpt lat="47.26348" lon="-2.33392">
        <ele>-0.40000000596046</ele>
        <time>2021-07-11T07:08:54.000Z</time>
      </trkpt>
      <trkpt lat="47.26354" lon="-2.33389">
        <ele>-0.40000000596046</ele>
        <time>2021-07-11T07:08:55.000Z</time>
      </trkpt>
      <trkpt lat="47.26376" lon="-2.33375">
        <ele>-0.40000000596046</ele>
        <time>2021-07-11T07:08:59.000Z</time>
      </trkpt>
      <trkpt lat="47.26382" lon="-2.33371">
        <ele>-0.40000000596046</ele>
        <time>2021-07-11T07:09:00.000Z</time>
      </trkpt>
      <trkpt lat="47.26415" lon="-2.33351">
        <ele>-0.40000000596046</ele>
        <time>2021-07-11T07:09:06.000Z</time>
      </trkpt>
      <trkpt lat="47.26456" lon="-2.33319">
        <ele>-0.40000000596046</ele>
        <time>2021-07-11T07:09:14.000Z</time>
      </trkpt>
      <trkpt lat="47.26474" lon="-2.33303">
        <ele>-0.40000000596046</ele>
        <time>2021-07-11T07:09:18.000Z</time>
      </trkpt>
      <trkpt lat="47.2648" lon="-2.3329">
        <ele>-0.40000000596046</ele>
        <time>2021-07-11T07:09:20.000Z</time>
      </trkpt>
      <trkpt lat="47.26486" lon="-2.33276">
        <ele>-0.40000000596046</ele>
        <time>2021-07-11T07:09:22.000Z</time>
      </trkpt>
      <trkpt lat="47.2649" lon="-2.33262">
        <ele>-0.40000000596046</ele>
        <time>2021-07-11T07:09:24.000Z</time>
      </trkpt>
      <trkpt lat="47.26496" lon="-2.33248">
        <ele>-0.40000000596046</ele>
        <time>2021-07-11T07:09:26.000Z</time>
      </trkpt>
      <trkpt lat="47.26503" lon="-2.33237">
        <ele>-0.40000000596046</ele>
        <time>2021-07-11T07:09:28.000Z</time>
      </trkpt>
      <trkpt lat="47.26508" lon="-2.33233">
        <ele>-0.40000000596046</ele>
        <time>2021-07-11T07:09:29.000Z</time>
      </trkpt>
      <trkpt lat="47.26542" lon="-2.33211">
        <ele>-0.40000000596046</ele>
        <time>2021-07-11T07:09:35.000Z</time>
      </trkpt>
      <trkpt lat="47.26582" lon="-2.33182">
        <ele>-0.40000000596046</ele>
        <time>2021-07-11T07:09:42.000Z</time>
      </trkpt>
      <trkpt lat="47.26591" lon="-2.33159">
        <ele>-0.40000000596046</ele>
        <time>2021-07-11T07:09:45.000Z</time>
      </trkpt>
      <trkpt lat="47.26601" lon="-2.33146">
        <ele>-0.40000000596046</ele>
        <time>2021-07-11T07:09:48.000Z</time>
      </trkpt>
      <trkpt lat="47.26621" lon="-2.3315">
        <ele>-0.40000000596046</ele>
        <time>2021-07-11T07:09:52.000Z</time>
      </trkpt>
      <trkpt lat="47.26632" lon="-2.33151">
        <ele>-0.40000000596046</ele>
        <time>2021-07-11T07:09:54.000Z</time>
      </trkpt>
      <trkpt lat="47.26644" lon="-2.33145">
        <ele>-0.40000000596046</ele>
        <time>2021-07-11T07:09:56.000Z</time>
      </trkpt>
      <trkpt lat="47.26655" lon="-2.33137">
        <ele>-0.40000000596046</ele>
        <time>2021-07-11T07:09:58.000Z</time>
      </trkpt>
      <trkpt lat="47.2667" lon="-2.33122">
        <ele>-0.40000000596046</ele>
        <time>2021-07-11T07:10:01.000Z</time>
      </trkpt>
      <trkpt lat="47.26711" lon="-2.33083">
        <ele>-0.40000000596046</ele>
        <time>2021-07-11T07:10:09.000Z</time>
      </trkpt>
      <trkpt lat="47.26725" lon="-2.33065">
        <ele>-0.40000000596046</ele>
        <time>2021-07-11T07:10:12.000Z</time>
      </trkpt>
      <trkpt lat="47.26731" lon="-2.3305">
        <ele>-0.40000000596046</ele>
        <time>2021-07-11T07:10:14.000Z</time>
      </trkpt>
      <trkpt lat="47.26735" lon="-2.33035">
        <ele>-0.40000000596046</ele>
        <time>2021-07-11T07:10:16.000Z</time>
      </trkpt>
      <trkpt lat="47.26737" lon="-2.33012">
        <ele>-0.40000000596046</ele>
        <time>2021-07-11T07:10:19.000Z</time>
      </trkpt>
      <trkpt lat="47.26736" lon="-2.33005">
        <ele>-0.40000000596046</ele>
        <time>2021-07-11T07:10:20.000Z</time>
      </trkpt>
      <trkpt lat="47.26737" lon="-2.32991">
        <ele>-0.40000000596046</ele>
        <time>2021-07-11T07:10:22.000Z</time>
      </trkpt>
      <trkpt lat="47.26741" lon="-2.32976">
        <ele>-0.40000000596046</ele>
        <time>2021-07-11T07:10:24.000Z</time>
      </trkpt>
      <trkpt lat="47.26758" lon="-2.32954">
        <ele>-0.40000000596046</ele>
        <time>2021-07-11T07:10:28.000Z</time>
      </trkpt>
      <trkpt lat="47.26792" lon="-2.32917">
        <ele>-0.40000000596046</ele>
        <time>2021-07-11T07:10:35.000Z</time>
      </trkpt>
      <trkpt lat="47.26826" lon="-2.32894">
        <ele>-0.40000000596046</ele>
        <time>2021-07-11T07:10:41.000Z</time>
      </trkpt>
      <trkpt lat="47.26844" lon="-2.32878">
        <ele>-0.40000000596046</ele>
        <time>2021-07-11T07:10:45.000Z</time>
      </trkpt>
      <trkpt lat="47.26849" lon="-2.32876">
        <ele>-0.40000000596046</ele>
        <time>2021-07-11T07:10:46.000Z</time>
      </trkpt>
      <trkpt lat="47.26863" lon="-2.32865">
        <ele>-0.40000000596046</ele>
        <time>2021-07-11T07:10:49.000Z</time>
      </trkpt>
      <trkpt lat="47.26865" lon="-2.3286">
        <ele>-0.40000000596046</ele>
        <time>2021-07-11T07:10:50.000Z</time>
      </trkpt>
      <trkpt lat="47.26862" lon="-2.32844">
        <ele>-0.40000000596046</ele>
        <time>2021-07-11T07:10:53.000Z</time>
      </trkpt>
      <trkpt lat="47.26859" lon="-2.32838">
        <ele>7.7</ele>
        <time>2021-07-11T07:10:54.000Z</time>
      </trkpt>
      <trkpt lat="47.26857" lon="-2.32833">
        <ele>0.40000000596046</ele>
        <time>2021-07-11T07:10:55.000Z</time>
      </trkpt>
      <trkpt lat="47.26855" lon="-2.32828">
        <ele>0.80000001192093</ele>
        <time>2021-07-11T07:10:56.000Z</time>
      </trkpt>
      <trkpt lat="47.26854" lon="-2.32822">
        <ele>1.2000000476837</ele>
        <time>2021-07-11T07:10:57.000Z</time>
      </trkpt>
      <trkpt lat="47.26852" lon="-2.32817">
        <ele>1.6000000238419</ele>
        <time>2021-07-11T07:10:58.000Z</time>
      </trkpt>
      <trkpt lat="47.26851" lon="-2.32813">
        <ele>2.4000000953674</ele>
        <time>2021-07-11T07:10:59.000Z</time>
      </trkpt>
      <trkpt lat="47.26849" lon="-2.32808">
        <ele>2.7999999523163</ele>
        <time>2021-07-11T07:11:00.000Z</time>
      </trkpt>
      <trkpt lat="47.26847" lon="-2.32803">
        <ele>3.2000000476837</ele>
        <time>2021-07-11T07:11:01.000Z</time>
      </trkpt>
      <trkpt lat="47.26845" lon="-2.32798">
        <ele>3.7999999523163</ele>
        <time>2021-07-11T07:11:02.000Z</time>
      </trkpt>
      <trkpt lat="47.26843" lon="-2.32793">
        <ele>4.1999998092651</ele>
        <time>2021-07-11T07:11:03.000Z</time>
      </trkpt>
      <trkpt lat="47.26841" lon="-2.32788">
        <ele>4.5999999046326</ele>
        <time>2021-07-11T07:11:04.000Z</time>
      </trkpt>
      <trkpt lat="47.26839" lon="-2.32783">
        <ele>5</ele>
        <time>2021-07-11T07:11:05.000Z</time>
      </trkpt>
      <trkpt lat="47.26838" lon="-2.32777">
        <ele>5.5999999046326</ele>
        <time>2021-07-11T07:11:06.000Z</time>
      </trkpt>
      <trkpt lat="47.26836" lon="-2.32772">
        <ele>6</ele>
        <time>2021-07-11T07:11:07.000Z</time>
      </trkpt>
      <trkpt lat="47.26833" lon="-2.32757">
        <ele>6.5999999046326</ele>
        <time>2021-07-11T07:11:10.000Z</time>
      </trkpt>
      <trkpt lat="47.26831" lon="-2.32752">
        <ele>7</ele>
        <time>2021-07-11T07:11:11.000Z</time>
      </trkpt>
      <trkpt lat="47.26829" lon="-2.32748">
        <ele>7.4000000953674</ele>
        <time>2021-07-11T07:11:12.000Z</time>
      </trkpt>
      <trkpt lat="47.26827" lon="-2.32743">
        <ele>8</ele>
        <time>2021-07-11T07:11:13.000Z</time>
      </trkpt>
      <trkpt lat="47.26825" lon="-2.32739">
        <ele>8.3999996185303</ele>
        <time>2021-07-11T07:11:14.000Z</time>
      </trkpt>
      <trkpt lat="47.2682" lon="-2.32731">
        <ele>8.3999996185303</ele>
        <time>2021-07-11T07:11:16.000Z</time>
      </trkpt>
      <trkpt lat="47.26818" lon="-2.32726">
        <ele>9</ele>
        <time>2021-07-11T07:11:17.000Z</time>
      </trkpt>
      <trkpt lat="47.26816" lon="-2.32722">
        <ele>9.3999996185303</ele>
        <time>2021-07-11T07:11:18.000Z</time>
      </trkpt>
      <trkpt lat="47.26815" lon="-2.32716">
        <ele>9.8000001907349</ele>
        <time>2021-07-11T07:11:19.000Z</time>
      </trkpt>
      <trkpt lat="47.26813" lon="-2.32711">
        <ele>10.199999809265</ele>
        <time>2021-07-11T07:11:20.000Z</time>
      </trkpt>
      <trkpt lat="47.2681" lon="-2.32706">
        <ele>10.60000038147</ele>
        <time>2021-07-11T07:11:21.000Z</time>
      </trkpt>
      <trkpt lat="47.26803" lon="-2.32688">
        <ele>11</ele>
        <time>2021-07-11T07:11:24.000Z</time>
      </trkpt>
      <trkpt lat="47.26801" lon="-2.32681">
        <ele>11.39999961853</ele>
        <time>2021-07-11T07:11:25.000Z</time>
      </trkpt>
      <trkpt lat="47.26801" lon="-2.32675">
        <ele>11.800000190735</ele>
        <time>2021-07-11T07:11:26.000Z</time>
      </trkpt>
      <trkpt lat="47.26803" lon="-2.32669">
        <ele>12.39999961853</ele>
        <time>2021-07-11T07:11:27.000Z</time>
      </trkpt>
      <trkpt lat="47.26805" lon="-2.32663">
        <ele>12.800000190735</ele>
        <time>2021-07-11T07:11:28.000Z</time>
      </trkpt>
      <trkpt lat="47.26807" lon="-2.32656">
        <ele>12.800000190735</ele>
        <time>2021-07-11T07:11:29.000Z</time>
      </trkpt>
      <trkpt lat="47.26807" lon="-2.32623">
        <ele>12.800000190735</ele>
        <time>2021-07-11T07:11:33.000Z</time>
      </trkpt>
      <trkpt lat="47.26806" lon="-2.32614">
        <ele>12.800000190735</ele>
        <time>2021-07-11T07:11:34.000Z</time>
      </trkpt>
      <trkpt lat="47.26799" lon="-2.32563">
        <ele>12.800000190735</ele>
        <time>2021-07-11T07:11:40.000Z</time>
      </trkpt>
      <trkpt lat="47.26796" lon="-2.32506">
        <ele>12.800000190735</ele>
        <time>2021-07-11T07:11:47.000Z</time>
      </trkpt>
      <trkpt lat="47.26791" lon="-2.32454">
        <ele>12.800000190735</ele>
        <time>2021-07-11T07:11:54.000Z</time>
      </trkpt>
      <trkpt lat="47.26789" lon="-2.32432">
        <ele>12.800000190735</ele>
        <time>2021-07-11T07:11:57.000Z</time>
      </trkpt>
      <trkpt lat="47.26787" lon="-2.32418">
        <ele>12.800000190735</ele>
        <time>2021-07-11T07:11:59.000Z</time>
      </trkpt>
      <trkpt lat="47.2678" lon="-2.32376">
        <ele>12.800000190735</ele>
        <time>2021-07-11T07:12:06.000Z</time>
      </trkpt>
      <trkpt lat="47.26782" lon="-2.32364">
        <ele>12.800000190735</ele>
        <time>2021-07-11T07:12:09.000Z</time>
      </trkpt>
      <trkpt lat="47.26785" lon="-2.32362">
        <ele>12.800000190735</ele>
        <time>2021-07-11T07:12:10.000Z</time>
      </trkpt>
      <trkpt lat="47.26804" lon="-2.32355">
        <ele>12.800000190735</ele>
        <time>2021-07-11T07:12:14.000Z</time>
      </trkpt>
      <trkpt lat="47.26838" lon="-2.32346">
        <ele>12.199999809265</ele>
        <time>2021-07-11T07:12:19.000Z</time>
      </trkpt>
      <trkpt lat="47.26845" lon="-2.32345">
        <ele>11.800000190735</ele>
        <time>2021-07-11T07:12:20.000Z</time>
      </trkpt>
      <trkpt lat="47.26853" lon="-2.32343">
        <ele>11.39999961853</ele>
        <time>2021-07-11T07:12:21.000Z</time>
      </trkpt>
      <trkpt lat="47.26861" lon="-2.32342">
        <ele>11</ele>
        <time>2021-07-11T07:12:22.000Z</time>
      </trkpt>
      <trkpt lat="47.26869" lon="-2.32341">
        <ele>10.60000038147</ele>
        <time>2021-07-11T07:12:23.000Z</time>
      </trkpt>
      <trkpt lat="47.26877" lon="-2.32339">
        <ele>10.199999809265</ele>
        <time>2021-07-11T07:12:24.000Z</time>
      </trkpt>
      <trkpt lat="47.26884" lon="-2.32337">
        <ele>9.6000003814697</ele>
        <time>2021-07-11T07:12:25.000Z</time>
      </trkpt>
      <trkpt lat="47.26891" lon="-2.32336">
        <ele>9.1999998092651</ele>
        <time>2021-07-11T07:12:26.000Z</time>
      </trkpt>
      <trkpt lat="47.26897" lon="-2.32335">
        <ele>8.6000003814697</ele>
        <time>2021-07-11T07:12:27.000Z</time>
      </trkpt>
      <trkpt lat="47.26904" lon="-2.32335">
        <ele>8</ele>
        <time>2021-07-11T07:12:28.000Z</time>
      </trkpt>
      <trkpt lat="47.26909" lon="-2.32334">
        <ele>7.1999998092651</ele>
        <time>2021-07-11T07:12:29.000Z</time>
      </trkpt>
      <trkpt lat="47.26915" lon="-2.32334">
        <ele>6.5999999046326</ele>
        <time>2021-07-11T07:12:30.000Z</time>
      </trkpt>
      <trkpt lat="47.26921" lon="-2.32337">
        <ele>6</ele>
        <time>2021-07-11T07:12:31.000Z</time>
      </trkpt>
      <trkpt lat="47.26932" lon="-2.32355">
        <ele>5.5999999046326</ele>
        <time>2021-07-11T07:12:34.000Z</time>
      </trkpt>
      <trkpt lat="47.26934" lon="-2.32363">
        <ele>5.1999998092651</ele>
        <time>2021-07-11T07:12:35.000Z</time>
      </trkpt>
      <trkpt lat="47.26937" lon="-2.32371">
        <ele>4.5999999046326</ele>
        <time>2021-07-11T07:12:36.000Z</time>
      </trkpt>
      <trkpt lat="47.26939" lon="-2.32379">
        <ele>4.1999998092651</ele>
        <time>2021-07-11T07:12:37.000Z</time>
      </trkpt>
      <trkpt lat="47.26941" lon="-2.32387">
        <ele>3.7999999523163</ele>
        <time>2021-07-11T07:12:38.000Z</time>
      </trkpt>
      <trkpt lat="47.26949" lon="-2.32412">
        <ele>3.7999999523163</ele>
        <time>2021-07-11T07:12:41.000Z</time>
      </trkpt>
      <trkpt lat="47.26957" lon="-2.32428">
        <ele>3.7999999523163</ele>
        <time>2021-07-11T07:12:43.000Z</time>
      </trkpt>
      <trkpt lat="47.26985" lon="-2.32469">
        <ele>3.7999999523163</ele>
        <time>2021-07-11T07:12:49.000Z</time>
      </trkpt>
      <trkpt lat="47.27002" lon="-2.32504">
        <ele>3.7999999523163</ele>
        <time>2021-07-11T07:12:54.000Z</time>
      </trkpt>
      <trkpt lat="47.27007" lon="-2.32507">
        <ele>3.4000000953674</ele>
        <time>2021-07-11T07:12:55.000Z</time>
      </trkpt>
      <trkpt lat="47.27012" lon="-2.32507">
        <ele>3</ele>
        <time>2021-07-11T07:12:56.000Z</time>
      </trkpt>
      <trkpt lat="47.27017" lon="-2.32506">
        <ele>2.5999999046326</ele>
        <time>2021-07-11T07:12:57.000Z</time>
      </trkpt>
      <trkpt lat="47.27022" lon="-2.32505">
        <ele>2</ele>
        <time>2021-07-11T07:12:58.000Z</time>
      </trkpt>
      <trkpt lat="47.27026" lon="-2.32501">
        <ele>1.6000000238419</ele>
        <time>2021-07-11T07:12:59.000Z</time>
      </trkpt>
      <trkpt lat="47.27031" lon="-2.32488">
        <ele>1.6000000238419</ele>
        <time>2021-07-11T07:13:01.000Z</time>
      </trkpt>
      <trkpt lat="47.27032" lon="-2.32461">
        <ele>1.6000000238419</ele>
        <time>2021-07-11T07:13:04.000Z</time>
      </trkpt>
      <trkpt lat="47.27031" lon="-2.32451">
        <ele>1.6000000238419</ele>
        <time>2021-07-11T07:13:05.000Z</time>
      </trkpt>
      <trkpt lat="47.27027" lon="-2.32392">
        <ele>1.6000000238419</ele>
        <time>2021-07-11T07:13:11.000Z</time>
      </trkpt>
      <trkpt lat="47.27025" lon="-2.32368">
        <ele>1.6000000238419</ele>
        <time>2021-07-11T07:13:14.000Z</time>
      </trkpt>
      <trkpt lat="47.27023" lon="-2.32354">
        <ele>1.6000000238419</ele>
        <time>2021-07-11T07:13:16.000Z</time>
      </trkpt>
      <trkpt lat="47.27022" lon="-2.32338">
        <ele>1.6000000238419</ele>
        <time>2021-07-11T07:13:18.000Z</time>
      </trkpt>
      <trkpt lat="47.27022" lon="-2.32316">
        <ele>1.6000000238419</ele>
        <time>2021-07-11T07:13:21.000Z</time>
      </trkpt>
      <trkpt lat="47.27022" lon="-2.3231">
        <ele>1.2000000476837</ele>
        <time>2021-07-11T07:13:22.000Z</time>
      </trkpt>
      <trkpt lat="47.27021" lon="-2.32303">
        <ele>0.80000001192093</ele>
        <time>2021-07-11T07:13:23.000Z</time>
      </trkpt>
      <trkpt lat="47.2702" lon="-2.32296">
        <ele>0.40000000596046</ele>
        <time>2021-07-11T07:13:24.000Z</time>
      </trkpt>
      <trkpt lat="47.2702" lon="-2.32288">
        <ele>4</ele>
        <time>2021-07-11T07:13:25.000Z</time>
      </trkpt>
      <trkpt lat="47.2702" lon="-2.3228">
        <ele>-0.40000000596046</ele>
        <time>2021-07-11T07:13:26.000Z</time>
      </trkpt>
      <trkpt lat="47.27021" lon="-2.32231">
        <ele>-0.40000000596046</ele>
        <time>2021-07-11T07:13:32.000Z</time>
      </trkpt>
      <trkpt lat="47.27015" lon="-2.32208">
        <ele>-0.40000000596046</ele>
        <time>2021-07-11T07:13:35.000Z</time>
      </trkpt>
      <trkpt lat="47.27008" lon="-2.32195">
        <ele>-0.40000000596046</ele>
        <time>2021-07-11T07:13:37.000Z</time>
      </trkpt>
      <trkpt lat="47.26991" lon="-2.32164">
        <ele>-0.40000000596046</ele>
        <time>2021-07-11T07:13:41.000Z</time>
      </trkpt>
      <trkpt lat="47.26988" lon="-2.32155">
        <ele>-0.40000000596046</ele>
        <time>2021-07-11T07:13:42.000Z</time>
      </trkpt>
      <trkpt lat="47.26992" lon="-2.32137">
        <ele>-0.40000000596046</ele>
        <time>2021-07-11T07:13:45.000Z</time>
      </trkpt>
      <trkpt lat="47.27007" lon="-2.32116">
        <ele>-0.40000000596046</ele>
        <time>2021-07-11T07:13:50.000Z</time>
      </trkpt>
      <trkpt lat="47.2701" lon="-2.32103">
        <ele>6.2</ele>
        <time>2021-07-11T07:13:52.000Z</time>
      </trkpt>
      <trkpt lat="47.27011" lon="-2.32095">
        <ele>0.40000000596046</ele>
        <time>2021-07-11T07:13:53.000Z</time>
      </trkpt>
      <trkpt lat="47.27012" lon="-2.32087">
        <ele>0.80000001192093</ele>
        <time>2021-07-11T07:13:54.000Z</time>
      </trkpt>
      <trkpt lat="47.27012" lon="-2.3208">
        <ele>1.2000000476837</ele>
        <time>2021-07-11T07:13:55.000Z</time>
      </trkpt>
      <trkpt lat="47.27013" lon="-2.32073">
        <ele>1.6000000238419</ele>
        <time>2021-07-11T07:13:56.000Z</time>
      </trkpt>
      <trkpt lat="47.27014" lon="-2.32052">
        <ele>1.6000000238419</ele>
        <time>2021-07-11T07:13:59.000Z</time>
      </trkpt>
      <trkpt lat="47.27013" lon="-2.32046">
        <ele>1.6000000238419</ele>
        <time>2021-07-11T07:14:00.000Z</time>
      </trkpt>
      <trkpt lat="47.27011" lon="-2.32033">
        <ele>1.6000000238419</ele>
        <time>2021-07-11T07:14:02.000Z</time>
      </trkpt>
      <trkpt lat="47.2701" lon="-2.32026">
        <ele>1.6000000238419</ele>
        <time>2021-07-11T07:14:03.000Z</time>
      </trkpt>
      <trkpt lat="47.27007" lon="-2.32012">
        <ele>2.2000000476837</ele>
        <time>2021-07-11T07:14:05.000Z</time>
      </trkpt>
      <trkpt lat="47.27006" lon="-2.32005">
        <ele>2.5999999046326</ele>
        <time>2021-07-11T07:14:06.000Z</time>
      </trkpt>
      <trkpt lat="47.27005" lon="-2.31999">
        <ele>3</ele>
        <time>2021-07-11T07:14:07.000Z</time>
      </trkpt>
      <trkpt lat="47.27005" lon="-2.31992">
        <ele>3.4000000953674</ele>
        <time>2021-07-11T07:14:08.000Z</time>
      </trkpt>
      <trkpt lat="47.27005" lon="-2.31986">
        <ele>4</ele>
        <time>2021-07-11T07:14:09.000Z</time>
      </trkpt>
      <trkpt lat="47.27011" lon="-2.31979">
        <ele>4</ele>
        <time>2021-07-11T07:14:11.000Z</time>
      </trkpt>
      <trkpt lat="47.27018" lon="-2.31974">
        <ele>4</ele>
        <time>2021-07-11T07:14:13.000Z</time>
      </trkpt>
      <trkpt lat="47.27028" lon="-2.31967">
        <ele>4</ele>
        <time>2021-07-11T07:14:16.000Z</time>
      </trkpt>
      <trkpt lat="47.27041" lon="-2.31959">
        <ele>4</ele>
        <time>2021-07-11T07:14:21.000Z</time>
      </trkpt>
      <trkpt lat="47.27051" lon="-2.31959">
        <ele>4</ele>
        <time>2021-07-11T07:14:26.000Z</time>
      </trkpt>
      <trkpt lat="47.27058" lon="-2.31957">
        <ele>4</ele>
        <time>2021-07-11T07:14:32.000Z</time>
      </trkpt>
      <trkpt lat="47.2707" lon="-2.31956">
        <ele>4</ele>
        <time>2021-07-11T07:14:39.000Z</time>
      </trkpt>
      <trkpt lat="47.27073" lon="-2.31952">
        <ele>4</ele>
        <time>2021-07-11T07:14:41.000Z</time>
      </trkpt>
      <trkpt lat="47.27074" lon="-2.31946">
        <ele>4</ele>
        <time>2021-07-11T07:14:43.000Z</time>
      </trkpt>
      <trkpt lat="47.27074" lon="-2.31938">
        <ele>4</ele>
        <time>2021-07-11T07:14:45.000Z</time>
      </trkpt>
      <trkpt lat="47.27073" lon="-2.31921">
        <ele>4</ele>
        <time>2021-07-11T07:14:49.000Z</time>
      </trkpt>
      <trkpt lat="47.2707" lon="-2.31901">
        <ele>4</ele>
        <time>2021-07-11T07:14:54.000Z</time>
      </trkpt>
      <trkpt lat="47.27074" lon="-2.31874">
        <ele>4</ele>
        <time>2021-07-11T07:15:00.000Z</time>
      </trkpt>
      <trkpt lat="47.27072" lon="-2.31859">
        <ele>4</ele>
        <time>2021-07-11T07:15:04.000Z</time>
      </trkpt>
      <trkpt lat="47.27069" lon="-2.31857">
        <ele>4</ele>
        <time>2021-07-11T07:15:05.000Z</time>
      </trkpt>
      <trkpt lat="47.27066" lon="-2.31854">
        <ele>4</ele>
        <time>2021-07-11T07:15:06.000Z</time>
      </trkpt>
      <trkpt lat="47.27062" lon="-2.31845">
        <ele>4.4000000953674</ele>
        <time>2021-07-11T07:15:08.000Z</time>
      </trkpt>
      <trkpt lat="47.27061" lon="-2.3184">
        <ele>4.8000001907349</ele>
        <time>2021-07-11T07:15:09.000Z</time>
      </trkpt>
      <trkpt lat="47.2706" lon="-2.31834">
        <ele>5.1999998092651</ele>
        <time>2021-07-11T07:15:10.000Z</time>
      </trkpt>
      <trkpt lat="47.27059" lon="-2.31829">
        <ele>5.5999999046326</ele>
        <time>2021-07-11T07:15:11.000Z</time>
      </trkpt>
      <trkpt lat="47.27059" lon="-2.31824">
        <ele>6</ele>
        <time>2021-07-11T07:15:12.000Z</time>
      </trkpt>
      <trkpt lat="47.27058" lon="-2.31812">
        <ele>6</ele>
        <time>2021-07-11T07:15:14.000Z</time>
      </trkpt>
      <trkpt lat="47.27057" lon="-2.31805">
        <ele>6</ele>
        <time>2021-07-11T07:15:15.000Z</time>
      </trkpt>
      <trkpt lat="47.27054" lon="-2.31773">
        <ele>6.4000000953674</ele>
        <time>2021-07-11T07:15:21.000Z</time>
      </trkpt>
      <trkpt lat="47.27053" lon="-2.31769">
        <ele>6.8000001907349</ele>
        <time>2021-07-11T07:15:22.000Z</time>
      </trkpt>
      <trkpt lat="47.27052" lon="-2.31765">
        <ele>7.1999998092651</ele>
        <time>2021-07-11T07:15:23.000Z</time>
      </trkpt>
      <trkpt lat="47.27051" lon="-2.3176">
        <ele>7.5999999046326</ele>
        <time>2021-07-11T07:15:24.000Z</time>
      </trkpt>
      <trkpt lat="47.27051" lon="-2.31755">
        <ele>8</ele>
        <time>2021-07-11T07:15:25.000Z</time>
      </trkpt>
      <trkpt lat="47.27053" lon="-2.31738">
        <ele>8</ele>
        <time>2021-07-11T07:15:29.000Z</time>
      </trkpt>
      <trkpt lat="47.27055" lon="-2.31735">
        <ele>8</ele>
        <time>2021-07-11T07:15:30.000Z</time>
      </trkpt>
      <trkpt lat="47.27064" lon="-2.31734">
        <ele>8</ele>
        <time>2021-07-11T07:15:32.000Z</time>
      </trkpt>
      <trkpt lat="47.27081" lon="-2.31747">
        <ele>8</ele>
        <time>2021-07-11T07:15:36.000Z</time>
      </trkpt>
      <trkpt lat="47.2711" lon="-2.31775">
        <ele>8</ele>
        <time>2021-07-11T07:15:42.000Z</time>
      </trkpt>
      <trkpt lat="47.27136" lon="-2.31804">
        <ele>8</ele>
        <time>2021-07-11T07:15:47.000Z</time>
      </trkpt>
      <trkpt lat="47.27146" lon="-2.31818">
        <ele>8</ele>
        <time>2021-07-11T07:15:49.000Z</time>
      </trkpt>
      <trkpt lat="47.2717" lon="-2.31853">
        <ele>7.5999999046326</ele>
        <time>2021-07-11T07:15:54.000Z</time>
      </trkpt>
      <trkpt lat="47.27175" lon="-2.3186">
        <ele>7.1999998092651</ele>
        <time>2021-07-11T07:15:55.000Z</time>
      </trkpt>
      <trkpt lat="47.27181" lon="-2.31868">
        <ele>6.4000000953674</ele>
        <time>2021-07-11T07:15:56.000Z</time>
      </trkpt>
      <trkpt lat="47.27186" lon="-2.31874">
        <ele>6</ele>
        <time>2021-07-11T07:15:57.000Z</time>
      </trkpt>
      <trkpt lat="47.27217" lon="-2.31909">
        <ele>6</ele>
        <time>2021-07-11T07:16:03.000Z</time>
      </trkpt>
      <trkpt lat="47.27227" lon="-2.31918">
        <ele>6</ele>
        <time>2021-07-11T07:16:05.000Z</time>
      </trkpt>
      <trkpt lat="47.27242" lon="-2.31926">
        <ele>6</ele>
        <time>2021-07-11T07:16:08.000Z</time>
      </trkpt>
      <trkpt lat="47.27254" lon="-2.3193">
        <ele>6</ele>
        <time>2021-07-11T07:16:11.000Z</time>
      </trkpt>
      <trkpt lat="47.27259" lon="-2.31931">
        <ele>5.5999999046326</ele>
        <time>2021-07-11T07:16:12.000Z</time>
      </trkpt>
      <trkpt lat="47.27264" lon="-2.31932">
        <ele>5.1999998092651</ele>
        <time>2021-07-11T07:16:13.000Z</time>
      </trkpt>
      <trkpt lat="47.27268" lon="-2.31933">
        <ele>4.8000001907349</ele>
        <time>2021-07-11T07:16:14.000Z</time>
      </trkpt>
      <trkpt lat="47.27273" lon="-2.31934">
        <ele>4.4000000953674</ele>
        <time>2021-07-11T07:16:15.000Z</time>
      </trkpt>
      <trkpt lat="47.27277" lon="-2.31935">
        <ele>4</ele>
        <time>2021-07-11T07:16:16.000Z</time>
      </trkpt>
      <trkpt lat="47.27282" lon="-2.31937">
        <ele>4</ele>
        <time>2021-07-11T07:16:17.000Z</time>
      </trkpt>
      <trkpt lat="47.27289" lon="-2.31941">
        <ele>4</ele>
        <time>2021-07-11T07:16:19.000Z</time>
      </trkpt>
      <trkpt lat="47.27302" lon="-2.31949">
        <ele>4</ele>
        <time>2021-07-11T07:16:22.000Z</time>
      </trkpt>
      <trkpt lat="47.27311" lon="-2.31956">
        <ele>4</ele>
        <time>2021-07-11T07:16:24.000Z</time>
      </trkpt>
      <trkpt lat="47.27322" lon="-2.31964">
        <ele>3.5999999046326</ele>
        <time>2021-07-11T07:16:28.000Z</time>
      </trkpt>
      <trkpt lat="47.27323" lon="-2.31965">
        <ele>3</ele>
        <time>2021-07-11T07:16:29.000Z</time>
      </trkpt>
      <trkpt lat="47.27323" lon="-2.31965">
        <ele>2.5999999046326</ele>
        <time>2021-07-11T07:16:30.000Z</time>
      </trkpt>
      <trkpt lat="47.27327" lon="-2.31967">
        <ele>1.7999999523163</ele>
        <time>2021-07-11T07:16:44.000Z</time>
      </trkpt>
      <trkpt lat="47.27331" lon="-2.31973">
        <ele>1.7999999523163</ele>
        <time>2021-07-11T07:16:46.000Z</time>
      </trkpt>
      <trkpt lat="47.2734" lon="-2.31988">
        <ele>1.7999999523163</ele>
        <time>2021-07-11T07:16:50.000Z</time>
      </trkpt>
      <trkpt lat="47.27344" lon="-2.31992">
        <ele>1.7999999523163</ele>
        <time>2021-07-11T07:16:51.000Z</time>
      </trkpt>
      <trkpt lat="47.27357" lon="-2.32003">
        <ele>1.7999999523163</ele>
        <time>2021-07-11T07:16:54.000Z</time>
      </trkpt>
      <trkpt lat="47.27366" lon="-2.32012">
        <ele>1.7999999523163</ele>
        <time>2021-07-11T07:16:56.000Z</time>
      </trkpt>
      <trkpt lat="47.27387" lon="-2.32036">
        <ele>1.7999999523163</ele>
        <time>2021-07-11T07:17:02.000Z</time>
      </trkpt>
      <trkpt lat="47.274" lon="-2.32047">
        <ele>2.2000000476837</ele>
        <time>2021-07-11T07:17:05.000Z</time>
      </trkpt>
      <trkpt lat="47.27404" lon="-2.32052">
        <ele>2.5999999046326</ele>
        <time>2021-07-11T07:17:06.000Z</time>
      </trkpt>
      <trkpt lat="47.27407" lon="-2.32056">
        <ele>3</ele>
        <time>2021-07-11T07:17:07.000Z</time>
      </trkpt>
      <trkpt lat="47.2741" lon="-2.3206">
        <ele>3.4000000953674</ele>
        <time>2021-07-11T07:17:08.000Z</time>
      </trkpt>
      <trkpt lat="47.27414" lon="-2.32064">
        <ele>3.7999999523163</ele>
        <time>2021-07-11T07:17:09.000Z</time>
      </trkpt>
      <trkpt lat="47.27422" lon="-2.32072">
        <ele>4.1999998092651</ele>
        <time>2021-07-11T07:17:11.000Z</time>
      </trkpt>
      <trkpt lat="47.27425" lon="-2.32076">
        <ele>4.5999999046326</ele>
        <time>2021-07-11T07:17:12.000Z</time>
      </trkpt>
      <trkpt lat="47.27428" lon="-2.32081">
        <ele>5</ele>
        <time>2021-07-11T07:17:13.000Z</time>
      </trkpt>
      <trkpt lat="47.27432" lon="-2.32085">
        <ele>5.4000000953674</ele>
        <time>2021-07-11T07:17:14.000Z</time>
      </trkpt>
      <trkpt lat="47.27435" lon="-2.3209">
        <ele>6</ele>
        <time>2021-07-11T07:17:15.000Z</time>
      </trkpt>
      <trkpt lat="47.27439" lon="-2.32095">
        <ele>6</ele>
        <time>2021-07-11T07:17:16.000Z</time>
      </trkpt>
      <trkpt lat="47.27468" lon="-2.32136">
        <ele>6</ele>
        <time>2021-07-11T07:17:24.000Z</time>
      </trkpt>
      <trkpt lat="47.27476" lon="-2.32147">
        <ele>6.4000000953674</ele>
        <time>2021-07-11T07:17:26.000Z</time>
      </trkpt>
      <trkpt lat="47.2748" lon="-2.32152">
        <ele>6.8000001907349</ele>
        <time>2021-07-11T07:17:27.000Z</time>
      </trkpt>
      <trkpt lat="47.27484" lon="-2.32157">
        <ele>7.1999998092651</ele>
        <time>2021-07-11T07:17:28.000Z</time>
      </trkpt>
      <trkpt lat="47.27488" lon="-2.32163">
        <ele>7.5999999046326</ele>
        <time>2021-07-11T07:17:29.000Z</time>
      </trkpt>
      <trkpt lat="47.27492" lon="-2.32168">
        <ele>8</ele>
        <time>2021-07-11T07:17:30.000Z</time>
      </trkpt>
      <trkpt lat="47.27516" lon="-2.32198">
        <ele>8</ele>
        <time>2021-07-11T07:17:36.000Z</time>
      </trkpt>
      <trkpt lat="47.27541" lon="-2.32224">
        <ele>8.3999996185303</ele>
        <time>2021-07-11T07:17:42.000Z</time>
      </trkpt>
      <trkpt lat="47.27545" lon="-2.32228">
        <ele>8.8000001907349</ele>
        <time>2021-07-11T07:17:43.000Z</time>
      </trkpt>
      <trkpt lat="47.27548" lon="-2.32231">
        <ele>9.1999998092651</ele>
        <time>2021-07-11T07:17:44.000Z</time>
      </trkpt>
      <trkpt lat="47.27552" lon="-2.32235">
        <ele>9.8000001907349</ele>
        <time>2021-07-11T07:17:45.000Z</time>
      </trkpt>
      <trkpt lat="47.27556" lon="-2.32238">
        <ele>10.199999809265</ele>
        <time>2021-07-11T07:17:46.000Z</time>
      </trkpt>
      <trkpt lat="47.27571" lon="-2.3225">
        <ele>10.199999809265</ele>
        <time>2021-07-11T07:17:50.000Z</time>
      </trkpt>
      <trkpt lat="47.27583" lon="-2.3226">
        <ele>10.60000038147</ele>
        <time>2021-07-11T07:17:53.000Z</time>
      </trkpt>
      <trkpt lat="47.27586" lon="-2.32263">
        <ele>11</ele>
        <time>2021-07-11T07:17:54.000Z</time>
      </trkpt>
      <trkpt lat="47.27589" lon="-2.32266">
        <ele>11.39999961853</ele>
        <time>2021-07-11T07:17:55.000Z</time>
      </trkpt>
      <trkpt lat="47.27592" lon="-2.32269">
        <ele>11.800000190735</ele>
        <time>2021-07-11T07:17:56.000Z</time>
      </trkpt>
      <trkpt lat="47.27595" lon="-2.32271">
        <ele>12.199999809265</ele>
        <time>2021-07-11T07:17:57.000Z</time>
      </trkpt>
      <trkpt lat="47.27598" lon="-2.32272">
        <ele>12.199999809265</ele>
        <time>2021-07-11T07:17:58.000Z</time>
      </trkpt>
      <trkpt lat="47.27615" lon="-2.32277">
        <ele>12.60000038147</ele>
        <time>2021-07-11T07:18:05.000Z</time>
      </trkpt>
      <trkpt lat="47.27616" lon="-2.32277">
        <ele>13</ele>
        <time>2021-07-11T07:18:06.000Z</time>
      </trkpt>
      <trkpt lat="47.27618" lon="-2.32276">
        <ele>13.39999961853</ele>
        <time>2021-07-11T07:18:07.000Z</time>
      </trkpt>
      <trkpt lat="47.27619" lon="-2.32276">
        <ele>13.800000190735</ele>
        <time>2021-07-11T07:18:08.000Z</time>
      </trkpt>
      <trkpt lat="47.2762" lon="-2.32277">
        <ele>14.199999809265</ele>
        <time>2021-07-11T07:18:09.000Z</time>
      </trkpt>
      <trkpt lat="47.27621" lon="-2.3228">
        <ele>14.199999809265</ele>
        <time>2021-07-11T07:18:11.000Z</time>
      </trkpt>
      <trkpt lat="47.27617" lon="-2.3229">
        <ele>14.199999809265</ele>
        <time>2021-07-11T07:18:15.000Z</time>
      </trkpt>
      <trkpt lat="47.27616" lon="-2.32293">
        <ele>14.199999809265</ele>
        <time>2021-07-11T07:18:16.000Z</time>
      </trkpt>
      <trkpt lat="47.27606" lon="-2.32318">
        <ele>14.199999809265</ele>
        <time>2021-07-11T07:18:22.000Z</time>
      </trkpt>
      <trkpt lat="47.27592" lon="-2.32352">
        <ele>14.199999809265</ele>
        <time>2021-07-11T07:18:28.000Z</time>
      </trkpt>
      <trkpt lat="47.27576" lon="-2.32395">
        <ele>14.199999809265</ele>
        <time>2021-07-11T07:18:34.000Z</time>
      </trkpt>
      <trkpt lat="47.27575" lon="-2.32402">
        <ele>14.199999809265</ele>
        <time>2021-07-11T07:18:35.000Z</time>
      </trkpt>
      <trkpt lat="47.27571" lon="-2.32423">
        <ele>14.199999809265</ele>
        <time>2021-07-11T07:18:39.000Z</time>
      </trkpt>
      <trkpt lat="47.2756" lon="-2.32447">
        <ele>14.199999809265</ele>
        <time>2021-07-11T07:18:43.000Z</time>
      </trkpt>
      <trkpt lat="47.27558" lon="-2.32462">
        <ele>14.199999809265</ele>
        <time>2021-07-11T07:18:45.000Z</time>
      </trkpt>
      <trkpt lat="47.27554" lon="-2.32478">
        <ele>14.199999809265</ele>
        <time>2021-07-11T07:18:47.000Z</time>
      </trkpt>
      <trkpt lat="47.27547" lon="-2.32501">
        <ele>13.800000190735</ele>
        <time>2021-07-11T07:18:50.000Z</time>
      </trkpt>
      <trkpt lat="47.27544" lon="-2.32509">
        <ele>13.39999961853</ele>
        <time>2021-07-11T07:18:51.000Z</time>
      </trkpt>
      <trkpt lat="47.27541" lon="-2.32516">
        <ele>12.800000190735</ele>
        <time>2021-07-11T07:18:52.000Z</time>
      </trkpt>
      <trkpt lat="47.27539" lon="-2.32524">
        <ele>12.199999809265</ele>
        <time>2021-07-11T07:18:53.000Z</time>
      </trkpt>
      <trkpt lat="47.27537" lon="-2.32532">
        <ele>11.60000038147</ele>
        <time>2021-07-11T07:18:54.000Z</time>
      </trkpt>
      <trkpt lat="47.27536" lon="-2.32541">
        <ele>10.800000190735</ele>
        <time>2021-07-11T07:18:55.000Z</time>
      </trkpt>
      <trkpt lat="47.27537" lon="-2.32549">
        <ele>10</ele>
        <time>2021-07-11T07:18:56.000Z</time>
      </trkpt>
      <trkpt lat="47.27538" lon="-2.32558">
        <ele>9.1999998092651</ele>
        <time>2021-07-11T07:18:57.000Z</time>
      </trkpt>
      <trkpt lat="47.27542" lon="-2.32564">
        <ele>8.3999996185303</ele>
        <time>2021-07-11T07:18:58.000Z</time>
      </trkpt>
      <trkpt lat="47.27546" lon="-2.3257">
        <ele>7.5999999046326</ele>
        <time>2021-07-11T07:18:59.000Z</time>
      </trkpt>
      <trkpt lat="47.27549" lon="-2.32578">
        <ele>6.8000001907349</ele>
        <time>2021-07-11T07:19:00.000Z</time>
      </trkpt>
      <trkpt lat="47.27552" lon="-2.32583">
        <ele>6.4000000953674</ele>
        <time>2021-07-11T07:19:01.000Z</time>
      </trkpt>
      <trkpt lat="47.27555" lon="-2.3259">
        <ele>5.8000001907349</ele>
        <time>2021-07-11T07:19:02.000Z</time>
      </trkpt>
      <trkpt lat="47.27556" lon="-2.32597">
        <ele>5.4000000953674</ele>
        <time>2021-07-11T07:19:03.000Z</time>
      </trkpt>
      <trkpt lat="47.27555" lon="-2.32603">
        <ele>4.8000001907349</ele>
        <time>2021-07-11T07:19:04.000Z</time>
      </trkpt>
      <trkpt lat="47.27553" lon="-2.32609">
        <ele>4.4000000953674</ele>
        <time>2021-07-11T07:19:05.000Z</time>
      </trkpt>
      <trkpt lat="47.27544" lon="-2.32617">
        <ele>4.4000000953674</ele>
        <time>2021-07-11T07:19:07.000Z</time>
      </trkpt>
      <trkpt lat="47.27528" lon="-2.32626">
        <ele>4.4000000953674</ele>
        <time>2021-07-11T07:19:10.000Z</time>
      </trkpt>
      <trkpt lat="47.27524" lon="-2.32629">
        <ele>4.4000000953674</ele>
        <time>2021-07-11T07:19:11.000Z</time>
      </trkpt>
      <trkpt lat="47.2752" lon="-2.32633">
        <ele>4.4000000953674</ele>
        <time>2021-07-11T07:19:12.000Z</time>
      </trkpt>
      <trkpt lat="47.2751" lon="-2.32654">
        <ele>4.4000000953674</ele>
        <time>2021-07-11T07:19:16.000Z</time>
      </trkpt>
      <trkpt lat="47.27506" lon="-2.3266">
        <ele>4.4000000953674</ele>
        <time>2021-07-11T07:19:17.000Z</time>
      </trkpt>
      <trkpt lat="47.27491" lon="-2.32673">
        <ele>4.4000000953674</ele>
        <time>2021-07-11T07:19:20.000Z</time>
      </trkpt>
      <trkpt lat="47.27477" lon="-2.32683">
        <ele>4.4000000953674</ele>
        <time>2021-07-11T07:19:23.000Z</time>
      </trkpt>
      <trkpt lat="47.2747" lon="-2.32694">
        <ele>4.8000001907349</ele>
        <time>2021-07-11T07:19:25.000Z</time>
      </trkpt>
      <trkpt lat="47.27467" lon="-2.32699">
        <ele>5.1999998092651</ele>
        <time>2021-07-11T07:19:26.000Z</time>
      </trkpt>
      <trkpt lat="47.27464" lon="-2.32705">
        <ele>5.8000001907349</ele>
        <time>2021-07-11T07:19:27.000Z</time>
      </trkpt>
      <trkpt lat="47.27461" lon="-2.3271">
        <ele>6.1999998092651</ele>
        <time>2021-07-11T07:19:28.000Z</time>
      </trkpt>
      <trkpt lat="47.27457" lon="-2.32716">
        <ele>6.5999999046326</ele>
        <time>2021-07-11T07:19:29.000Z</time>
      </trkpt>
      <trkpt lat="47.27447" lon="-2.32734">
        <ele>6.5999999046326</ele>
        <time>2021-07-11T07:19:32.000Z</time>
      </trkpt>
      <trkpt lat="47.27445" lon="-2.32741">
        <ele>7</ele>
        <time>2021-07-11T07:19:33.000Z</time>
      </trkpt>
      <trkpt lat="47.27443" lon="-2.32746">
        <ele>7.4000000953674</ele>
        <time>2021-07-11T07:19:34.000Z</time>
      </trkpt>
      <trkpt lat="47.2744" lon="-2.32752">
        <ele>7.8000001907349</ele>
        <time>2021-07-11T07:19:35.000Z</time>
      </trkpt>
      <trkpt lat="47.27438" lon="-2.32757">
        <ele>8.1999998092651</ele>
        <time>2021-07-11T07:19:36.000Z</time>
      </trkpt>
      <trkpt lat="47.27436" lon="-2.32763">
        <ele>8.8000001907349</ele>
        <time>2021-07-11T07:19:37.000Z</time>
      </trkpt>
      <trkpt lat="47.27434" lon="-2.32769">
        <ele>8.8000001907349</ele>
        <time>2021-07-11T07:19:38.000Z</time>
      </trkpt>
      <trkpt lat="47.2743" lon="-2.3278">
        <ele>9.1999998092651</ele>
        <time>2021-07-11T07:19:40.000Z</time>
      </trkpt>
      <trkpt lat="47.27429" lon="-2.32786">
        <ele>9.6000003814697</ele>
        <time>2021-07-11T07:19:41.000Z</time>
      </trkpt>
      <trkpt lat="47.27428" lon="-2.32793">
        <ele>10</ele>
        <time>2021-07-11T07:19:42.000Z</time>
      </trkpt>
      <trkpt lat="47.27427" lon="-2.328">
        <ele>10.60000038147</ele>
        <time>2021-07-11T07:19:43.000Z</time>
      </trkpt>
      <trkpt lat="47.27426" lon="-2.32807">
        <ele>11</ele>
        <time>2021-07-11T07:19:44.000Z</time>
      </trkpt>
      <trkpt lat="47.27423" lon="-2.32829">
        <ele>11</ele>
        <time>2021-07-11T07:19:47.000Z</time>
      </trkpt>
      <trkpt lat="47.27418" lon="-2.32845">
        <ele>11</ele>
        <time>2021-07-11T07:19:49.000Z</time>
      </trkpt>
      <trkpt lat="47.27413" lon="-2.32859">
        <ele>11.39999961853</ele>
        <time>2021-07-11T07:19:51.000Z</time>
      </trkpt>
      <trkpt lat="47.2741" lon="-2.32866">
        <ele>11.800000190735</ele>
        <time>2021-07-11T07:19:52.000Z</time>
      </trkpt>
      <trkpt lat="47.27408" lon="-2.32872">
        <ele>12.199999809265</ele>
        <time>2021-07-11T07:19:53.000Z</time>
      </trkpt>
      <trkpt lat="47.27407" lon="-2.32878">
        <ele>12.60000038147</ele>
        <time>2021-07-11T07:19:54.000Z</time>
      </trkpt>
      <trkpt lat="47.27406" lon="-2.32884">
        <ele>13</ele>
        <time>2021-07-11T07:19:55.000Z</time>
      </trkpt>
      <trkpt lat="47.27395" lon="-2.32911">
        <ele>13</ele>
        <time>2021-07-11T07:20:00.000Z</time>
      </trkpt>
      <trkpt lat="47.27399" lon="-2.32928">
        <ele>13</ele>
        <time>2021-07-11T07:20:03.000Z</time>
      </trkpt>
      <trkpt lat="47.27401" lon="-2.32934">
        <ele>13</ele>
        <time>2021-07-11T07:20:04.000Z</time>
      </trkpt>
      <trkpt lat="47.27407" lon="-2.3296">
        <ele>13.60000038147</ele>
        <time>2021-07-11T07:20:08.000Z</time>
      </trkpt>
      <trkpt lat="47.27409" lon="-2.32966">
        <ele>14</ele>
        <time>2021-07-11T07:20:09.000Z</time>
      </trkpt>
      <trkpt lat="47.27411" lon="-2.32973">
        <ele>14.39999961853</ele>
        <time>2021-07-11T07:20:10.000Z</time>
      </trkpt>
      <trkpt lat="47.27412" lon="-2.32979">
        <ele>14.800000190735</ele>
        <time>2021-07-11T07:20:11.000Z</time>
      </trkpt>
      <trkpt lat="47.27415" lon="-2.32986">
        <ele>15.39999961853</ele>
        <time>2021-07-11T07:20:12.000Z</time>
      </trkpt>
      <trkpt lat="47.27424" lon="-2.33019">
        <ele>15.39999961853</ele>
        <time>2021-07-11T07:20:17.000Z</time>
      </trkpt>
      <trkpt lat="47.27428" lon="-2.33032">
        <ele>15.800000190735</ele>
        <time>2021-07-11T07:20:19.000Z</time>
      </trkpt>
      <trkpt lat="47.2743" lon="-2.33038">
        <ele>16.200000762939</ele>
        <time>2021-07-11T07:20:20.000Z</time>
      </trkpt>
      <trkpt lat="47.27432" lon="-2.33043">
        <ele>16.60000038147</ele>
        <time>2021-07-11T07:20:21.000Z</time>
      </trkpt>
      <trkpt lat="47.27435" lon="-2.33047">
        <ele>17</ele>
        <time>2021-07-11T07:20:22.000Z</time>
      </trkpt>
      <trkpt lat="47.27438" lon="-2.3305">
        <ele>17.39999961853</ele>
        <time>2021-07-11T07:20:23.000Z</time>
      </trkpt>
      <trkpt lat="47.2745" lon="-2.33047">
        <ele>17.39999961853</ele>
        <time>2021-07-11T07:20:26.000Z</time>
      </trkpt>
      <trkpt lat="47.27467" lon="-2.33025">
        <ele>17.39999961853</ele>
        <time>2021-07-11T07:20:31.000Z</time>
      </trkpt>
      <trkpt lat="47.27471" lon="-2.33011">
        <ele>17.39999961853</ele>
        <time>2021-07-11T07:20:33.000Z</time>
      </trkpt>
      <trkpt lat="47.27479" lon="-2.32987">
        <ele>17.39999961853</ele>
        <time>2021-07-11T07:20:36.000Z</time>
      </trkpt>
      <trkpt lat="47.27497" lon="-2.32934">
        <ele>17.39999961853</ele>
        <time>2021-07-11T07:20:42.000Z</time>
      </trkpt>
      <trkpt lat="47.27511" lon="-2.32884">
        <ele>17</ele>
        <time>2021-07-11T07:20:47.000Z</time>
      </trkpt>
      <trkpt lat="47.27515" lon="-2.32876">
        <ele>16.60000038147</ele>
        <time>2021-07-11T07:20:48.000Z</time>
      </trkpt>
      <trkpt lat="47.2752" lon="-2.32867">
        <ele>16.200000762939</ele>
        <time>2021-07-11T07:20:49.000Z</time>
      </trkpt>
      <trkpt lat="47.27524" lon="-2.3286">
        <ele>15.60000038147</ele>
        <time>2021-07-11T07:20:50.000Z</time>
      </trkpt>
      <trkpt lat="47.2753" lon="-2.32853">
        <ele>15.199999809265</ele>
        <time>2021-07-11T07:20:51.000Z</time>
      </trkpt>
      <trkpt lat="47.27543" lon="-2.32843">
        <ele>15.199999809265</ele>
        <time>2021-07-11T07:20:53.000Z</time>
      </trkpt>
      <trkpt lat="47.27554" lon="-2.32836">
        <ele>14.800000190735</ele>
        <time>2021-07-11T07:20:55.000Z</time>
      </trkpt>
      <trkpt lat="47.27558" lon="-2.32834">
        <ele>14.39999961853</ele>
        <time>2021-07-11T07:20:56.000Z</time>
      </trkpt>
      <trkpt lat="47.27562" lon="-2.32832">
        <ele>14</ele>
        <time>2021-07-11T07:20:57.000Z</time>
      </trkpt>
      <trkpt lat="47.27566" lon="-2.32832">
        <ele>13.39999961853</ele>
        <time>2021-07-11T07:20:58.000Z</time>
      </trkpt>
      <trkpt lat="47.27569" lon="-2.3283">
        <ele>13</ele>
        <time>2021-07-11T07:20:59.000Z</time>
      </trkpt>
      <trkpt lat="47.27569" lon="-2.32824">
        <ele>13</ele>
        <time>2021-07-11T07:21:01.000Z</time>
      </trkpt>
      <trkpt lat="47.27569" lon="-2.32821">
        <ele>13</ele>
        <time>2021-07-11T07:21:02.000Z</time>
      </trkpt>
      <trkpt lat="47.2757" lon="-2.32802">
        <ele>13</ele>
        <time>2021-07-11T07:21:07.000Z</time>
      </trkpt>
      <trkpt lat="47.27575" lon="-2.32787">
        <ele>12.60000038147</ele>
        <time>2021-07-11T07:21:10.000Z</time>
      </trkpt>
      <trkpt lat="47.27576" lon="-2.32782">
        <ele>12.199999809265</ele>
        <time>2021-07-11T07:21:11.000Z</time>
      </trkpt>
      <trkpt lat="47.27578" lon="-2.32776">
        <ele>11.800000190735</ele>
        <time>2021-07-11T07:21:12.000Z</time>
      </trkpt>
      <trkpt lat="47.2758" lon="-2.32772">
        <ele>11.39999961853</ele>
        <time>2021-07-11T07:21:13.000Z</time>
      </trkpt>
      <trkpt lat="47.27581" lon="-2.32769">
        <ele>11</ele>
        <time>2021-07-11T07:21:14.000Z</time>
      </trkpt>
      <trkpt lat="47.27584" lon="-2.32756">
        <ele>11</ele>
        <time>2021-07-11T07:21:17.000Z</time>
      </trkpt>
      <trkpt lat="47.27584" lon="-2.32741">
        <ele>10.39999961853</ele>
        <time>2021-07-11T07:21:20.000Z</time>
      </trkpt>
      <trkpt lat="47.27584" lon="-2.32736">
        <ele>9.8000001907349</ele>
        <time>2021-07-11T07:21:21.000Z</time>
      </trkpt>
      <trkpt lat="47.27584" lon="-2.3273">
        <ele>9.3999996185303</ele>
        <time>2021-07-11T07:21:22.000Z</time>
      </trkpt>
      <trkpt lat="47.27585" lon="-2.32723">
        <ele>8.8000001907349</ele>
        <time>2021-07-11T07:21:23.000Z</time>
      </trkpt>
      <trkpt lat="47.27586" lon="-2.32716">
        <ele>8.3999996185303</ele>
        <time>2021-07-11T07:21:24.000Z</time>
      </trkpt>
      <trkpt lat="47.27587" lon="-2.32709">
        <ele>7.8000001907349</ele>
        <time>2021-07-11T07:21:25.000Z</time>
      </trkpt>
      <trkpt lat="47.27588" lon="-2.32704">
        <ele>7.1999998092651</ele>
        <time>2021-07-11T07:21:26.000Z</time>
      </trkpt>
      <trkpt lat="47.27589" lon="-2.32699">
        <ele>6.8000001907349</ele>
        <time>2021-07-11T07:21:27.000Z</time>
      </trkpt>
      <trkpt lat="47.27592" lon="-2.32696">
        <ele>6.1999998092651</ele>
        <time>2021-07-11T07:21:28.000Z</time>
      </trkpt>
      <trkpt lat="47.27603" lon="-2.32693">
        <ele>6.1999998092651</ele>
        <time>2021-07-11T07:21:31.000Z</time>
      </trkpt>
      <trkpt lat="47.27613" lon="-2.32703">
        <ele>6.1999998092651</ele>
        <time>2021-07-11T07:21:34.000Z</time>
      </trkpt>
      <trkpt lat="47.27627" lon="-2.32706">
        <ele>6.1999998092651</ele>
        <time>2021-07-11T07:21:37.000Z</time>
      </trkpt>
      <trkpt lat="47.27631" lon="-2.32707">
        <ele>6.1999998092651</ele>
        <time>2021-07-11T07:21:38.000Z</time>
      </trkpt>
      <trkpt lat="47.27646" lon="-2.32714">
        <ele>6.1999998092651</ele>
        <time>2021-07-11T07:21:41.000Z</time>
      </trkpt>
      <trkpt lat="47.27662" lon="-2.32722">
        <ele>6.1999998092651</ele>
        <time>2021-07-11T07:21:44.000Z</time>
      </trkpt>
      <trkpt lat="47.27675" lon="-2.32724">
        <ele>6.1999998092651</ele>
        <time>2021-07-11T07:21:48.000Z</time>
      </trkpt>
      <trkpt lat="47.27687" lon="-2.32721">
        <ele>6.1999998092651</ele>
        <time>2021-07-11T07:21:54.000Z</time>
      </trkpt>
      <trkpt lat="47.27707" lon="-2.32708">
        <ele>6.1999998092651</ele>
        <time>2021-07-11T07:21:59.000Z</time>
      </trkpt>
      <trkpt lat="47.27726" lon="-2.3268">
        <ele>6.1999998092651</ele>
        <time>2021-07-11T07:22:05.000Z</time>
      </trkpt>
      <trkpt lat="47.27732" lon="-2.32669">
        <ele>6.5999999046326</ele>
        <time>2021-07-11T07:22:08.000Z</time>
      </trkpt>
      <trkpt lat="47.27734" lon="-2.32665">
        <ele>7</ele>
        <time>2021-07-11T07:22:09.000Z</time>
      </trkpt>
      <trkpt lat="47.27737" lon="-2.32662">
        <ele>7.4000000953674</ele>
        <time>2021-07-11T07:22:10.000Z</time>
      </trkpt>
      <trkpt lat="47.27739" lon="-2.32657">
        <ele>7.8000001907349</ele>
        <time>2021-07-11T07:22:11.000Z</time>
      </trkpt>
      <trkpt lat="47.2774" lon="-2.32653">
        <ele>8.3999996185303</ele>
        <time>2021-07-11T07:22:12.000Z</time>
      </trkpt>
      <trkpt lat="47.27742" lon="-2.32649">
        <ele>8.8000001907349</ele>
        <time>2021-07-11T07:22:13.000Z</time>
      </trkpt>
      <trkpt lat="47.27743" lon="-2.32645">
        <ele>9.3999996185303</ele>
        <time>2021-07-11T07:22:14.000Z</time>
      </trkpt>
      <trkpt lat="47.27744" lon="-2.32641">
        <ele>9.8000001907349</ele>
        <time>2021-07-11T07:22:15.000Z</time>
      </trkpt>
      <trkpt lat="47.27745" lon="-2.32637">
        <ele>10.39999961853</ele>
        <time>2021-07-11T07:22:16.000Z</time>
      </trkpt>
      <trkpt lat="47.27746" lon="-2.32634">
        <ele>10.800000190735</ele>
        <time>2021-07-11T07:22:17.000Z</time>
      </trkpt>
      <trkpt lat="47.27748" lon="-2.3263">
        <ele>11.199999809265</ele>
        <time>2021-07-11T07:22:18.000Z</time>
      </trkpt>
      <trkpt lat="47.2775" lon="-2.32625">
        <ele>11.60000038147</ele>
        <time>2021-07-11T07:22:19.000Z</time>
      </trkpt>
      <trkpt lat="47.27753" lon="-2.3262">
        <ele>12</ele>
        <time>2021-07-11T07:22:20.000Z</time>
      </trkpt>
      <trkpt lat="47.27755" lon="-2.32616">
        <ele>12.39999961853</ele>
        <time>2021-07-11T07:22:21.000Z</time>
      </trkpt>
      <trkpt lat="47.27757" lon="-2.32612">
        <ele>12.39999961853</ele>
        <time>2021-07-11T07:22:22.000Z</time>
      </trkpt>
      <trkpt lat="47.27766" lon="-2.32597">
        <ele>12.800000190735</ele>
        <time>2021-07-11T07:22:25.000Z</time>
      </trkpt>
      <trkpt lat="47.27769" lon="-2.32592">
        <ele>13.199999809265</ele>
        <time>2021-07-11T07:22:26.000Z</time>
      </trkpt>
      <trkpt lat="47.27772" lon="-2.32587">
        <ele>13.60000038147</ele>
        <time>2021-07-11T07:22:27.000Z</time>
      </trkpt>
      <trkpt lat="47.27775" lon="-2.32582">
        <ele>14</ele>
        <time>2021-07-11T07:22:28.000Z</time>
      </trkpt>
      <trkpt lat="47.27779" lon="-2.32578">
        <ele>14.39999961853</ele>
        <time>2021-07-11T07:22:29.000Z</time>
      </trkpt>
      <trkpt lat="47.27782" lon="-2.32573">
        <ele>14.39999961853</ele>
        <time>2021-07-11T07:22:30.000Z</time>
      </trkpt>
      <trkpt lat="47.27802" lon="-2.32544">
        <ele>14.39999961853</ele>
        <time>2021-07-11T07:22:37.000Z</time>
      </trkpt>
      <trkpt lat="47.27818" lon="-2.32522">
        <ele>14.39999961853</ele>
        <time>2021-07-11T07:22:43.000Z</time>
      </trkpt>
      <trkpt lat="47.27839" lon="-2.32487">
        <ele>14.39999961853</ele>
        <time>2021-07-11T07:22:51.000Z</time>
      </trkpt>
      <trkpt lat="47.27859" lon="-2.32462">
        <ele>14.39999961853</ele>
        <time>2021-07-11T07:22:57.000Z</time>
      </trkpt>
      <trkpt lat="47.2787" lon="-2.32453">
        <ele>14.39999961853</ele>
        <time>2021-07-11T07:23:00.000Z</time>
      </trkpt>
      <trkpt lat="47.27873" lon="-2.32447">
        <ele>14.39999961853</ele>
        <time>2021-07-11T07:23:01.000Z</time>
      </trkpt>
      <trkpt lat="47.27887" lon="-2.32423">
        <ele>14.39999961853</ele>
        <time>2021-07-11T07:23:06.000Z</time>
      </trkpt>
      <trkpt lat="47.27897" lon="-2.32406">
        <ele>14.39999961853</ele>
        <time>2021-07-11T07:23:11.000Z</time>
      </trkpt>
      <trkpt lat="47.27904" lon="-2.32394">
        <ele>14.39999961853</ele>
        <time>2021-07-11T07:23:17.000Z</time>
      </trkpt>
      <trkpt lat="47.27905" lon="-2.3239">
        <ele>14.39999961853</ele>
        <time>2021-07-11T07:23:21.000Z</time>
      </trkpt>
      <trkpt lat="47.27915" lon="-2.32388">
        <ele>14.39999961853</ele>
        <time>2021-07-11T07:23:28.000Z</time>
      </trkpt>
      <trkpt lat="47.27922" lon="-2.32393">
        <ele>14.39999961853</ele>
        <time>2021-07-11T07:23:33.000Z</time>
      </trkpt>
      <trkpt lat="47.27924" lon="-2.32394">
        <ele>14.39999961853</ele>
        <time>2021-07-11T07:23:34.000Z</time>
      </trkpt>
      <trkpt lat="47.27933" lon="-2.32402">
        <ele>14.39999961853</ele>
        <time>2021-07-11T07:23:41.000Z</time>
      </trkpt>
      <trkpt lat="47.2795" lon="-2.32402">
        <ele>14.39999961853</ele>
        <time>2021-07-11T07:23:47.000Z</time>
      </trkpt>
      <trkpt lat="47.27957" lon="-2.32401">
        <ele>14.39999961853</ele>
        <time>2021-07-11T07:23:50.000Z</time>
      </trkpt>
      <trkpt lat="47.27959" lon="-2.32394">
        <ele>14.39999961853</ele>
        <time>2021-07-11T07:23:52.000Z</time>
      </trkpt>
      <trkpt lat="47.27961" lon="-2.32374">
        <ele>14.39999961853</ele>
        <time>2021-07-11T07:23:57.000Z</time>
      </trkpt>
      <trkpt lat="47.27962" lon="-2.32368">
        <ele>14.39999961853</ele>
        <time>2021-07-11T07:23:58.000Z</time>
      </trkpt>
      <trkpt lat="47.27964" lon="-2.32347">
        <ele>14.39999961853</ele>
        <time>2021-07-11T07:24:02.000Z</time>
      </trkpt>
      <trkpt lat="47.27971" lon="-2.32325">
        <ele>14.39999961853</ele>
        <time>2021-07-11T07:24:06.000Z</time>
      </trkpt>
      <trkpt lat="47.27974" lon="-2.32319">
        <ele>14.800000190735</ele>
        <time>2021-07-11T07:24:07.000Z</time>
      </trkpt>
      <trkpt lat="47.27979" lon="-2.32313">
        <ele>15.199999809265</ele>
        <time>2021-07-11T07:24:08.000Z</time>
      </trkpt>
      <trkpt lat="47.27983" lon="-2.32307">
        <ele>16</ele>
        <time>2021-07-11T07:24:09.000Z</time>
      </trkpt>
      <trkpt lat="47.27987" lon="-2.32302">
        <ele>16.39999961853</ele>
        <time>2021-07-11T07:24:10.000Z</time>
      </trkpt>
      <trkpt lat="47.27994" lon="-2.32291">
        <ele>16.39999961853</ele>
        <time>2021-07-11T07:24:12.000Z</time>
      </trkpt>
      <trkpt lat="47.28021" lon="-2.3225">
        <ele>16.39999961853</ele>
        <time>2021-07-11T07:24:19.000Z</time>
      </trkpt>
      <trkpt lat="47.28051" lon="-2.322">
        <ele>16.39999961853</ele>
        <time>2021-07-11T07:24:27.000Z</time>
      </trkpt>
      <trkpt lat="47.28075" lon="-2.32155">
        <ele>16.39999961853</ele>
        <time>2021-07-11T07:24:34.000Z</time>
      </trkpt>
      <trkpt lat="47.28079" lon="-2.3214">
        <ele>16.39999961853</ele>
        <time>2021-07-11T07:24:36.000Z</time>
      </trkpt>
      <trkpt lat="47.28076" lon="-2.32124">
        <ele>16.39999961853</ele>
        <time>2021-07-11T07:24:38.000Z</time>
      </trkpt>
      <trkpt lat="47.28066" lon="-2.32104">
        <ele>16.39999961853</ele>
        <time>2021-07-11T07:24:41.000Z</time>
      </trkpt>
      <trkpt lat="47.28062" lon="-2.32097">
        <ele>16.39999961853</ele>
        <time>2021-07-11T07:24:42.000Z</time>
      </trkpt>
      <trkpt lat="47.28049" lon="-2.32068">
        <ele>16.799999237061</ele>
        <time>2021-07-11T07:24:46.000Z</time>
      </trkpt>
      <trkpt lat="47.28045" lon="-2.32061">
        <ele>17.200000762939</ele>
        <time>2021-07-11T07:24:47.000Z</time>
      </trkpt>
      <trkpt lat="47.28042" lon="-2.32053">
        <ele>17.799999237061</ele>
        <time>2021-07-11T07:24:48.000Z</time>
      </trkpt>
      <trkpt lat="47.28039" lon="-2.32047">
        <ele>18.200000762939</ele>
        <time>2021-07-11T07:24:49.000Z</time>
      </trkpt>
      <trkpt lat="47.28036" lon="-2.3204">
        <ele>18.60000038147</ele>
        <time>2021-07-11T07:24:50.000Z</time>
      </trkpt>
      <trkpt lat="47.28017" lon="-2.32">
        <ele>19</ele>
        <time>2021-07-11T07:24:56.000Z</time>
      </trkpt>
      <trkpt lat="47.28013" lon="-2.31994">
        <ele>19.39999961853</ele>
        <time>2021-07-11T07:24:57.000Z</time>
      </trkpt>
      <trkpt lat="47.28008" lon="-2.31988">
        <ele>20.200000762939</ele>
        <time>2021-07-11T07:24:58.000Z</time>
      </trkpt>
      <trkpt lat="47.28004" lon="-2.31982">
        <ele>20.60000038147</ele>
        <time>2021-07-11T07:24:59.000Z</time>
      </trkpt>
      <trkpt lat="47.27999" lon="-2.31977">
        <ele>20.60000038147</ele>
        <time>2021-07-11T07:25:00.000Z</time>
      </trkpt>
      <trkpt lat="47.2799" lon="-2.31967">
        <ele>20.60000038147</ele>
        <time>2021-07-11T07:25:02.000Z</time>
      </trkpt>
      <trkpt lat="47.27957" lon="-2.31932">
        <ele>20.60000038147</ele>
        <time>2021-07-11T07:25:09.000Z</time>
      </trkpt>
      <trkpt lat="47.27938" lon="-2.31919">
        <ele>20.60000038147</ele>
        <time>2021-07-11T07:25:13.000Z</time>
      </trkpt>
      <trkpt lat="47.27933" lon="-2.31915">
        <ele>20.60000038147</ele>
        <time>2021-07-11T07:25:14.000Z</time>
      </trkpt>
      <trkpt lat="47.27901" lon="-2.31891">
        <ele>20.60000038147</ele>
        <time>2021-07-11T07:25:21.000Z</time>
      </trkpt>
      <trkpt lat="47.27884" lon="-2.31878">
        <ele>20.60000038147</ele>
        <time>2021-07-11T07:25:25.000Z</time>
      </trkpt>
      <trkpt lat="47.27881" lon="-2.31873">
        <ele>20.60000038147</ele>
        <time>2021-07-11T07:25:26.000Z</time>
      </trkpt>
      <trkpt lat="47.27879" lon="-2.31852">
        <ele>20.60000038147</ele>
        <time>2021-07-11T07:25:29.000Z</time>
      </trkpt>
      <trkpt lat="47.27878" lon="-2.31845">
        <ele>20.60000038147</ele>
        <time>2021-07-11T07:25:30.000Z</time>
      </trkpt>
      <trkpt lat="47.27873" lon="-2.31791">
        <ele>20.60000038147</ele>
        <time>2021-07-11T07:25:37.000Z</time>
      </trkpt>
      <trkpt lat="47.27871" lon="-2.31762">
        <ele>20.60000038147</ele>
        <time>2021-07-11T07:25:41.000Z</time>
      </trkpt>
      <trkpt lat="47.27874" lon="-2.31746">
        <ele>20.60000038147</ele>
        <time>2021-07-11T07:25:43.000Z</time>
      </trkpt>
      <trkpt lat="47.2788" lon="-2.31733">
        <ele>20.60000038147</ele>
        <time>2021-07-11T07:25:45.000Z</time>
      </trkpt>
      <trkpt lat="47.27883" lon="-2.31729">
        <ele>20.60000038147</ele>
        <time>2021-07-11T07:25:46.000Z</time>
      </trkpt>
      <trkpt lat="47.27887" lon="-2.31726">
        <ele>20.60000038147</ele>
        <time>2021-07-11T07:25:47.000Z</time>
      </trkpt>
      <trkpt lat="47.27902" lon="-2.31716">
        <ele>20.60000038147</ele>
        <time>2021-07-11T07:25:50.000Z</time>
      </trkpt>
      <trkpt lat="47.27909" lon="-2.31713">
        <ele>20.60000038147</ele>
        <time>2021-07-11T07:25:51.000Z</time>
      </trkpt>
      <trkpt lat="47.27951" lon="-2.31678">
        <ele>20.60000038147</ele>
        <time>2021-07-11T07:25:59.000Z</time>
      </trkpt>
      <trkpt lat="47.27973" lon="-2.31663">
        <ele>20.200000762939</ele>
        <time>2021-07-11T07:26:03.000Z</time>
      </trkpt>
      <trkpt lat="47.27979" lon="-2.31659">
        <ele>19.799999237061</ele>
        <time>2021-07-11T07:26:04.000Z</time>
      </trkpt>
      <trkpt lat="47.27986" lon="-2.31656">
        <ele>19.39999961853</ele>
        <time>2021-07-11T07:26:05.000Z</time>
      </trkpt>
      <trkpt lat="47.27993" lon="-2.31652">
        <ele>18.799999237061</ele>
        <time>2021-07-11T07:26:06.000Z</time>
      </trkpt>
      <trkpt lat="47.27999" lon="-2.31649">
        <ele>18.39999961853</ele>
        <time>2021-07-11T07:26:07.000Z</time>
      </trkpt>
      <trkpt lat="47.28041" lon="-2.31632">
        <ele>18.39999961853</ele>
        <time>2021-07-11T07:26:13.000Z</time>
      </trkpt>
      <trkpt lat="47.28085" lon="-2.31624">
        <ele>18.39999961853</ele>
        <time>2021-07-11T07:26:19.000Z</time>
      </trkpt>
      <trkpt lat="47.28125" lon="-2.31625">
        <ele>18.39999961853</ele>
        <time>2021-07-11T07:26:25.000Z</time>
      </trkpt>
      <trkpt lat="47.28162" lon="-2.31623">
        <ele>18.39999961853</ele>
        <time>2021-07-11T07:26:31.000Z</time>
      </trkpt>
      <trkpt lat="47.28212" lon="-2.31615">
        <ele>18.39999961853</ele>
        <time>2021-07-11T07:26:40.000Z</time>
      </trkpt>
      <trkpt lat="47.2826" lon="-2.31603">
        <ele>18.39999961853</ele>
        <time>2021-07-11T07:26:49.000Z</time>
      </trkpt>
      <trkpt lat="47.28287" lon="-2.31593">
        <ele>18.39999961853</ele>
        <time>2021-07-11T07:26:55.000Z</time>
      </trkpt>
      <trkpt lat="47.28313" lon="-2.3159">
        <ele>18.39999961853</ele>
        <time>2021-07-11T07:27:01.000Z</time>
      </trkpt>
      <trkpt lat="47.28317" lon="-2.31589">
        <ele>18.39999961853</ele>
        <time>2021-07-11T07:27:02.000Z</time>
      </trkpt>
      <trkpt lat="47.28344" lon="-2.31582">
        <ele>18.39999961853</ele>
        <time>2021-07-11T07:27:08.000Z</time>
      </trkpt>
      <trkpt lat="47.2838" lon="-2.3157">
        <ele>18.39999961853</ele>
        <time>2021-07-11T07:27:14.000Z</time>
      </trkpt>
      <trkpt lat="47.28405" lon="-2.31561">
        <ele>18.799999237061</ele>
        <time>2021-07-11T07:27:18.000Z</time>
      </trkpt>
      <trkpt lat="47.28411" lon="-2.31558">
        <ele>19.200000762939</ele>
        <time>2021-07-11T07:27:19.000Z</time>
      </trkpt>
      <trkpt lat="47.28417" lon="-2.31554">
        <ele>19.60000038147</ele>
        <time>2021-07-11T07:27:20.000Z</time>
      </trkpt>
      <trkpt lat="47.28423" lon="-2.3155">
        <ele>20</ele>
        <time>2021-07-11T07:27:21.000Z</time>
      </trkpt>
      <trkpt lat="47.28429" lon="-2.31545">
        <ele>20.39999961853</ele>
        <time>2021-07-11T07:27:22.000Z</time>
      </trkpt>
      <trkpt lat="47.28469" lon="-2.3151">
        <ele>20.39999961853</ele>
        <time>2021-07-11T07:27:29.000Z</time>
      </trkpt>
      <trkpt lat="47.28476" lon="-2.31507">
        <ele>20.39999961853</ele>
        <time>2021-07-11T07:27:30.000Z</time>
      </trkpt>
      <trkpt lat="47.28495" lon="-2.31503">
        <ele>20.39999961853</ele>
        <time>2021-07-11T07:27:33.000Z</time>
      </trkpt>
      <trkpt lat="47.2854" lon="-2.31497">
        <ele>20.39999961853</ele>
        <time>2021-07-11T07:27:40.000Z</time>
      </trkpt>
      <trkpt lat="47.28553" lon="-2.31495">
        <ele>20.799999237061</ele>
        <time>2021-07-11T07:27:42.000Z</time>
      </trkpt>
      <trkpt lat="47.28559" lon="-2.31493">
        <ele>21.39999961853</ele>
        <time>2021-07-11T07:27:43.000Z</time>
      </trkpt>
      <trkpt lat="47.28565" lon="-2.31491">
        <ele>21.799999237061</ele>
        <time>2021-07-11T07:27:44.000Z</time>
      </trkpt>
      <trkpt lat="47.28571" lon="-2.31489">
        <ele>22.200000762939</ele>
        <time>2021-07-11T07:27:45.000Z</time>
      </trkpt>
      <trkpt lat="47.28578" lon="-2.31487">
        <ele>22.60000038147</ele>
        <time>2021-07-11T07:27:46.000Z</time>
      </trkpt>
      <trkpt lat="47.28584" lon="-2.31484">
        <ele>22.60000038147</ele>
        <time>2021-07-11T07:27:47.000Z</time>
      </trkpt>
      <trkpt lat="47.28618" lon="-2.31469">
        <ele>22.60000038147</ele>
        <time>2021-07-11T07:27:53.000Z</time>
      </trkpt>
      <trkpt lat="47.28635" lon="-2.31461">
        <ele>23</ele>
        <time>2021-07-11T07:27:56.000Z</time>
      </trkpt>
      <trkpt lat="47.2864" lon="-2.31459">
        <ele>23.39999961853</ele>
        <time>2021-07-11T07:27:57.000Z</time>
      </trkpt>
      <trkpt lat="47.28645" lon="-2.31456">
        <ele>23.799999237061</ele>
        <time>2021-07-11T07:27:58.000Z</time>
      </trkpt>
      <trkpt lat="47.28651" lon="-2.31453">
        <ele>24.200000762939</ele>
        <time>2021-07-11T07:27:59.000Z</time>
      </trkpt>
      <trkpt lat="47.28656" lon="-2.3145">
        <ele>24.60000038147</ele>
        <time>2021-07-11T07:28:00.000Z</time>
      </trkpt>
      <trkpt lat="47.28677" lon="-2.31434">
        <ele>24.60000038147</ele>
        <time>2021-07-11T07:28:04.000Z</time>
      </trkpt>
      <trkpt lat="47.28686" lon="-2.31408">
        <ele>24.60000038147</ele>
        <time>2021-07-11T07:28:07.000Z</time>
      </trkpt>
      <trkpt lat="47.28681" lon="-2.31378">
        <ele>24.60000038147</ele>
        <time>2021-07-11T07:28:10.000Z</time>
      </trkpt>
      <trkpt lat="47.28672" lon="-2.31361">
        <ele>24.60000038147</ele>
        <time>2021-07-11T07:28:12.000Z</time>
      </trkpt>
      <trkpt lat="47.28668" lon="-2.31352">
        <ele>24.60000038147</ele>
        <time>2021-07-11T07:28:13.000Z</time>
      </trkpt>
      <trkpt lat="47.28664" lon="-2.31343">
        <ele>24.60000038147</ele>
        <time>2021-07-11T07:28:14.000Z</time>
      </trkpt>
      <trkpt lat="47.28655" lon="-2.31313">
        <ele>24.60000038147</ele>
        <time>2021-07-11T07:28:17.000Z</time>
      </trkpt>
      <trkpt lat="47.28651" lon="-2.31293">
        <ele>24.200000762939</ele>
        <time>2021-07-11T07:28:19.000Z</time>
      </trkpt>
      <trkpt lat="47.28649" lon="-2.31283">
        <ele>23.799999237061</ele>
        <time>2021-07-11T07:28:20.000Z</time>
      </trkpt>
      <trkpt lat="47.28649" lon="-2.31272">
        <ele>23.39999961853</ele>
        <time>2021-07-11T07:28:21.000Z</time>
      </trkpt>
      <trkpt lat="47.2865" lon="-2.31261">
        <ele>23</ele>
        <time>2021-07-11T07:28:22.000Z</time>
      </trkpt>
      <trkpt lat="47.28652" lon="-2.31252">
        <ele>22.60000038147</ele>
        <time>2021-07-11T07:28:23.000Z</time>
      </trkpt>
      <trkpt lat="47.28669" lon="-2.31219">
        <ele>22.60000038147</ele>
        <time>2021-07-11T07:28:27.000Z</time>
      </trkpt>
      <trkpt lat="47.28675" lon="-2.31212">
        <ele>22</ele>
        <time>2021-07-11T07:28:28.000Z</time>
      </trkpt>
      <trkpt lat="47.28681" lon="-2.31205">
        <ele>21.60000038147</ele>
        <time>2021-07-11T07:28:29.000Z</time>
      </trkpt>
      <trkpt lat="47.28687" lon="-2.31198">
        <ele>21.200000762939</ele>
        <time>2021-07-11T07:28:30.000Z</time>
      </trkpt>
      <trkpt lat="47.28693" lon="-2.31191">
        <ele>20.799999237061</ele>
        <time>2021-07-11T07:28:31.000Z</time>
      </trkpt>
      <trkpt lat="47.287" lon="-2.31185">
        <ele>20.39999961853</ele>
        <time>2021-07-11T07:28:32.000Z</time>
      </trkpt>
      <trkpt lat="47.28706" lon="-2.31177">
        <ele>20.39999961853</ele>
        <time>2021-07-11T07:28:33.000Z</time>
      </trkpt>
      <trkpt lat="47.28712" lon="-2.31169">
        <ele>20.39999961853</ele>
        <time>2021-07-11T07:28:34.000Z</time>
      </trkpt>
      <trkpt lat="47.28721" lon="-2.31149">
        <ele>20.39999961853</ele>
        <time>2021-07-11T07:28:36.000Z</time>
      </trkpt>
      <trkpt lat="47.28727" lon="-2.31115">
        <ele>20</ele>
        <time>2021-07-11T07:28:39.000Z</time>
      </trkpt>
      <trkpt lat="47.28729" lon="-2.31104">
        <ele>19.60000038147</ele>
        <time>2021-07-11T07:28:40.000Z</time>
      </trkpt>
      <trkpt lat="47.28731" lon="-2.31093">
        <ele>19</ele>
        <time>2021-07-11T07:28:41.000Z</time>
      </trkpt>
      <trkpt lat="47.28733" lon="-2.31082">
        <ele>18.60000038147</ele>
        <time>2021-07-11T07:28:42.000Z</time>
      </trkpt>
      <trkpt lat="47.28736" lon="-2.31071">
        <ele>18.200000762939</ele>
        <time>2021-07-11T07:28:43.000Z</time>
      </trkpt>
      <trkpt lat="47.28742" lon="-2.31048">
        <ele>18.200000762939</ele>
        <time>2021-07-11T07:28:45.000Z</time>
      </trkpt>
      <trkpt lat="47.28753" lon="-2.31018">
        <ele>17.799999237061</ele>
        <time>2021-07-11T07:28:48.000Z</time>
      </trkpt>
      <trkpt lat="47.28757" lon="-2.31007">
        <ele>17.39999961853</ele>
        <time>2021-07-11T07:28:49.000Z</time>
      </trkpt>
      <trkpt lat="47.28761" lon="-2.30996">
        <ele>17</ele>
        <time>2021-07-11T07:28:50.000Z</time>
      </trkpt>
      <trkpt lat="47.28764" lon="-2.30986">
        <ele>16.60000038147</ele>
        <time>2021-07-11T07:28:51.000Z</time>
      </trkpt>
      <trkpt lat="47.28768" lon="-2.30974">
        <ele>16.200000762939</ele>
        <time>2021-07-11T07:28:52.000Z</time>
      </trkpt>
      <trkpt lat="47.28793" lon="-2.30915">
        <ele>15.800000190735</ele>
        <time>2021-07-11T07:28:58.000Z</time>
      </trkpt>
      <trkpt lat="47.28797" lon="-2.30906">
        <ele>15.39999961853</ele>
        <time>2021-07-11T07:28:59.000Z</time>
      </trkpt>
      <trkpt lat="47.28802" lon="-2.30897">
        <ele>15</ele>
        <time>2021-07-11T07:29:00.000Z</time>
      </trkpt>
      <trkpt lat="47.28806" lon="-2.30889">
        <ele>14.60000038147</ele>
        <time>2021-07-11T07:29:01.000Z</time>
      </trkpt>
      <trkpt lat="47.2881" lon="-2.3088">
        <ele>14.199999809265</ele>
        <time>2021-07-11T07:29:02.000Z</time>
      </trkpt>
      <trkpt lat="47.28833" lon="-2.30836">
        <ele>14.199999809265</ele>
        <time>2021-07-11T07:29:07.000Z</time>
      </trkpt>
      <trkpt lat="47.28837" lon="-2.30828">
        <ele>13.60000038147</ele>
        <time>2021-07-11T07:29:08.000Z</time>
      </trkpt>
      <trkpt lat="47.28842" lon="-2.30819">
        <ele>13.199999809265</ele>
        <time>2021-07-11T07:29:09.000Z</time>
      </trkpt>
      <trkpt lat="47.28846" lon="-2.30811">
        <ele>12.800000190735</ele>
        <time>2021-07-11T07:29:10.000Z</time>
      </trkpt>
      <trkpt lat="47.28851" lon="-2.30803">
        <ele>12.39999961853</ele>
        <time>2021-07-11T07:29:11.000Z</time>
      </trkpt>
      <trkpt lat="47.28856" lon="-2.30794">
        <ele>12</ele>
        <time>2021-07-11T07:29:12.000Z</time>
      </trkpt>
      <trkpt lat="47.28865" lon="-2.30778">
        <ele>12</ele>
        <time>2021-07-11T07:29:14.000Z</time>
      </trkpt>
      <trkpt lat="47.28898" lon="-2.30733">
        <ele>11.60000038147</ele>
        <time>2021-07-11T07:29:20.000Z</time>
      </trkpt>
      <trkpt lat="47.28903" lon="-2.30725">
        <ele>11.199999809265</ele>
        <time>2021-07-11T07:29:21.000Z</time>
      </trkpt>
      <trkpt lat="47.28909" lon="-2.30717">
        <ele>10.800000190735</ele>
        <time>2021-07-11T07:29:22.000Z</time>
      </trkpt>
      <trkpt lat="47.28914" lon="-2.30709">
        <ele>10.39999961853</ele>
        <time>2021-07-11T07:29:23.000Z</time>
      </trkpt>
      <trkpt lat="47.2892" lon="-2.30701">
        <ele>10</ele>
        <time>2021-07-11T07:29:24.000Z</time>
      </trkpt>
      <trkpt lat="47.28937" lon="-2.30676">
        <ele>10</ele>
        <time>2021-07-11T07:29:27.000Z</time>
      </trkpt>
      <trkpt lat="47.28943" lon="-2.30669">
        <ele>10</ele>
        <time>2021-07-11T07:29:28.000Z</time>
      </trkpt>
      <trkpt lat="47.2897" lon="-2.30643">
        <ele>10</ele>
        <time>2021-07-11T07:29:32.000Z</time>
      </trkpt>
      <trkpt lat="47.29002" lon="-2.30619">
        <ele>10</ele>
        <time>2021-07-11T07:29:37.000Z</time>
      </trkpt>
      <trkpt lat="47.29006" lon="-2.30601">
        <ele>10</ele>
        <time>2021-07-11T07:29:39.000Z</time>
      </trkpt>
      <trkpt lat="47.29004" lon="-2.30573">
        <ele>10</ele>
        <time>2021-07-11T07:29:42.000Z</time>
      </trkpt>
      <trkpt lat="47.29002" lon="-2.30564">
        <ele>10</ele>
        <time>2021-07-11T07:29:43.000Z</time>
      </trkpt>
      <trkpt lat="47.28992" lon="-2.30512">
        <ele>10</ele>
        <time>2021-07-11T07:29:49.000Z</time>
      </trkpt>
      <trkpt lat="47.28983" lon="-2.30444">
        <ele>10</ele>
        <time>2021-07-11T07:29:57.000Z</time>
      </trkpt>
      <trkpt lat="47.28977" lon="-2.30379">
        <ele>10</ele>
        <time>2021-07-11T07:30:04.000Z</time>
      </trkpt>
      <trkpt lat="47.28975" lon="-2.30303">
        <ele>10</ele>
        <time>2021-07-11T07:30:12.000Z</time>
      </trkpt>
      <trkpt lat="47.28973" lon="-2.30276">
        <ele>10</ele>
        <time>2021-07-11T07:30:15.000Z</time>
      </trkpt>
      <trkpt lat="47.28977" lon="-2.30262">
        <ele>10</ele>
        <time>2021-07-11T07:30:17.000Z</time>
      </trkpt>
      <trkpt lat="47.28981" lon="-2.30257">
        <ele>9</ele>
        <time>2021-07-11T07:30:18.000Z</time>
      </trkpt>
      <trkpt lat="47.28985" lon="-2.30256">
        <ele>8.6000003814697</ele>
        <time>2021-07-11T07:30:19.000Z</time>
      </trkpt>
      <trkpt lat="47.2899" lon="-2.30256">
        <ele>8.1999998092651</ele>
        <time>2021-07-11T07:30:20.000Z</time>
      </trkpt>
      <trkpt lat="47.28996" lon="-2.30256">
        <ele>7.8000001907349</ele>
        <time>2021-07-11T07:30:21.000Z</time>
      </trkpt>
      <trkpt lat="47.29007" lon="-2.30254">
        <ele>7.8000001907349</ele>
        <time>2021-07-11T07:30:23.000Z</time>
      </trkpt>
      <trkpt lat="47.29018" lon="-2.30251">
        <ele>7.8000001907349</ele>
        <time>2021-07-11T07:30:25.000Z</time>
      </trkpt>
      <trkpt lat="47.29059" lon="-2.30237">
        <ele>7.8000001907349</ele>
        <time>2021-07-11T07:30:32.000Z</time>
      </trkpt>
      <trkpt lat="47.29102" lon="-2.30216">
        <ele>7.8000001907349</ele>
        <time>2021-07-11T07:30:39.000Z</time>
      </trkpt>
      <trkpt lat="47.29153" lon="-2.30188">
        <ele>7.8000001907349</ele>
        <time>2021-07-11T07:30:47.000Z</time>
      </trkpt>
      <trkpt lat="47.29198" lon="-2.30164">
        <ele>7.8000001907349</ele>
        <time>2021-07-11T07:30:54.000Z</time>
      </trkpt>
      <trkpt lat="47.29244" lon="-2.30141">
        <ele>7.8000001907349</ele>
        <time>2021-07-11T07:31:01.000Z</time>
      </trkpt>
      <trkpt lat="47.29257" lon="-2.30137">
        <ele>7.8000001907349</ele>
        <time>2021-07-11T07:31:03.000Z</time>
      </trkpt>
      <trkpt lat="47.29274" lon="-2.30134">
        <ele>7.4000000953674</ele>
        <time>2021-07-11T07:31:06.000Z</time>
      </trkpt>
      <trkpt lat="47.2928" lon="-2.30133">
        <ele>6.5999999046326</ele>
        <time>2021-07-11T07:31:07.000Z</time>
      </trkpt>
      <trkpt lat="47.29285" lon="-2.30132">
        <ele>6.1999998092651</ele>
        <time>2021-07-11T07:31:08.000Z</time>
      </trkpt>
      <trkpt lat="47.2929" lon="-2.30132">
        <ele>5.8000001907349</ele>
        <time>2021-07-11T07:31:09.000Z</time>
      </trkpt>
      <trkpt lat="47.29305" lon="-2.30133">
        <ele>5.8000001907349</ele>
        <time>2021-07-11T07:31:12.000Z</time>
      </trkpt>
      <trkpt lat="47.29328" lon="-2.30132">
        <ele>5.8000001907349</ele>
        <time>2021-07-11T07:31:17.000Z</time>
      </trkpt>
      <trkpt lat="47.29334" lon="-2.3012">
        <ele>5.8000001907349</ele>
        <time>2021-07-11T07:31:20.000Z</time>
      </trkpt>
      <trkpt lat="47.29337" lon="-2.30109">
        <ele>5.8000001907349</ele>
        <time>2021-07-11T07:31:22.000Z</time>
      </trkpt>
      <trkpt lat="47.29341" lon="-2.30087">
        <ele>5.8000001907349</ele>
        <time>2021-07-11T07:31:25.000Z</time>
      </trkpt>
      <trkpt lat="47.29345" lon="-2.30032">
        <ele>5.8000001907349</ele>
        <time>2021-07-11T07:31:32.000Z</time>
      </trkpt>
      <trkpt lat="47.29347" lon="-2.30008">
        <ele>5.8000001907349</ele>
        <time>2021-07-11T07:31:37.000Z</time>
      </trkpt>
      <trkpt lat="47.29349" lon="-2.30005">
        <ele>5.8000001907349</ele>
        <time>2021-07-11T07:31:40.000Z</time>
      </trkpt>
      <trkpt lat="47.29351" lon="-2.30005">
        <ele>5.8000001907349</ele>
        <time>2021-07-11T07:31:41.000Z</time>
      </trkpt>
      <trkpt lat="47.29363" lon="-2.3001">
        <ele>5.8000001907349</ele>
        <time>2021-07-11T07:31:45.000Z</time>
      </trkpt>
      <trkpt lat="47.29388" lon="-2.30023">
        <ele>5.8000001907349</ele>
        <time>2021-07-11T07:31:50.000Z</time>
      </trkpt>
      <trkpt lat="47.29418" lon="-2.3003">
        <ele>5.8000001907349</ele>
        <time>2021-07-11T07:31:55.000Z</time>
      </trkpt>
      <trkpt lat="47.29424" lon="-2.3003">
        <ele>5.8000001907349</ele>
        <time>2021-07-11T07:31:56.000Z</time>
      </trkpt>
      <trkpt lat="47.29471" lon="-2.30027">
        <ele>5.8000001907349</ele>
        <time>2021-07-11T07:32:03.000Z</time>
      </trkpt>
      <trkpt lat="47.29504" lon="-2.30024">
        <ele>5.8000001907349</ele>
        <time>2021-07-11T07:32:08.000Z</time>
      </trkpt>
      <trkpt lat="47.2951" lon="-2.30022">
        <ele>5.8000001907349</ele>
        <time>2021-07-11T07:32:09.000Z</time>
      </trkpt>
      <trkpt lat="47.29528" lon="-2.30026">
        <ele>5.4000000953674</ele>
        <time>2021-07-11T07:32:12.000Z</time>
      </trkpt>
      <trkpt lat="47.29534" lon="-2.30027">
        <ele>5</ele>
        <time>2021-07-11T07:32:13.000Z</time>
      </trkpt>
      <trkpt lat="47.2954" lon="-2.30025">
        <ele>4.5999999046326</ele>
        <time>2021-07-11T07:32:14.000Z</time>
      </trkpt>
      <trkpt lat="47.29547" lon="-2.30023">
        <ele>4.1999998092651</ele>
        <time>2021-07-11T07:32:15.000Z</time>
      </trkpt>
      <trkpt lat="47.29553" lon="-2.3002">
        <ele>3.7999999523163</ele>
        <time>2021-07-11T07:32:16.000Z</time>
      </trkpt>
      <trkpt lat="47.29587" lon="-2.30009">
        <ele>3.7999999523163</ele>
        <time>2021-07-11T07:32:21.000Z</time>
      </trkpt>
      <trkpt lat="47.29612" lon="-2.30001">
        <ele>3.7999999523163</ele>
        <time>2021-07-11T07:32:25.000Z</time>
      </trkpt>
      <trkpt lat="47.29624" lon="-2.29996">
        <ele>3.7999999523163</ele>
        <time>2021-07-11T07:32:27.000Z</time>
      </trkpt>
      <trkpt lat="47.2964" lon="-2.29987">
        <ele>3.7999999523163</ele>
        <time>2021-07-11T07:32:30.000Z</time>
      </trkpt>
      <trkpt lat="47.29649" lon="-2.29983">
        <ele>3.7999999523163</ele>
        <time>2021-07-11T07:32:32.000Z</time>
      </trkpt>
      <trkpt lat="47.29657" lon="-2.2999">
        <ele>3.7999999523163</ele>
        <time>2021-07-11T07:32:34.000Z</time>
      </trkpt>
      <trkpt lat="47.29662" lon="-2.29994">
        <ele>3.7999999523163</ele>
        <time>2021-07-11T07:32:35.000Z</time>
      </trkpt>
      <trkpt lat="47.29683" lon="-2.3">
        <ele>3.7999999523163</ele>
        <time>2021-07-11T07:32:38.000Z</time>
      </trkpt>
      <trkpt lat="47.29691" lon="-2.3">
        <ele>3.7999999523163</ele>
        <time>2021-07-11T07:32:39.000Z</time>
      </trkpt>
      <trkpt lat="47.2972" lon="-2.29997">
        <ele>3.7999999523163</ele>
        <time>2021-07-11T07:32:43.000Z</time>
      </trkpt>
      <trkpt lat="47.29727" lon="-2.29995">
        <ele>3.7999999523163</ele>
        <time>2021-07-11T07:32:44.000Z</time>
      </trkpt>
      <trkpt lat="47.2976" lon="-2.29976">
        <ele>3.7999999523163</ele>
        <time>2021-07-11T07:32:49.000Z</time>
      </trkpt>
      <trkpt lat="47.2979" lon="-2.29955">
        <ele>3.7999999523163</ele>
        <time>2021-07-11T07:32:54.000Z</time>
      </trkpt>
      <trkpt lat="47.29811" lon="-2.29954">
        <ele>3.7999999523163</ele>
        <time>2021-07-11T07:32:57.000Z</time>
      </trkpt>
      <trkpt lat="47.29845" lon="-2.29953">
        <ele>3.7999999523163</ele>
        <time>2021-07-11T07:33:02.000Z</time>
      </trkpt>
      <trkpt lat="47.29852" lon="-2.29951">
        <ele>3.7999999523163</ele>
        <time>2021-07-11T07:33:03.000Z</time>
      </trkpt>
      <trkpt lat="47.29899" lon="-2.2994">
        <ele>3.7999999523163</ele>
        <time>2021-07-11T07:33:10.000Z</time>
      </trkpt>
      <trkpt lat="47.29909" lon="-2.29921">
        <ele>3.7999999523163</ele>
        <time>2021-07-11T07:33:13.000Z</time>
      </trkpt>
      <trkpt lat="47.29906" lon="-2.29906">
        <ele>3.7999999523163</ele>
        <time>2021-07-11T07:33:15.000Z</time>
      </trkpt>
      <trkpt lat="47.29903" lon="-2.29891">
        <ele>3.7999999523163</ele>
        <time>2021-07-11T07:33:17.000Z</time>
      </trkpt>
      <trkpt lat="47.29902" lon="-2.29884">
        <ele>3.7999999523163</ele>
        <time>2021-07-11T07:33:18.000Z</time>
      </trkpt>
      <trkpt lat="47.29901" lon="-2.29855">
        <ele>3.7999999523163</ele>
        <time>2021-07-11T07:33:22.000Z</time>
      </trkpt>
      <trkpt lat="47.29902" lon="-2.29848">
        <ele>3.7999999523163</ele>
        <time>2021-07-11T07:33:23.000Z</time>
      </trkpt>
      <trkpt lat="47.29915" lon="-2.29823">
        <ele>3.7999999523163</ele>
        <time>2021-07-11T07:33:27.000Z</time>
      </trkpt>
      <trkpt lat="47.2992" lon="-2.29819">
        <ele>3.7999999523163</ele>
        <time>2021-07-11T07:33:28.000Z</time>
      </trkpt>
      <trkpt lat="47.29936" lon="-2.29807">
        <ele>3.7999999523163</ele>
        <time>2021-07-11T07:33:32.000Z</time>
      </trkpt>
      <trkpt lat="47.29942" lon="-2.29803">
        <ele>3.7999999523163</ele>
        <time>2021-07-11T07:33:36.000Z</time>
      </trkpt>
      <trkpt lat="47.29942" lon="-2.29804">
        <ele>3.7999999523163</ele>
        <time>2021-07-11T07:33:37.000Z</time>
      </trkpt>
      <trkpt lat="47.29943" lon="-2.29803">
        <ele>3.7999999523163</ele>
        <time>2021-07-11T07:33:50.000Z</time>
      </trkpt>
      <trkpt lat="47.29945" lon="-2.29802">
        <ele>3.7999999523163</ele>
        <time>2021-07-11T07:33:51.000Z</time>
      </trkpt>
      <trkpt lat="47.29951" lon="-2.29786">
        <ele>3.7999999523163</ele>
        <time>2021-07-11T07:33:55.000Z</time>
      </trkpt>
      <trkpt lat="47.29943" lon="-2.2976">
        <ele>3.7999999523163</ele>
        <time>2021-07-11T07:33:59.000Z</time>
      </trkpt>
      <trkpt lat="47.29926" lon="-2.2971">
        <ele>3.7999999523163</ele>
        <time>2021-07-11T07:34:06.000Z</time>
      </trkpt>
      <trkpt lat="47.29917" lon="-2.29675">
        <ele>3.7999999523163</ele>
        <time>2021-07-11T07:34:12.000Z</time>
      </trkpt>
      <trkpt lat="47.29925" lon="-2.29663">
        <ele>3.7999999523163</ele>
        <time>2021-07-11T07:34:15.000Z</time>
      </trkpt>
      <trkpt lat="47.2993" lon="-2.2966">
        <ele>3.7999999523163</ele>
        <time>2021-07-11T07:34:16.000Z</time>
      </trkpt>
      <trkpt lat="47.29934" lon="-2.29655">
        <ele>3.7999999523163</ele>
        <time>2021-07-11T07:34:17.000Z</time>
      </trkpt>
      <trkpt lat="47.29942" lon="-2.29646">
        <ele>3.7999999523163</ele>
        <time>2021-07-11T07:34:19.000Z</time>
      </trkpt>
      <trkpt lat="47.29965" lon="-2.29635">
        <ele>3.7999999523163</ele>
        <time>2021-07-11T07:34:23.000Z</time>
      </trkpt>
      <trkpt lat="47.29972" lon="-2.29634">
        <ele>3.7999999523163</ele>
        <time>2021-07-11T07:34:24.000Z</time>
      </trkpt>
      <trkpt lat="47.30005" lon="-2.29631">
        <ele>3.7999999523163</ele>
        <time>2021-07-11T07:34:29.000Z</time>
      </trkpt>
      <trkpt lat="47.30041" lon="-2.29629">
        <ele>3.7999999523163</ele>
        <time>2021-07-11T07:34:35.000Z</time>
      </trkpt>
      <trkpt lat="47.30077" lon="-2.29638">
        <ele>3.7999999523163</ele>
        <time>2021-07-11T07:34:41.000Z</time>
      </trkpt>
      <trkpt lat="47.30113" lon="-2.2965">
        <ele>3.7999999523163</ele>
        <time>2021-07-11T07:34:47.000Z</time>
      </trkpt>
      <trkpt lat="47.30156" lon="-2.29664">
        <ele>3.7999999523163</ele>
        <time>2021-07-11T07:34:54.000Z</time>
      </trkpt>
      <trkpt lat="47.30174" lon="-2.29675">
        <ele>3.4000000953674</ele>
        <time>2021-07-11T07:34:57.000Z</time>
      </trkpt>
      <trkpt lat="47.3018" lon="-2.29677">
        <ele>3</ele>
        <time>2021-07-11T07:34:58.000Z</time>
      </trkpt>
      <trkpt lat="47.30186" lon="-2.2968">
        <ele>2.5999999046326</ele>
        <time>2021-07-11T07:34:59.000Z</time>
      </trkpt>
      <trkpt lat="47.30192" lon="-2.29682">
        <ele>2.2000000476837</ele>
        <time>2021-07-11T07:35:00.000Z</time>
      </trkpt>
      <trkpt lat="47.30198" lon="-2.29685">
        <ele>1.7999999523163</ele>
        <time>2021-07-11T07:35:01.000Z</time>
      </trkpt>
      <trkpt lat="47.3021" lon="-2.29691">
        <ele>1.7999999523163</ele>
        <time>2021-07-11T07:35:03.000Z</time>
      </trkpt>
      <trkpt lat="47.30216" lon="-2.29696">
        <ele>1.7999999523163</ele>
        <time>2021-07-11T07:35:04.000Z</time>
      </trkpt>
      <trkpt lat="47.30235" lon="-2.29704">
        <ele>1.7999999523163</ele>
        <time>2021-07-11T07:35:08.000Z</time>
      </trkpt>
      <trkpt lat="47.30243" lon="-2.29708">
        <ele>1.7999999523163</ele>
        <time>2021-07-11T07:35:12.000Z</time>
      </trkpt>
      <trkpt lat="47.30249" lon="-2.2971">
        <ele>1.7999999523163</ele>
        <time>2021-07-11T07:35:19.000Z</time>
      </trkpt>
      <trkpt lat="47.3025" lon="-2.29712">
        <ele>1.7999999523163</ele>
        <time>2021-07-11T07:35:21.000Z</time>
      </trkpt>
      <trkpt lat="47.30249" lon="-2.29715">
        <ele>1.7999999523163</ele>
        <time>2021-07-11T07:35:23.000Z</time>
      </trkpt>
      <trkpt lat="47.30246" lon="-2.2972">
        <ele>1.7999999523163</ele>
        <time>2021-07-11T07:35:25.000Z</time>
      </trkpt>
      <trkpt lat="47.30243" lon="-2.29726">
        <ele>1.7999999523163</ele>
        <time>2021-07-11T07:35:28.000Z</time>
      </trkpt>
      <trkpt lat="47.30241" lon="-2.29729">
        <ele>1.3999999761581</ele>
        <time>2021-07-11T07:35:30.000Z</time>
      </trkpt>
      <trkpt lat="47.3024" lon="-2.2973">
        <ele>0.80000001192093</ele>
        <time>2021-07-11T07:35:31.000Z</time>
      </trkpt>
      <trkpt lat="47.30239" lon="-2.29732">
        <ele>0.40000000596046</ele>
        <time>2021-07-11T07:35:32.000Z</time>
      </trkpt>
      <trkpt lat="47.30238" lon="-2.29733">
        <ele>2.6</ele>
        <time>2021-07-11T07:35:33.000Z</time>
      </trkpt>
      <trkpt lat="47.30237" lon="-2.29734">
        <ele>-0.40000000596046</ele>
        <time>2021-07-11T07:35:34.000Z</time>
      </trkpt>
      <trkpt lat="47.30236" lon="-2.29736">
        <ele>-0.40000000596046</ele>
        <time>2021-07-11T07:35:35.000Z</time>
      </trkpt>
      <trkpt lat="47.30228" lon="-2.29749">
        <ele>-0.40000000596046</ele>
        <time>2021-07-11T07:35:41.000Z</time>
      </trkpt>
      <trkpt lat="47.30217" lon="-2.29768">
        <ele>-0.40000000596046</ele>
        <time>2021-07-11T07:35:47.000Z</time>
      </trkpt>
      <trkpt lat="47.30206" lon="-2.29783">
        <ele>-0.40000000596046</ele>
        <time>2021-07-11T07:35:52.000Z</time>
      </trkpt>
      <trkpt lat="47.30191" lon="-2.29803">
        <ele>-0.40000000596046</ele>
        <time>2021-07-11T07:35:58.000Z</time>
      </trkpt>
      <trkpt lat="47.30184" lon="-2.29814">
        <ele>-0.40000000596046</ele>
        <time>2021-07-11T07:36:03.000Z</time>
      </trkpt>
      <trkpt lat="47.30175" lon="-2.29826">
        <ele>-0.40000000596046</ele>
        <time>2021-07-11T07:36:09.000Z</time>
      </trkpt>
      <trkpt lat="47.30161" lon="-2.29848">
        <ele>-0.40000000596046</ele>
        <time>2021-07-11T07:36:16.000Z</time>
      </trkpt>
      <trkpt lat="47.30144" lon="-2.29866">
        <ele>-0.40000000596046</ele>
        <time>2021-07-11T07:36:22.000Z</time>
      </trkpt>
      <trkpt lat="47.30124" lon="-2.29885">
        <ele>-0.40000000596046</ele>
        <time>2021-07-11T07:36:27.000Z</time>
      </trkpt>
      <trkpt lat="47.30107" lon="-2.29904">
        <ele>-0.40000000596046</ele>
        <time>2021-07-11T07:36:32.000Z</time>
      </trkpt>
      <trkpt lat="47.30095" lon="-2.29913">
        <ele>-0.40000000596046</ele>
        <time>2021-07-11T07:36:36.000Z</time>
      </trkpt>
      <trkpt lat="47.30092" lon="-2.29927">
        <ele>-0.40000000596046</ele>
        <time>2021-07-11T07:36:40.000Z</time>
      </trkpt>
      <trkpt lat="47.30097" lon="-2.29939">
        <ele>-0.40000000596046</ele>
        <time>2021-07-11T07:36:44.000Z</time>
      </trkpt>
      <trkpt lat="47.30096" lon="-2.29955">
        <ele>-0.40000000596046</ele>
        <time>2021-07-11T07:36:48.000Z</time>
      </trkpt>
      <trkpt lat="47.30095" lon="-2.29962">
        <ele>-0.40000000596046</ele>
        <time>2021-07-11T07:36:50.000Z</time>
      </trkpt>
      <trkpt lat="47.30097" lon="-2.2997">
        <ele>-0.40000000596046</ele>
        <time>2021-07-11T07:36:52.000Z</time>
      </trkpt>
      <trkpt lat="47.30105" lon="-2.29981">
        <ele>-0.40000000596046</ele>
        <time>2021-07-11T07:36:56.000Z</time>
      </trkpt>
      <trkpt lat="47.30113" lon="-2.29988">
        <ele>-0.40000000596046</ele>
        <time>2021-07-11T07:37:00.000Z</time>
      </trkpt>
      <trkpt lat="47.30124" lon="-2.30011">
        <ele>-0.40000000596046</ele>
        <time>2021-07-11T07:37:05.000Z</time>
      </trkpt>
      <trkpt lat="47.30127" lon="-2.30018">
        <ele>3</ele>
        <time>2021-07-11T07:37:06.000Z</time>
      </trkpt>
      <trkpt lat="47.3013" lon="-2.30026">
        <ele>0.40000000596046</ele>
        <time>2021-07-11T07:37:07.000Z</time>
      </trkpt>
      <trkpt lat="47.30132" lon="-2.30033">
        <ele>0.80000001192093</ele>
        <time>2021-07-11T07:37:08.000Z</time>
      </trkpt>
      <trkpt lat="47.30135" lon="-2.3004">
        <ele>1.3999999761581</ele>
        <time>2021-07-11T07:37:09.000Z</time>
      </trkpt>
      <trkpt lat="47.30139" lon="-2.30047">
        <ele>1.7999999523163</ele>
        <time>2021-07-11T07:37:10.000Z</time>
      </trkpt>
      <trkpt lat="47.30143" lon="-2.30054">
        <ele>1.7999999523163</ele>
        <time>2021-07-11T07:37:11.000Z</time>
      </trkpt>
      <trkpt lat="47.3016" lon="-2.30096">
        <ele>1.7999999523163</ele>
        <time>2021-07-11T07:37:16.000Z</time>
      </trkpt>
      <trkpt lat="47.30169" lon="-2.30118">
        <ele>1.7999999523163</ele>
        <time>2021-07-11T07:37:19.000Z</time>
      </trkpt>
      <trkpt lat="47.30178" lon="-2.30139">
        <ele>1.7999999523163</ele>
        <time>2021-07-11T07:37:22.000Z</time>
      </trkpt>
      <trkpt lat="47.30183" lon="-2.30153">
        <ele>2.2000000476837</ele>
        <time>2021-07-11T07:37:24.000Z</time>
      </trkpt>
      <trkpt lat="47.30186" lon="-2.30161">
        <ele>2.5999999046326</ele>
        <time>2021-07-11T07:37:25.000Z</time>
      </trkpt>
      <trkpt lat="47.30189" lon="-2.30168">
        <ele>3</ele>
        <time>2021-07-11T07:37:26.000Z</time>
      </trkpt>
      <trkpt lat="47.30192" lon="-2.30176">
        <ele>3.4000000953674</ele>
        <time>2021-07-11T07:37:27.000Z</time>
      </trkpt>
      <trkpt lat="47.30194" lon="-2.30183">
        <ele>3.7999999523163</ele>
        <time>2021-07-11T07:37:28.000Z</time>
      </trkpt>
      <trkpt lat="47.30197" lon="-2.30189">
        <ele>3.7999999523163</ele>
        <time>2021-07-11T07:37:29.000Z</time>
      </trkpt>
      <trkpt lat="47.30201" lon="-2.30202">
        <ele>3.7999999523163</ele>
        <time>2021-07-11T07:37:32.000Z</time>
      </trkpt>
      <trkpt lat="47.30202" lon="-2.30208">
        <ele>3.7999999523163</ele>
        <time>2021-07-11T07:37:35.000Z</time>
      </trkpt>
      <trkpt lat="47.30201" lon="-2.30213">
        <ele>3.7999999523163</ele>
        <time>2021-07-11T07:37:51.000Z</time>
      </trkpt>
      <trkpt lat="47.30193" lon="-2.30228">
        <ele>3.7999999523163</ele>
        <time>2021-07-11T07:37:56.000Z</time>
      </trkpt>
      <trkpt lat="47.30182" lon="-2.30236">
        <ele>3.7999999523163</ele>
        <time>2021-07-11T07:37:59.000Z</time>
      </trkpt>
      <trkpt lat="47.30173" lon="-2.30241">
        <ele>3.7999999523163</ele>
        <time>2021-07-11T07:38:01.000Z</time>
      </trkpt>
      <trkpt lat="47.30162" lon="-2.30245">
        <ele>3.7999999523163</ele>
        <time>2021-07-11T07:38:03.000Z</time>
      </trkpt>
      <trkpt lat="47.30145" lon="-2.3025">
        <ele>3.7999999523163</ele>
        <time>2021-07-11T07:38:06.000Z</time>
      </trkpt>
      <trkpt lat="47.30114" lon="-2.30261">
        <ele>3.7999999523163</ele>
        <time>2021-07-11T07:38:12.000Z</time>
      </trkpt>
      <trkpt lat="47.3011" lon="-2.30267">
        <ele>3.7999999523163</ele>
        <time>2021-07-11T07:38:13.000Z</time>
      </trkpt>
      <trkpt lat="47.30106" lon="-2.30289">
        <ele>3.7999999523163</ele>
        <time>2021-07-11T07:38:16.000Z</time>
      </trkpt>
      <trkpt lat="47.30113" lon="-2.3032">
        <ele>3.7999999523163</ele>
        <time>2021-07-11T07:38:20.000Z</time>
      </trkpt>
      <trkpt lat="47.30134" lon="-2.30394">
        <ele>3.7999999523163</ele>
        <time>2021-07-11T07:38:29.000Z</time>
      </trkpt>
      <trkpt lat="47.30151" lon="-2.30447">
        <ele>3.7999999523163</ele>
        <time>2021-07-11T07:38:35.000Z</time>
      </trkpt>
      <trkpt lat="47.30169" lon="-2.30481">
        <ele>3.7999999523163</ele>
        <time>2021-07-11T07:38:40.000Z</time>
      </trkpt>
      <trkpt lat="47.30173" lon="-2.30485">
        <ele>3.7999999523163</ele>
        <time>2021-07-11T07:38:41.000Z</time>
      </trkpt>
      <trkpt lat="47.30193" lon="-2.3051">
        <ele>3.7999999523163</ele>
        <time>2021-07-11T07:38:47.000Z</time>
      </trkpt>
      <trkpt lat="47.30221" lon="-2.30535">
        <ele>3.7999999523163</ele>
        <time>2021-07-11T07:38:54.000Z</time>
      </trkpt>
      <trkpt lat="47.30224" lon="-2.3054">
        <ele>3.7999999523163</ele>
        <time>2021-07-11T07:38:55.000Z</time>
      </trkpt>
      <trkpt lat="47.3023" lon="-2.30564">
        <ele>3.7999999523163</ele>
        <time>2021-07-11T07:38:59.000Z</time>
      </trkpt>
      <trkpt lat="47.30226" lon="-2.30582">
        <ele>3.7999999523163</ele>
        <time>2021-07-11T07:39:02.000Z</time>
      </trkpt>
      <trkpt lat="47.3021" lon="-2.30598">
        <ele>3.7999999523163</ele>
        <time>2021-07-11T07:39:06.000Z</time>
      </trkpt>
      <trkpt lat="47.30201" lon="-2.30606">
        <ele>3.7999999523163</ele>
        <time>2021-07-11T07:39:08.000Z</time>
      </trkpt>
      <trkpt lat="47.30195" lon="-2.30617">
        <ele>3.7999999523163</ele>
        <time>2021-07-11T07:39:10.000Z</time>
      </trkpt>
      <trkpt lat="47.30191" lon="-2.30622">
        <ele>3.7999999523163</ele>
        <time>2021-07-11T07:39:11.000Z</time>
      </trkpt>
      <trkpt lat="47.30179" lon="-2.30631">
        <ele>3.7999999523163</ele>
        <time>2021-07-11T07:39:14.000Z</time>
      </trkpt>
      <trkpt lat="47.30167" lon="-2.30646">
        <ele>3.7999999523163</ele>
        <time>2021-07-11T07:39:17.000Z</time>
      </trkpt>
      <trkpt lat="47.30166" lon="-2.30673">
        <ele>3.7999999523163</ele>
        <time>2021-07-11T07:39:20.000Z</time>
      </trkpt>
      <trkpt lat="47.30168" lon="-2.30692">
        <ele>3.7999999523163</ele>
        <time>2021-07-11T07:39:22.000Z</time>
      </trkpt>
      <trkpt lat="47.3017" lon="-2.3072">
        <ele>3.7999999523163</ele>
        <time>2021-07-11T07:39:25.000Z</time>
      </trkpt>
      <trkpt lat="47.30173" lon="-2.30744">
        <ele>3.7999999523163</ele>
        <time>2021-07-11T07:39:28.000Z</time>
      </trkpt>
      <trkpt lat="47.30175" lon="-2.30748">
        <ele>3.7999999523163</ele>
        <time>2021-07-11T07:39:29.000Z</time>
      </trkpt>
      <trkpt lat="47.3018" lon="-2.30765">
        <ele>3.7999999523163</ele>
        <time>2021-07-11T07:39:33.000Z</time>
      </trkpt>
      <trkpt lat="47.30179" lon="-2.30781">
        <ele>3.7999999523163</ele>
        <time>2021-07-11T07:39:36.000Z</time>
      </trkpt>
      <trkpt lat="47.3018" lon="-2.30795">
        <ele>3.7999999523163</ele>
        <time>2021-07-11T07:39:38.000Z</time>
      </trkpt>
      <trkpt lat="47.30192" lon="-2.3082">
        <ele>3.7999999523163</ele>
        <time>2021-07-11T07:39:42.000Z</time>
      </trkpt>
      <trkpt lat="47.3021" lon="-2.30839">
        <ele>3.7999999523163</ele>
        <time>2021-07-11T07:39:46.000Z</time>
      </trkpt>
      <trkpt lat="47.30219" lon="-2.30848">
        <ele>3.7999999523163</ele>
        <time>2021-07-11T07:39:48.000Z</time>
      </trkpt>
      <trkpt lat="47.30247" lon="-2.30879">
        <ele>3.7999999523163</ele>
        <time>2021-07-11T07:39:54.000Z</time>
      </trkpt>
      <trkpt lat="47.3026" lon="-2.30895">
        <ele>4.1999998092651</ele>
        <time>2021-07-11T07:39:57.000Z</time>
      </trkpt>
      <trkpt lat="47.30264" lon="-2.309">
        <ele>4.5999999046326</ele>
        <time>2021-07-11T07:39:58.000Z</time>
      </trkpt>
      <trkpt lat="47.30268" lon="-2.30906">
        <ele>5</ele>
        <time>2021-07-11T07:39:59.000Z</time>
      </trkpt>
      <trkpt lat="47.30272" lon="-2.30911">
        <ele>5.4000000953674</ele>
        <time>2021-07-11T07:40:00.000Z</time>
      </trkpt>
      <trkpt lat="47.30276" lon="-2.30917">
        <ele>5.8000001907349</ele>
        <time>2021-07-11T07:40:01.000Z</time>
      </trkpt>
      <trkpt lat="47.30299" lon="-2.30949">
        <ele>6.4000000953674</ele>
        <time>2021-07-11T07:40:07.000Z</time>
      </trkpt>
      <trkpt lat="47.30302" lon="-2.30954">
        <ele>6.8000001907349</ele>
        <time>2021-07-11T07:40:08.000Z</time>
      </trkpt>
      <trkpt lat="47.30306" lon="-2.30959">
        <ele>7.4000000953674</ele>
        <time>2021-07-11T07:40:09.000Z</time>
      </trkpt>
      <trkpt lat="47.30309" lon="-2.30965">
        <ele>8.1999998092651</ele>
        <time>2021-07-11T07:40:10.000Z</time>
      </trkpt>
      <trkpt lat="47.30323" lon="-2.30986">
        <ele>8.1999998092651</ele>
        <time>2021-07-11T07:40:14.000Z</time>
      </trkpt>
      <trkpt lat="47.3033" lon="-2.30995">
        <ele>8.6000003814697</ele>
        <time>2021-07-11T07:40:16.000Z</time>
      </trkpt>
      <trkpt lat="47.30333" lon="-2.31">
        <ele>9</ele>
        <time>2021-07-11T07:40:17.000Z</time>
      </trkpt>
      <trkpt lat="47.30336" lon="-2.31004">
        <ele>9.3999996185303</ele>
        <time>2021-07-11T07:40:18.000Z</time>
      </trkpt>
      <trkpt lat="47.3034" lon="-2.31008">
        <ele>9.8000001907349</ele>
        <time>2021-07-11T07:40:19.000Z</time>
      </trkpt>
      <trkpt lat="47.30343" lon="-2.31011">
        <ele>10.199999809265</ele>
        <time>2021-07-11T07:40:20.000Z</time>
      </trkpt>
      <trkpt lat="47.30346" lon="-2.31016">
        <ele>10.199999809265</ele>
        <time>2021-07-11T07:40:21.000Z</time>
      </trkpt>
      <trkpt lat="47.30366" lon="-2.31041">
        <ele>10.60000038147</ele>
        <time>2021-07-11T07:40:26.000Z</time>
      </trkpt>
      <trkpt lat="47.3037" lon="-2.31047">
        <ele>11</ele>
        <time>2021-07-11T07:40:27.000Z</time>
      </trkpt>
      <trkpt lat="47.30374" lon="-2.31052">
        <ele>11.60000038147</ele>
        <time>2021-07-11T07:40:28.000Z</time>
      </trkpt>
      <trkpt lat="47.30377" lon="-2.31057">
        <ele>12</ele>
        <time>2021-07-11T07:40:29.000Z</time>
      </trkpt>
      <trkpt lat="47.30382" lon="-2.31063">
        <ele>12.39999961853</ele>
        <time>2021-07-11T07:40:30.000Z</time>
      </trkpt>
      <trkpt lat="47.30393" lon="-2.31079">
        <ele>12.39999961853</ele>
        <time>2021-07-11T07:40:33.000Z</time>
      </trkpt>
      <trkpt lat="47.3041" lon="-2.31097">
        <ele>12.39999961853</ele>
        <time>2021-07-11T07:40:37.000Z</time>
      </trkpt>
      <trkpt lat="47.3042" lon="-2.31104">
        <ele>12.39999961853</ele>
        <time>2021-07-11T07:40:39.000Z</time>
      </trkpt>
      <trkpt lat="47.30446" lon="-2.31128">
        <ele>12.800000190735</ele>
        <time>2021-07-11T07:40:45.000Z</time>
      </trkpt>
      <trkpt lat="47.30449" lon="-2.31133">
        <ele>13.199999809265</ele>
        <time>2021-07-11T07:40:46.000Z</time>
      </trkpt>
      <trkpt lat="47.30451" lon="-2.31139">
        <ele>13.60000038147</ele>
        <time>2021-07-11T07:40:47.000Z</time>
      </trkpt>
      <trkpt lat="47.30454" lon="-2.31146">
        <ele>14</ele>
        <time>2021-07-11T07:40:48.000Z</time>
      </trkpt>
      <trkpt lat="47.30456" lon="-2.31153">
        <ele>14.39999961853</ele>
        <time>2021-07-11T07:40:49.000Z</time>
      </trkpt>
      <trkpt lat="47.30458" lon="-2.31159">
        <ele>14.39999961853</ele>
        <time>2021-07-11T07:40:50.000Z</time>
      </trkpt>
      <trkpt lat="47.30467" lon="-2.31192">
        <ele>14.39999961853</ele>
        <time>2021-07-11T07:40:55.000Z</time>
      </trkpt>
      <trkpt lat="47.30478" lon="-2.31226">
        <ele>14.39999961853</ele>
        <time>2021-07-11T07:41:00.000Z</time>
      </trkpt>
      <trkpt lat="47.30481" lon="-2.31232">
        <ele>14.39999961853</ele>
        <time>2021-07-11T07:41:01.000Z</time>
      </trkpt>
      <trkpt lat="47.30486" lon="-2.31245">
        <ele>14.39999961853</ele>
        <time>2021-07-11T07:41:03.000Z</time>
      </trkpt>
      <trkpt lat="47.30495" lon="-2.31263">
        <ele>14.39999961853</ele>
        <time>2021-07-11T07:41:06.000Z</time>
      </trkpt>
      <trkpt lat="47.30518" lon="-2.31298">
        <ele>14.39999961853</ele>
        <time>2021-07-11T07:41:12.000Z</time>
      </trkpt>
      <trkpt lat="47.30548" lon="-2.31345">
        <ele>14.39999961853</ele>
        <time>2021-07-11T07:41:20.000Z</time>
      </trkpt>
      <trkpt lat="47.3056" lon="-2.31363">
        <ele>14.39999961853</ele>
        <time>2021-07-11T07:41:23.000Z</time>
      </trkpt>
      <trkpt lat="47.3057" lon="-2.3138">
        <ele>14.39999961853</ele>
        <time>2021-07-11T07:41:26.000Z</time>
      </trkpt>
      <trkpt lat="47.30587" lon="-2.31411">
        <ele>14.39999961853</ele>
        <time>2021-07-11T07:41:31.000Z</time>
      </trkpt>
      <trkpt lat="47.30593" lon="-2.31424">
        <ele>14.39999961853</ele>
        <time>2021-07-11T07:41:33.000Z</time>
      </trkpt>
      <trkpt lat="47.30615" lon="-2.3148">
        <ele>14.39999961853</ele>
        <time>2021-07-11T07:41:41.000Z</time>
      </trkpt>
      <trkpt lat="47.30631" lon="-2.3152">
        <ele>14.39999961853</ele>
        <time>2021-07-11T07:41:47.000Z</time>
      </trkpt>
      <trkpt lat="47.30652" lon="-2.3157">
        <ele>14.39999961853</ele>
        <time>2021-07-11T07:41:54.000Z</time>
      </trkpt>
      <trkpt lat="47.30666" lon="-2.31601">
        <ele>14</ele>
        <time>2021-07-11T07:41:58.000Z</time>
      </trkpt>
      <trkpt lat="47.3067" lon="-2.31609">
        <ele>13.60000038147</ele>
        <time>2021-07-11T07:41:59.000Z</time>
      </trkpt>
      <trkpt lat="47.30674" lon="-2.31617">
        <ele>13.199999809265</ele>
        <time>2021-07-11T07:42:00.000Z</time>
      </trkpt>
      <trkpt lat="47.30678" lon="-2.31625">
        <ele>12.800000190735</ele>
        <time>2021-07-11T07:42:01.000Z</time>
      </trkpt>
      <trkpt lat="47.30681" lon="-2.31634">
        <ele>12.39999961853</ele>
        <time>2021-07-11T07:42:02.000Z</time>
      </trkpt>
      <trkpt lat="47.30689" lon="-2.31661">
        <ele>12.39999961853</ele>
        <time>2021-07-11T07:42:05.000Z</time>
      </trkpt>
      <trkpt lat="47.30695" lon="-2.31677">
        <ele>12.39999961853</ele>
        <time>2021-07-11T07:42:07.000Z</time>
      </trkpt>
      <trkpt lat="47.30704" lon="-2.31696">
        <ele>12.39999961853</ele>
        <time>2021-07-11T07:42:10.000Z</time>
      </trkpt>
      <trkpt lat="47.30724" lon="-2.31747">
        <ele>12.39999961853</ele>
        <time>2021-07-11T07:42:17.000Z</time>
      </trkpt>
      <trkpt lat="47.30727" lon="-2.31754">
        <ele>12.39999961853</ele>
        <time>2021-07-11T07:42:18.000Z</time>
      </trkpt>
      <trkpt lat="47.30735" lon="-2.31759">
        <ele>12.39999961853</ele>
        <time>2021-07-11T07:42:20.000Z</time>
      </trkpt>
      <trkpt lat="47.30747" lon="-2.31755">
        <ele>12.39999961853</ele>
        <time>2021-07-11T07:42:23.000Z</time>
      </trkpt>
      <trkpt lat="47.30756" lon="-2.31748">
        <ele>12.39999961853</ele>
        <time>2021-07-11T07:42:25.000Z</time>
      </trkpt>
      <trkpt lat="47.30768" lon="-2.31735">
        <ele>12.39999961853</ele>
        <time>2021-07-11T07:42:28.000Z</time>
      </trkpt>
      <trkpt lat="47.30807" lon="-2.31688">
        <ele>12.39999961853</ele>
        <time>2021-07-11T07:42:37.000Z</time>
      </trkpt>
      <trkpt lat="47.30823" lon="-2.31669">
        <ele>12.800000190735</ele>
        <time>2021-07-11T07:42:41.000Z</time>
      </trkpt>
      <trkpt lat="47.30827" lon="-2.31664">
        <ele>13.199999809265</ele>
        <time>2021-07-11T07:42:42.000Z</time>
      </trkpt>
      <trkpt lat="47.30831" lon="-2.31659">
        <ele>13.800000190735</ele>
        <time>2021-07-11T07:42:43.000Z</time>
      </trkpt>
      <trkpt lat="47.30835" lon="-2.31655">
        <ele>14.199999809265</ele>
        <time>2021-07-11T07:42:44.000Z</time>
      </trkpt>
      <trkpt lat="47.30839" lon="-2.3165">
        <ele>14.800000190735</ele>
        <time>2021-07-11T07:42:45.000Z</time>
      </trkpt>
      <trkpt lat="47.30848" lon="-2.31645">
        <ele>14.800000190735</ele>
        <time>2021-07-11T07:42:47.000Z</time>
      </trkpt>
      <trkpt lat="47.30852" lon="-2.31647">
        <ele>14.800000190735</ele>
        <time>2021-07-11T07:42:48.000Z</time>
      </trkpt>
      <trkpt lat="47.30864" lon="-2.31661">
        <ele>14.800000190735</ele>
        <time>2021-07-11T07:42:51.000Z</time>
      </trkpt>
      <trkpt lat="47.30893" lon="-2.31696">
        <ele>15.199999809265</ele>
        <time>2021-07-11T07:42:58.000Z</time>
      </trkpt>
      <trkpt lat="47.30897" lon="-2.31701">
        <ele>15.60000038147</ele>
        <time>2021-07-11T07:42:59.000Z</time>
      </trkpt>
      <trkpt lat="47.30901" lon="-2.31707">
        <ele>16</ele>
        <time>2021-07-11T07:43:00.000Z</time>
      </trkpt>
      <trkpt lat="47.30905" lon="-2.31712">
        <ele>16.39999961853</ele>
        <time>2021-07-11T07:43:01.000Z</time>
      </trkpt>
      <trkpt lat="47.30909" lon="-2.31717">
        <ele>16.799999237061</ele>
        <time>2021-07-11T07:43:02.000Z</time>
      </trkpt>
      <trkpt lat="47.30921" lon="-2.31732">
        <ele>16.799999237061</ele>
        <time>2021-07-11T07:43:05.000Z</time>
      </trkpt>
      <trkpt lat="47.30934" lon="-2.31748">
        <ele>16.799999237061</ele>
        <time>2021-07-11T07:43:08.000Z</time>
      </trkpt>
      <trkpt lat="47.30948" lon="-2.31762">
        <ele>16.799999237061</ele>
        <time>2021-07-11T07:43:11.000Z</time>
      </trkpt>
      <trkpt lat="47.30981" lon="-2.31798">
        <ele>16.799999237061</ele>
        <time>2021-07-11T07:43:18.000Z</time>
      </trkpt>
      <trkpt lat="47.30994" lon="-2.31809">
        <ele>16.799999237061</ele>
        <time>2021-07-11T07:43:21.000Z</time>
      </trkpt>
      <trkpt lat="47.31001" lon="-2.31818">
        <ele>16.799999237061</ele>
        <time>2021-07-11T07:43:23.000Z</time>
      </trkpt>
      <trkpt lat="47.31004" lon="-2.31828">
        <ele>16.799999237061</ele>
        <time>2021-07-11T07:43:25.000Z</time>
      </trkpt>
      <trkpt lat="47.31004" lon="-2.31834">
        <ele>16.799999237061</ele>
        <time>2021-07-11T07:43:26.000Z</time>
      </trkpt>
      <trkpt lat="47.30994" lon="-2.31855">
        <ele>16.799999237061</ele>
        <time>2021-07-11T07:43:29.000Z</time>
      </trkpt>
      <trkpt lat="47.30991" lon="-2.31862">
        <ele>16.799999237061</ele>
        <time>2021-07-11T07:43:30.000Z</time>
      </trkpt>
      <trkpt lat="47.30986" lon="-2.31885">
        <ele>16.799999237061</ele>
        <time>2021-07-11T07:43:33.000Z</time>
      </trkpt>
      <trkpt lat="47.30985" lon="-2.31893">
        <ele>16.799999237061</ele>
        <time>2021-07-11T07:43:34.000Z</time>
      </trkpt>
      <trkpt lat="47.30981" lon="-2.31908">
        <ele>16.799999237061</ele>
        <time>2021-07-11T07:43:36.000Z</time>
      </trkpt>
      <trkpt lat="47.30975" lon="-2.31921">
        <ele>16.799999237061</ele>
        <time>2021-07-11T07:43:38.000Z</time>
      </trkpt>
      <trkpt lat="47.30973" lon="-2.31927">
        <ele>16.799999237061</ele>
        <time>2021-07-11T07:43:39.000Z</time>
      </trkpt>
      <trkpt lat="47.30967" lon="-2.31948">
        <ele>16.799999237061</ele>
        <time>2021-07-11T07:43:42.000Z</time>
      </trkpt>
      <trkpt lat="47.30969" lon="-2.31978">
        <ele>16.799999237061</ele>
        <time>2021-07-11T07:43:46.000Z</time>
      </trkpt>
      <trkpt lat="47.30971" lon="-2.31985">
        <ele>16.799999237061</ele>
        <time>2021-07-11T07:43:47.000Z</time>
      </trkpt>
      <trkpt lat="47.30985" lon="-2.32023">
        <ele>16.799999237061</ele>
        <time>2021-07-11T07:43:53.000Z</time>
      </trkpt>
      <trkpt lat="47.30999" lon="-2.32054">
        <ele>16.799999237061</ele>
        <time>2021-07-11T07:43:59.000Z</time>
      </trkpt>
      <trkpt lat="47.31003" lon="-2.3206">
        <ele>16.799999237061</ele>
        <time>2021-07-11T07:44:00.000Z</time>
      </trkpt>
      <trkpt lat="47.31021" lon="-2.32088">
        <ele>16.799999237061</ele>
        <time>2021-07-11T07:44:06.000Z</time>
      </trkpt>
      <trkpt lat="47.31049" lon="-2.32128">
        <ele>16.799999237061</ele>
        <time>2021-07-11T07:44:14.000Z</time>
      </trkpt>
      <trkpt lat="47.3106" lon="-2.32147">
        <ele>16.799999237061</ele>
        <time>2021-07-11T07:44:18.000Z</time>
      </trkpt>
      <trkpt lat="47.31071" lon="-2.32165">
        <ele>17.200000762939</ele>
        <time>2021-07-11T07:44:22.000Z</time>
      </trkpt>
      <trkpt lat="47.31073" lon="-2.32169">
        <ele>17.60000038147</ele>
        <time>2021-07-11T07:44:23.000Z</time>
      </trkpt>
      <trkpt lat="47.31076" lon="-2.32173">
        <ele>18</ele>
        <time>2021-07-11T07:44:24.000Z</time>
      </trkpt>
      <trkpt lat="47.31078" lon="-2.32177">
        <ele>18.39999961853</ele>
        <time>2021-07-11T07:44:25.000Z</time>
      </trkpt>
      <trkpt lat="47.3108" lon="-2.32181">
        <ele>18.799999237061</ele>
        <time>2021-07-11T07:44:26.000Z</time>
      </trkpt>
      <trkpt lat="47.31088" lon="-2.32198">
        <ele>18.799999237061</ele>
        <time>2021-07-11T07:44:30.000Z</time>
      </trkpt>
      <trkpt lat="47.31101" lon="-2.32232">
        <ele>18.799999237061</ele>
        <time>2021-07-11T07:44:38.000Z</time>
      </trkpt>
      <trkpt lat="47.31103" lon="-2.32236">
        <ele>19.39999961853</ele>
        <time>2021-07-11T07:44:39.000Z</time>
      </trkpt>
      <trkpt lat="47.31105" lon="-2.32241">
        <ele>19.799999237061</ele>
        <time>2021-07-11T07:44:40.000Z</time>
      </trkpt>
      <trkpt lat="47.31106" lon="-2.32245">
        <ele>20.60000038147</ele>
        <time>2021-07-11T07:44:41.000Z</time>
      </trkpt>
      <trkpt lat="47.31108" lon="-2.32248">
        <ele>21.200000762939</ele>
        <time>2021-07-11T07:44:42.000Z</time>
      </trkpt>
      <trkpt lat="47.31114" lon="-2.32262">
        <ele>21.200000762939</ele>
        <time>2021-07-11T07:44:45.000Z</time>
      </trkpt>
      <trkpt lat="47.31121" lon="-2.32278">
        <ele>21.60000038147</ele>
        <time>2021-07-11T07:44:48.000Z</time>
      </trkpt>
      <trkpt lat="47.31124" lon="-2.32284">
        <ele>22</ele>
        <time>2021-07-11T07:44:49.000Z</time>
      </trkpt>
      <trkpt lat="47.31127" lon="-2.3229">
        <ele>22.39999961853</ele>
        <time>2021-07-11T07:44:50.000Z</time>
      </trkpt>
      <trkpt lat="47.31129" lon="-2.32295">
        <ele>22.799999237061</ele>
        <time>2021-07-11T07:44:51.000Z</time>
      </trkpt>
      <trkpt lat="47.31131" lon="-2.323">
        <ele>23.200000762939</ele>
        <time>2021-07-11T07:44:52.000Z</time>
      </trkpt>
      <trkpt lat="47.31133" lon="-2.32306">
        <ele>23.200000762939</ele>
        <time>2021-07-11T07:44:53.000Z</time>
      </trkpt>
      <trkpt lat="47.31141" lon="-2.32337">
        <ele>23.200000762939</ele>
        <time>2021-07-11T07:44:58.000Z</time>
      </trkpt>
      <trkpt lat="47.31144" lon="-2.32373">
        <ele>23.200000762939</ele>
        <time>2021-07-11T07:45:04.000Z</time>
      </trkpt>
      <trkpt lat="47.31145" lon="-2.32384">
        <ele>24</ele>
        <time>2021-07-11T07:45:06.000Z</time>
      </trkpt>
      <trkpt lat="47.31145" lon="-2.32389">
        <ele>24.39999961853</ele>
        <time>2021-07-11T07:45:07.000Z</time>
      </trkpt>
      <trkpt lat="47.31145" lon="-2.32395">
        <ele>24.799999237061</ele>
        <time>2021-07-11T07:45:08.000Z</time>
      </trkpt>
      <trkpt lat="47.31145" lon="-2.324">
        <ele>25.200000762939</ele>
        <time>2021-07-11T07:45:09.000Z</time>
      </trkpt>
      <trkpt lat="47.31145" lon="-2.32409">
        <ele>25.200000762939</ele>
        <time>2021-07-11T07:45:11.000Z</time>
      </trkpt>
      <trkpt lat="47.31146" lon="-2.32413">
        <ele>25.200000762939</ele>
        <time>2021-07-11T07:45:12.000Z</time>
      </trkpt>
      <trkpt lat="47.31151" lon="-2.32419">
        <ele>25.200000762939</ele>
        <time>2021-07-11T07:45:14.000Z</time>
      </trkpt>
      <trkpt lat="47.31162" lon="-2.32423">
        <ele>25.200000762939</ele>
        <time>2021-07-11T07:45:17.000Z</time>
      </trkpt>
      <trkpt lat="47.31173" lon="-2.3243">
        <ele>25.200000762939</ele>
        <time>2021-07-11T07:45:20.000Z</time>
      </trkpt>
      <trkpt lat="47.31179" lon="-2.32435">
        <ele>25.200000762939</ele>
        <time>2021-07-11T07:45:23.000Z</time>
      </trkpt>
      <trkpt lat="47.3118" lon="-2.32442">
        <ele>25.200000762939</ele>
        <time>2021-07-11T07:45:35.000Z</time>
      </trkpt>
      <trkpt lat="47.31179" lon="-2.32459">
        <ele>25.200000762939</ele>
        <time>2021-07-11T07:45:39.000Z</time>
      </trkpt>
      <trkpt lat="47.31178" lon="-2.32489">
        <ele>25.200000762939</ele>
        <time>2021-07-11T07:45:44.000Z</time>
      </trkpt>
      <trkpt lat="47.31177" lon="-2.32541">
        <ele>25.799999237061</ele>
        <time>2021-07-11T07:45:51.000Z</time>
      </trkpt>
      <trkpt lat="47.31177" lon="-2.32548">
        <ele>26.200000762939</ele>
        <time>2021-07-11T07:45:52.000Z</time>
      </trkpt>
      <trkpt lat="47.31177" lon="-2.32556">
        <ele>26.60000038147</ele>
        <time>2021-07-11T07:45:53.000Z</time>
      </trkpt>
      <trkpt lat="47.31176" lon="-2.32564">
        <ele>27</ele>
        <time>2021-07-11T07:45:54.000Z</time>
      </trkpt>
      <trkpt lat="47.31176" lon="-2.32572">
        <ele>27.39999961853</ele>
        <time>2021-07-11T07:45:55.000Z</time>
      </trkpt>
      <trkpt lat="47.31176" lon="-2.32595">
        <ele>27.39999961853</ele>
        <time>2021-07-11T07:45:58.000Z</time>
      </trkpt>
      <trkpt lat="47.31183" lon="-2.32644">
        <ele>27.39999961853</ele>
        <time>2021-07-11T07:46:04.000Z</time>
      </trkpt>
      <trkpt lat="47.31197" lon="-2.32689">
        <ele>27.39999961853</ele>
        <time>2021-07-11T07:46:10.000Z</time>
      </trkpt>
      <trkpt lat="47.31209" lon="-2.32728">
        <ele>27.799999237061</ele>
        <time>2021-07-11T07:46:15.000Z</time>
      </trkpt>
      <trkpt lat="47.31213" lon="-2.32734">
        <ele>28.200000762939</ele>
        <time>2021-07-11T07:46:16.000Z</time>
      </trkpt>
      <trkpt lat="47.31217" lon="-2.32738">
        <ele>28.60000038147</ele>
        <time>2021-07-11T07:46:17.000Z</time>
      </trkpt>
      <trkpt lat="47.31222" lon="-2.32741">
        <ele>29</ele>
        <time>2021-07-11T07:46:18.000Z</time>
      </trkpt>
      <trkpt lat="47.31227" lon="-2.32744">
        <ele>29.39999961853</ele>
        <time>2021-07-11T07:46:19.000Z</time>
      </trkpt>
      <trkpt lat="47.31232" lon="-2.32747">
        <ele>29.39999961853</ele>
        <time>2021-07-11T07:46:20.000Z</time>
      </trkpt>
      <trkpt lat="47.31246" lon="-2.32757">
        <ele>29.39999961853</ele>
        <time>2021-07-11T07:46:23.000Z</time>
      </trkpt>
      <trkpt lat="47.31255" lon="-2.32764">
        <ele>29.39999961853</ele>
        <time>2021-07-11T07:46:25.000Z</time>
      </trkpt>
      <trkpt lat="47.31277" lon="-2.32777">
        <ele>29.39999961853</ele>
        <time>2021-07-11T07:46:29.000Z</time>
      </trkpt>
      <trkpt lat="47.31285" lon="-2.32788">
        <ele>29.39999961853</ele>
        <time>2021-07-11T07:46:31.000Z</time>
      </trkpt>
      <trkpt lat="47.31292" lon="-2.32802">
        <ele>29.39999961853</ele>
        <time>2021-07-11T07:46:33.000Z</time>
      </trkpt>
      <trkpt lat="47.31304" lon="-2.32822">
        <ele>29.39999961853</ele>
        <time>2021-07-11T07:46:36.000Z</time>
      </trkpt>
      <trkpt lat="47.31329" lon="-2.32858">
        <ele>29.39999961853</ele>
        <time>2021-07-11T07:46:42.000Z</time>
      </trkpt>
      <trkpt lat="47.31347" lon="-2.32881">
        <ele>29.39999961853</ele>
        <time>2021-07-11T07:46:47.000Z</time>
      </trkpt>
      <trkpt lat="47.31351" lon="-2.32885">
        <ele>29</ele>
        <time>2021-07-11T07:46:49.000Z</time>
      </trkpt>
      <trkpt lat="47.31353" lon="-2.32886">
        <ele>28.60000038147</ele>
        <time>2021-07-11T07:46:50.000Z</time>
      </trkpt>
      <trkpt lat="47.31356" lon="-2.32888">
        <ele>28.200000762939</ele>
        <time>2021-07-11T07:46:51.000Z</time>
      </trkpt>
      <trkpt lat="47.31358" lon="-2.32888">
        <ele>27.60000038147</ele>
        <time>2021-07-11T07:46:52.000Z</time>
      </trkpt>
      <trkpt lat="47.3136" lon="-2.32889">
        <ele>27.200000762939</ele>
        <time>2021-07-11T07:46:53.000Z</time>
      </trkpt>
      <trkpt lat="47.31361" lon="-2.3289">
        <ele>27.200000762939</ele>
        <time>2021-07-11T07:46:54.000Z</time>
      </trkpt>
      <trkpt lat="47.31362" lon="-2.32891">
        <ele>27.200000762939</ele>
        <time>2021-07-11T07:46:56.000Z</time>
      </trkpt>
      <trkpt lat="47.31358" lon="-2.32894">
        <ele>27.200000762939</ele>
        <time>2021-07-11T07:47:01.000Z</time>
      </trkpt>
      <trkpt lat="47.31353" lon="-2.32901">
        <ele>27.200000762939</ele>
        <time>2021-07-11T07:47:04.000Z</time>
      </trkpt>
      <trkpt lat="47.31343" lon="-2.32923">
        <ele>27.200000762939</ele>
        <time>2021-07-11T07:47:10.000Z</time>
      </trkpt>
      <trkpt lat="47.31331" lon="-2.32948">
        <ele>27.200000762939</ele>
        <time>2021-07-11T07:47:15.000Z</time>
      </trkpt>
      <trkpt lat="47.31307" lon="-2.32994">
        <ele>27.200000762939</ele>
        <time>2021-07-11T07:47:23.000Z</time>
      </trkpt>
      <trkpt lat="47.31294" lon="-2.33015">
        <ele>27.200000762939</ele>
        <time>2021-07-11T07:47:27.000Z</time>
      </trkpt>
      <trkpt lat="47.31285" lon="-2.33029">
        <ele>27.200000762939</ele>
        <time>2021-07-11T07:47:30.000Z</time>
      </trkpt>
      <trkpt lat="47.31272" lon="-2.33048">
        <ele>27.200000762939</ele>
        <time>2021-07-11T07:47:35.000Z</time>
      </trkpt>
      <trkpt lat="47.31251" lon="-2.33085">
        <ele>27.200000762939</ele>
        <time>2021-07-11T07:47:42.000Z</time>
      </trkpt>
      <trkpt lat="47.31249" lon="-2.3309">
        <ele>27.200000762939</ele>
        <time>2021-07-11T07:47:43.000Z</time>
      </trkpt>
      <trkpt lat="47.31239" lon="-2.33111">
        <ele>27.60000038147</ele>
        <time>2021-07-11T07:47:47.000Z</time>
      </trkpt>
      <trkpt lat="47.31237" lon="-2.33116">
        <ele>28</ele>
        <time>2021-07-11T07:47:48.000Z</time>
      </trkpt>
      <trkpt lat="47.31236" lon="-2.33122">
        <ele>28.39999961853</ele>
        <time>2021-07-11T07:47:49.000Z</time>
      </trkpt>
      <trkpt lat="47.31234" lon="-2.33126">
        <ele>28.799999237061</ele>
        <time>2021-07-11T07:47:50.000Z</time>
      </trkpt>
      <trkpt lat="47.31232" lon="-2.3313">
        <ele>29.200000762939</ele>
        <time>2021-07-11T07:47:51.000Z</time>
      </trkpt>
      <trkpt lat="47.31229" lon="-2.33141">
        <ele>29.200000762939</ele>
        <time>2021-07-11T07:47:54.000Z</time>
      </trkpt>
      <trkpt lat="47.31229" lon="-2.33145">
        <ele>29.200000762939</ele>
        <time>2021-07-11T07:47:57.000Z</time>
      </trkpt>
      <trkpt lat="47.31231" lon="-2.33147">
        <ele>29.200000762939</ele>
        <time>2021-07-11T07:47:58.000Z</time>
      </trkpt>
      <trkpt lat="47.31251" lon="-2.33152">
        <ele>29.200000762939</ele>
        <time>2021-07-11T07:48:03.000Z</time>
      </trkpt>
      <trkpt lat="47.31259" lon="-2.33155">
        <ele>29.200000762939</ele>
        <time>2021-07-11T07:48:04.000Z</time>
      </trkpt>
      <trkpt lat="47.31277" lon="-2.33164">
        <ele>29.200000762939</ele>
        <time>2021-07-11T07:48:07.000Z</time>
      </trkpt>
      <trkpt lat="47.31309" lon="-2.33188">
        <ele>29.200000762939</ele>
        <time>2021-07-11T07:48:14.000Z</time>
      </trkpt>
      <trkpt lat="47.31347" lon="-2.33223">
        <ele>29.200000762939</ele>
        <time>2021-07-11T07:48:22.000Z</time>
      </trkpt>
      <trkpt lat="47.31384" lon="-2.33249">
        <ele>29.200000762939</ele>
        <time>2021-07-11T07:48:29.000Z</time>
      </trkpt>
      <trkpt lat="47.31423" lon="-2.33278">
        <ele>29.200000762939</ele>
        <time>2021-07-11T07:48:37.000Z</time>
      </trkpt>
      <trkpt lat="47.31452" lon="-2.33314">
        <ele>29.799999237061</ele>
        <time>2021-07-11T07:48:44.000Z</time>
      </trkpt>
      <trkpt lat="47.31455" lon="-2.3332">
        <ele>30.200000762939</ele>
        <time>2021-07-11T07:48:45.000Z</time>
      </trkpt>
      <trkpt lat="47.31459" lon="-2.33325">
        <ele>30.60000038147</ele>
        <time>2021-07-11T07:48:46.000Z</time>
      </trkpt>
      <trkpt lat="47.31462" lon="-2.33331">
        <ele>31</ele>
        <time>2021-07-11T07:48:47.000Z</time>
      </trkpt>
      <trkpt lat="47.31465" lon="-2.33338">
        <ele>31.60000038147</ele>
        <time>2021-07-11T07:48:48.000Z</time>
      </trkpt>
      <trkpt lat="47.31472" lon="-2.33353">
        <ele>31.60000038147</ele>
        <time>2021-07-11T07:48:50.000Z</time>
      </trkpt>
      <trkpt lat="47.31479" lon="-2.33366">
        <ele>31.60000038147</ele>
        <time>2021-07-11T07:48:52.000Z</time>
      </trkpt>
      <trkpt lat="47.3149" lon="-2.33369">
        <ele>31.60000038147</ele>
        <time>2021-07-11T07:48:54.000Z</time>
      </trkpt>
      <trkpt lat="47.31506" lon="-2.33359">
        <ele>31.60000038147</ele>
        <time>2021-07-11T07:48:57.000Z</time>
      </trkpt>
      <trkpt lat="47.31547" lon="-2.33337">
        <ele>31.60000038147</ele>
        <time>2021-07-11T07:49:04.000Z</time>
      </trkpt>
      <trkpt lat="47.31586" lon="-2.33319">
        <ele>31.60000038147</ele>
        <time>2021-07-11T07:49:11.000Z</time>
      </trkpt>
      <trkpt lat="47.31626" lon="-2.33295">
        <ele>31.60000038147</ele>
        <time>2021-07-11T07:49:18.000Z</time>
      </trkpt>
      <trkpt lat="47.31668" lon="-2.33271">
        <ele>31.60000038147</ele>
        <time>2021-07-11T07:49:25.000Z</time>
      </trkpt>
      <trkpt lat="47.31675" lon="-2.3327">
        <ele>31.60000038147</ele>
        <time>2021-07-11T07:49:26.000Z</time>
      </trkpt>
      <trkpt lat="47.31695" lon="-2.3326">
        <ele>31.60000038147</ele>
        <time>2021-07-11T07:49:29.000Z</time>
      </trkpt>
      <trkpt lat="47.31714" lon="-2.3325">
        <ele>31</ele>
        <time>2021-07-11T07:49:32.000Z</time>
      </trkpt>
      <trkpt lat="47.31721" lon="-2.33248">
        <ele>30.60000038147</ele>
        <time>2021-07-11T07:49:33.000Z</time>
      </trkpt>
      <trkpt lat="47.31728" lon="-2.33245">
        <ele>30.200000762939</ele>
        <time>2021-07-11T07:49:34.000Z</time>
      </trkpt>
      <trkpt lat="47.31733" lon="-2.33243">
        <ele>29.799999237061</ele>
        <time>2021-07-11T07:49:35.000Z</time>
      </trkpt>
      <trkpt lat="47.31739" lon="-2.33243">
        <ele>29.200000762939</ele>
        <time>2021-07-11T07:49:36.000Z</time>
      </trkpt>
      <trkpt lat="47.31743" lon="-2.33242">
        <ele>29.200000762939</ele>
        <time>2021-07-11T07:49:37.000Z</time>
      </trkpt>
      <trkpt lat="47.31747" lon="-2.33246">
        <ele>29.200000762939</ele>
        <time>2021-07-11T07:49:38.000Z</time>
      </trkpt>
      <trkpt lat="47.31754" lon="-2.33253">
        <ele>28.799999237061</ele>
        <time>2021-07-11T07:49:40.000Z</time>
      </trkpt>
      <trkpt lat="47.31756" lon="-2.33258">
        <ele>28.39999961853</ele>
        <time>2021-07-11T07:49:41.000Z</time>
      </trkpt>
      <trkpt lat="47.31759" lon="-2.33263">
        <ele>28</ele>
        <time>2021-07-11T07:49:42.000Z</time>
      </trkpt>
      <trkpt lat="47.3176" lon="-2.33269">
        <ele>27.60000038147</ele>
        <time>2021-07-11T07:49:43.000Z</time>
      </trkpt>
      <trkpt lat="47.31762" lon="-2.33276">
        <ele>27.200000762939</ele>
        <time>2021-07-11T07:49:44.000Z</time>
      </trkpt>
      <trkpt lat="47.31764" lon="-2.33283">
        <ele>27.200000762939</ele>
        <time>2021-07-11T07:49:45.000Z</time>
      </trkpt>
      <trkpt lat="47.31768" lon="-2.33297">
        <ele>27.200000762939</ele>
        <time>2021-07-11T07:49:47.000Z</time>
      </trkpt>
      <trkpt lat="47.31775" lon="-2.33311">
        <ele>27.200000762939</ele>
        <time>2021-07-11T07:49:49.000Z</time>
      </trkpt>
      <trkpt lat="47.31785" lon="-2.33317">
        <ele>27.200000762939</ele>
        <time>2021-07-11T07:49:52.000Z</time>
      </trkpt>
      <trkpt lat="47.3179" lon="-2.33316">
        <ele>26.60000038147</ele>
        <time>2021-07-11T07:49:54.000Z</time>
      </trkpt>
      <trkpt lat="47.31794" lon="-2.33316">
        <ele>26.200000762939</ele>
        <time>2021-07-11T07:49:55.000Z</time>
      </trkpt>
      <trkpt lat="47.31798" lon="-2.33314">
        <ele>25.200000762939</ele>
        <time>2021-07-11T07:49:56.000Z</time>
      </trkpt>
      <trkpt lat="47.31803" lon="-2.33313">
        <ele>24.799999237061</ele>
        <time>2021-07-11T07:49:57.000Z</time>
      </trkpt>
      <trkpt lat="47.31808" lon="-2.3331">
        <ele>24.200000762939</ele>
        <time>2021-07-11T07:49:58.000Z</time>
      </trkpt>
      <trkpt lat="47.31815" lon="-2.33307">
        <ele>23.60000038147</ele>
        <time>2021-07-11T07:49:59.000Z</time>
      </trkpt>
      <trkpt lat="47.3182" lon="-2.33304">
        <ele>23</ele>
        <time>2021-07-11T07:50:00.000Z</time>
      </trkpt>
      <trkpt lat="47.31824" lon="-2.33301">
        <ele>22.39999961853</ele>
        <time>2021-07-11T07:50:01.000Z</time>
      </trkpt>
      <trkpt lat="47.31828" lon="-2.33296">
        <ele>21.799999237061</ele>
        <time>2021-07-11T07:50:02.000Z</time>
      </trkpt>
      <trkpt lat="47.31837" lon="-2.33279">
        <ele>21.799999237061</ele>
        <time>2021-07-11T07:50:05.000Z</time>
      </trkpt>
      <trkpt lat="47.3184" lon="-2.33272">
        <ele>21.799999237061</ele>
        <time>2021-07-11T07:50:06.000Z</time>
      </trkpt>
      <trkpt lat="47.31854" lon="-2.33226">
        <ele>21.799999237061</ele>
        <time>2021-07-11T07:50:11.000Z</time>
      </trkpt>
      <trkpt lat="47.31856" lon="-2.33203">
        <ele>21.39999961853</ele>
        <time>2021-07-11T07:50:13.000Z</time>
      </trkpt>
      <trkpt lat="47.31858" lon="-2.33189">
        <ele>21</ele>
        <time>2021-07-11T07:50:14.000Z</time>
      </trkpt>
      <trkpt lat="47.31859" lon="-2.33176">
        <ele>20.39999961853</ele>
        <time>2021-07-11T07:50:15.000Z</time>
      </trkpt>
      <trkpt lat="47.31861" lon="-2.33164">
        <ele>20</ele>
        <time>2021-07-11T07:50:16.000Z</time>
      </trkpt>
      <trkpt lat="47.31862" lon="-2.33154">
        <ele>19.39999961853</ele>
        <time>2021-07-11T07:50:17.000Z</time>
      </trkpt>
      <trkpt lat="47.31866" lon="-2.33122">
        <ele>19</ele>
        <time>2021-07-11T07:50:20.000Z</time>
      </trkpt>
      <trkpt lat="47.31867" lon="-2.3311">
        <ele>18.200000762939</ele>
        <time>2021-07-11T07:50:21.000Z</time>
      </trkpt>
      <trkpt lat="47.31867" lon="-2.33098">
        <ele>17.799999237061</ele>
        <time>2021-07-11T07:50:22.000Z</time>
      </trkpt>
      <trkpt lat="47.31869" lon="-2.33087">
        <ele>17.200000762939</ele>
        <time>2021-07-11T07:50:23.000Z</time>
      </trkpt>
      <trkpt lat="47.31876" lon="-2.33058">
        <ele>16.799999237061</ele>
        <time>2021-07-11T07:50:25.000Z</time>
      </trkpt>
      <trkpt lat="47.31877" lon="-2.33046">
        <ele>16.39999961853</ele>
        <time>2021-07-11T07:50:26.000Z</time>
      </trkpt>
      <trkpt lat="47.31878" lon="-2.33033">
        <ele>16</ele>
        <time>2021-07-11T07:50:27.000Z</time>
      </trkpt>
      <trkpt lat="47.31878" lon="-2.33022">
        <ele>15.60000038147</ele>
        <time>2021-07-11T07:50:28.000Z</time>
      </trkpt>
      <trkpt lat="47.31878" lon="-2.3301">
        <ele>15.199999809265</ele>
        <time>2021-07-11T07:50:29.000Z</time>
      </trkpt>
      <trkpt lat="47.31879" lon="-2.32986">
        <ele>15.199999809265</ele>
        <time>2021-07-11T07:50:31.000Z</time>
      </trkpt>
      <trkpt lat="47.3188" lon="-2.32977">
        <ele>15.199999809265</ele>
        <time>2021-07-11T07:50:32.000Z</time>
      </trkpt>
      <trkpt lat="47.31881" lon="-2.3295">
        <ele>15.199999809265</ele>
        <time>2021-07-11T07:50:35.000Z</time>
      </trkpt>
      <trkpt lat="47.31883" lon="-2.32932">
        <ele>15.199999809265</ele>
        <time>2021-07-11T07:50:37.000Z</time>
      </trkpt>
      <trkpt lat="47.31885" lon="-2.32892">
        <ele>15.199999809265</ele>
        <time>2021-07-11T07:50:41.000Z</time>
      </trkpt>
      <trkpt lat="47.31886" lon="-2.3288">
        <ele>15.199999809265</ele>
        <time>2021-07-11T07:50:42.000Z</time>
      </trkpt>
      <trkpt lat="47.31887" lon="-2.3282">
        <ele>15.199999809265</ele>
        <time>2021-07-11T07:50:48.000Z</time>
      </trkpt>
      <trkpt lat="47.31884" lon="-2.32766">
        <ele>15.199999809265</ele>
        <time>2021-07-11T07:50:54.000Z</time>
      </trkpt>
      <trkpt lat="47.3188" lon="-2.3275">
        <ele>15.60000038147</ele>
        <time>2021-07-11T07:50:56.000Z</time>
      </trkpt>
      <trkpt lat="47.31877" lon="-2.32744">
        <ele>16</ele>
        <time>2021-07-11T07:50:57.000Z</time>
      </trkpt>
      <trkpt lat="47.31874" lon="-2.32738">
        <ele>16.39999961853</ele>
        <time>2021-07-11T07:50:58.000Z</time>
      </trkpt>
      <trkpt lat="47.31872" lon="-2.32733">
        <ele>16.799999237061</ele>
        <time>2021-07-11T07:50:59.000Z</time>
      </trkpt>
      <trkpt lat="47.3187" lon="-2.32727">
        <ele>17.200000762939</ele>
        <time>2021-07-11T07:51:00.000Z</time>
      </trkpt>
      <trkpt lat="47.31858" lon="-2.32695">
        <ele>17.200000762939</ele>
        <time>2021-07-11T07:51:05.000Z</time>
      </trkpt>
      <trkpt lat="47.31847" lon="-2.32667">
        <ele>17.200000762939</ele>
        <time>2021-07-11T07:51:09.000Z</time>
      </trkpt>
      <trkpt lat="47.31843" lon="-2.32652">
        <ele>17.200000762939</ele>
        <time>2021-07-11T07:51:11.000Z</time>
      </trkpt>
      <trkpt lat="47.31839" lon="-2.32637">
        <ele>17.60000038147</ele>
        <time>2021-07-11T07:51:13.000Z</time>
      </trkpt>
      <trkpt lat="47.31837" lon="-2.32631">
        <ele>18</ele>
        <time>2021-07-11T07:51:14.000Z</time>
      </trkpt>
      <trkpt lat="47.31835" lon="-2.32624">
        <ele>18.39999961853</ele>
        <time>2021-07-11T07:51:15.000Z</time>
      </trkpt>
      <trkpt lat="47.31833" lon="-2.32617">
        <ele>18.799999237061</ele>
        <time>2021-07-11T07:51:16.000Z</time>
      </trkpt>
      <trkpt lat="47.31831" lon="-2.32609">
        <ele>19.200000762939</ele>
        <time>2021-07-11T07:51:17.000Z</time>
      </trkpt>
      <trkpt lat="47.31821" lon="-2.32569">
        <ele>19.200000762939</ele>
        <time>2021-07-11T07:51:23.000Z</time>
      </trkpt>
      <trkpt lat="47.31815" lon="-2.32548">
        <ele>19.60000038147</ele>
        <time>2021-07-11T07:51:26.000Z</time>
      </trkpt>
      <trkpt lat="47.31813" lon="-2.32542">
        <ele>20</ele>
        <time>2021-07-11T07:51:27.000Z</time>
      </trkpt>
      <trkpt lat="47.31812" lon="-2.32536">
        <ele>20.39999961853</ele>
        <time>2021-07-11T07:51:28.000Z</time>
      </trkpt>
      <trkpt lat="47.3181" lon="-2.3253">
        <ele>20.799999237061</ele>
        <time>2021-07-11T07:51:29.000Z</time>
      </trkpt>
      <trkpt lat="47.31808" lon="-2.32525">
        <ele>21.200000762939</ele>
        <time>2021-07-11T07:51:30.000Z</time>
      </trkpt>
      <trkpt lat="47.31798" lon="-2.32491">
        <ele>21.200000762939</ele>
        <time>2021-07-11T07:51:36.000Z</time>
      </trkpt>
      <trkpt lat="47.31796" lon="-2.32486">
        <ele>21.799999237061</ele>
        <time>2021-07-11T07:51:37.000Z</time>
      </trkpt>
      <trkpt lat="47.31795" lon="-2.3248">
        <ele>22.200000762939</ele>
        <time>2021-07-11T07:51:38.000Z</time>
      </trkpt>
      <trkpt lat="47.31793" lon="-2.32476">
        <ele>22.60000038147</ele>
        <time>2021-07-11T07:51:39.000Z</time>
      </trkpt>
      <trkpt lat="47.31792" lon="-2.32471">
        <ele>23.200000762939</ele>
        <time>2021-07-11T07:51:40.000Z</time>
      </trkpt>
      <trkpt lat="47.3179" lon="-2.32464">
        <ele>23.60000038147</ele>
        <time>2021-07-11T07:51:41.000Z</time>
      </trkpt>
      <trkpt lat="47.31788" lon="-2.32457">
        <ele>23.60000038147</ele>
        <time>2021-07-11T07:51:42.000Z</time>
      </trkpt>
      <trkpt lat="47.31786" lon="-2.32443">
        <ele>23.60000038147</ele>
        <time>2021-07-11T07:51:44.000Z</time>
      </trkpt>
      <trkpt lat="47.31785" lon="-2.32436">
        <ele>24</ele>
        <time>2021-07-11T07:51:45.000Z</time>
      </trkpt>
      <trkpt lat="47.31784" lon="-2.32429">
        <ele>24.39999961853</ele>
        <time>2021-07-11T07:51:46.000Z</time>
      </trkpt>
      <trkpt lat="47.31782" lon="-2.32424">
        <ele>24.799999237061</ele>
        <time>2021-07-11T07:51:47.000Z</time>
      </trkpt>
      <trkpt lat="47.31781" lon="-2.32418">
        <ele>25.39999961853</ele>
        <time>2021-07-11T07:51:48.000Z</time>
      </trkpt>
      <trkpt lat="47.3178" lon="-2.32412">
        <ele>25.799999237061</ele>
        <time>2021-07-11T07:51:49.000Z</time>
      </trkpt>
      <trkpt lat="47.31773" lon="-2.32367">
        <ele>25.799999237061</ele>
        <time>2021-07-11T07:51:56.000Z</time>
      </trkpt>
      <trkpt lat="47.3177" lon="-2.3235">
        <ele>26.200000762939</ele>
        <time>2021-07-11T07:51:59.000Z</time>
      </trkpt>
      <trkpt lat="47.31768" lon="-2.32344">
        <ele>26.60000038147</ele>
        <time>2021-07-11T07:52:00.000Z</time>
      </trkpt>
      <trkpt lat="47.31767" lon="-2.32338">
        <ele>27</ele>
        <time>2021-07-11T07:52:01.000Z</time>
      </trkpt>
      <trkpt lat="47.31766" lon="-2.32333">
        <ele>27.39999961853</ele>
        <time>2021-07-11T07:52:02.000Z</time>
      </trkpt>
      <trkpt lat="47.31765" lon="-2.32327">
        <ele>27.799999237061</ele>
        <time>2021-07-11T07:52:03.000Z</time>
      </trkpt>
      <trkpt lat="47.31757" lon="-2.32288">
        <ele>27.799999237061</ele>
        <time>2021-07-11T07:52:10.000Z</time>
      </trkpt>
      <trkpt lat="47.31752" lon="-2.32258">
        <ele>27.799999237061</ele>
        <time>2021-07-11T07:52:16.000Z</time>
      </trkpt>
      <trkpt lat="47.31749" lon="-2.3224">
        <ele>27.799999237061</ele>
        <time>2021-07-11T07:52:22.000Z</time>
      </trkpt>
      <trkpt lat="47.31748" lon="-2.32238">
        <ele>27.799999237061</ele>
        <time>2021-07-11T07:52:25.000Z</time>
      </trkpt>
      <trkpt lat="47.31753" lon="-2.32233">
        <ele>27.799999237061</ele>
        <time>2021-07-11T07:52:50.000Z</time>
      </trkpt>
      <trkpt lat="47.31759" lon="-2.32231">
        <ele>27.799999237061</ele>
        <time>2021-07-11T07:52:52.000Z</time>
      </trkpt>
      <trkpt lat="47.31783" lon="-2.32227">
        <ele>27.799999237061</ele>
        <time>2021-07-11T07:52:59.000Z</time>
      </trkpt>
      <trkpt lat="47.31817" lon="-2.32224">
        <ele>27.799999237061</ele>
        <time>2021-07-11T07:53:06.000Z</time>
      </trkpt>
      <trkpt lat="47.31845" lon="-2.32219">
        <ele>27.799999237061</ele>
        <time>2021-07-11T07:53:11.000Z</time>
      </trkpt>
      <trkpt lat="47.31856" lon="-2.32214">
        <ele>27.39999961853</ele>
        <time>2021-07-11T07:53:13.000Z</time>
      </trkpt>
      <trkpt lat="47.31863" lon="-2.32212">
        <ele>26.799999237061</ele>
        <time>2021-07-11T07:53:14.000Z</time>
      </trkpt>
      <trkpt lat="47.31869" lon="-2.32209">
        <ele>26.200000762939</ele>
        <time>2021-07-11T07:53:15.000Z</time>
      </trkpt>
      <trkpt lat="47.31878" lon="-2.32207">
        <ele>25.799999237061</ele>
        <time>2021-07-11T07:53:16.000Z</time>
      </trkpt>
      <trkpt lat="47.31886" lon="-2.32205">
        <ele>25.200000762939</ele>
        <time>2021-07-11T07:53:17.000Z</time>
      </trkpt>
      <trkpt lat="47.31894" lon="-2.32204">
        <ele>25.200000762939</ele>
        <time>2021-07-11T07:53:18.000Z</time>
      </trkpt>
      <trkpt lat="47.31909" lon="-2.32203">
        <ele>24.799999237061</ele>
        <time>2021-07-11T07:53:20.000Z</time>
      </trkpt>
      <trkpt lat="47.31917" lon="-2.32204">
        <ele>24.200000762939</ele>
        <time>2021-07-11T07:53:21.000Z</time>
      </trkpt>
      <trkpt lat="47.31926" lon="-2.32206">
        <ele>23.799999237061</ele>
        <time>2021-07-11T07:53:22.000Z</time>
      </trkpt>
      <trkpt lat="47.31935" lon="-2.32208">
        <ele>23.200000762939</ele>
        <time>2021-07-11T07:53:23.000Z</time>
      </trkpt>
      <trkpt lat="47.31943" lon="-2.3221">
        <ele>22.60000038147</ele>
        <time>2021-07-11T07:53:24.000Z</time>
      </trkpt>
      <trkpt lat="47.31949" lon="-2.32212">
        <ele>22.200000762939</ele>
        <time>2021-07-11T07:53:25.000Z</time>
      </trkpt>
      <trkpt lat="47.31953" lon="-2.32216">
        <ele>21.60000038147</ele>
        <time>2021-07-11T07:53:26.000Z</time>
      </trkpt>
      <trkpt lat="47.31956" lon="-2.32221">
        <ele>21</ele>
        <time>2021-07-11T07:53:27.000Z</time>
      </trkpt>
      <trkpt lat="47.31957" lon="-2.32226">
        <ele>20.200000762939</ele>
        <time>2021-07-11T07:53:28.000Z</time>
      </trkpt>
      <trkpt lat="47.31957" lon="-2.32232">
        <ele>19.60000038147</ele>
        <time>2021-07-11T07:53:29.000Z</time>
      </trkpt>
      <trkpt lat="47.31954" lon="-2.32236">
        <ele>18.799999237061</ele>
        <time>2021-07-11T07:53:30.000Z</time>
      </trkpt>
      <trkpt lat="47.31952" lon="-2.32241">
        <ele>18.200000762939</ele>
        <time>2021-07-11T07:53:31.000Z</time>
      </trkpt>
      <trkpt lat="47.31951" lon="-2.32246">
        <ele>18.200000762939</ele>
        <time>2021-07-11T07:53:32.000Z</time>
      </trkpt>
      <trkpt lat="47.31951" lon="-2.32266">
        <ele>18.200000762939</ele>
        <time>2021-07-11T07:53:36.000Z</time>
      </trkpt>
      <trkpt lat="47.31956" lon="-2.32264">
        <ele>18.200000762939</ele>
        <time>2021-07-11T07:53:37.000Z</time>
      </trkpt>
      <trkpt lat="47.3196" lon="-2.3226">
        <ele>17.200000762939</ele>
        <time>2021-07-11T07:53:38.000Z</time>
      </trkpt>
      <trkpt lat="47.31963" lon="-2.32254">
        <ele>16.799999237061</ele>
        <time>2021-07-11T07:53:39.000Z</time>
      </trkpt>
      <trkpt lat="47.31967" lon="-2.32247">
        <ele>16.39999961853</ele>
        <time>2021-07-11T07:53:40.000Z</time>
      </trkpt>
      <trkpt lat="47.31972" lon="-2.3224">
        <ele>16</ele>
        <time>2021-07-11T07:53:41.000Z</time>
      </trkpt>
      <trkpt lat="47.31977" lon="-2.32233">
        <ele>16</ele>
        <time>2021-07-11T07:53:42.000Z</time>
      </trkpt>
      <trkpt lat="47.31983" lon="-2.32227">
        <ele>15.39999961853</ele>
        <time>2021-07-11T07:53:43.000Z</time>
      </trkpt>
      <trkpt lat="47.31989" lon="-2.32221">
        <ele>15</ele>
        <time>2021-07-11T07:53:44.000Z</time>
      </trkpt>
      <trkpt lat="47.31995" lon="-2.32214">
        <ele>14.60000038147</ele>
        <time>2021-07-11T07:53:45.000Z</time>
      </trkpt>
      <trkpt lat="47.32002" lon="-2.32208">
        <ele>14.199999809265</ele>
        <time>2021-07-11T07:53:46.000Z</time>
      </trkpt>
      <trkpt lat="47.32008" lon="-2.32201">
        <ele>13.800000190735</ele>
        <time>2021-07-11T07:53:47.000Z</time>
      </trkpt>
      <trkpt lat="47.32023" lon="-2.3219">
        <ele>13.800000190735</ele>
        <time>2021-07-11T07:53:49.000Z</time>
      </trkpt>
      <trkpt lat="47.32071" lon="-2.32183">
        <ele>13.800000190735</ele>
        <time>2021-07-11T07:53:55.000Z</time>
      </trkpt>
      <trkpt lat="47.32087" lon="-2.3218">
        <ele>13.199999809265</ele>
        <time>2021-07-11T07:53:57.000Z</time>
      </trkpt>
      <trkpt lat="47.32096" lon="-2.3218">
        <ele>12.800000190735</ele>
        <time>2021-07-11T07:53:58.000Z</time>
      </trkpt>
      <trkpt lat="47.32104" lon="-2.32178">
        <ele>12.39999961853</ele>
        <time>2021-07-11T07:53:59.000Z</time>
      </trkpt>
      <trkpt lat="47.32112" lon="-2.32177">
        <ele>12</ele>
        <time>2021-07-11T07:54:00.000Z</time>
      </trkpt>
      <trkpt lat="47.32121" lon="-2.32175">
        <ele>11.39999961853</ele>
        <time>2021-07-11T07:54:01.000Z</time>
      </trkpt>
      <trkpt lat="47.32128" lon="-2.32172">
        <ele>11.39999961853</ele>
        <time>2021-07-11T07:54:02.000Z</time>
      </trkpt>
      <trkpt lat="47.32143" lon="-2.32163">
        <ele>11</ele>
        <time>2021-07-11T07:54:04.000Z</time>
      </trkpt>
      <trkpt lat="47.3215" lon="-2.32157">
        <ele>10.60000038147</ele>
        <time>2021-07-11T07:54:05.000Z</time>
      </trkpt>
      <trkpt lat="47.32157" lon="-2.32151">
        <ele>10.199999809265</ele>
        <time>2021-07-11T07:54:06.000Z</time>
      </trkpt>
      <trkpt lat="47.32164" lon="-2.32145">
        <ele>9.8000001907349</ele>
        <time>2021-07-11T07:54:07.000Z</time>
      </trkpt>
      <trkpt lat="47.3217" lon="-2.3214">
        <ele>9.3999996185303</ele>
        <time>2021-07-11T07:54:08.000Z</time>
      </trkpt>
      <trkpt lat="47.32191" lon="-2.32122">
        <ele>9.3999996185303</ele>
        <time>2021-07-11T07:54:12.000Z</time>
      </trkpt>
      <trkpt lat="47.32197" lon="-2.32117">
        <ele>9.3999996185303</ele>
        <time>2021-07-11T07:54:15.000Z</time>
      </trkpt>
      <trkpt lat="47.32198" lon="-2.32112">
        <ele>9.3999996185303</ele>
        <time>2021-07-11T07:54:18.000Z</time>
      </trkpt>
      <trkpt lat="47.32203" lon="-2.32109">
        <ele>9.3999996185303</ele>
        <time>2021-07-11T07:54:21.000Z</time>
      </trkpt>
      <trkpt lat="47.32216" lon="-2.32111">
        <ele>9.3999996185303</ele>
        <time>2021-07-11T07:54:25.000Z</time>
      </trkpt>
      <trkpt lat="47.3222" lon="-2.32109">
        <ele>9.3999996185303</ele>
        <time>2021-07-11T07:54:26.000Z</time>
      </trkpt>
      <trkpt lat="47.32239" lon="-2.32103">
        <ele>9.3999996185303</ele>
        <time>2021-07-11T07:54:30.000Z</time>
      </trkpt>
      <trkpt lat="47.32282" lon="-2.32098">
        <ele>9.3999996185303</ele>
        <time>2021-07-11T07:54:37.000Z</time>
      </trkpt>
      <trkpt lat="47.3231" lon="-2.32097">
        <ele>9.3999996185303</ele>
        <time>2021-07-11T07:54:42.000Z</time>
      </trkpt>
      <trkpt lat="47.32342" lon="-2.32101">
        <ele>9.3999996185303</ele>
        <time>2021-07-11T07:54:48.000Z</time>
      </trkpt>
      <trkpt lat="47.3236" lon="-2.32104">
        <ele>9.3999996185303</ele>
        <time>2021-07-11T07:54:53.000Z</time>
      </trkpt>
      <trkpt lat="47.32364" lon="-2.32105">
        <ele>9.3999996185303</ele>
        <time>2021-07-11T07:54:54.000Z</time>
      </trkpt>
      <trkpt lat="47.32384" lon="-2.32104">
        <ele>9.3999996185303</ele>
        <time>2021-07-11T07:54:58.000Z</time>
      </trkpt>
      <trkpt lat="47.32424" lon="-2.321">
        <ele>9.3999996185303</ele>
        <time>2021-07-11T07:55:05.000Z</time>
      </trkpt>
      <trkpt lat="47.32462" lon="-2.32098">
        <ele>9.3999996185303</ele>
        <time>2021-07-11T07:55:11.000Z</time>
      </trkpt>
      <trkpt lat="47.32499" lon="-2.32096">
        <ele>9.3999996185303</ele>
        <time>2021-07-11T07:55:17.000Z</time>
      </trkpt>
      <trkpt lat="47.32548" lon="-2.32092">
        <ele>9.3999996185303</ele>
        <time>2021-07-11T07:55:25.000Z</time>
      </trkpt>
      <trkpt lat="47.3257" lon="-2.3209">
        <ele>9.3999996185303</ele>
        <time>2021-07-11T07:55:29.000Z</time>
      </trkpt>
      <trkpt lat="47.32581" lon="-2.32091">
        <ele>9.3999996185303</ele>
        <time>2021-07-11T07:55:31.000Z</time>
      </trkpt>
      <trkpt lat="47.32589" lon="-2.32105">
        <ele>9.3999996185303</ele>
        <time>2021-07-11T07:55:34.000Z</time>
      </trkpt>
      <trkpt lat="47.32585" lon="-2.32134">
        <ele>9.3999996185303</ele>
        <time>2021-07-11T07:55:37.000Z</time>
      </trkpt>
      <trkpt lat="47.32569" lon="-2.32187">
        <ele>9.3999996185303</ele>
        <time>2021-07-11T07:55:42.000Z</time>
      </trkpt>
      <trkpt lat="47.32566" lon="-2.32198">
        <ele>9</ele>
        <time>2021-07-11T07:55:43.000Z</time>
      </trkpt>
      <trkpt lat="47.32562" lon="-2.32208">
        <ele>8.6000003814697</ele>
        <time>2021-07-11T07:55:44.000Z</time>
      </trkpt>
      <trkpt lat="47.32559" lon="-2.32219">
        <ele>8.1999998092651</ele>
        <time>2021-07-11T07:55:45.000Z</time>
      </trkpt>
      <trkpt lat="47.32556" lon="-2.32229">
        <ele>7.8000001907349</ele>
        <time>2021-07-11T07:55:46.000Z</time>
      </trkpt>
      <trkpt lat="47.32553" lon="-2.32239">
        <ele>7.1999998092651</ele>
        <time>2021-07-11T07:55:47.000Z</time>
      </trkpt>
      <trkpt lat="47.32537" lon="-2.32289">
        <ele>7.1999998092651</ele>
        <time>2021-07-11T07:55:53.000Z</time>
      </trkpt>
      <trkpt lat="47.32533" lon="-2.32309">
        <ele>7.8000001907349</ele>
        <time>2021-07-11T07:55:56.000Z</time>
      </trkpt>
      <trkpt lat="47.32534" lon="-2.32314">
        <ele>8.1999998092651</ele>
        <time>2021-07-11T07:55:57.000Z</time>
      </trkpt>
      <trkpt lat="47.32537" lon="-2.32317">
        <ele>8.6000003814697</ele>
        <time>2021-07-11T07:55:58.000Z</time>
      </trkpt>
      <trkpt lat="47.32541" lon="-2.32319">
        <ele>9</ele>
        <time>2021-07-11T07:55:59.000Z</time>
      </trkpt>
      <trkpt lat="47.32546" lon="-2.3232">
        <ele>9.3999996185303</ele>
        <time>2021-07-11T07:56:00.000Z</time>
      </trkpt>
      <trkpt lat="47.32558" lon="-2.32318">
        <ele>9.3999996185303</ele>
        <time>2021-07-11T07:56:02.000Z</time>
      </trkpt>
      <trkpt lat="47.32578" lon="-2.32314">
        <ele>9.3999996185303</ele>
        <time>2021-07-11T07:56:05.000Z</time>
      </trkpt>
      <trkpt lat="47.32626" lon="-2.32309">
        <ele>9.3999996185303</ele>
        <time>2021-07-11T07:56:12.000Z</time>
      </trkpt>
      <trkpt lat="47.32667" lon="-2.32314">
        <ele>9.3999996185303</ele>
        <time>2021-07-11T07:56:18.000Z</time>
      </trkpt>
      <trkpt lat="47.32681" lon="-2.32317">
        <ele>9.3999996185303</ele>
        <time>2021-07-11T07:56:20.000Z</time>
      </trkpt>
      <trkpt lat="47.32703" lon="-2.32324">
        <ele>9.3999996185303</ele>
        <time>2021-07-11T07:56:23.000Z</time>
      </trkpt>
      <trkpt lat="47.32747" lon="-2.32347">
        <ele>9.3999996185303</ele>
        <time>2021-07-11T07:56:29.000Z</time>
      </trkpt>
      <trkpt lat="47.32783" lon="-2.32371">
        <ele>9</ele>
        <time>2021-07-11T07:56:34.000Z</time>
      </trkpt>
      <trkpt lat="47.3279" lon="-2.32375">
        <ele>8.3999996185303</ele>
        <time>2021-07-11T07:56:35.000Z</time>
      </trkpt>
      <trkpt lat="47.32797" lon="-2.3238">
        <ele>8</ele>
        <time>2021-07-11T07:56:36.000Z</time>
      </trkpt>
      <trkpt lat="47.32803" lon="-2.32385">
        <ele>7.5999999046326</ele>
        <time>2021-07-11T07:56:37.000Z</time>
      </trkpt>
      <trkpt lat="47.32809" lon="-2.32392">
        <ele>7.1999998092651</ele>
        <time>2021-07-11T07:56:38.000Z</time>
      </trkpt>
      <trkpt lat="47.32834" lon="-2.32416">
        <ele>7.1999998092651</ele>
        <time>2021-07-11T07:56:42.000Z</time>
      </trkpt>
      <trkpt lat="47.32871" lon="-2.32441">
        <ele>7.1999998092651</ele>
        <time>2021-07-11T07:56:48.000Z</time>
      </trkpt>
      <trkpt lat="47.32888" lon="-2.32452">
        <ele>7.1999998092651</ele>
        <time>2021-07-11T07:56:51.000Z</time>
      </trkpt>
      <trkpt lat="47.32893" lon="-2.32457">
        <ele>7.1999998092651</ele>
        <time>2021-07-11T07:56:52.000Z</time>
      </trkpt>
      <trkpt lat="47.32904" lon="-2.3249">
        <ele>7.1999998092651</ele>
        <time>2021-07-11T07:56:56.000Z</time>
      </trkpt>
      <trkpt lat="47.32915" lon="-2.32532">
        <ele>7.1999998092651</ele>
        <time>2021-07-11T07:57:01.000Z</time>
      </trkpt>
      <trkpt lat="47.32916" lon="-2.32542">
        <ele>7.1999998092651</ele>
        <time>2021-07-11T07:57:02.000Z</time>
      </trkpt>
      <trkpt lat="47.32918" lon="-2.326">
        <ele>7.1999998092651</ele>
        <time>2021-07-11T07:57:08.000Z</time>
      </trkpt>
      <trkpt lat="47.32919" lon="-2.32628">
        <ele>7.1999998092651</ele>
        <time>2021-07-11T07:57:11.000Z</time>
      </trkpt>
      <trkpt lat="47.32921" lon="-2.32635">
        <ele>7.1999998092651</ele>
        <time>2021-07-11T07:57:12.000Z</time>
      </trkpt>
      <trkpt lat="47.32934" lon="-2.32649">
        <ele>7.1999998092651</ele>
        <time>2021-07-11T07:57:15.000Z</time>
      </trkpt>
      <trkpt lat="47.32949" lon="-2.32653">
        <ele>7.1999998092651</ele>
        <time>2021-07-11T07:57:18.000Z</time>
      </trkpt>
      <trkpt lat="47.32954" lon="-2.32653">
        <ele>7.1999998092651</ele>
        <time>2021-07-11T07:57:19.000Z</time>
      </trkpt>
      <trkpt lat="47.32963" lon="-2.32651">
        <ele>7.1999998092651</ele>
        <time>2021-07-11T07:57:21.000Z</time>
      </trkpt>
      <trkpt lat="47.32975" lon="-2.3264">
        <ele>6.8000001907349</ele>
        <time>2021-07-11T07:57:23.000Z</time>
      </trkpt>
      <trkpt lat="47.32982" lon="-2.32635">
        <ele>6.1999998092651</ele>
        <time>2021-07-11T07:57:24.000Z</time>
      </trkpt>
      <trkpt lat="47.32989" lon="-2.32633">
        <ele>5.8000001907349</ele>
        <time>2021-07-11T07:57:25.000Z</time>
      </trkpt>
      <trkpt lat="47.32995" lon="-2.32635">
        <ele>5.4000000953674</ele>
        <time>2021-07-11T07:57:26.000Z</time>
      </trkpt>
      <trkpt lat="47.33002" lon="-2.32638">
        <ele>5</ele>
        <time>2021-07-11T07:57:27.000Z</time>
      </trkpt>
      <trkpt lat="47.33011" lon="-2.32639">
        <ele>5</ele>
        <time>2021-07-11T07:57:28.000Z</time>
      </trkpt>
      <trkpt lat="47.33025" lon="-2.3264">
        <ele>5</ele>
        <time>2021-07-11T07:57:30.000Z</time>
      </trkpt>
      <trkpt lat="47.33037" lon="-2.32633">
        <ele>5</ele>
        <time>2021-07-11T07:57:32.000Z</time>
      </trkpt>
      <trkpt lat="47.33043" lon="-2.32629">
        <ele>5</ele>
        <time>2021-07-11T07:57:33.000Z</time>
      </trkpt>
      <trkpt lat="47.33047" lon="-2.32625">
        <ele>5</ele>
        <time>2021-07-11T07:57:34.000Z</time>
      </trkpt>
      <trkpt lat="47.33065" lon="-2.32607">
        <ele>5</ele>
        <time>2021-07-11T07:57:39.000Z</time>
      </trkpt>
      <trkpt lat="47.33085" lon="-2.3259">
        <ele>5</ele>
        <time>2021-07-11T07:57:44.000Z</time>
      </trkpt>
      <trkpt lat="47.331" lon="-2.32576">
        <ele>5.4000000953674</ele>
        <time>2021-07-11T07:57:47.000Z</time>
      </trkpt>
      <trkpt lat="47.33106" lon="-2.3257">
        <ele>5.8000001907349</ele>
        <time>2021-07-11T07:57:48.000Z</time>
      </trkpt>
      <trkpt lat="47.33111" lon="-2.32566">
        <ele>6.1999998092651</ele>
        <time>2021-07-11T07:57:49.000Z</time>
      </trkpt>
      <trkpt lat="47.33117" lon="-2.32561">
        <ele>6.5999999046326</ele>
        <time>2021-07-11T07:57:50.000Z</time>
      </trkpt>
      <trkpt lat="47.33122" lon="-2.32557">
        <ele>7</ele>
        <time>2021-07-11T07:57:51.000Z</time>
      </trkpt>
      <trkpt lat="47.33154" lon="-2.32531">
        <ele>7</ele>
        <time>2021-07-11T07:57:57.000Z</time>
      </trkpt>
      <trkpt lat="47.33174" lon="-2.32517">
        <ele>7</ele>
        <time>2021-07-11T07:58:01.000Z</time>
      </trkpt>
      <trkpt lat="47.33179" lon="-2.32514">
        <ele>7</ele>
        <time>2021-07-11T07:58:02.000Z</time>
      </trkpt>
      <trkpt lat="47.33191" lon="-2.32508">
        <ele>7</ele>
        <time>2021-07-11T07:58:04.000Z</time>
      </trkpt>
      <trkpt lat="47.33203" lon="-2.32502">
        <ele>7.4000000953674</ele>
        <time>2021-07-11T07:58:06.000Z</time>
      </trkpt>
      <trkpt lat="47.3321" lon="-2.32499">
        <ele>7.8000001907349</ele>
        <time>2021-07-11T07:58:07.000Z</time>
      </trkpt>
      <trkpt lat="47.33216" lon="-2.32496">
        <ele>8.1999998092651</ele>
        <time>2021-07-11T07:58:08.000Z</time>
      </trkpt>
      <trkpt lat="47.33222" lon="-2.32493">
        <ele>9</ele>
        <time>2021-07-11T07:58:09.000Z</time>
      </trkpt>
      <trkpt lat="47.33242" lon="-2.32485">
        <ele>9</ele>
        <time>2021-07-11T07:58:12.000Z</time>
      </trkpt>
      <trkpt lat="47.33281" lon="-2.32469">
        <ele>9</ele>
        <time>2021-07-11T07:58:18.000Z</time>
      </trkpt>
      <trkpt lat="47.3331" lon="-2.32456">
        <ele>9</ele>
        <time>2021-07-11T07:58:23.000Z</time>
      </trkpt>
      <trkpt lat="47.33334" lon="-2.32445">
        <ele>9</ele>
        <time>2021-07-11T07:58:28.000Z</time>
      </trkpt>
      <trkpt lat="47.33338" lon="-2.3244">
        <ele>9</ele>
        <time>2021-07-11T07:58:29.000Z</time>
      </trkpt>
      <trkpt lat="47.33352" lon="-2.32421">
        <ele>9</ele>
        <time>2021-07-11T07:58:32.000Z</time>
      </trkpt>
      <trkpt lat="47.33358" lon="-2.32414">
        <ele>9</ele>
        <time>2021-07-11T07:58:33.000Z</time>
      </trkpt>
      <trkpt lat="47.33396" lon="-2.3238">
        <ele>9</ele>
        <time>2021-07-11T07:58:39.000Z</time>
      </trkpt>
      <trkpt lat="47.33445" lon="-2.32338">
        <ele>9</ele>
        <time>2021-07-11T07:58:46.000Z</time>
      </trkpt>
      <trkpt lat="47.33467" lon="-2.32326">
        <ele>8.6000003814697</ele>
        <time>2021-07-11T07:58:49.000Z</time>
      </trkpt>
      <trkpt lat="47.33474" lon="-2.32323">
        <ele>8.1999998092651</ele>
        <time>2021-07-11T07:58:50.000Z</time>
      </trkpt>
      <trkpt lat="47.33481" lon="-2.3232">
        <ele>7.8000001907349</ele>
        <time>2021-07-11T07:58:51.000Z</time>
      </trkpt>
      <trkpt lat="47.33488" lon="-2.32316">
        <ele>7.4000000953674</ele>
        <time>2021-07-11T07:58:52.000Z</time>
      </trkpt>
      <trkpt lat="47.33495" lon="-2.32313">
        <ele>7</ele>
        <time>2021-07-11T07:58:53.000Z</time>
      </trkpt>
      <trkpt lat="47.3353" lon="-2.32299">
        <ele>7</ele>
        <time>2021-07-11T07:58:58.000Z</time>
      </trkpt>
      <trkpt lat="47.33561" lon="-2.32297">
        <ele>7</ele>
        <time>2021-07-11T07:59:03.000Z</time>
      </trkpt>
      <trkpt lat="47.33568" lon="-2.32294">
        <ele>7.4000000953674</ele>
        <time>2021-07-11T07:59:04.000Z</time>
      </trkpt>
      <trkpt lat="47.33574" lon="-2.32292">
        <ele>7.8000001907349</ele>
        <time>2021-07-11T07:59:05.000Z</time>
      </trkpt>
      <trkpt lat="47.33581" lon="-2.3229">
        <ele>8.1999998092651</ele>
        <time>2021-07-11T07:59:06.000Z</time>
      </trkpt>
      <trkpt lat="47.33587" lon="-2.32288">
        <ele>8.6000003814697</ele>
        <time>2021-07-11T07:59:07.000Z</time>
      </trkpt>
      <trkpt lat="47.33594" lon="-2.32287">
        <ele>9.1999998092651</ele>
        <time>2021-07-11T07:59:08.000Z</time>
      </trkpt>
      <trkpt lat="47.33636" lon="-2.32278">
        <ele>9.1999998092651</ele>
        <time>2021-07-11T07:59:14.000Z</time>
      </trkpt>
      <trkpt lat="47.33681" lon="-2.3226">
        <ele>9.1999998092651</ele>
        <time>2021-07-11T07:59:20.000Z</time>
      </trkpt>
      <trkpt lat="47.33722" lon="-2.32233">
        <ele>9.1999998092651</ele>
        <time>2021-07-11T07:59:26.000Z</time>
      </trkpt>
      <trkpt lat="47.33764" lon="-2.32209">
        <ele>9.1999998092651</ele>
        <time>2021-07-11T07:59:32.000Z</time>
      </trkpt>
      <trkpt lat="47.33807" lon="-2.32196">
        <ele>9.1999998092651</ele>
        <time>2021-07-11T07:59:38.000Z</time>
      </trkpt>
      <trkpt lat="47.33866" lon="-2.32185">
        <ele>9.1999998092651</ele>
        <time>2021-07-11T07:59:46.000Z</time>
      </trkpt>
      <trkpt lat="47.33906" lon="-2.32186">
        <ele>9.1999998092651</ele>
        <time>2021-07-11T07:59:51.000Z</time>
      </trkpt>
      <trkpt lat="47.33914" lon="-2.32184">
        <ele>9.1999998092651</ele>
        <time>2021-07-11T07:59:52.000Z</time>
      </trkpt>
      <trkpt lat="47.33936" lon="-2.3219">
        <ele>9.1999998092651</ele>
        <time>2021-07-11T07:59:55.000Z</time>
      </trkpt>
      <trkpt lat="47.33952" lon="-2.32199">
        <ele>9.1999998092651</ele>
        <time>2021-07-11T07:59:57.000Z</time>
      </trkpt>
      <trkpt lat="47.3396" lon="-2.32202">
        <ele>9.1999998092651</ele>
        <time>2021-07-11T07:59:58.000Z</time>
      </trkpt>
      <trkpt lat="47.33968" lon="-2.32204">
        <ele>9.1999998092651</ele>
        <time>2021-07-11T07:59:59.000Z</time>
      </trkpt>
      <trkpt lat="47.34" lon="-2.32205">
        <ele>9.1999998092651</ele>
        <time>2021-07-11T08:00:03.000Z</time>
      </trkpt>
      <trkpt lat="47.34054" lon="-2.32211">
        <ele>9.1999998092651</ele>
        <time>2021-07-11T08:00:10.000Z</time>
      </trkpt>
      <trkpt lat="47.34079" lon="-2.32229">
        <ele>9.1999998092651</ele>
        <time>2021-07-11T08:00:14.000Z</time>
      </trkpt>
      <trkpt lat="47.34089" lon="-2.32243">
        <ele>9.1999998092651</ele>
        <time>2021-07-11T08:00:16.000Z</time>
      </trkpt>
      <trkpt lat="47.34093" lon="-2.32249">
        <ele>9.1999998092651</ele>
        <time>2021-07-11T08:00:17.000Z</time>
      </trkpt>
      <trkpt lat="47.34096" lon="-2.32257">
        <ele>9.1999998092651</ele>
        <time>2021-07-11T08:00:18.000Z</time>
      </trkpt>
      <trkpt lat="47.34103" lon="-2.32285">
        <ele>9.1999998092651</ele>
        <time>2021-07-11T08:00:21.000Z</time>
      </trkpt>
      <trkpt lat="47.34105" lon="-2.32294">
        <ele>9.1999998092651</ele>
        <time>2021-07-11T08:00:22.000Z</time>
      </trkpt>
      <trkpt lat="47.34113" lon="-2.32328">
        <ele>9.6000003814697</ele>
        <time>2021-07-11T08:00:26.000Z</time>
      </trkpt>
      <trkpt lat="47.34116" lon="-2.32337">
        <ele>10</ele>
        <time>2021-07-11T08:00:27.000Z</time>
      </trkpt>
      <trkpt lat="47.34117" lon="-2.32345">
        <ele>10.39999961853</ele>
        <time>2021-07-11T08:00:28.000Z</time>
      </trkpt>
      <trkpt lat="47.34119" lon="-2.32353">
        <ele>10.800000190735</ele>
        <time>2021-07-11T08:00:29.000Z</time>
      </trkpt>
      <trkpt lat="47.34121" lon="-2.32361">
        <ele>11.199999809265</ele>
        <time>2021-07-11T08:00:30.000Z</time>
      </trkpt>
      <trkpt lat="47.34133" lon="-2.32407">
        <ele>11.199999809265</ele>
        <time>2021-07-11T08:00:36.000Z</time>
      </trkpt>
      <trkpt lat="47.34147" lon="-2.32455">
        <ele>11.199999809265</ele>
        <time>2021-07-11T08:00:42.000Z</time>
      </trkpt>
      <trkpt lat="47.3415" lon="-2.32463">
        <ele>11.60000038147</ele>
        <time>2021-07-11T08:00:43.000Z</time>
      </trkpt>
      <trkpt lat="47.34152" lon="-2.32471">
        <ele>12</ele>
        <time>2021-07-11T08:00:44.000Z</time>
      </trkpt>
      <trkpt lat="47.34153" lon="-2.32479">
        <ele>12.39999961853</ele>
        <time>2021-07-11T08:00:45.000Z</time>
      </trkpt>
      <trkpt lat="47.34155" lon="-2.32487">
        <ele>12.800000190735</ele>
        <time>2021-07-11T08:00:46.000Z</time>
      </trkpt>
      <trkpt lat="47.34156" lon="-2.32495">
        <ele>13.199999809265</ele>
        <time>2021-07-11T08:00:47.000Z</time>
      </trkpt>
      <trkpt lat="47.34157" lon="-2.32503">
        <ele>13.199999809265</ele>
        <time>2021-07-11T08:00:48.000Z</time>
      </trkpt>
      <trkpt lat="47.34157" lon="-2.32519">
        <ele>13.199999809265</ele>
        <time>2021-07-11T08:00:50.000Z</time>
      </trkpt>
      <trkpt lat="47.34158" lon="-2.32549">
        <ele>13.199999809265</ele>
        <time>2021-07-11T08:00:54.000Z</time>
      </trkpt>
      <trkpt lat="47.34158" lon="-2.32569">
        <ele>13.199999809265</ele>
        <time>2021-07-11T08:00:57.000Z</time>
      </trkpt>
      <trkpt lat="47.34157" lon="-2.32578">
        <ele>13.199999809265</ele>
        <time>2021-07-11T08:00:59.000Z</time>
      </trkpt>
      <trkpt lat="47.34153" lon="-2.32593">
        <ele>13.199999809265</ele>
        <time>2021-07-11T08:01:04.000Z</time>
      </trkpt>
      <trkpt lat="47.34154" lon="-2.32608">
        <ele>13.199999809265</ele>
        <time>2021-07-11T08:01:09.000Z</time>
      </trkpt>
      <trkpt lat="47.34155" lon="-2.32628">
        <ele>13.199999809265</ele>
        <time>2021-07-11T08:01:17.000Z</time>
      </trkpt>
      <trkpt lat="47.34157" lon="-2.32647">
        <ele>13.199999809265</ele>
        <time>2021-07-11T08:01:24.000Z</time>
      </trkpt>
      <trkpt lat="47.3416" lon="-2.32671">
        <ele>13.199999809265</ele>
        <time>2021-07-11T08:01:30.000Z</time>
      </trkpt>
      <trkpt lat="47.34164" lon="-2.32711">
        <ele>13.199999809265</ele>
        <time>2021-07-11T08:01:38.000Z</time>
      </trkpt>
      <trkpt lat="47.34164" lon="-2.32744">
        <ele>13.199999809265</ele>
        <time>2021-07-11T08:01:44.000Z</time>
      </trkpt>
      <trkpt lat="47.34165" lon="-2.32751">
        <ele>13.199999809265</ele>
        <time>2021-07-11T08:01:45.000Z</time>
      </trkpt>
      <trkpt lat="47.34168" lon="-2.3278">
        <ele>13.199999809265</ele>
        <time>2021-07-11T08:01:50.000Z</time>
      </trkpt>
      <trkpt lat="47.34174" lon="-2.328">
        <ele>13.199999809265</ele>
        <time>2021-07-11T08:01:55.000Z</time>
      </trkpt>
      <trkpt lat="47.34177" lon="-2.32805">
        <ele>12.800000190735</ele>
        <time>2021-07-11T08:01:57.000Z</time>
      </trkpt>
      <trkpt lat="47.34177" lon="-2.32807">
        <ele>12.39999961853</ele>
        <time>2021-07-11T08:01:58.000Z</time>
      </trkpt>
      <trkpt lat="47.34178" lon="-2.32809">
        <ele>12</ele>
        <time>2021-07-11T08:01:59.000Z</time>
      </trkpt>
      <trkpt lat="47.34179" lon="-2.32812">
        <ele>11.60000038147</ele>
        <time>2021-07-11T08:02:00.000Z</time>
      </trkpt>
      <trkpt lat="47.34179" lon="-2.32814">
        <ele>11.199999809265</ele>
        <time>2021-07-11T08:02:01.000Z</time>
      </trkpt>
      <trkpt lat="47.34185" lon="-2.32826">
        <ele>11.199999809265</ele>
        <time>2021-07-11T08:02:05.000Z</time>
      </trkpt>
      <trkpt lat="47.34196" lon="-2.32849">
        <ele>11.199999809265</ele>
        <time>2021-07-11T08:02:10.000Z</time>
      </trkpt>
      <trkpt lat="47.3421" lon="-2.32876">
        <ele>11.199999809265</ele>
        <time>2021-07-11T08:02:15.000Z</time>
      </trkpt>
      <trkpt lat="47.3422" lon="-2.32896">
        <ele>10.800000190735</ele>
        <time>2021-07-11T08:02:19.000Z</time>
      </trkpt>
      <trkpt lat="47.34222" lon="-2.329">
        <ele>10.39999961853</ele>
        <time>2021-07-11T08:02:20.000Z</time>
      </trkpt>
      <trkpt lat="47.34224" lon="-2.32905">
        <ele>10</ele>
        <time>2021-07-11T08:02:21.000Z</time>
      </trkpt>
      <trkpt lat="47.34226" lon="-2.32908">
        <ele>9.6000003814697</ele>
        <time>2021-07-11T08:02:22.000Z</time>
      </trkpt>
      <trkpt lat="47.34228" lon="-2.32913">
        <ele>9.1999998092651</ele>
        <time>2021-07-11T08:02:23.000Z</time>
      </trkpt>
      <trkpt lat="47.34239" lon="-2.32933">
        <ele>9.1999998092651</ele>
        <time>2021-07-11T08:02:28.000Z</time>
      </trkpt>
      <trkpt lat="47.34241" lon="-2.32937">
        <ele>8.8000001907349</ele>
        <time>2021-07-11T08:02:29.000Z</time>
      </trkpt>
      <trkpt lat="47.34242" lon="-2.3294">
        <ele>8.3999996185303</ele>
        <time>2021-07-11T08:02:30.000Z</time>
      </trkpt>
      <trkpt lat="47.34244" lon="-2.32943">
        <ele>8</ele>
        <time>2021-07-11T08:02:31.000Z</time>
      </trkpt>
      <trkpt lat="47.34245" lon="-2.32945">
        <ele>7.5999999046326</ele>
        <time>2021-07-11T08:02:32.000Z</time>
      </trkpt>
      <trkpt lat="47.34246" lon="-2.32947">
        <ele>7</ele>
        <time>2021-07-11T08:02:33.000Z</time>
      </trkpt>
      <trkpt lat="47.34247" lon="-2.32949">
        <ele>7</ele>
        <time>2021-07-11T08:02:34.000Z</time>
      </trkpt>
      <trkpt lat="47.34251" lon="-2.32954">
        <ele>7</ele>
        <time>2021-07-11T08:02:38.000Z</time>
      </trkpt>
      <trkpt lat="47.34258" lon="-2.3297">
        <ele>7</ele>
        <time>2021-07-11T08:02:43.000Z</time>
      </trkpt>
      <trkpt lat="47.34275" lon="-2.33002">
        <ele>7</ele>
        <time>2021-07-11T08:02:49.000Z</time>
      </trkpt>
      <trkpt lat="47.34289" lon="-2.33033">
        <ele>7</ele>
        <time>2021-07-11T08:02:54.000Z</time>
      </trkpt>
      <trkpt lat="47.34298" lon="-2.33049">
        <ele>7</ele>
        <time>2021-07-11T08:02:59.000Z</time>
      </trkpt>
      <trkpt lat="47.34318" lon="-2.33043">
        <ele>7</ele>
        <time>2021-07-11T08:03:05.000Z</time>
      </trkpt>
      <trkpt lat="47.34353" lon="-2.33033">
        <ele>7</ele>
        <time>2021-07-11T08:03:12.000Z</time>
      </trkpt>
      <trkpt lat="47.3436" lon="-2.33033">
        <ele>6.5999999046326</ele>
        <time>2021-07-11T08:03:14.000Z</time>
      </trkpt>
      <trkpt lat="47.34362" lon="-2.33034">
        <ele>6.1999998092651</ele>
        <time>2021-07-11T08:03:15.000Z</time>
      </trkpt>
      <trkpt lat="47.34365" lon="-2.33035">
        <ele>5.8000001907349</ele>
        <time>2021-07-11T08:03:16.000Z</time>
      </trkpt>
      <trkpt lat="47.34368" lon="-2.33037">
        <ele>5.4000000953674</ele>
        <time>2021-07-11T08:03:17.000Z</time>
      </trkpt>
      <trkpt lat="47.3437" lon="-2.33038">
        <ele>5</ele>
        <time>2021-07-11T08:03:18.000Z</time>
      </trkpt>
      <trkpt lat="47.34372" lon="-2.33041">
        <ele>5</ele>
        <time>2021-07-11T08:03:20.000Z</time>
      </trkpt>
      <trkpt lat="47.34377" lon="-2.33052">
        <ele>5</ele>
        <time>2021-07-11T08:03:25.000Z</time>
      </trkpt>
      <trkpt lat="47.34377" lon="-2.33057">
        <ele>5</ele>
        <time>2021-07-11T08:03:27.000Z</time>
      </trkpt>
      <trkpt lat="47.34382" lon="-2.33074">
        <ele>5</ele>
        <time>2021-07-11T08:03:33.000Z</time>
      </trkpt>
      <trkpt lat="47.34386" lon="-2.33091">
        <ele>5</ele>
        <time>2021-07-11T08:03:40.000Z</time>
      </trkpt>
      <trkpt lat="47.34391" lon="-2.33111">
        <ele>5</ele>
        <time>2021-07-11T08:03:47.000Z</time>
      </trkpt>
      <trkpt lat="47.34394" lon="-2.33121">
        <ele>5</ele>
        <time>2021-07-11T08:03:53.000Z</time>
      </trkpt>
      <trkpt lat="47.34397" lon="-2.33134">
        <ele>5</ele>
        <time>2021-07-11T08:04:00.000Z</time>
      </trkpt>
      <trkpt lat="47.34399" lon="-2.33142">
        <ele>5</ele>
        <time>2021-07-11T08:04:07.000Z</time>
      </trkpt>
      <trkpt lat="47.34401" lon="-2.33157">
        <ele>5</ele>
        <time>2021-07-11T08:04:20.000Z</time>
      </trkpt>
      <trkpt lat="47.34402" lon="-2.33167">
        <ele>5</ele>
        <time>2021-07-11T08:04:24.000Z</time>
      </trkpt>
      <trkpt lat="47.34408" lon="-2.3319">
        <ele>5</ele>
        <time>2021-07-11T08:04:31.000Z</time>
      </trkpt>
      <trkpt lat="47.34415" lon="-2.33222">
        <ele>5</ele>
        <time>2021-07-11T08:04:39.000Z</time>
      </trkpt>
      <trkpt lat="47.34417" lon="-2.33234">
        <ele>5.4000000953674</ele>
        <time>2021-07-11T08:04:42.000Z</time>
      </trkpt>
      <trkpt lat="47.34418" lon="-2.33238">
        <ele>5.8000001907349</ele>
        <time>2021-07-11T08:04:43.000Z</time>
      </trkpt>
      <trkpt lat="47.34418" lon="-2.33242">
        <ele>6.5999999046326</ele>
        <time>2021-07-11T08:04:44.000Z</time>
      </trkpt>
      <trkpt lat="47.34419" lon="-2.33246">
        <ele>7</ele>
        <time>2021-07-11T08:04:45.000Z</time>
      </trkpt>
      <trkpt lat="47.34421" lon="-2.33255">
        <ele>7</ele>
        <time>2021-07-11T08:04:47.000Z</time>
      </trkpt>
      <trkpt lat="47.34427" lon="-2.33281">
        <ele>7</ele>
        <time>2021-07-11T08:04:54.000Z</time>
      </trkpt>
      <trkpt lat="47.34438" lon="-2.33297">
        <ele>7</ele>
        <time>2021-07-11T08:04:59.000Z</time>
      </trkpt>
      <trkpt lat="47.34453" lon="-2.33315">
        <ele>7</ele>
        <time>2021-07-11T08:05:06.000Z</time>
      </trkpt>
      <trkpt lat="47.3446" lon="-2.33335">
        <ele>7</ele>
        <time>2021-07-11T08:05:12.000Z</time>
      </trkpt>
      <trkpt lat="47.34464" lon="-2.33352">
        <ele>7</ele>
        <time>2021-07-11T08:05:18.000Z</time>
      </trkpt>
      <trkpt lat="47.34466" lon="-2.33375">
        <ele>7</ele>
        <time>2021-07-11T08:05:24.000Z</time>
      </trkpt>
      <trkpt lat="47.34469" lon="-2.33396">
        <ele>7</ele>
        <time>2021-07-11T08:05:30.000Z</time>
      </trkpt>
      <trkpt lat="47.34471" lon="-2.3341">
        <ele>7</ele>
        <time>2021-07-11T08:05:36.000Z</time>
      </trkpt>
      <trkpt lat="47.34471" lon="-2.33427">
        <ele>7</ele>
        <time>2021-07-11T08:05:42.000Z</time>
      </trkpt>
      <trkpt lat="47.34475" lon="-2.33447">
        <ele>7</ele>
        <time>2021-07-11T08:05:48.000Z</time>
      </trkpt>
      <trkpt lat="47.34475" lon="-2.33466">
        <ele>7</ele>
        <time>2021-07-11T08:05:53.000Z</time>
      </trkpt>
      <trkpt lat="47.34479" lon="-2.33486">
        <ele>7</ele>
        <time>2021-07-11T08:05:59.000Z</time>
      </trkpt>
      <trkpt lat="47.3448" lon="-2.33502">
        <ele>7.4000000953674</ele>
        <time>2021-07-11T08:06:03.000Z</time>
      </trkpt>
      <trkpt lat="47.3448" lon="-2.33507">
        <ele>7.8000001907349</ele>
        <time>2021-07-11T08:06:04.000Z</time>
      </trkpt>
      <trkpt lat="47.34481" lon="-2.33511">
        <ele>8.3999996185303</ele>
        <time>2021-07-11T08:06:05.000Z</time>
      </trkpt>
      <trkpt lat="47.34481" lon="-2.33515">
        <ele>8.8000001907349</ele>
        <time>2021-07-11T08:06:06.000Z</time>
      </trkpt>
      <trkpt lat="47.34482" lon="-2.3352">
        <ele>9.1999998092651</ele>
        <time>2021-07-11T08:06:07.000Z</time>
      </trkpt>
      <trkpt lat="47.34485" lon="-2.3354">
        <ele>9.1999998092651</ele>
        <time>2021-07-11T08:06:12.000Z</time>
      </trkpt>
      <trkpt lat="47.34486" lon="-2.33557">
        <ele>9.1999998092651</ele>
        <time>2021-07-11T08:06:17.000Z</time>
      </trkpt>
      <trkpt lat="47.34491" lon="-2.33577">
        <ele>9.1999998092651</ele>
        <time>2021-07-11T08:06:23.000Z</time>
      </trkpt>
      <trkpt lat="47.34496" lon="-2.33589">
        <ele>9.1999998092651</ele>
        <time>2021-07-11T08:06:28.000Z</time>
      </trkpt>
      <trkpt lat="47.34497" lon="-2.33594">
        <ele>9.1999998092651</ele>
        <time>2021-07-11T08:06:32.000Z</time>
      </trkpt>
      <trkpt lat="47.34499" lon="-2.33601">
        <ele>9.1999998092651</ele>
        <time>2021-07-11T08:07:30.000Z</time>
      </trkpt>
      <trkpt lat="47.34499" lon="-2.33604">
        <ele>9.1999998092651</ele>
        <time>2021-07-11T08:07:31.000Z</time>
      </trkpt>
      <trkpt lat="47.34501" lon="-2.33622">
        <ele>9.1999998092651</ele>
        <time>2021-07-11T08:07:37.000Z</time>
      </trkpt>
      <trkpt lat="47.34507" lon="-2.33639">
        <ele>9.1999998092651</ele>
        <time>2021-07-11T08:07:43.000Z</time>
      </trkpt>
      <trkpt lat="47.34511" lon="-2.33653">
        <ele>9.1999998092651</ele>
        <time>2021-07-11T08:07:48.000Z</time>
      </trkpt>
      <trkpt lat="47.34513" lon="-2.33661">
        <ele>9.6000003814697</ele>
        <time>2021-07-11T08:07:50.000Z</time>
      </trkpt>
      <trkpt lat="47.34514" lon="-2.33664">
        <ele>10</ele>
        <time>2021-07-11T08:07:51.000Z</time>
      </trkpt>
      <trkpt lat="47.34514" lon="-2.33668">
        <ele>10.39999961853</ele>
        <time>2021-07-11T08:07:52.000Z</time>
      </trkpt>
      <trkpt lat="47.34515" lon="-2.33671">
        <ele>10.800000190735</ele>
        <time>2021-07-11T08:07:53.000Z</time>
      </trkpt>
      <trkpt lat="47.34516" lon="-2.33674">
        <ele>11.199999809265</ele>
        <time>2021-07-11T08:07:54.000Z</time>
      </trkpt>
      <trkpt lat="47.34519" lon="-2.33693">
        <ele>11.199999809265</ele>
        <time>2021-07-11T08:08:00.000Z</time>
      </trkpt>
      <trkpt lat="47.34524" lon="-2.33711">
        <ele>11.199999809265</ele>
        <time>2021-07-11T08:08:06.000Z</time>
      </trkpt>
      <trkpt lat="47.34529" lon="-2.33732">
        <ele>11.199999809265</ele>
        <time>2021-07-11T08:08:11.000Z</time>
      </trkpt>
      <trkpt lat="47.34534" lon="-2.33766">
        <ele>11.199999809265</ele>
        <time>2021-07-11T08:08:19.000Z</time>
      </trkpt>
      <trkpt lat="47.34539" lon="-2.33791">
        <ele>11.199999809265</ele>
        <time>2021-07-11T08:08:25.000Z</time>
      </trkpt>
      <trkpt lat="47.34548" lon="-2.33833">
        <ele>11.199999809265</ele>
        <time>2021-07-11T08:08:31.000Z</time>
      </trkpt>
      <trkpt lat="47.34562" lon="-2.33884">
        <ele>11.199999809265</ele>
        <time>2021-07-11T08:08:38.000Z</time>
      </trkpt>
      <trkpt lat="47.34565" lon="-2.3389">
        <ele>11.199999809265</ele>
        <time>2021-07-11T08:08:39.000Z</time>
      </trkpt>
      <trkpt lat="47.34576" lon="-2.33916">
        <ele>11.199999809265</ele>
        <time>2021-07-11T08:08:43.000Z</time>
      </trkpt>
      <trkpt lat="47.3459" lon="-2.33957">
        <ele>11.199999809265</ele>
        <time>2021-07-11T08:08:49.000Z</time>
      </trkpt>
      <trkpt lat="47.34606" lon="-2.34012">
        <ele>11.199999809265</ele>
        <time>2021-07-11T08:08:57.000Z</time>
      </trkpt>
      <trkpt lat="47.34621" lon="-2.3407">
        <ele>11.199999809265</ele>
        <time>2021-07-11T08:09:05.000Z</time>
      </trkpt>
      <trkpt lat="47.3463" lon="-2.34106">
        <ele>11.199999809265</ele>
        <time>2021-07-11T08:09:10.000Z</time>
      </trkpt>
      <trkpt lat="47.34636" lon="-2.34123">
        <ele>11.199999809265</ele>
        <time>2021-07-11T08:09:13.000Z</time>
      </trkpt>
      <trkpt lat="47.34639" lon="-2.34129">
        <ele>11.60000038147</ele>
        <time>2021-07-11T08:09:14.000Z</time>
      </trkpt>
      <trkpt lat="47.34643" lon="-2.34134">
        <ele>12</ele>
        <time>2021-07-11T08:09:15.000Z</time>
      </trkpt>
      <trkpt lat="47.34646" lon="-2.34139">
        <ele>13</ele>
        <time>2021-07-11T08:09:16.000Z</time>
      </trkpt>
      <trkpt lat="47.3465" lon="-2.34144">
        <ele>13.39999961853</ele>
        <time>2021-07-11T08:09:17.000Z</time>
      </trkpt>
      <trkpt lat="47.34657" lon="-2.3415">
        <ele>13.39999961853</ele>
        <time>2021-07-11T08:09:19.000Z</time>
      </trkpt>
      <trkpt lat="47.3466" lon="-2.34152">
        <ele>13.39999961853</ele>
        <time>2021-07-11T08:09:20.000Z</time>
      </trkpt>
      <trkpt lat="47.34674" lon="-2.34157">
        <ele>13.39999961853</ele>
        <time>2021-07-11T08:09:24.000Z</time>
      </trkpt>
      <trkpt lat="47.34675" lon="-2.34173">
        <ele>13.39999961853</ele>
        <time>2021-07-11T08:09:27.000Z</time>
      </trkpt>
      <trkpt lat="47.34672" lon="-2.34185">
        <ele>13.39999961853</ele>
        <time>2021-07-11T08:09:29.000Z</time>
      </trkpt>
      <trkpt lat="47.34668" lon="-2.34203">
        <ele>13.39999961853</ele>
        <time>2021-07-11T08:09:32.000Z</time>
      </trkpt>
      <trkpt lat="47.34666" lon="-2.34242">
        <ele>13.39999961853</ele>
        <time>2021-07-11T08:09:38.000Z</time>
      </trkpt>
      <trkpt lat="47.34665" lon="-2.34259">
        <ele>13.39999961853</ele>
        <time>2021-07-11T08:09:41.000Z</time>
      </trkpt>
      <trkpt lat="47.34668" lon="-2.34263">
        <ele>13.39999961853</ele>
        <time>2021-07-11T08:09:42.000Z</time>
      </trkpt>
      <trkpt lat="47.3468" lon="-2.34263">
        <ele>13.39999961853</ele>
        <time>2021-07-11T08:09:45.000Z</time>
      </trkpt>
      <trkpt lat="47.34685" lon="-2.34262">
        <ele>13.800000190735</ele>
        <time>2021-07-11T08:09:46.000Z</time>
      </trkpt>
      <trkpt lat="47.34689" lon="-2.34261">
        <ele>14.39999961853</ele>
        <time>2021-07-11T08:09:47.000Z</time>
      </trkpt>
      <trkpt lat="47.34694" lon="-2.3426">
        <ele>14.800000190735</ele>
        <time>2021-07-11T08:09:48.000Z</time>
      </trkpt>
      <trkpt lat="47.34699" lon="-2.34259">
        <ele>15.199999809265</ele>
        <time>2021-07-11T08:09:49.000Z</time>
      </trkpt>
      <trkpt lat="47.34704" lon="-2.34258">
        <ele>15.60000038147</ele>
        <time>2021-07-11T08:09:50.000Z</time>
      </trkpt>
      <trkpt lat="47.34714" lon="-2.34256">
        <ele>15.60000038147</ele>
        <time>2021-07-11T08:09:52.000Z</time>
      </trkpt>
      <trkpt lat="47.34729" lon="-2.34252">
        <ele>15.60000038147</ele>
        <time>2021-07-11T08:09:55.000Z</time>
      </trkpt>
      <trkpt lat="47.34738" lon="-2.3425">
        <ele>15.60000038147</ele>
        <time>2021-07-11T08:09:57.000Z</time>
      </trkpt>
      <trkpt lat="47.3476" lon="-2.34245">
        <ele>15.60000038147</ele>
        <time>2021-07-11T08:10:02.000Z</time>
      </trkpt>
      <trkpt lat="47.34778" lon="-2.34239">
        <ele>15.60000038147</ele>
        <time>2021-07-11T08:10:07.000Z</time>
      </trkpt>
      <trkpt lat="47.34782" lon="-2.34238">
        <ele>16</ele>
        <time>2021-07-11T08:10:08.000Z</time>
      </trkpt>
      <trkpt lat="47.34786" lon="-2.34237">
        <ele>16.39999961853</ele>
        <time>2021-07-11T08:10:09.000Z</time>
      </trkpt>
      <trkpt lat="47.3479" lon="-2.34236">
        <ele>16.799999237061</ele>
        <time>2021-07-11T08:10:10.000Z</time>
      </trkpt>
      <trkpt lat="47.34795" lon="-2.34235">
        <ele>17.200000762939</ele>
        <time>2021-07-11T08:10:11.000Z</time>
      </trkpt>
      <trkpt lat="47.34799" lon="-2.34233">
        <ele>17.60000038147</ele>
        <time>2021-07-11T08:10:12.000Z</time>
      </trkpt>
      <trkpt lat="47.34812" lon="-2.34231">
        <ele>17.60000038147</ele>
        <time>2021-07-11T08:10:15.000Z</time>
      </trkpt>
      <trkpt lat="47.34835" lon="-2.34233">
        <ele>18</ele>
        <time>2021-07-11T08:10:21.000Z</time>
      </trkpt>
      <trkpt lat="47.34839" lon="-2.34233">
        <ele>18.39999961853</ele>
        <time>2021-07-11T08:10:22.000Z</time>
      </trkpt>
      <trkpt lat="47.34842" lon="-2.34233">
        <ele>18.799999237061</ele>
        <time>2021-07-11T08:10:23.000Z</time>
      </trkpt>
      <trkpt lat="47.34845" lon="-2.34233">
        <ele>19.200000762939</ele>
        <time>2021-07-11T08:10:24.000Z</time>
      </trkpt>
      <trkpt lat="47.34848" lon="-2.34233">
        <ele>19.60000038147</ele>
        <time>2021-07-11T08:10:25.000Z</time>
      </trkpt>
      <trkpt lat="47.34852" lon="-2.34236">
        <ele>19.60000038147</ele>
        <time>2021-07-11T08:10:27.000Z</time>
      </trkpt>
      <trkpt lat="47.34859" lon="-2.34239">
        <ele>20.60000038147</ele>
        <time>2021-07-11T08:10:30.000Z</time>
      </trkpt>
      <trkpt lat="47.34861" lon="-2.34237">
        <ele>21</ele>
        <time>2021-07-11T08:10:31.000Z</time>
      </trkpt>
      <trkpt lat="47.34863" lon="-2.34235">
        <ele>21.60000038147</ele>
        <time>2021-07-11T08:10:32.000Z</time>
      </trkpt>
      <trkpt lat="47.34865" lon="-2.34233">
        <ele>22</ele>
        <time>2021-07-11T08:10:33.000Z</time>
      </trkpt>
      <trkpt lat="47.34869" lon="-2.34226">
        <ele>22.39999961853</ele>
        <time>2021-07-11T08:10:36.000Z</time>
      </trkpt>
      <trkpt lat="47.34871" lon="-2.34224">
        <ele>23</ele>
        <time>2021-07-11T08:10:37.000Z</time>
      </trkpt>
      <trkpt lat="47.34872" lon="-2.34221">
        <ele>23.39999961853</ele>
        <time>2021-07-11T08:10:38.000Z</time>
      </trkpt>
      <trkpt lat="47.34874" lon="-2.34219">
        <ele>23.799999237061</ele>
        <time>2021-07-11T08:10:39.000Z</time>
      </trkpt>
      <trkpt lat="47.34875" lon="-2.34216">
        <ele>24.200000762939</ele>
        <time>2021-07-11T08:10:40.000Z</time>
      </trkpt>
      <trkpt lat="47.34879" lon="-2.34212">
        <ele>24.200000762939</ele>
        <time>2021-07-11T08:10:42.000Z</time>
      </trkpt>
      <trkpt lat="47.34883" lon="-2.3421">
        <ele>24.200000762939</ele>
        <time>2021-07-11T08:10:44.000Z</time>
      </trkpt>
      <trkpt lat="47.34885" lon="-2.34209">
        <ele>24.60000038147</ele>
        <time>2021-07-11T08:10:45.000Z</time>
      </trkpt>
      <trkpt lat="47.34886" lon="-2.34208">
        <ele>25.200000762939</ele>
        <time>2021-07-11T08:10:46.000Z</time>
      </trkpt>
      <trkpt lat="47.34888" lon="-2.34207">
        <ele>25.60000038147</ele>
        <time>2021-07-11T08:10:47.000Z</time>
      </trkpt>
      <trkpt lat="47.3489" lon="-2.34206">
        <ele>26</ele>
        <time>2021-07-11T08:10:48.000Z</time>
      </trkpt>
      <trkpt lat="47.34892" lon="-2.34204">
        <ele>26.39999961853</ele>
        <time>2021-07-11T08:10:49.000Z</time>
      </trkpt>
      <trkpt lat="47.34895" lon="-2.34204">
        <ele>26.39999961853</ele>
        <time>2021-07-11T08:10:50.000Z</time>
      </trkpt>
      <trkpt lat="47.34916" lon="-2.34208">
        <ele>26.39999961853</ele>
        <time>2021-07-11T08:10:54.000Z</time>
      </trkpt>
      <trkpt lat="47.34939" lon="-2.34201">
        <ele>26.39999961853</ele>
        <time>2021-07-11T08:10:58.000Z</time>
      </trkpt>
      <trkpt lat="47.34944" lon="-2.34198">
        <ele>26</ele>
        <time>2021-07-11T08:10:59.000Z</time>
      </trkpt>
      <trkpt lat="47.34949" lon="-2.34195">
        <ele>25.60000038147</ele>
        <time>2021-07-11T08:11:00.000Z</time>
      </trkpt>
      <trkpt lat="47.34954" lon="-2.34194">
        <ele>25</ele>
        <time>2021-07-11T08:11:01.000Z</time>
      </trkpt>
      <trkpt lat="47.3496" lon="-2.34191">
        <ele>24.60000038147</ele>
        <time>2021-07-11T08:11:02.000Z</time>
      </trkpt>
      <trkpt lat="47.34965" lon="-2.34188">
        <ele>24</ele>
        <time>2021-07-11T08:11:03.000Z</time>
      </trkpt>
      <trkpt lat="47.34969" lon="-2.34184">
        <ele>23.60000038147</ele>
        <time>2021-07-11T08:11:04.000Z</time>
      </trkpt>
      <trkpt lat="47.34973" lon="-2.34179">
        <ele>23.200000762939</ele>
        <time>2021-07-11T08:11:05.000Z</time>
      </trkpt>
      <trkpt lat="47.34977" lon="-2.34174">
        <ele>22.799999237061</ele>
        <time>2021-07-11T08:11:06.000Z</time>
      </trkpt>
      <trkpt lat="47.3498" lon="-2.34168">
        <ele>22.39999961853</ele>
        <time>2021-07-11T08:11:07.000Z</time>
      </trkpt>
      <trkpt lat="47.34984" lon="-2.34161">
        <ele>21.799999237061</ele>
        <time>2021-07-11T08:11:08.000Z</time>
      </trkpt>
      <trkpt lat="47.34989" lon="-2.34154">
        <ele>21.799999237061</ele>
        <time>2021-07-11T08:11:09.000Z</time>
      </trkpt>
      <trkpt lat="47.34994" lon="-2.34148">
        <ele>21.39999961853</ele>
        <time>2021-07-11T08:11:10.000Z</time>
      </trkpt>
      <trkpt lat="47.34999" lon="-2.34143">
        <ele>21</ele>
        <time>2021-07-11T08:11:11.000Z</time>
      </trkpt>
      <trkpt lat="47.35004" lon="-2.34138">
        <ele>20.60000038147</ele>
        <time>2021-07-11T08:11:12.000Z</time>
      </trkpt>
      <trkpt lat="47.35008" lon="-2.34134">
        <ele>20</ele>
        <time>2021-07-11T08:11:13.000Z</time>
      </trkpt>
      <trkpt lat="47.35011" lon="-2.34131">
        <ele>19.60000038147</ele>
        <time>2021-07-11T08:11:14.000Z</time>
      </trkpt>
      <trkpt lat="47.35016" lon="-2.34129">
        <ele>19.200000762939</ele>
        <time>2021-07-11T08:11:16.000Z</time>
      </trkpt>
      <trkpt lat="47.35018" lon="-2.34129">
        <ele>18.60000038147</ele>
        <time>2021-07-11T08:11:17.000Z</time>
      </trkpt>
      <trkpt lat="47.35019" lon="-2.34129">
        <ele>18.200000762939</ele>
        <time>2021-07-11T08:11:18.000Z</time>
      </trkpt>
      <trkpt lat="47.35021" lon="-2.3413">
        <ele>17.39999961853</ele>
        <time>2021-07-11T08:11:19.000Z</time>
      </trkpt>
      <trkpt lat="47.35025" lon="-2.34131">
        <ele>17.39999961853</ele>
        <time>2021-07-11T08:11:23.000Z</time>
      </trkpt>
      <trkpt lat="47.35027" lon="-2.3413">
        <ele>17.39999961853</ele>
        <time>2021-07-11T08:11:24.000Z</time>
      </trkpt>
      <trkpt lat="47.35042" lon="-2.34128">
        <ele>17.39999961853</ele>
        <time>2021-07-11T08:11:30.000Z</time>
      </trkpt>
      <trkpt lat="47.35067" lon="-2.34123">
        <ele>17.39999961853</ele>
        <time>2021-07-11T08:11:35.000Z</time>
      </trkpt>
      <trkpt lat="47.35104" lon="-2.34117">
        <ele>17.39999961853</ele>
        <time>2021-07-11T08:11:42.000Z</time>
      </trkpt>
      <trkpt lat="47.3511" lon="-2.34115">
        <ele>17.39999961853</ele>
        <time>2021-07-11T08:11:43.000Z</time>
      </trkpt>
      <trkpt lat="47.35142" lon="-2.34102">
        <ele>17.39999961853</ele>
        <time>2021-07-11T08:11:49.000Z</time>
      </trkpt>
      <trkpt lat="47.35162" lon="-2.34098">
        <ele>17.39999961853</ele>
        <time>2021-07-11T08:11:53.000Z</time>
      </trkpt>
      <trkpt lat="47.35166" lon="-2.34097">
        <ele>17.39999961853</ele>
        <time>2021-07-11T08:11:54.000Z</time>
      </trkpt>
      <trkpt lat="47.35175" lon="-2.34088">
        <ele>17.39999961853</ele>
        <time>2021-07-11T08:11:58.000Z</time>
      </trkpt>
      <trkpt lat="47.35177" lon="-2.34081">
        <ele>16.799999237061</ele>
        <time>2021-07-11T08:11:59.000Z</time>
      </trkpt>
      <trkpt lat="47.35179" lon="-2.34073">
        <ele>16.39999961853</ele>
        <time>2021-07-11T08:12:00.000Z</time>
      </trkpt>
      <trkpt lat="47.35181" lon="-2.34065">
        <ele>16</ele>
        <time>2021-07-11T08:12:01.000Z</time>
      </trkpt>
      <trkpt lat="47.35184" lon="-2.34057">
        <ele>15.60000038147</ele>
        <time>2021-07-11T08:12:02.000Z</time>
      </trkpt>
      <trkpt lat="47.35187" lon="-2.34046">
        <ele>15</ele>
        <time>2021-07-11T08:12:03.000Z</time>
      </trkpt>
      <trkpt lat="47.35195" lon="-2.34028">
        <ele>14.60000038147</ele>
        <time>2021-07-11T08:12:05.000Z</time>
      </trkpt>
      <trkpt lat="47.352" lon="-2.34021">
        <ele>14.199999809265</ele>
        <time>2021-07-11T08:12:06.000Z</time>
      </trkpt>
      <trkpt lat="47.35207" lon="-2.34013">
        <ele>13.60000038147</ele>
        <time>2021-07-11T08:12:07.000Z</time>
      </trkpt>
      <trkpt lat="47.35213" lon="-2.34008">
        <ele>13.199999809265</ele>
        <time>2021-07-11T08:12:08.000Z</time>
      </trkpt>
      <trkpt lat="47.35219" lon="-2.34005">
        <ele>12.800000190735</ele>
        <time>2021-07-11T08:12:09.000Z</time>
      </trkpt>
      <trkpt lat="47.35232" lon="-2.33999">
        <ele>12.199999809265</ele>
        <time>2021-07-11T08:12:11.000Z</time>
      </trkpt>
      <trkpt lat="47.35238" lon="-2.33995">
        <ele>11.800000190735</ele>
        <time>2021-07-11T08:12:12.000Z</time>
      </trkpt>
      <trkpt lat="47.35245" lon="-2.33991">
        <ele>11.39999961853</ele>
        <time>2021-07-11T08:12:13.000Z</time>
      </trkpt>
      <trkpt lat="47.35251" lon="-2.33988">
        <ele>11</ele>
        <time>2021-07-11T08:12:14.000Z</time>
      </trkpt>
      <trkpt lat="47.35256" lon="-2.33985">
        <ele>10.60000038147</ele>
        <time>2021-07-11T08:12:15.000Z</time>
      </trkpt>
      <trkpt lat="47.35259" lon="-2.33981">
        <ele>10.60000038147</ele>
        <time>2021-07-11T08:12:16.000Z</time>
      </trkpt>
      <trkpt lat="47.3526" lon="-2.33975">
        <ele>10.199999809265</ele>
        <time>2021-07-11T08:12:17.000Z</time>
      </trkpt>
      <trkpt lat="47.35258" lon="-2.33971">
        <ele>9.6000003814697</ele>
        <time>2021-07-11T08:12:18.000Z</time>
      </trkpt>
      <trkpt lat="47.35256" lon="-2.33968">
        <ele>9.1999998092651</ele>
        <time>2021-07-11T08:12:19.000Z</time>
      </trkpt>
      <trkpt lat="47.35252" lon="-2.33967">
        <ele>8.6000003814697</ele>
        <time>2021-07-11T08:12:20.000Z</time>
      </trkpt>
      <trkpt lat="47.35247" lon="-2.33967">
        <ele>8.1999998092651</ele>
        <time>2021-07-11T08:12:21.000Z</time>
      </trkpt>
      <trkpt lat="47.35243" lon="-2.33967">
        <ele>8.1999998092651</ele>
        <time>2021-07-11T08:12:22.000Z</time>
      </trkpt>
      <trkpt lat="47.35238" lon="-2.33965">
        <ele>8.1999998092651</ele>
        <time>2021-07-11T08:12:23.000Z</time>
      </trkpt>
      <trkpt lat="47.35209" lon="-2.33961">
        <ele>8.1999998092651</ele>
        <time>2021-07-11T08:12:29.000Z</time>
      </trkpt>
      <trkpt lat="47.35194" lon="-2.33959">
        <ele>8.6000003814697</ele>
        <time>2021-07-11T08:12:32.000Z</time>
      </trkpt>
      <trkpt lat="47.35189" lon="-2.33959">
        <ele>9.3999996185303</ele>
        <time>2021-07-11T08:12:33.000Z</time>
      </trkpt>
      <trkpt lat="47.35184" lon="-2.33957">
        <ele>9.8000001907349</ele>
        <time>2021-07-11T08:12:34.000Z</time>
      </trkpt>
      <trkpt lat="47.35179" lon="-2.33955">
        <ele>10.39999961853</ele>
        <time>2021-07-11T08:12:35.000Z</time>
      </trkpt>
      <trkpt lat="47.35169" lon="-2.33951">
        <ele>10.39999961853</ele>
        <time>2021-07-11T08:12:37.000Z</time>
      </trkpt>
      <trkpt lat="47.3514" lon="-2.33931">
        <ele>10.39999961853</ele>
        <time>2021-07-11T08:12:43.000Z</time>
      </trkpt>
      <trkpt lat="47.35103" lon="-2.33894">
        <ele>10.39999961853</ele>
        <time>2021-07-11T08:12:51.000Z</time>
      </trkpt>
      <trkpt lat="47.35099" lon="-2.33888">
        <ele>10.39999961853</ele>
        <time>2021-07-11T08:12:52.000Z</time>
      </trkpt>
      <trkpt lat="47.35091" lon="-2.33879">
        <ele>10.39999961853</ele>
        <time>2021-07-11T08:12:54.000Z</time>
      </trkpt>
      <trkpt lat="47.35086" lon="-2.33869">
        <ele>10.39999961853</ele>
        <time>2021-07-11T08:12:56.000Z</time>
      </trkpt>
      <trkpt lat="47.35091" lon="-2.33851">
        <ele>10.39999961853</ele>
        <time>2021-07-11T08:12:59.000Z</time>
      </trkpt>
      <trkpt lat="47.35102" lon="-2.33834">
        <ele>10.39999961853</ele>
        <time>2021-07-11T08:13:02.000Z</time>
      </trkpt>
      <trkpt lat="47.35108" lon="-2.3382">
        <ele>10.39999961853</ele>
        <time>2021-07-11T08:13:05.000Z</time>
      </trkpt>
      <trkpt lat="47.35114" lon="-2.33802">
        <ele>10.39999961853</ele>
        <time>2021-07-11T08:13:10.000Z</time>
      </trkpt>
      <trkpt lat="47.35115" lon="-2.33802">
        <ele>10.39999961853</ele>
        <time>2021-07-11T08:13:11.000Z</time>
      </trkpt>
      <trkpt lat="47.35117" lon="-2.33802">
        <ele>10</ele>
        <time>2021-07-11T08:13:13.000Z</time>
      </trkpt>
      <trkpt lat="47.35118" lon="-2.33804">
        <ele>9.6000003814697</ele>
        <time>2021-07-11T08:13:14.000Z</time>
      </trkpt>
      <trkpt lat="47.35116" lon="-2.33807">
        <ele>9.1999998092651</ele>
        <time>2021-07-11T08:13:15.000Z</time>
      </trkpt>
      <trkpt lat="47.35114" lon="-2.3381">
        <ele>8.6000003814697</ele>
        <time>2021-07-11T08:13:16.000Z</time>
      </trkpt>
      <trkpt lat="47.35112" lon="-2.33813">
        <ele>8.1999998092651</ele>
        <time>2021-07-11T08:13:17.000Z</time>
      </trkpt>
      <trkpt lat="47.351" lon="-2.3384">
        <ele>8.1999998092651</ele>
        <time>2021-07-11T08:13:23.000Z</time>
      </trkpt>
      <trkpt lat="47.35092" lon="-2.33853">
        <ele>8.1999998092651</ele>
        <time>2021-07-11T08:13:28.000Z</time>
      </trkpt>
      <trkpt lat="47.35079" lon="-2.33854">
        <ele>8.1999998092651</ele>
        <time>2021-07-11T08:13:33.000Z</time>
      </trkpt>
      <trkpt lat="47.35063" lon="-2.33847">
        <ele>8.1999998092651</ele>
        <time>2021-07-11T08:13:37.000Z</time>
      </trkpt>
      <trkpt lat="47.35054" lon="-2.33841">
        <ele>8.1999998092651</ele>
        <time>2021-07-11T08:13:39.000Z</time>
      </trkpt>
      <trkpt lat="47.3504" lon="-2.33829">
        <ele>8.1999998092651</ele>
        <time>2021-07-11T08:13:42.000Z</time>
      </trkpt>
      <trkpt lat="47.3503" lon="-2.3382">
        <ele>8.1999998092651</ele>
        <time>2021-07-11T08:13:44.000Z</time>
      </trkpt>
      <trkpt lat="47.35016" lon="-2.33805">
        <ele>8.1999998092651</ele>
        <time>2021-07-11T08:13:47.000Z</time>
      </trkpt>
      <trkpt lat="47.34981" lon="-2.33772">
        <ele>8.1999998092651</ele>
        <time>2021-07-11T08:13:54.000Z</time>
      </trkpt>
      <trkpt lat="47.34955" lon="-2.33748">
        <ele>8.1999998092651</ele>
        <time>2021-07-11T08:14:00.000Z</time>
      </trkpt>
      <trkpt lat="47.34956" lon="-2.33725">
        <ele>8.1999998092651</ele>
        <time>2021-07-11T08:14:03.000Z</time>
      </trkpt>
      <trkpt lat="47.34958" lon="-2.33716">
        <ele>8.1999998092651</ele>
        <time>2021-07-11T08:14:04.000Z</time>
      </trkpt>
      <trkpt lat="47.34965" lon="-2.33662">
        <ele>8.1999998092651</ele>
        <time>2021-07-11T08:14:10.000Z</time>
      </trkpt>
      <trkpt lat="47.34981" lon="-2.33582">
        <ele>8.1999998092651</ele>
        <time>2021-07-11T08:14:19.000Z</time>
      </trkpt>
      <trkpt lat="47.34983" lon="-2.33574">
        <ele>8.1999998092651</ele>
        <time>2021-07-11T08:14:20.000Z</time>
      </trkpt>
      <trkpt lat="47.34997" lon="-2.33534">
        <ele>8.1999998092651</ele>
        <time>2021-07-11T08:14:25.000Z</time>
      </trkpt>
      <trkpt lat="47.35011" lon="-2.33506">
        <ele>8.1999998092651</ele>
        <time>2021-07-11T08:14:29.000Z</time>
      </trkpt>
      <trkpt lat="47.35018" lon="-2.33492">
        <ele>8.1999998092651</ele>
        <time>2021-07-11T08:14:31.000Z</time>
      </trkpt>
      <trkpt lat="47.35021" lon="-2.33485">
        <ele>8.1999998092651</ele>
        <time>2021-07-11T08:14:32.000Z</time>
      </trkpt>
      <trkpt lat="47.35033" lon="-2.33466">
        <ele>8.1999998092651</ele>
        <time>2021-07-11T08:14:35.000Z</time>
      </trkpt>
      <trkpt lat="47.35047" lon="-2.33438">
        <ele>8.1999998092651</ele>
        <time>2021-07-11T08:14:39.000Z</time>
      </trkpt>
      <trkpt lat="47.35053" lon="-2.33425">
        <ele>8.1999998092651</ele>
        <time>2021-07-11T08:14:41.000Z</time>
      </trkpt>
      <trkpt lat="47.35068" lon="-2.3339">
        <ele>8.1999998092651</ele>
        <time>2021-07-11T08:14:47.000Z</time>
      </trkpt>
      <trkpt lat="47.35086" lon="-2.33349">
        <ele>8.1999998092651</ele>
        <time>2021-07-11T08:14:53.000Z</time>
      </trkpt>
      <trkpt lat="47.35107" lon="-2.33306">
        <ele>8.1999998092651</ele>
        <time>2021-07-11T08:15:00.000Z</time>
      </trkpt>
      <trkpt lat="47.35128" lon="-2.33269">
        <ele>8.1999998092651</ele>
        <time>2021-07-11T08:15:06.000Z</time>
      </trkpt>
      <trkpt lat="47.35136" lon="-2.33255">
        <ele>8.1999998092651</ele>
        <time>2021-07-11T08:15:08.000Z</time>
      </trkpt>
      <trkpt lat="47.35166" lon="-2.33218">
        <ele>8.1999998092651</ele>
        <time>2021-07-11T08:15:14.000Z</time>
      </trkpt>
      <trkpt lat="47.35203" lon="-2.33172">
        <ele>8.1999998092651</ele>
        <time>2021-07-11T08:15:20.000Z</time>
      </trkpt>
      <trkpt lat="47.35241" lon="-2.33129">
        <ele>8.1999998092651</ele>
        <time>2021-07-11T08:15:27.000Z</time>
      </trkpt>
      <trkpt lat="47.35269" lon="-2.33095">
        <ele>8.1999998092651</ele>
        <time>2021-07-11T08:15:33.000Z</time>
      </trkpt>
      <trkpt lat="47.35292" lon="-2.33058">
        <ele>8.1999998092651</ele>
        <time>2021-07-11T08:15:39.000Z</time>
      </trkpt>
      <trkpt lat="47.35294" lon="-2.33049">
        <ele>8.1999998092651</ele>
        <time>2021-07-11T08:15:40.000Z</time>
      </trkpt>
      <trkpt lat="47.35301" lon="-2.33005">
        <ele>8.1999998092651</ele>
        <time>2021-07-11T08:15:45.000Z</time>
      </trkpt>
      <trkpt lat="47.35304" lon="-2.32957">
        <ele>8.1999998092651</ele>
        <time>2021-07-11T08:15:51.000Z</time>
      </trkpt>
      <trkpt lat="47.35308" lon="-2.32911">
        <ele>8.1999998092651</ele>
        <time>2021-07-11T08:15:57.000Z</time>
      </trkpt>
      <trkpt lat="47.3531" lon="-2.32904">
        <ele>8.1999998092651</ele>
        <time>2021-07-11T08:15:58.000Z</time>
      </trkpt>
      <trkpt lat="47.35316" lon="-2.32889">
        <ele>8.1999998092651</ele>
        <time>2021-07-11T08:16:00.000Z</time>
      </trkpt>
      <trkpt lat="47.35324" lon="-2.32874">
        <ele>8.8000001907349</ele>
        <time>2021-07-11T08:16:02.000Z</time>
      </trkpt>
      <trkpt lat="47.35327" lon="-2.32867">
        <ele>9.1999998092651</ele>
        <time>2021-07-11T08:16:03.000Z</time>
      </trkpt>
      <trkpt lat="47.3533" lon="-2.32862">
        <ele>9.6000003814697</ele>
        <time>2021-07-11T08:16:04.000Z</time>
      </trkpt>
      <trkpt lat="47.35334" lon="-2.32856">
        <ele>10</ele>
        <time>2021-07-11T08:16:05.000Z</time>
      </trkpt>
      <trkpt lat="47.35337" lon="-2.32852">
        <ele>10.39999961853</ele>
        <time>2021-07-11T08:16:06.000Z</time>
      </trkpt>
      <trkpt lat="47.35349" lon="-2.32836">
        <ele>10.39999961853</ele>
        <time>2021-07-11T08:16:09.000Z</time>
      </trkpt>
      <trkpt lat="47.3538" lon="-2.32806">
        <ele>10.39999961853</ele>
        <time>2021-07-11T08:16:13.000Z</time>
      </trkpt>
      <trkpt lat="47.35397" lon="-2.32789">
        <ele>10.39999961853</ele>
        <time>2021-07-11T08:16:16.000Z</time>
      </trkpt>
      <trkpt lat="47.35406" lon="-2.32774">
        <ele>10.39999961853</ele>
        <time>2021-07-11T08:16:18.000Z</time>
      </trkpt>
      <trkpt lat="47.35433" lon="-2.32727">
        <ele>10.39999961853</ele>
        <time>2021-07-11T08:16:24.000Z</time>
      </trkpt>
      <trkpt lat="47.35455" lon="-2.32674">
        <ele>10.39999961853</ele>
        <time>2021-07-11T08:16:30.000Z</time>
      </trkpt>
      <trkpt lat="47.35466" lon="-2.32618">
        <ele>10.39999961853</ele>
        <time>2021-07-11T08:16:36.000Z</time>
      </trkpt>
      <trkpt lat="47.35479" lon="-2.32564">
        <ele>10.39999961853</ele>
        <time>2021-07-11T08:16:41.000Z</time>
      </trkpt>
      <trkpt lat="47.35483" lon="-2.32553">
        <ele>10</ele>
        <time>2021-07-11T08:16:42.000Z</time>
      </trkpt>
      <trkpt lat="47.35488" lon="-2.32543">
        <ele>9.6000003814697</ele>
        <time>2021-07-11T08:16:43.000Z</time>
      </trkpt>
      <trkpt lat="47.35492" lon="-2.32534">
        <ele>9.1999998092651</ele>
        <time>2021-07-11T08:16:44.000Z</time>
      </trkpt>
      <trkpt lat="47.35497" lon="-2.32525">
        <ele>8.8000001907349</ele>
        <time>2021-07-11T08:16:45.000Z</time>
      </trkpt>
      <trkpt lat="47.35501" lon="-2.32515">
        <ele>8.3999996185303</ele>
        <time>2021-07-11T08:16:46.000Z</time>
      </trkpt>
      <trkpt lat="47.35532" lon="-2.32446">
        <ele>8.3999996185303</ele>
        <time>2021-07-11T08:16:53.000Z</time>
      </trkpt>
      <trkpt lat="47.35563" lon="-2.32379">
        <ele>8.3999996185303</ele>
        <time>2021-07-11T08:17:00.000Z</time>
      </trkpt>
      <trkpt lat="47.35593" lon="-2.32321">
        <ele>8.3999996185303</ele>
        <time>2021-07-11T08:17:07.000Z</time>
      </trkpt>
      <trkpt lat="47.35625" lon="-2.32266">
        <ele>7.8000001907349</ele>
        <time>2021-07-11T08:17:13.000Z</time>
      </trkpt>
      <trkpt lat="47.35631" lon="-2.32257">
        <ele>7.4000000953674</ele>
        <time>2021-07-11T08:17:14.000Z</time>
      </trkpt>
      <trkpt lat="47.35636" lon="-2.32248">
        <ele>7</ele>
        <time>2021-07-11T08:17:15.000Z</time>
      </trkpt>
      <trkpt lat="47.3564" lon="-2.32239">
        <ele>6.5999999046326</ele>
        <time>2021-07-11T08:17:16.000Z</time>
      </trkpt>
      <trkpt lat="47.35645" lon="-2.32232">
        <ele>6.1999998092651</ele>
        <time>2021-07-11T08:17:17.000Z</time>
      </trkpt>
      <trkpt lat="47.35663" lon="-2.32197">
        <ele>6.1999998092651</ele>
        <time>2021-07-11T08:17:21.000Z</time>
      </trkpt>
      <trkpt lat="47.35691" lon="-2.32142">
        <ele>6.1999998092651</ele>
        <time>2021-07-11T08:17:28.000Z</time>
      </trkpt>
      <trkpt lat="47.35719" lon="-2.32091">
        <ele>6.1999998092651</ele>
        <time>2021-07-11T08:17:34.000Z</time>
      </trkpt>
      <trkpt lat="47.35748" lon="-2.32044">
        <ele>6.1999998092651</ele>
        <time>2021-07-11T08:17:39.000Z</time>
      </trkpt>
      <trkpt lat="47.35784" lon="-2.31982">
        <ele>6.1999998092651</ele>
        <time>2021-07-11T08:17:46.000Z</time>
      </trkpt>
      <trkpt lat="47.35811" lon="-2.31937">
        <ele>6.1999998092651</ele>
        <time>2021-07-11T08:17:52.000Z</time>
      </trkpt>
      <trkpt lat="47.35846" lon="-2.31878">
        <ele>6.1999998092651</ele>
        <time>2021-07-11T08:18:00.000Z</time>
      </trkpt>
      <trkpt lat="47.35881" lon="-2.31818">
        <ele>6.1999998092651</ele>
        <time>2021-07-11T08:18:08.000Z</time>
      </trkpt>
      <trkpt lat="47.35894" lon="-2.31796">
        <ele>5.8000001907349</ele>
        <time>2021-07-11T08:18:11.000Z</time>
      </trkpt>
      <trkpt lat="47.35898" lon="-2.31788">
        <ele>5.4000000953674</ele>
        <time>2021-07-11T08:18:12.000Z</time>
      </trkpt>
      <trkpt lat="47.35902" lon="-2.31781">
        <ele>5</ele>
        <time>2021-07-11T08:18:13.000Z</time>
      </trkpt>
      <trkpt lat="47.35906" lon="-2.31774">
        <ele>4.5999999046326</ele>
        <time>2021-07-11T08:18:14.000Z</time>
      </trkpt>
      <trkpt lat="47.35911" lon="-2.31768">
        <ele>4.1999998092651</ele>
        <time>2021-07-11T08:18:15.000Z</time>
      </trkpt>
      <trkpt lat="47.35915" lon="-2.31761">
        <ele>4.1999998092651</ele>
        <time>2021-07-11T08:18:16.000Z</time>
      </trkpt>
      <trkpt lat="47.35936" lon="-2.31722">
        <ele>4.1999998092651</ele>
        <time>2021-07-11T08:18:22.000Z</time>
      </trkpt>
      <trkpt lat="47.35955" lon="-2.31685">
        <ele>4.1999998092651</ele>
        <time>2021-07-11T08:18:28.000Z</time>
      </trkpt>
      <trkpt lat="47.35982" lon="-2.31637">
        <ele>4.1999998092651</ele>
        <time>2021-07-11T08:18:35.000Z</time>
      </trkpt>
      <trkpt lat="47.35994" lon="-2.31618">
        <ele>4.5999999046326</ele>
        <time>2021-07-11T08:18:38.000Z</time>
      </trkpt>
      <trkpt lat="47.35997" lon="-2.31612">
        <ele>5</ele>
        <time>2021-07-11T08:18:39.000Z</time>
      </trkpt>
      <trkpt lat="47.36001" lon="-2.31606">
        <ele>5.4000000953674</ele>
        <time>2021-07-11T08:18:40.000Z</time>
      </trkpt>
      <trkpt lat="47.36005" lon="-2.31599">
        <ele>5.8000001907349</ele>
        <time>2021-07-11T08:18:41.000Z</time>
      </trkpt>
      <trkpt lat="47.36008" lon="-2.31593">
        <ele>6.4000000953674</ele>
        <time>2021-07-11T08:18:42.000Z</time>
      </trkpt>
      <trkpt lat="47.36034" lon="-2.31549">
        <ele>6.4000000953674</ele>
        <time>2021-07-11T08:18:49.000Z</time>
      </trkpt>
      <trkpt lat="47.36059" lon="-2.31506">
        <ele>6.4000000953674</ele>
        <time>2021-07-11T08:18:56.000Z</time>
      </trkpt>
      <trkpt lat="47.36071" lon="-2.31466">
        <ele>6.4000000953674</ele>
        <time>2021-07-11T08:19:01.000Z</time>
      </trkpt>
      <trkpt lat="47.36069" lon="-2.3143">
        <ele>6.4000000953674</ele>
        <time>2021-07-11T08:19:05.000Z</time>
      </trkpt>
      <trkpt lat="47.3606" lon="-2.31367">
        <ele>6.4000000953674</ele>
        <time>2021-07-11T08:19:12.000Z</time>
      </trkpt>
      <trkpt lat="47.3606" lon="-2.31359">
        <ele>6.4000000953674</ele>
        <time>2021-07-11T08:19:13.000Z</time>
      </trkpt>
      <trkpt lat="47.36065" lon="-2.31344">
        <ele>6.4000000953674</ele>
        <time>2021-07-11T08:19:15.000Z</time>
      </trkpt>
      <trkpt lat="47.36081" lon="-2.31339">
        <ele>6.4000000953674</ele>
        <time>2021-07-11T08:19:18.000Z</time>
      </trkpt>
      <trkpt lat="47.36092" lon="-2.31335">
        <ele>6.4000000953674</ele>
        <time>2021-07-11T08:19:22.000Z</time>
      </trkpt>
      <trkpt lat="47.36093" lon="-2.31321">
        <ele>6.4000000953674</ele>
        <time>2021-07-11T08:19:25.000Z</time>
      </trkpt>
      <trkpt lat="47.36094" lon="-2.31287">
        <ele>6</ele>
        <time>2021-07-11T08:19:32.000Z</time>
      </trkpt>
      <trkpt lat="47.36095" lon="-2.31283">
        <ele>5.4000000953674</ele>
        <time>2021-07-11T08:19:33.000Z</time>
      </trkpt>
      <trkpt lat="47.36095" lon="-2.31278">
        <ele>4.5999999046326</ele>
        <time>2021-07-11T08:19:34.000Z</time>
      </trkpt>
      <trkpt lat="47.36095" lon="-2.31274">
        <ele>4.1999998092651</ele>
        <time>2021-07-11T08:19:35.000Z</time>
      </trkpt>
      <trkpt lat="47.36096" lon="-2.3126">
        <ele>4.1999998092651</ele>
        <time>2021-07-11T08:19:39.000Z</time>
      </trkpt>
      <trkpt lat="47.36094" lon="-2.31242">
        <ele>4.1999998092651</ele>
        <time>2021-07-11T08:19:46.000Z</time>
      </trkpt>
      <trkpt lat="47.36089" lon="-2.3123">
        <ele>4.1999998092651</ele>
        <time>2021-07-11T08:19:53.000Z</time>
      </trkpt>
      <trkpt lat="47.36089" lon="-2.31231">
        <ele>4.1999998092651</ele>
        <time>2021-07-11T08:19:54.000Z</time>
      </trkpt>
      <trkpt lat="47.36083" lon="-2.31227">
        <ele>4.1999998092651</ele>
        <time>2021-07-11T08:28:25.000Z</time>
      </trkpt>
      <trkpt lat="47.36084" lon="-2.31228">
        <ele>4.1999998092651</ele>
        <time>2021-07-11T08:28:26.000Z</time>
      </trkpt>
      <trkpt lat="47.36084" lon="-2.31227">
        <ele>4.1999998092651</ele>
        <time>2021-07-11T08:28:27.000Z</time>
      </trkpt>
      <trkpt lat="47.36087" lon="-2.31231">
        <ele>4.1999998092651</ele>
        <time>2021-07-11T08:28:44.000Z</time>
      </trkpt>
      <trkpt lat="47.36088" lon="-2.31234">
        <ele>4.1999998092651</ele>
        <time>2021-07-11T08:28:46.000Z</time>
      </trkpt>
      <trkpt lat="47.36088" lon="-2.31239">
        <ele>4.1999998092651</ele>
        <time>2021-07-11T08:28:49.000Z</time>
      </trkpt>
      <trkpt lat="47.36089" lon="-2.31247">
        <ele>4.1999998092651</ele>
        <time>2021-07-11T08:28:59.000Z</time>
      </trkpt>
      <trkpt lat="47.3609" lon="-2.3125">
        <ele>4.1999998092651</ele>
        <time>2021-07-11T08:29:00.000Z</time>
      </trkpt>
      <trkpt lat="47.36092" lon="-2.31265">
        <ele>4.1999998092651</ele>
        <time>2021-07-11T08:29:05.000Z</time>
      </trkpt>
      <trkpt lat="47.36091" lon="-2.31299">
        <ele>4.1999998092651</ele>
        <time>2021-07-11T08:29:14.000Z</time>
      </trkpt>
      <trkpt lat="47.36093" lon="-2.31326">
        <ele>4.1999998092651</ele>
        <time>2021-07-11T08:29:21.000Z</time>
      </trkpt>
      <trkpt lat="47.36101" lon="-2.31348">
        <ele>4.1999998092651</ele>
        <time>2021-07-11T08:29:26.000Z</time>
      </trkpt>
      <trkpt lat="47.36122" lon="-2.31381">
        <ele>4.1999998092651</ele>
        <time>2021-07-11T08:29:34.000Z</time>
      </trkpt>
      <trkpt lat="47.36131" lon="-2.31393">
        <ele>4.1999998092651</ele>
        <time>2021-07-11T08:29:37.000Z</time>
      </trkpt>
      <trkpt lat="47.3614" lon="-2.31409">
        <ele>4.1999998092651</ele>
        <time>2021-07-11T08:29:40.000Z</time>
      </trkpt>
      <trkpt lat="47.36166" lon="-2.31457">
        <ele>4.1999998092651</ele>
        <time>2021-07-11T08:29:48.000Z</time>
      </trkpt>
      <trkpt lat="47.36175" lon="-2.31488">
        <ele>4.1999998092651</ele>
        <time>2021-07-11T08:29:52.000Z</time>
      </trkpt>
      <trkpt lat="47.36177" lon="-2.31496">
        <ele>4.1999998092651</ele>
        <time>2021-07-11T08:29:53.000Z</time>
      </trkpt>
      <trkpt lat="47.36187" lon="-2.31569">
        <ele>4.1999998092651</ele>
        <time>2021-07-11T08:30:02.000Z</time>
      </trkpt>
      <trkpt lat="47.36198" lon="-2.31643">
        <ele>4.1999998092651</ele>
        <time>2021-07-11T08:30:11.000Z</time>
      </trkpt>
      <trkpt lat="47.36207" lon="-2.31711">
        <ele>4.1999998092651</ele>
        <time>2021-07-11T08:30:19.000Z</time>
      </trkpt>
      <trkpt lat="47.36215" lon="-2.31771">
        <ele>4.1999998092651</ele>
        <time>2021-07-11T08:30:26.000Z</time>
      </trkpt>
      <trkpt lat="47.36221" lon="-2.31811">
        <ele>4.1999998092651</ele>
        <time>2021-07-11T08:30:31.000Z</time>
      </trkpt>
      <trkpt lat="47.36225" lon="-2.31827">
        <ele>4.1999998092651</ele>
        <time>2021-07-11T08:30:33.000Z</time>
      </trkpt>
      <trkpt lat="47.36228" lon="-2.31851">
        <ele>4.5999999046326</ele>
        <time>2021-07-11T08:30:36.000Z</time>
      </trkpt>
      <trkpt lat="47.36229" lon="-2.31859">
        <ele>5</ele>
        <time>2021-07-11T08:30:37.000Z</time>
      </trkpt>
      <trkpt lat="47.3623" lon="-2.31867">
        <ele>5.4000000953674</ele>
        <time>2021-07-11T08:30:38.000Z</time>
      </trkpt>
      <trkpt lat="47.3623" lon="-2.31875">
        <ele>5.8000001907349</ele>
        <time>2021-07-11T08:30:39.000Z</time>
      </trkpt>
      <trkpt lat="47.36232" lon="-2.31883">
        <ele>6.1999998092651</ele>
        <time>2021-07-11T08:30:40.000Z</time>
      </trkpt>
      <trkpt lat="47.36235" lon="-2.31906">
        <ele>6.1999998092651</ele>
        <time>2021-07-11T08:30:43.000Z</time>
      </trkpt>
      <trkpt lat="47.36239" lon="-2.31927">
        <ele>6.1999998092651</ele>
        <time>2021-07-11T08:30:46.000Z</time>
      </trkpt>
      <trkpt lat="47.3624" lon="-2.31934">
        <ele>6.1999998092651</ele>
        <time>2021-07-11T08:30:47.000Z</time>
      </trkpt>
      <trkpt lat="47.36245" lon="-2.31965">
        <ele>6.1999998092651</ele>
        <time>2021-07-11T08:30:51.000Z</time>
      </trkpt>
      <trkpt lat="47.36251" lon="-2.32003">
        <ele>6.5999999046326</ele>
        <time>2021-07-11T08:30:56.000Z</time>
      </trkpt>
      <trkpt lat="47.36253" lon="-2.32011">
        <ele>7.1999998092651</ele>
        <time>2021-07-11T08:30:57.000Z</time>
      </trkpt>
      <trkpt lat="47.36253" lon="-2.3202">
        <ele>7.5999999046326</ele>
        <time>2021-07-11T08:30:58.000Z</time>
      </trkpt>
      <trkpt lat="47.36254" lon="-2.32028">
        <ele>8</ele>
        <time>2021-07-11T08:30:59.000Z</time>
      </trkpt>
      <trkpt lat="47.36255" lon="-2.32038">
        <ele>8.3999996185303</ele>
        <time>2021-07-11T08:31:00.000Z</time>
      </trkpt>
      <trkpt lat="47.36259" lon="-2.32073">
        <ele>8.3999996185303</ele>
        <time>2021-07-11T08:31:04.000Z</time>
      </trkpt>
      <trkpt lat="47.36268" lon="-2.32154">
        <ele>8.3999996185303</ele>
        <time>2021-07-11T08:31:13.000Z</time>
      </trkpt>
      <trkpt lat="47.36277" lon="-2.32214">
        <ele>8.3999996185303</ele>
        <time>2021-07-11T08:31:20.000Z</time>
      </trkpt>
      <trkpt lat="47.36278" lon="-2.32223">
        <ele>8.3999996185303</ele>
        <time>2021-07-11T08:31:21.000Z</time>
      </trkpt>
      <trkpt lat="47.36282" lon="-2.32267">
        <ele>8.3999996185303</ele>
        <time>2021-07-11T08:31:26.000Z</time>
      </trkpt>
      <trkpt lat="47.36291" lon="-2.3231">
        <ele>8.3999996185303</ele>
        <time>2021-07-11T08:31:32.000Z</time>
      </trkpt>
      <trkpt lat="47.36291" lon="-2.32333">
        <ele>8.3999996185303</ele>
        <time>2021-07-11T08:31:35.000Z</time>
      </trkpt>
      <trkpt lat="47.36289" lon="-2.32339">
        <ele>8.3999996185303</ele>
        <time>2021-07-11T08:31:36.000Z</time>
      </trkpt>
      <trkpt lat="47.36274" lon="-2.32346">
        <ele>8.3999996185303</ele>
        <time>2021-07-11T08:31:39.000Z</time>
      </trkpt>
      <trkpt lat="47.36231" lon="-2.32349">
        <ele>8.3999996185303</ele>
        <time>2021-07-11T08:31:46.000Z</time>
      </trkpt>
      <trkpt lat="47.36194" lon="-2.32352">
        <ele>8.3999996185303</ele>
        <time>2021-07-11T08:31:52.000Z</time>
      </trkpt>
      <trkpt lat="47.36148" lon="-2.32351">
        <ele>8.3999996185303</ele>
        <time>2021-07-11T08:31:59.000Z</time>
      </trkpt>
      <trkpt lat="47.3613" lon="-2.32352">
        <ele>8.3999996185303</ele>
        <time>2021-07-11T08:32:02.000Z</time>
      </trkpt>
      <trkpt lat="47.36125" lon="-2.32355">
        <ele>8.3999996185303</ele>
        <time>2021-07-11T08:32:03.000Z</time>
      </trkpt>
      <trkpt lat="47.36118" lon="-2.32376">
        <ele>8.3999996185303</ele>
        <time>2021-07-11T08:32:06.000Z</time>
      </trkpt>
      <trkpt lat="47.36119" lon="-2.32403">
        <ele>8.3999996185303</ele>
        <time>2021-07-11T08:32:09.000Z</time>
      </trkpt>
      <trkpt lat="47.36119" lon="-2.3242">
        <ele>8.3999996185303</ele>
        <time>2021-07-11T08:32:11.000Z</time>
      </trkpt>
      <trkpt lat="47.36118" lon="-2.32437">
        <ele>8.3999996185303</ele>
        <time>2021-07-11T08:32:13.000Z</time>
      </trkpt>
      <trkpt lat="47.36118" lon="-2.32455">
        <ele>8.3999996185303</ele>
        <time>2021-07-11T08:32:15.000Z</time>
      </trkpt>
      <trkpt lat="47.36121" lon="-2.32514">
        <ele>8.3999996185303</ele>
        <time>2021-07-11T08:32:22.000Z</time>
      </trkpt>
      <trkpt lat="47.36126" lon="-2.32561">
        <ele>8.3999996185303</ele>
        <time>2021-07-11T08:32:28.000Z</time>
      </trkpt>
      <trkpt lat="47.36129" lon="-2.32619">
        <ele>8.3999996185303</ele>
        <time>2021-07-11T08:32:35.000Z</time>
      </trkpt>
      <trkpt lat="47.36127" lon="-2.3264">
        <ele>8.8000001907349</ele>
        <time>2021-07-11T08:32:37.000Z</time>
      </trkpt>
      <trkpt lat="47.36127" lon="-2.3265">
        <ele>9.1999998092651</ele>
        <time>2021-07-11T08:32:38.000Z</time>
      </trkpt>
      <trkpt lat="47.36127" lon="-2.3266">
        <ele>9.6000003814697</ele>
        <time>2021-07-11T08:32:39.000Z</time>
      </trkpt>
      <trkpt lat="47.36126" lon="-2.3267">
        <ele>10</ele>
        <time>2021-07-11T08:32:40.000Z</time>
      </trkpt>
      <trkpt lat="47.36126" lon="-2.32681">
        <ele>10.39999961853</ele>
        <time>2021-07-11T08:32:41.000Z</time>
      </trkpt>
      <trkpt lat="47.36124" lon="-2.32722">
        <ele>10.39999961853</ele>
        <time>2021-07-11T08:32:45.000Z</time>
      </trkpt>
      <trkpt lat="47.36123" lon="-2.32731">
        <ele>10.39999961853</ele>
        <time>2021-07-11T08:32:46.000Z</time>
      </trkpt>
      <trkpt lat="47.36121" lon="-2.32746">
        <ele>10.39999961853</ele>
        <time>2021-07-11T08:32:48.000Z</time>
      </trkpt>
      <trkpt lat="47.3612" lon="-2.3276">
        <ele>10.39999961853</ele>
        <time>2021-07-11T08:32:50.000Z</time>
      </trkpt>
      <trkpt lat="47.36115" lon="-2.32815">
        <ele>10.39999961853</ele>
        <time>2021-07-11T08:32:57.000Z</time>
      </trkpt>
      <trkpt lat="47.36115" lon="-2.32823">
        <ele>10.39999961853</ele>
        <time>2021-07-11T08:32:58.000Z</time>
      </trkpt>
      <trkpt lat="47.3611" lon="-2.32868">
        <ele>10.800000190735</ele>
        <time>2021-07-11T08:33:03.000Z</time>
      </trkpt>
      <trkpt lat="47.36109" lon="-2.32877">
        <ele>11.199999809265</ele>
        <time>2021-07-11T08:33:04.000Z</time>
      </trkpt>
      <trkpt lat="47.36107" lon="-2.32885">
        <ele>11.60000038147</ele>
        <time>2021-07-11T08:33:05.000Z</time>
      </trkpt>
      <trkpt lat="47.36106" lon="-2.32895">
        <ele>12.199999809265</ele>
        <time>2021-07-11T08:33:06.000Z</time>
      </trkpt>
      <trkpt lat="47.36105" lon="-2.32904">
        <ele>12.60000038147</ele>
        <time>2021-07-11T08:33:07.000Z</time>
      </trkpt>
      <trkpt lat="47.36098" lon="-2.32951">
        <ele>12.60000038147</ele>
        <time>2021-07-11T08:33:12.000Z</time>
      </trkpt>
      <trkpt lat="47.3609" lon="-2.33026">
        <ele>12.60000038147</ele>
        <time>2021-07-11T08:33:20.000Z</time>
      </trkpt>
      <trkpt lat="47.36084" lon="-2.3308">
        <ele>12.60000038147</ele>
        <time>2021-07-11T08:33:26.000Z</time>
      </trkpt>
      <trkpt lat="47.36075" lon="-2.33167">
        <ele>12.60000038147</ele>
        <time>2021-07-11T08:33:35.000Z</time>
      </trkpt>
      <trkpt lat="47.36066" lon="-2.3325">
        <ele>12.60000038147</ele>
        <time>2021-07-11T08:33:43.000Z</time>
      </trkpt>
      <trkpt lat="47.36058" lon="-2.33338">
        <ele>12.60000038147</ele>
        <time>2021-07-11T08:33:51.000Z</time>
      </trkpt>
      <trkpt lat="47.36057" lon="-2.33349">
        <ele>12.199999809265</ele>
        <time>2021-07-11T08:33:52.000Z</time>
      </trkpt>
      <trkpt lat="47.36056" lon="-2.3336">
        <ele>11.60000038147</ele>
        <time>2021-07-11T08:33:53.000Z</time>
      </trkpt>
      <trkpt lat="47.36055" lon="-2.3337">
        <ele>11.199999809265</ele>
        <time>2021-07-11T08:33:54.000Z</time>
      </trkpt>
      <trkpt lat="47.36054" lon="-2.3338">
        <ele>10.800000190735</ele>
        <time>2021-07-11T08:33:55.000Z</time>
      </trkpt>
      <trkpt lat="47.36053" lon="-2.33389">
        <ele>10.39999961853</ele>
        <time>2021-07-11T08:33:56.000Z</time>
      </trkpt>
      <trkpt lat="47.36052" lon="-2.33399">
        <ele>10.39999961853</ele>
        <time>2021-07-11T08:33:57.000Z</time>
      </trkpt>
      <trkpt lat="47.36046" lon="-2.33459">
        <ele>10.39999961853</ele>
        <time>2021-07-11T08:34:04.000Z</time>
      </trkpt>
      <trkpt lat="47.36045" lon="-2.33484">
        <ele>10.39999961853</ele>
        <time>2021-07-11T08:34:07.000Z</time>
      </trkpt>
      <trkpt lat="47.36044" lon="-2.33517">
        <ele>10.39999961853</ele>
        <time>2021-07-11T08:34:11.000Z</time>
      </trkpt>
      <trkpt lat="47.36044" lon="-2.33532">
        <ele>10.39999961853</ele>
        <time>2021-07-11T08:34:13.000Z</time>
      </trkpt>
      <trkpt lat="47.36046" lon="-2.33555">
        <ele>10.800000190735</ele>
        <time>2021-07-11T08:34:16.000Z</time>
      </trkpt>
      <trkpt lat="47.36047" lon="-2.33563">
        <ele>11.199999809265</ele>
        <time>2021-07-11T08:34:17.000Z</time>
      </trkpt>
      <trkpt lat="47.36047" lon="-2.3357">
        <ele>11.800000190735</ele>
        <time>2021-07-11T08:34:18.000Z</time>
      </trkpt>
      <trkpt lat="47.36048" lon="-2.33577">
        <ele>12.199999809265</ele>
        <time>2021-07-11T08:34:19.000Z</time>
      </trkpt>
      <trkpt lat="47.36048" lon="-2.33584">
        <ele>12.60000038147</ele>
        <time>2021-07-11T08:34:20.000Z</time>
      </trkpt>
      <trkpt lat="47.3605" lon="-2.33601">
        <ele>12.60000038147</ele>
        <time>2021-07-11T08:34:23.000Z</time>
      </trkpt>
      <trkpt lat="47.36053" lon="-2.33606">
        <ele>12.60000038147</ele>
        <time>2021-07-11T08:34:25.000Z</time>
      </trkpt>
      <trkpt lat="47.36054" lon="-2.33606">
        <ele>13</ele>
        <time>2021-07-11T08:34:26.000Z</time>
      </trkpt>
      <trkpt lat="47.36055" lon="-2.33606">
        <ele>13.39999961853</ele>
        <time>2021-07-11T08:34:27.000Z</time>
      </trkpt>
      <trkpt lat="47.36057" lon="-2.33606">
        <ele>14</ele>
        <time>2021-07-11T08:34:28.000Z</time>
      </trkpt>
      <trkpt lat="47.36057" lon="-2.33606">
        <ele>14.39999961853</ele>
        <time>2021-07-11T08:34:29.000Z</time>
      </trkpt>
      <trkpt lat="47.36056" lon="-2.3361">
        <ele>14.800000190735</ele>
        <time>2021-07-11T08:34:39.000Z</time>
      </trkpt>
      <trkpt lat="47.36055" lon="-2.33612">
        <ele>14.800000190735</ele>
        <time>2021-07-11T08:34:40.000Z</time>
      </trkpt>
      <trkpt lat="47.36054" lon="-2.33616">
        <ele>14.800000190735</ele>
        <time>2021-07-11T08:34:41.000Z</time>
      </trkpt>
      <trkpt lat="47.36053" lon="-2.33627">
        <ele>14.800000190735</ele>
        <time>2021-07-11T08:34:43.000Z</time>
      </trkpt>
      <trkpt lat="47.36054" lon="-2.33639">
        <ele>14.800000190735</ele>
        <time>2021-07-11T08:34:45.000Z</time>
      </trkpt>
      <trkpt lat="47.36055" lon="-2.33665">
        <ele>14.800000190735</ele>
        <time>2021-07-11T08:34:49.000Z</time>
      </trkpt>
      <trkpt lat="47.36055" lon="-2.33679">
        <ele>15.199999809265</ele>
        <time>2021-07-11T08:34:51.000Z</time>
      </trkpt>
      <trkpt lat="47.36055" lon="-2.33687">
        <ele>15.60000038147</ele>
        <time>2021-07-11T08:34:52.000Z</time>
      </trkpt>
      <trkpt lat="47.36055" lon="-2.33694">
        <ele>16</ele>
        <time>2021-07-11T08:34:53.000Z</time>
      </trkpt>
      <trkpt lat="47.36055" lon="-2.33701">
        <ele>16.39999961853</ele>
        <time>2021-07-11T08:34:54.000Z</time>
      </trkpt>
      <trkpt lat="47.36055" lon="-2.33709">
        <ele>16.799999237061</ele>
        <time>2021-07-11T08:34:55.000Z</time>
      </trkpt>
      <trkpt lat="47.36056" lon="-2.33717">
        <ele>16.799999237061</ele>
        <time>2021-07-11T08:34:56.000Z</time>
      </trkpt>
      <trkpt lat="47.36057" lon="-2.33768">
        <ele>16.799999237061</ele>
        <time>2021-07-11T08:35:02.000Z</time>
      </trkpt>
      <trkpt lat="47.3606" lon="-2.33844">
        <ele>16.39999961853</ele>
        <time>2021-07-11T08:35:10.000Z</time>
      </trkpt>
      <trkpt lat="47.3606" lon="-2.33852">
        <ele>16</ele>
        <time>2021-07-11T08:35:11.000Z</time>
      </trkpt>
      <trkpt lat="47.36061" lon="-2.33862">
        <ele>15</ele>
        <time>2021-07-11T08:35:12.000Z</time>
      </trkpt>
      <trkpt lat="47.36061" lon="-2.3387">
        <ele>14.60000038147</ele>
        <time>2021-07-11T08:35:13.000Z</time>
      </trkpt>
      <trkpt lat="47.36063" lon="-2.33921">
        <ele>14.60000038147</ele>
        <time>2021-07-11T08:35:19.000Z</time>
      </trkpt>
      <trkpt lat="47.36066" lon="-2.33981">
        <ele>14.60000038147</ele>
        <time>2021-07-11T08:35:26.000Z</time>
      </trkpt>
      <trkpt lat="47.36069" lon="-2.34056">
        <ele>14.60000038147</ele>
        <time>2021-07-11T08:35:35.000Z</time>
      </trkpt>
      <trkpt lat="47.36069" lon="-2.34063">
        <ele>14.60000038147</ele>
        <time>2021-07-11T08:35:36.000Z</time>
      </trkpt>
      <trkpt lat="47.36064" lon="-2.34076">
        <ele>14.60000038147</ele>
        <time>2021-07-11T08:35:38.000Z</time>
      </trkpt>
      <trkpt lat="47.36047" lon="-2.34097">
        <ele>14.60000038147</ele>
        <time>2021-07-11T08:35:42.000Z</time>
      </trkpt>
      <trkpt lat="47.36037" lon="-2.34129">
        <ele>14.60000038147</ele>
        <time>2021-07-11T08:35:46.000Z</time>
      </trkpt>
      <trkpt lat="47.36032" lon="-2.3417">
        <ele>14.60000038147</ele>
        <time>2021-07-11T08:35:51.000Z</time>
      </trkpt>
      <trkpt lat="47.36032" lon="-2.34239">
        <ele>14.60000038147</ele>
        <time>2021-07-11T08:35:59.000Z</time>
      </trkpt>
      <trkpt lat="47.36037" lon="-2.34274">
        <ele>14.60000038147</ele>
        <time>2021-07-11T08:36:03.000Z</time>
      </trkpt>
      <trkpt lat="47.36038" lon="-2.34283">
        <ele>14.60000038147</ele>
        <time>2021-07-11T08:36:04.000Z</time>
      </trkpt>
      <trkpt lat="47.36046" lon="-2.34317">
        <ele>14.60000038147</ele>
        <time>2021-07-11T08:36:08.000Z</time>
      </trkpt>
      <trkpt lat="47.36048" lon="-2.34326">
        <ele>14.60000038147</ele>
        <time>2021-07-11T08:36:09.000Z</time>
      </trkpt>
      <trkpt lat="47.36052" lon="-2.34379">
        <ele>14.60000038147</ele>
        <time>2021-07-11T08:36:15.000Z</time>
      </trkpt>
      <trkpt lat="47.3605" lon="-2.34387">
        <ele>14.60000038147</ele>
        <time>2021-07-11T08:36:16.000Z</time>
      </trkpt>
      <trkpt lat="47.3604" lon="-2.34416">
        <ele>14.60000038147</ele>
        <time>2021-07-11T08:36:20.000Z</time>
      </trkpt>
      <trkpt lat="47.36037" lon="-2.34433">
        <ele>14.60000038147</ele>
        <time>2021-07-11T08:36:22.000Z</time>
      </trkpt>
      <trkpt lat="47.36038" lon="-2.34461">
        <ele>15</ele>
        <time>2021-07-11T08:36:25.000Z</time>
      </trkpt>
      <trkpt lat="47.36039" lon="-2.34471">
        <ele>15.39999961853</ele>
        <time>2021-07-11T08:36:26.000Z</time>
      </trkpt>
      <trkpt lat="47.36041" lon="-2.34481">
        <ele>16.200000762939</ele>
        <time>2021-07-11T08:36:27.000Z</time>
      </trkpt>
      <trkpt lat="47.36043" lon="-2.34492">
        <ele>16.60000038147</ele>
        <time>2021-07-11T08:36:28.000Z</time>
      </trkpt>
      <trkpt lat="47.3605" lon="-2.34519">
        <ele>16.60000038147</ele>
        <time>2021-07-11T08:36:31.000Z</time>
      </trkpt>
      <trkpt lat="47.36058" lon="-2.34546">
        <ele>16.60000038147</ele>
        <time>2021-07-11T08:36:34.000Z</time>
      </trkpt>
      <trkpt lat="47.36064" lon="-2.34563">
        <ele>16.60000038147</ele>
        <time>2021-07-11T08:36:36.000Z</time>
      </trkpt>
      <trkpt lat="47.3608" lon="-2.34618">
        <ele>16.60000038147</ele>
        <time>2021-07-11T08:36:42.000Z</time>
      </trkpt>
      <trkpt lat="47.36087" lon="-2.34679">
        <ele>16.60000038147</ele>
        <time>2021-07-11T08:36:48.000Z</time>
      </trkpt>
      <trkpt lat="47.36088" lon="-2.34711">
        <ele>17</ele>
        <time>2021-07-11T08:36:51.000Z</time>
      </trkpt>
      <trkpt lat="47.36089" lon="-2.34721">
        <ele>17.60000038147</ele>
        <time>2021-07-11T08:36:52.000Z</time>
      </trkpt>
      <trkpt lat="47.3609" lon="-2.34732">
        <ele>18</ele>
        <time>2021-07-11T08:36:53.000Z</time>
      </trkpt>
      <trkpt lat="47.36091" lon="-2.34743">
        <ele>18.39999961853</ele>
        <time>2021-07-11T08:36:54.000Z</time>
      </trkpt>
      <trkpt lat="47.36092" lon="-2.34753">
        <ele>18.799999237061</ele>
        <time>2021-07-11T08:36:55.000Z</time>
      </trkpt>
      <trkpt lat="47.36093" lon="-2.34809">
        <ele>18.799999237061</ele>
        <time>2021-07-11T08:37:00.000Z</time>
      </trkpt>
      <trkpt lat="47.36093" lon="-2.34875">
        <ele>18.39999961853</ele>
        <time>2021-07-11T08:37:06.000Z</time>
      </trkpt>
      <trkpt lat="47.36093" lon="-2.34887">
        <ele>18</ele>
        <time>2021-07-11T08:37:07.000Z</time>
      </trkpt>
      <trkpt lat="47.36093" lon="-2.34898">
        <ele>17.60000038147</ele>
        <time>2021-07-11T08:37:08.000Z</time>
      </trkpt>
      <trkpt lat="47.36093" lon="-2.34909">
        <ele>17.200000762939</ele>
        <time>2021-07-11T08:37:09.000Z</time>
      </trkpt>
      <trkpt lat="47.36093" lon="-2.3492">
        <ele>16.799999237061</ele>
        <time>2021-07-11T08:37:10.000Z</time>
      </trkpt>
      <trkpt lat="47.36095" lon="-2.34951">
        <ele>16.799999237061</ele>
        <time>2021-07-11T08:37:13.000Z</time>
      </trkpt>
      <trkpt lat="47.36105" lon="-2.35008">
        <ele>16.799999237061</ele>
        <time>2021-07-11T08:37:19.000Z</time>
      </trkpt>
      <trkpt lat="47.36106" lon="-2.35028">
        <ele>16.799999237061</ele>
        <time>2021-07-11T08:37:21.000Z</time>
      </trkpt>
      <trkpt lat="47.36104" lon="-2.35048">
        <ele>16.799999237061</ele>
        <time>2021-07-11T08:37:23.000Z</time>
      </trkpt>
      <trkpt lat="47.36098" lon="-2.35123">
        <ele>16.799999237061</ele>
        <time>2021-07-11T08:37:30.000Z</time>
      </trkpt>
      <trkpt lat="47.36094" lon="-2.35173">
        <ele>16.799999237061</ele>
        <time>2021-07-11T08:37:35.000Z</time>
      </trkpt>
      <trkpt lat="47.36089" lon="-2.35192">
        <ele>16.799999237061</ele>
        <time>2021-07-11T08:37:38.000Z</time>
      </trkpt>
      <trkpt lat="47.36087" lon="-2.35197">
        <ele>16.39999961853</ele>
        <time>2021-07-11T08:37:39.000Z</time>
      </trkpt>
      <trkpt lat="47.36084" lon="-2.35201">
        <ele>15.60000038147</ele>
        <time>2021-07-11T08:37:40.000Z</time>
      </trkpt>
      <trkpt lat="47.36081" lon="-2.35206">
        <ele>15.199999809265</ele>
        <time>2021-07-11T08:37:41.000Z</time>
      </trkpt>
      <trkpt lat="47.36077" lon="-2.35211">
        <ele>14.60000038147</ele>
        <time>2021-07-11T08:37:42.000Z</time>
      </trkpt>
      <trkpt lat="47.36069" lon="-2.35223">
        <ele>14.60000038147</ele>
        <time>2021-07-11T08:37:44.000Z</time>
      </trkpt>
      <trkpt lat="47.36037" lon="-2.35265">
        <ele>14.60000038147</ele>
        <time>2021-07-11T08:37:51.000Z</time>
      </trkpt>
      <trkpt lat="47.36003" lon="-2.35312">
        <ele>14.60000038147</ele>
        <time>2021-07-11T08:37:58.000Z</time>
      </trkpt>
      <trkpt lat="47.35966" lon="-2.3536">
        <ele>14.60000038147</ele>
        <time>2021-07-11T08:38:05.000Z</time>
      </trkpt>
      <trkpt lat="47.35938" lon="-2.35399">
        <ele>14.60000038147</ele>
        <time>2021-07-11T08:38:11.000Z</time>
      </trkpt>
      <trkpt lat="47.35927" lon="-2.35409">
        <ele>14.60000038147</ele>
        <time>2021-07-11T08:38:13.000Z</time>
      </trkpt>
      <trkpt lat="47.35915" lon="-2.35416">
        <ele>14.60000038147</ele>
        <time>2021-07-11T08:38:15.000Z</time>
      </trkpt>
      <trkpt lat="47.35887" lon="-2.35437">
        <ele>14.60000038147</ele>
        <time>2021-07-11T08:38:20.000Z</time>
      </trkpt>
      <trkpt lat="47.35859" lon="-2.35457">
        <ele>14.60000038147</ele>
        <time>2021-07-11T08:38:26.000Z</time>
      </trkpt>
      <trkpt lat="47.35818" lon="-2.35477">
        <ele>14.60000038147</ele>
        <time>2021-07-11T08:38:34.000Z</time>
      </trkpt>
      <trkpt lat="47.35785" lon="-2.3549">
        <ele>14.60000038147</ele>
        <time>2021-07-11T08:38:41.000Z</time>
      </trkpt>
      <trkpt lat="47.35749" lon="-2.35508">
        <ele>14.60000038147</ele>
        <time>2021-07-11T08:38:48.000Z</time>
      </trkpt>
      <trkpt lat="47.35713" lon="-2.35526">
        <ele>14.60000038147</ele>
        <time>2021-07-11T08:38:54.000Z</time>
      </trkpt>
      <trkpt lat="47.35677" lon="-2.35543">
        <ele>14.60000038147</ele>
        <time>2021-07-11T08:39:00.000Z</time>
      </trkpt>
      <trkpt lat="47.35638" lon="-2.35575">
        <ele>14.60000038147</ele>
        <time>2021-07-11T08:39:07.000Z</time>
      </trkpt>
      <trkpt lat="47.35603" lon="-2.35613">
        <ele>14.60000038147</ele>
        <time>2021-07-11T08:39:14.000Z</time>
      </trkpt>
      <trkpt lat="47.35584" lon="-2.35635">
        <ele>15.199999809265</ele>
        <time>2021-07-11T08:39:18.000Z</time>
      </trkpt>
      <trkpt lat="47.35579" lon="-2.3564">
        <ele>15.60000038147</ele>
        <time>2021-07-11T08:39:19.000Z</time>
      </trkpt>
      <trkpt lat="47.35574" lon="-2.35645">
        <ele>16</ele>
        <time>2021-07-11T08:39:20.000Z</time>
      </trkpt>
      <trkpt lat="47.35569" lon="-2.3565">
        <ele>16.39999961853</ele>
        <time>2021-07-11T08:39:21.000Z</time>
      </trkpt>
      <trkpt lat="47.35563" lon="-2.35654">
        <ele>16.799999237061</ele>
        <time>2021-07-11T08:39:22.000Z</time>
      </trkpt>
      <trkpt lat="47.35543" lon="-2.35671">
        <ele>16.799999237061</ele>
        <time>2021-07-11T08:39:26.000Z</time>
      </trkpt>
      <trkpt lat="47.35533" lon="-2.35679">
        <ele>16.799999237061</ele>
        <time>2021-07-11T08:39:28.000Z</time>
      </trkpt>
      <trkpt lat="47.35506" lon="-2.3571">
        <ele>16.799999237061</ele>
        <time>2021-07-11T08:39:34.000Z</time>
      </trkpt>
      <trkpt lat="47.35498" lon="-2.35722">
        <ele>17.200000762939</ele>
        <time>2021-07-11T08:39:36.000Z</time>
      </trkpt>
      <trkpt lat="47.35493" lon="-2.35728">
        <ele>17.60000038147</ele>
        <time>2021-07-11T08:39:37.000Z</time>
      </trkpt>
      <trkpt lat="47.35489" lon="-2.35734">
        <ele>18</ele>
        <time>2021-07-11T08:39:38.000Z</time>
      </trkpt>
      <trkpt lat="47.35486" lon="-2.35741">
        <ele>18.39999961853</ele>
        <time>2021-07-11T08:39:39.000Z</time>
      </trkpt>
      <trkpt lat="47.35482" lon="-2.35747">
        <ele>18.799999237061</ele>
        <time>2021-07-11T08:39:40.000Z</time>
      </trkpt>
      <trkpt lat="47.35478" lon="-2.35754">
        <ele>18.799999237061</ele>
        <time>2021-07-11T08:39:41.000Z</time>
      </trkpt>
      <trkpt lat="47.35448" lon="-2.35798">
        <ele>18.799999237061</ele>
        <time>2021-07-11T08:39:48.000Z</time>
      </trkpt>
      <trkpt lat="47.35415" lon="-2.35842">
        <ele>18.799999237061</ele>
        <time>2021-07-11T08:39:56.000Z</time>
      </trkpt>
      <trkpt lat="47.35396" lon="-2.35868">
        <ele>18.799999237061</ele>
        <time>2021-07-11T08:40:01.000Z</time>
      </trkpt>
      <trkpt lat="47.35391" lon="-2.35872">
        <ele>18.799999237061</ele>
        <time>2021-07-11T08:40:02.000Z</time>
      </trkpt>
      <trkpt lat="47.35368" lon="-2.35896">
        <ele>18.799999237061</ele>
        <time>2021-07-11T08:40:07.000Z</time>
      </trkpt>
      <trkpt lat="47.35363" lon="-2.35901">
        <ele>18.799999237061</ele>
        <time>2021-07-11T08:40:08.000Z</time>
      </trkpt>
      <trkpt lat="47.3534" lon="-2.35928">
        <ele>18.799999237061</ele>
        <time>2021-07-11T08:40:13.000Z</time>
      </trkpt>
      <trkpt lat="47.35336" lon="-2.35935">
        <ele>18.799999237061</ele>
        <time>2021-07-11T08:40:14.000Z</time>
      </trkpt>
      <trkpt lat="47.35326" lon="-2.35956">
        <ele>18.799999237061</ele>
        <time>2021-07-11T08:40:17.000Z</time>
      </trkpt>
      <trkpt lat="47.35316" lon="-2.35979">
        <ele>18.39999961853</ele>
        <time>2021-07-11T08:40:20.000Z</time>
      </trkpt>
      <trkpt lat="47.35313" lon="-2.35987">
        <ele>18</ele>
        <time>2021-07-11T08:40:21.000Z</time>
      </trkpt>
      <trkpt lat="47.35309" lon="-2.35995">
        <ele>17.60000038147</ele>
        <time>2021-07-11T08:40:22.000Z</time>
      </trkpt>
      <trkpt lat="47.35306" lon="-2.36003">
        <ele>17.200000762939</ele>
        <time>2021-07-11T08:40:23.000Z</time>
      </trkpt>
      <trkpt lat="47.35302" lon="-2.36011">
        <ele>16.799999237061</ele>
        <time>2021-07-11T08:40:24.000Z</time>
      </trkpt>
      <trkpt lat="47.35298" lon="-2.36018">
        <ele>16.799999237061</ele>
        <time>2021-07-11T08:40:25.000Z</time>
      </trkpt>
      <trkpt lat="47.35279" lon="-2.3604">
        <ele>16.799999237061</ele>
        <time>2021-07-11T08:40:29.000Z</time>
      </trkpt>
      <trkpt lat="47.35274" lon="-2.36044">
        <ele>16.799999237061</ele>
        <time>2021-07-11T08:40:30.000Z</time>
      </trkpt>
      <trkpt lat="47.35238" lon="-2.36073">
        <ele>16.799999237061</ele>
        <time>2021-07-11T08:40:37.000Z</time>
      </trkpt>
      <trkpt lat="47.35202" lon="-2.36104">
        <ele>16.799999237061</ele>
        <time>2021-07-11T08:40:44.000Z</time>
      </trkpt>
      <trkpt lat="47.35164" lon="-2.36133">
        <ele>16.799999237061</ele>
        <time>2021-07-11T08:40:51.000Z</time>
      </trkpt>
      <trkpt lat="47.35136" lon="-2.36154">
        <ele>16.799999237061</ele>
        <time>2021-07-11T08:40:57.000Z</time>
      </trkpt>
      <trkpt lat="47.35115" lon="-2.36168">
        <ele>16.799999237061</ele>
        <time>2021-07-11T08:41:03.000Z</time>
      </trkpt>
      <trkpt lat="47.35108" lon="-2.36171">
        <ele>16.799999237061</ele>
        <time>2021-07-11T08:41:07.000Z</time>
      </trkpt>
      <trkpt lat="47.35106" lon="-2.36173">
        <ele>16.799999237061</ele>
        <time>2021-07-11T08:41:39.000Z</time>
      </trkpt>
      <trkpt lat="47.35103" lon="-2.36174">
        <ele>16.799999237061</ele>
        <time>2021-07-11T08:41:40.000Z</time>
      </trkpt>
      <trkpt lat="47.35099" lon="-2.36174">
        <ele>16.799999237061</ele>
        <time>2021-07-11T08:41:41.000Z</time>
      </trkpt>
      <trkpt lat="47.35083" lon="-2.36176">
        <ele>16.799999237061</ele>
        <time>2021-07-11T08:41:45.000Z</time>
      </trkpt>
      <trkpt lat="47.35074" lon="-2.36178">
        <ele>16.799999237061</ele>
        <time>2021-07-11T08:41:47.000Z</time>
      </trkpt>
      <trkpt lat="47.35052" lon="-2.36177">
        <ele>17.200000762939</ele>
        <time>2021-07-11T08:41:51.000Z</time>
      </trkpt>
      <trkpt lat="47.35047" lon="-2.36175">
        <ele>17.799999237061</ele>
        <time>2021-07-11T08:41:52.000Z</time>
      </trkpt>
      <trkpt lat="47.35041" lon="-2.36174">
        <ele>18.200000762939</ele>
        <time>2021-07-11T08:41:53.000Z</time>
      </trkpt>
      <trkpt lat="47.35035" lon="-2.36172">
        <ele>18.60000038147</ele>
        <time>2021-07-11T08:41:54.000Z</time>
      </trkpt>
      <trkpt lat="47.3503" lon="-2.36171">
        <ele>19</ele>
        <time>2021-07-11T08:41:55.000Z</time>
      </trkpt>
      <trkpt lat="47.35008" lon="-2.36166">
        <ele>19</ele>
        <time>2021-07-11T08:41:59.000Z</time>
      </trkpt>
      <trkpt lat="47.35003" lon="-2.36166">
        <ele>19</ele>
        <time>2021-07-11T08:42:00.000Z</time>
      </trkpt>
      <trkpt lat="47.34982" lon="-2.36175">
        <ele>19</ele>
        <time>2021-07-11T08:42:04.000Z</time>
      </trkpt>
      <trkpt lat="47.34969" lon="-2.36187">
        <ele>19.39999961853</ele>
        <time>2021-07-11T08:42:07.000Z</time>
      </trkpt>
      <trkpt lat="47.34965" lon="-2.36192">
        <ele>19.799999237061</ele>
        <time>2021-07-11T08:42:08.000Z</time>
      </trkpt>
      <trkpt lat="47.34961" lon="-2.36197">
        <ele>20.200000762939</ele>
        <time>2021-07-11T08:42:09.000Z</time>
      </trkpt>
      <trkpt lat="47.34957" lon="-2.36203">
        <ele>20.60000038147</ele>
        <time>2021-07-11T08:42:10.000Z</time>
      </trkpt>
      <trkpt lat="47.34953" lon="-2.36208">
        <ele>21.200000762939</ele>
        <time>2021-07-11T08:42:11.000Z</time>
      </trkpt>
      <trkpt lat="47.34933" lon="-2.36234">
        <ele>21.60000038147</ele>
        <time>2021-07-11T08:42:16.000Z</time>
      </trkpt>
      <trkpt lat="47.34929" lon="-2.36238">
        <ele>22</ele>
        <time>2021-07-11T08:42:17.000Z</time>
      </trkpt>
      <trkpt lat="47.34925" lon="-2.36243">
        <ele>22.39999961853</ele>
        <time>2021-07-11T08:42:18.000Z</time>
      </trkpt>
      <trkpt lat="47.34921" lon="-2.36247">
        <ele>22.799999237061</ele>
        <time>2021-07-11T08:42:19.000Z</time>
      </trkpt>
      <trkpt lat="47.34917" lon="-2.36251">
        <ele>23.39999961853</ele>
        <time>2021-07-11T08:42:20.000Z</time>
      </trkpt>
      <trkpt lat="47.34896" lon="-2.3627">
        <ele>23.39999961853</ele>
        <time>2021-07-11T08:42:25.000Z</time>
      </trkpt>
      <trkpt lat="47.34878" lon="-2.36285">
        <ele>23.799999237061</ele>
        <time>2021-07-11T08:42:29.000Z</time>
      </trkpt>
      <trkpt lat="47.34873" lon="-2.36289">
        <ele>24.200000762939</ele>
        <time>2021-07-11T08:42:30.000Z</time>
      </trkpt>
      <trkpt lat="47.34868" lon="-2.36292">
        <ele>24.60000038147</ele>
        <time>2021-07-11T08:42:31.000Z</time>
      </trkpt>
      <trkpt lat="47.34864" lon="-2.36295">
        <ele>25</ele>
        <time>2021-07-11T08:42:32.000Z</time>
      </trkpt>
      <trkpt lat="47.34859" lon="-2.36299">
        <ele>25.39999961853</ele>
        <time>2021-07-11T08:42:33.000Z</time>
      </trkpt>
      <trkpt lat="47.34827" lon="-2.36321">
        <ele>25.39999961853</ele>
        <time>2021-07-11T08:42:40.000Z</time>
      </trkpt>
      <trkpt lat="47.34797" lon="-2.36341">
        <ele>25.39999961853</ele>
        <time>2021-07-11T08:42:46.000Z</time>
      </trkpt>
      <trkpt lat="47.34772" lon="-2.36359">
        <ele>25.39999961853</ele>
        <time>2021-07-11T08:42:51.000Z</time>
      </trkpt>
      <trkpt lat="47.34761" lon="-2.36366">
        <ele>25.39999961853</ele>
        <time>2021-07-11T08:42:53.000Z</time>
      </trkpt>
      <trkpt lat="47.34723" lon="-2.36386">
        <ele>25.39999961853</ele>
        <time>2021-07-11T08:43:00.000Z</time>
      </trkpt>
      <trkpt lat="47.34687" lon="-2.36401">
        <ele>25.39999961853</ele>
        <time>2021-07-11T08:43:06.000Z</time>
      </trkpt>
      <trkpt lat="47.34645" lon="-2.36418">
        <ele>25.39999961853</ele>
        <time>2021-07-11T08:43:12.000Z</time>
      </trkpt>
      <trkpt lat="47.34598" lon="-2.3644">
        <ele>25.39999961853</ele>
        <time>2021-07-11T08:43:19.000Z</time>
      </trkpt>
      <trkpt lat="47.34587" lon="-2.36433">
        <ele>24.799999237061</ele>
        <time>2021-07-11T08:43:21.000Z</time>
      </trkpt>
      <trkpt lat="47.34583" lon="-2.36427">
        <ele>24.39999961853</ele>
        <time>2021-07-11T08:43:22.000Z</time>
      </trkpt>
      <trkpt lat="47.34578" lon="-2.36421">
        <ele>23.799999237061</ele>
        <time>2021-07-11T08:43:23.000Z</time>
      </trkpt>
      <trkpt lat="47.34573" lon="-2.36413">
        <ele>23.39999961853</ele>
        <time>2021-07-11T08:43:24.000Z</time>
      </trkpt>
      <trkpt lat="47.34568" lon="-2.36405">
        <ele>23</ele>
        <time>2021-07-11T08:43:25.000Z</time>
      </trkpt>
      <trkpt lat="47.34557" lon="-2.36389">
        <ele>23</ele>
        <time>2021-07-11T08:43:27.000Z</time>
      </trkpt>
      <trkpt lat="47.34552" lon="-2.3638">
        <ele>23</ele>
        <time>2021-07-11T08:43:28.000Z</time>
      </trkpt>
      <trkpt lat="47.34539" lon="-2.36349">
        <ele>22.60000038147</ele>
        <time>2021-07-11T08:43:31.000Z</time>
      </trkpt>
      <trkpt lat="47.34535" lon="-2.36339">
        <ele>22.200000762939</ele>
        <time>2021-07-11T08:43:32.000Z</time>
      </trkpt>
      <trkpt lat="47.34532" lon="-2.3633">
        <ele>21.799999237061</ele>
        <time>2021-07-11T08:43:33.000Z</time>
      </trkpt>
      <trkpt lat="47.34528" lon="-2.3632">
        <ele>21.200000762939</ele>
        <time>2021-07-11T08:43:34.000Z</time>
      </trkpt>
      <trkpt lat="47.34525" lon="-2.36311">
        <ele>20.799999237061</ele>
        <time>2021-07-11T08:43:35.000Z</time>
      </trkpt>
      <trkpt lat="47.34518" lon="-2.3629">
        <ele>20.799999237061</ele>
        <time>2021-07-11T08:43:37.000Z</time>
      </trkpt>
      <trkpt lat="47.345" lon="-2.36231">
        <ele>20.799999237061</ele>
        <time>2021-07-11T08:43:43.000Z</time>
      </trkpt>
      <trkpt lat="47.3448" lon="-2.36199">
        <ele>20.799999237061</ele>
        <time>2021-07-11T08:43:47.000Z</time>
      </trkpt>
      <trkpt lat="47.34455" lon="-2.36151">
        <ele>20.799999237061</ele>
        <time>2021-07-11T08:43:53.000Z</time>
      </trkpt>
      <trkpt lat="47.34452" lon="-2.36143">
        <ele>20.799999237061</ele>
        <time>2021-07-11T08:43:54.000Z</time>
      </trkpt>
      <trkpt lat="47.3444" lon="-2.3611">
        <ele>20.799999237061</ele>
        <time>2021-07-11T08:43:58.000Z</time>
      </trkpt>
      <trkpt lat="47.34424" lon="-2.36059">
        <ele>20.799999237061</ele>
        <time>2021-07-11T08:44:04.000Z</time>
      </trkpt>
      <trkpt lat="47.34415" lon="-2.36021">
        <ele>20.799999237061</ele>
        <time>2021-07-11T08:44:09.000Z</time>
      </trkpt>
      <trkpt lat="47.34409" lon="-2.36009">
        <ele>20.799999237061</ele>
        <time>2021-07-11T08:44:12.000Z</time>
      </trkpt>
      <trkpt lat="47.34408" lon="-2.36">
        <ele>20.799999237061</ele>
        <time>2021-07-11T08:44:16.000Z</time>
      </trkpt>
      <trkpt lat="47.34404" lon="-2.35994">
        <ele>20.799999237061</ele>
        <time>2021-07-11T08:44:20.000Z</time>
      </trkpt>
      <trkpt lat="47.34401" lon="-2.36">
        <ele>20.799999237061</ele>
        <time>2021-07-11T08:44:25.000Z</time>
      </trkpt>
      <trkpt lat="47.34406" lon="-2.36004">
        <ele>20.799999237061</ele>
        <time>2021-07-11T08:44:31.000Z</time>
      </trkpt>
      <trkpt lat="47.34409" lon="-2.35998">
        <ele>20.799999237061</ele>
        <time>2021-07-11T08:44:35.000Z</time>
      </trkpt>
      <trkpt lat="47.34409" lon="-2.35994">
        <ele>20.799999237061</ele>
        <time>2021-07-11T08:44:36.000Z</time>
      </trkpt>
      <trkpt lat="47.34411" lon="-2.35991">
        <ele>20.799999237061</ele>
        <time>2021-07-11T08:44:37.000Z</time>
      </trkpt>
      <trkpt lat="47.34416" lon="-2.35988">
        <ele>20.799999237061</ele>
        <time>2021-07-11T08:44:39.000Z</time>
      </trkpt>
      <trkpt lat="47.34435" lon="-2.35973">
        <ele>20.799999237061</ele>
        <time>2021-07-11T08:44:45.000Z</time>
      </trkpt>
      <trkpt lat="47.34462" lon="-2.3595">
        <ele>20.799999237061</ele>
        <time>2021-07-11T08:44:51.000Z</time>
      </trkpt>
      <trkpt lat="47.34473" lon="-2.35944">
        <ele>20.39999961853</ele>
        <time>2021-07-11T08:44:53.000Z</time>
      </trkpt>
      <trkpt lat="47.34479" lon="-2.35941">
        <ele>20</ele>
        <time>2021-07-11T08:44:54.000Z</time>
      </trkpt>
      <trkpt lat="47.34484" lon="-2.35938">
        <ele>19.60000038147</ele>
        <time>2021-07-11T08:44:55.000Z</time>
      </trkpt>
      <trkpt lat="47.34489" lon="-2.35935">
        <ele>19.200000762939</ele>
        <time>2021-07-11T08:44:56.000Z</time>
      </trkpt>
      <trkpt lat="47.34494" lon="-2.35932">
        <ele>18.799999237061</ele>
        <time>2021-07-11T08:44:57.000Z</time>
      </trkpt>
      <trkpt lat="47.34527" lon="-2.35918">
        <ele>18.799999237061</ele>
        <time>2021-07-11T08:45:03.000Z</time>
      </trkpt>
      <trkpt lat="47.34539" lon="-2.35913">
        <ele>18.39999961853</ele>
        <time>2021-07-11T08:45:05.000Z</time>
      </trkpt>
      <trkpt lat="47.34544" lon="-2.35911">
        <ele>18</ele>
        <time>2021-07-11T08:45:06.000Z</time>
      </trkpt>
      <trkpt lat="47.3455" lon="-2.35909">
        <ele>17.60000038147</ele>
        <time>2021-07-11T08:45:07.000Z</time>
      </trkpt>
      <trkpt lat="47.34555" lon="-2.35906">
        <ele>17</ele>
        <time>2021-07-11T08:45:08.000Z</time>
      </trkpt>
      <trkpt lat="47.34561" lon="-2.35904">
        <ele>16.60000038147</ele>
        <time>2021-07-11T08:45:09.000Z</time>
      </trkpt>
      <trkpt lat="47.34566" lon="-2.35901">
        <ele>16.60000038147</ele>
        <time>2021-07-11T08:45:10.000Z</time>
      </trkpt>
      <trkpt lat="47.34593" lon="-2.35881">
        <ele>16.60000038147</ele>
        <time>2021-07-11T08:45:15.000Z</time>
      </trkpt>
      <trkpt lat="47.34598" lon="-2.35876">
        <ele>16.60000038147</ele>
        <time>2021-07-11T08:45:16.000Z</time>
      </trkpt>
      <trkpt lat="47.34603" lon="-2.35873">
        <ele>16.200000762939</ele>
        <time>2021-07-11T08:45:17.000Z</time>
      </trkpt>
      <trkpt lat="47.34607" lon="-2.35869">
        <ele>15.800000190735</ele>
        <time>2021-07-11T08:45:18.000Z</time>
      </trkpt>
      <trkpt lat="47.34611" lon="-2.35866">
        <ele>15.39999961853</ele>
        <time>2021-07-11T08:45:19.000Z</time>
      </trkpt>
      <trkpt lat="47.34615" lon="-2.35864">
        <ele>15</ele>
        <time>2021-07-11T08:45:20.000Z</time>
      </trkpt>
      <trkpt lat="47.34619" lon="-2.35861">
        <ele>14.60000038147</ele>
        <time>2021-07-11T08:45:21.000Z</time>
      </trkpt>
      <trkpt lat="47.34628" lon="-2.35854">
        <ele>14.60000038147</ele>
        <time>2021-07-11T08:45:23.000Z</time>
      </trkpt>
      <trkpt lat="47.34657" lon="-2.35831">
        <ele>14.60000038147</ele>
        <time>2021-07-11T08:45:29.000Z</time>
      </trkpt>
      <trkpt lat="47.34686" lon="-2.35805">
        <ele>14.60000038147</ele>
        <time>2021-07-11T08:45:35.000Z</time>
      </trkpt>
      <trkpt lat="47.3472" lon="-2.35776">
        <ele>14.60000038147</ele>
        <time>2021-07-11T08:45:42.000Z</time>
      </trkpt>
      <trkpt lat="47.34735" lon="-2.35763">
        <ele>14.60000038147</ele>
        <time>2021-07-11T08:45:45.000Z</time>
      </trkpt>
      <trkpt lat="47.34743" lon="-2.35756">
        <ele>14.60000038147</ele>
        <time>2021-07-11T08:45:47.000Z</time>
      </trkpt>
      <trkpt lat="47.34747" lon="-2.35754">
        <ele>14.60000038147</ele>
        <time>2021-07-11T08:45:48.000Z</time>
      </trkpt>
      <trkpt lat="47.34761" lon="-2.35747">
        <ele>14.60000038147</ele>
        <time>2021-07-11T08:45:51.000Z</time>
      </trkpt>
      <trkpt lat="47.3477" lon="-2.35744">
        <ele>14.60000038147</ele>
        <time>2021-07-11T08:45:53.000Z</time>
      </trkpt>
      <trkpt lat="47.34791" lon="-2.35733">
        <ele>14.60000038147</ele>
        <time>2021-07-11T08:45:58.000Z</time>
      </trkpt>
      <trkpt lat="47.34804" lon="-2.35727">
        <ele>14.60000038147</ele>
        <time>2021-07-11T08:46:01.000Z</time>
      </trkpt>
      <trkpt lat="47.34809" lon="-2.35725">
        <ele>14.60000038147</ele>
        <time>2021-07-11T08:46:02.000Z</time>
      </trkpt>
      <trkpt lat="47.34823" lon="-2.3572">
        <ele>14.60000038147</ele>
        <time>2021-07-11T08:46:05.000Z</time>
      </trkpt>
      <trkpt lat="47.34831" lon="-2.35716">
        <ele>14.60000038147</ele>
        <time>2021-07-11T08:46:07.000Z</time>
      </trkpt>
      <trkpt lat="47.34841" lon="-2.35701">
        <ele>14.60000038147</ele>
        <time>2021-07-11T08:46:10.000Z</time>
      </trkpt>
      <trkpt lat="47.34848" lon="-2.35684">
        <ele>14.60000038147</ele>
        <time>2021-07-11T08:46:13.000Z</time>
      </trkpt>
      <trkpt lat="47.34851" lon="-2.35674">
        <ele>14.60000038147</ele>
        <time>2021-07-11T08:46:15.000Z</time>
      </trkpt>
      <trkpt lat="47.34853" lon="-2.35658">
        <ele>14.60000038147</ele>
        <time>2021-07-11T08:46:20.000Z</time>
      </trkpt>
      <trkpt lat="47.34844" lon="-2.35655">
        <ele>15</ele>
        <time>2021-07-11T08:46:23.000Z</time>
      </trkpt>
      <trkpt lat="47.34839" lon="-2.35652">
        <ele>15.39999961853</ele>
        <time>2021-07-11T08:46:24.000Z</time>
      </trkpt>
      <trkpt lat="47.34835" lon="-2.3565">
        <ele>15.800000190735</ele>
        <time>2021-07-11T08:46:25.000Z</time>
      </trkpt>
      <trkpt lat="47.34831" lon="-2.35648">
        <ele>16.200000762939</ele>
        <time>2021-07-11T08:46:26.000Z</time>
      </trkpt>
      <trkpt lat="47.34826" lon="-2.35645">
        <ele>16.60000038147</ele>
        <time>2021-07-11T08:46:27.000Z</time>
      </trkpt>
      <trkpt lat="47.34809" lon="-2.35633">
        <ele>16.60000038147</ele>
        <time>2021-07-11T08:46:30.000Z</time>
      </trkpt>
      <trkpt lat="47.34781" lon="-2.35604">
        <ele>16.60000038147</ele>
        <time>2021-07-11T08:46:35.000Z</time>
      </trkpt>
      <trkpt lat="47.34748" lon="-2.35562">
        <ele>16.60000038147</ele>
        <time>2021-07-11T08:46:41.000Z</time>
      </trkpt>
      <trkpt lat="47.34714" lon="-2.35508">
        <ele>16.200000762939</ele>
        <time>2021-07-11T08:46:47.000Z</time>
      </trkpt>
      <trkpt lat="47.34708" lon="-2.355">
        <ele>15.800000190735</ele>
        <time>2021-07-11T08:46:48.000Z</time>
      </trkpt>
      <trkpt lat="47.34703" lon="-2.35492">
        <ele>15.199999809265</ele>
        <time>2021-07-11T08:46:49.000Z</time>
      </trkpt>
      <trkpt lat="47.34698" lon="-2.35483">
        <ele>14.800000190735</ele>
        <time>2021-07-11T08:46:50.000Z</time>
      </trkpt>
      <trkpt lat="47.34694" lon="-2.35475">
        <ele>14.39999961853</ele>
        <time>2021-07-11T08:46:51.000Z</time>
      </trkpt>
      <trkpt lat="47.3468" lon="-2.35451">
        <ele>14.39999961853</ele>
        <time>2021-07-11T08:46:54.000Z</time>
      </trkpt>
      <trkpt lat="47.34662" lon="-2.35426">
        <ele>14.39999961853</ele>
        <time>2021-07-11T08:46:58.000Z</time>
      </trkpt>
      <trkpt lat="47.34653" lon="-2.35416">
        <ele>14.39999961853</ele>
        <time>2021-07-11T08:47:00.000Z</time>
      </trkpt>
      <trkpt lat="47.3465" lon="-2.35411">
        <ele>14.39999961853</ele>
        <time>2021-07-11T08:47:01.000Z</time>
      </trkpt>
      <trkpt lat="47.34649" lon="-2.35404">
        <ele>14.39999961853</ele>
        <time>2021-07-11T08:47:03.000Z</time>
      </trkpt>
      <trkpt lat="47.34655" lon="-2.35402">
        <ele>14.39999961853</ele>
        <time>2021-07-11T08:47:07.000Z</time>
      </trkpt>
      <trkpt lat="47.34668" lon="-2.35398">
        <ele>14.39999961853</ele>
        <time>2021-07-11T08:47:11.000Z</time>
      </trkpt>
      <trkpt lat="47.34672" lon="-2.35398">
        <ele>14.39999961853</ele>
        <time>2021-07-11T08:47:12.000Z</time>
      </trkpt>
      <trkpt lat="47.34685" lon="-2.35398">
        <ele>14.39999961853</ele>
        <time>2021-07-11T08:47:16.000Z</time>
      </trkpt>
      <trkpt lat="47.34687" lon="-2.35396">
        <ele>14.39999961853</ele>
        <time>2021-07-11T08:47:17.000Z</time>
      </trkpt>
      <trkpt lat="47.34702" lon="-2.35382">
        <ele>14.39999961853</ele>
        <time>2021-07-11T08:47:22.000Z</time>
      </trkpt>
      <trkpt lat="47.34712" lon="-2.35369">
        <ele>14.39999961853</ele>
        <time>2021-07-11T08:47:26.000Z</time>
      </trkpt>
      <trkpt lat="47.34714" lon="-2.35364">
        <ele>14.39999961853</ele>
        <time>2021-07-11T08:47:27.000Z</time>
      </trkpt>
      <trkpt lat="47.34722" lon="-2.35342">
        <ele>14.39999961853</ele>
        <time>2021-07-11T08:47:32.000Z</time>
      </trkpt>
      <trkpt lat="47.34725" lon="-2.35327">
        <ele>14.39999961853</ele>
        <time>2021-07-11T08:47:37.000Z</time>
      </trkpt>
      <trkpt lat="47.34735" lon="-2.35305">
        <ele>14.39999961853</ele>
        <time>2021-07-11T08:47:42.000Z</time>
      </trkpt>
      <trkpt lat="47.34742" lon="-2.35282">
        <ele>14.39999961853</ele>
        <time>2021-07-11T08:47:47.000Z</time>
      </trkpt>
      <trkpt lat="47.34743" lon="-2.35251">
        <ele>14.39999961853</ele>
        <time>2021-07-11T08:47:52.000Z</time>
      </trkpt>
      <trkpt lat="47.34744" lon="-2.35244">
        <ele>14.39999961853</ele>
        <time>2021-07-11T08:47:53.000Z</time>
      </trkpt>
      <trkpt lat="47.34752" lon="-2.35206">
        <ele>14.39999961853</ele>
        <time>2021-07-11T08:47:57.000Z</time>
      </trkpt>
      <trkpt lat="47.34755" lon="-2.35197">
        <ele>14.39999961853</ele>
        <time>2021-07-11T08:47:58.000Z</time>
      </trkpt>
      <trkpt lat="47.34756" lon="-2.35158">
        <ele>14.39999961853</ele>
        <time>2021-07-11T08:48:04.000Z</time>
      </trkpt>
      <trkpt lat="47.34743" lon="-2.35135">
        <ele>14.39999961853</ele>
        <time>2021-07-11T08:48:09.000Z</time>
      </trkpt>
      <trkpt lat="47.34732" lon="-2.35113">
        <ele>14.39999961853</ele>
        <time>2021-07-11T08:48:13.000Z</time>
      </trkpt>
      <trkpt lat="47.34718" lon="-2.35087">
        <ele>14.39999961853</ele>
        <time>2021-07-11T08:48:18.000Z</time>
      </trkpt>
      <trkpt lat="47.34711" lon="-2.35077">
        <ele>14.39999961853</ele>
        <time>2021-07-11T08:48:20.000Z</time>
      </trkpt>
      <trkpt lat="47.347" lon="-2.35066">
        <ele>14.39999961853</ele>
        <time>2021-07-11T08:48:23.000Z</time>
      </trkpt>
      <trkpt lat="47.3468" lon="-2.35049">
        <ele>14.39999961853</ele>
        <time>2021-07-11T08:48:29.000Z</time>
      </trkpt>
      <trkpt lat="47.34654" lon="-2.3504">
        <ele>14.39999961853</ele>
        <time>2021-07-11T08:48:35.000Z</time>
      </trkpt>
      <trkpt lat="47.34637" lon="-2.35019">
        <ele>14.39999961853</ele>
        <time>2021-07-11T08:48:40.000Z</time>
      </trkpt>
      <trkpt lat="47.3462" lon="-2.34991">
        <ele>14.39999961853</ele>
        <time>2021-07-11T08:48:46.000Z</time>
      </trkpt>
      <trkpt lat="47.34601" lon="-2.34958">
        <ele>14.39999961853</ele>
        <time>2021-07-11T08:48:52.000Z</time>
      </trkpt>
      <trkpt lat="47.34586" lon="-2.34923">
        <ele>14.39999961853</ele>
        <time>2021-07-11T08:48:57.000Z</time>
      </trkpt>
      <trkpt lat="47.34583" lon="-2.34918">
        <ele>14.39999961853</ele>
        <time>2021-07-11T08:48:58.000Z</time>
      </trkpt>
      <trkpt lat="47.34578" lon="-2.34893">
        <ele>14.39999961853</ele>
        <time>2021-07-11T08:49:02.000Z</time>
      </trkpt>
      <trkpt lat="47.34583" lon="-2.3487">
        <ele>14.39999961853</ele>
        <time>2021-07-11T08:49:06.000Z</time>
      </trkpt>
      <trkpt lat="47.34601" lon="-2.34827">
        <ele>14.39999961853</ele>
        <time>2021-07-11T08:49:12.000Z</time>
      </trkpt>
      <trkpt lat="47.34628" lon="-2.34766">
        <ele>14.39999961853</ele>
        <time>2021-07-11T08:49:19.000Z</time>
      </trkpt>
      <trkpt lat="47.3463" lon="-2.34756">
        <ele>14.39999961853</ele>
        <time>2021-07-11T08:49:20.000Z</time>
      </trkpt>
      <trkpt lat="47.34634" lon="-2.34712">
        <ele>14.39999961853</ele>
        <time>2021-07-11T08:49:25.000Z</time>
      </trkpt>
      <trkpt lat="47.34634" lon="-2.34703">
        <ele>14.39999961853</ele>
        <time>2021-07-11T08:49:26.000Z</time>
      </trkpt>
      <trkpt lat="47.34631" lon="-2.3468">
        <ele>14.39999961853</ele>
        <time>2021-07-11T08:49:29.000Z</time>
      </trkpt>
      <trkpt lat="47.3463" lon="-2.34673">
        <ele>14.39999961853</ele>
        <time>2021-07-11T08:49:30.000Z</time>
      </trkpt>
      <trkpt lat="47.34624" lon="-2.34634">
        <ele>14.39999961853</ele>
        <time>2021-07-11T08:49:36.000Z</time>
      </trkpt>
      <trkpt lat="47.34615" lon="-2.34584">
        <ele>14.800000190735</ele>
        <time>2021-07-11T08:49:44.000Z</time>
      </trkpt>
      <trkpt lat="47.34614" lon="-2.34577">
        <ele>15.199999809265</ele>
        <time>2021-07-11T08:49:45.000Z</time>
      </trkpt>
      <trkpt lat="47.34613" lon="-2.3457">
        <ele>15.800000190735</ele>
        <time>2021-07-11T08:49:46.000Z</time>
      </trkpt>
      <trkpt lat="47.34611" lon="-2.34564">
        <ele>16.200000762939</ele>
        <time>2021-07-11T08:49:47.000Z</time>
      </trkpt>
      <trkpt lat="47.3461" lon="-2.34557">
        <ele>16.60000038147</ele>
        <time>2021-07-11T08:49:48.000Z</time>
      </trkpt>
      <trkpt lat="47.34609" lon="-2.34551">
        <ele>16.60000038147</ele>
        <time>2021-07-11T08:49:50.000Z</time>
      </trkpt>
      <trkpt lat="47.34608" lon="-2.34548">
        <ele>16.60000038147</ele>
        <time>2021-07-11T08:49:53.000Z</time>
      </trkpt>
      <trkpt lat="47.34608" lon="-2.34544">
        <ele>16.60000038147</ele>
        <time>2021-07-11T08:49:58.000Z</time>
      </trkpt>
      <trkpt lat="47.34608" lon="-2.34541">
        <ele>16.60000038147</ele>
        <time>2021-07-11T08:49:59.000Z</time>
      </trkpt>
      <trkpt lat="47.34611" lon="-2.34534">
        <ele>16.60000038147</ele>
        <time>2021-07-11T08:50:04.000Z</time>
      </trkpt>
      <trkpt lat="47.34614" lon="-2.34532">
        <ele>16.60000038147</ele>
        <time>2021-07-11T08:50:10.000Z</time>
      </trkpt>
      <trkpt lat="47.34618" lon="-2.3453">
        <ele>16.60000038147</ele>
        <time>2021-07-11T08:50:12.000Z</time>
      </trkpt>
      <trkpt lat="47.34637" lon="-2.34524">
        <ele>16.60000038147</ele>
        <time>2021-07-11T08:50:18.000Z</time>
      </trkpt>
      <trkpt lat="47.34658" lon="-2.34517">
        <ele>16.60000038147</ele>
        <time>2021-07-11T08:50:23.000Z</time>
      </trkpt>
      <trkpt lat="47.34663" lon="-2.34515">
        <ele>16.60000038147</ele>
        <time>2021-07-11T08:50:24.000Z</time>
      </trkpt>
      <trkpt lat="47.34693" lon="-2.34504">
        <ele>16.60000038147</ele>
        <time>2021-07-11T08:50:31.000Z</time>
      </trkpt>
      <trkpt lat="47.34716" lon="-2.34491">
        <ele>16.60000038147</ele>
        <time>2021-07-11T08:50:37.000Z</time>
      </trkpt>
      <trkpt lat="47.3472" lon="-2.3449">
        <ele>16.60000038147</ele>
        <time>2021-07-11T08:50:38.000Z</time>
      </trkpt>
      <trkpt lat="47.34736" lon="-2.34484">
        <ele>16.60000038147</ele>
        <time>2021-07-11T08:50:42.000Z</time>
      </trkpt>
      <trkpt lat="47.3475" lon="-2.34474">
        <ele>16.200000762939</ele>
        <time>2021-07-11T08:50:47.000Z</time>
      </trkpt>
      <trkpt lat="47.3475" lon="-2.34471">
        <ele>15.800000190735</ele>
        <time>2021-07-11T08:50:48.000Z</time>
      </trkpt>
      <trkpt lat="47.3475" lon="-2.34468">
        <ele>15.39999961853</ele>
        <time>2021-07-11T08:50:49.000Z</time>
      </trkpt>
      <trkpt lat="47.34751" lon="-2.34465">
        <ele>14.800000190735</ele>
        <time>2021-07-11T08:50:50.000Z</time>
      </trkpt>
      <trkpt lat="47.34752" lon="-2.34462">
        <ele>14.39999961853</ele>
        <time>2021-07-11T08:50:51.000Z</time>
      </trkpt>
      <trkpt lat="47.34756" lon="-2.34445">
        <ele>14.39999961853</ele>
        <time>2021-07-11T08:50:56.000Z</time>
      </trkpt>
      <trkpt lat="47.34766" lon="-2.34422">
        <ele>14.39999961853</ele>
        <time>2021-07-11T08:51:03.000Z</time>
      </trkpt>
      <trkpt lat="47.34775" lon="-2.34401">
        <ele>14.39999961853</ele>
        <time>2021-07-11T08:51:09.000Z</time>
      </trkpt>
      <trkpt lat="47.34778" lon="-2.34393">
        <ele>14.800000190735</ele>
        <time>2021-07-11T08:51:11.000Z</time>
      </trkpt>
      <trkpt lat="47.3478" lon="-2.3439">
        <ele>15.199999809265</ele>
        <time>2021-07-11T08:51:12.000Z</time>
      </trkpt>
      <trkpt lat="47.34782" lon="-2.34387">
        <ele>15.60000038147</ele>
        <time>2021-07-11T08:51:13.000Z</time>
      </trkpt>
      <trkpt lat="47.34784" lon="-2.34387">
        <ele>16</ele>
        <time>2021-07-11T08:51:14.000Z</time>
      </trkpt>
      <trkpt lat="47.34787" lon="-2.34387">
        <ele>16.39999961853</ele>
        <time>2021-07-11T08:51:15.000Z</time>
      </trkpt>
      <trkpt lat="47.34811" lon="-2.34383">
        <ele>16.39999961853</ele>
        <time>2021-07-11T08:51:22.000Z</time>
      </trkpt>
      <trkpt lat="47.34839" lon="-2.34378">
        <ele>16.39999961853</ele>
        <time>2021-07-11T08:51:30.000Z</time>
      </trkpt>
      <trkpt lat="47.3486" lon="-2.34376">
        <ele>16.39999961853</ele>
        <time>2021-07-11T08:51:36.000Z</time>
      </trkpt>
      <trkpt lat="47.34881" lon="-2.34378">
        <ele>16.39999961853</ele>
        <time>2021-07-11T08:51:41.000Z</time>
      </trkpt>
      <trkpt lat="47.34907" lon="-2.34378">
        <ele>16.39999961853</ele>
        <time>2021-07-11T08:51:46.000Z</time>
      </trkpt>
      <trkpt lat="47.34912" lon="-2.34377">
        <ele>16.39999961853</ele>
        <time>2021-07-11T08:51:47.000Z</time>
      </trkpt>
      <trkpt lat="47.34921" lon="-2.34374">
        <ele>16.39999961853</ele>
        <time>2021-07-11T08:51:49.000Z</time>
      </trkpt>
      <trkpt lat="47.34932" lon="-2.34376">
        <ele>16.39999961853</ele>
        <time>2021-07-11T08:51:51.000Z</time>
      </trkpt>
      <trkpt lat="47.34949" lon="-2.34377">
        <ele>16.39999961853</ele>
        <time>2021-07-11T08:51:54.000Z</time>
      </trkpt>
      <trkpt lat="47.34961" lon="-2.34376">
        <ele>16</ele>
        <time>2021-07-11T08:51:56.000Z</time>
      </trkpt>
      <trkpt lat="47.34967" lon="-2.34375">
        <ele>15.60000038147</ele>
        <time>2021-07-11T08:51:57.000Z</time>
      </trkpt>
      <trkpt lat="47.34973" lon="-2.34375">
        <ele>14.800000190735</ele>
        <time>2021-07-11T08:51:58.000Z</time>
      </trkpt>
      <trkpt lat="47.34978" lon="-2.34374">
        <ele>14.39999961853</ele>
        <time>2021-07-11T08:51:59.000Z</time>
      </trkpt>
      <trkpt lat="47.34994" lon="-2.34371">
        <ele>14.39999961853</ele>
        <time>2021-07-11T08:52:02.000Z</time>
      </trkpt>
      <trkpt lat="47.34999" lon="-2.34371">
        <ele>14.39999961853</ele>
        <time>2021-07-11T08:52:03.000Z</time>
      </trkpt>
      <trkpt lat="47.35008" lon="-2.34368">
        <ele>14.39999961853</ele>
        <time>2021-07-11T08:52:05.000Z</time>
      </trkpt>
      <trkpt lat="47.35016" lon="-2.34362">
        <ele>14</ele>
        <time>2021-07-11T08:52:08.000Z</time>
      </trkpt>
      <trkpt lat="47.35019" lon="-2.34359">
        <ele>13.60000038147</ele>
        <time>2021-07-11T08:52:09.000Z</time>
      </trkpt>
      <trkpt lat="47.3502" lon="-2.34356">
        <ele>13.199999809265</ele>
        <time>2021-07-11T08:52:10.000Z</time>
      </trkpt>
      <trkpt lat="47.3502" lon="-2.34354">
        <ele>12.60000038147</ele>
        <time>2021-07-11T08:52:11.000Z</time>
      </trkpt>
      <trkpt lat="47.3502" lon="-2.34351">
        <ele>12.199999809265</ele>
        <time>2021-07-11T08:52:12.000Z</time>
      </trkpt>
      <trkpt lat="47.35018" lon="-2.34335">
        <ele>12.199999809265</ele>
        <time>2021-07-11T08:52:16.000Z</time>
      </trkpt>
      <trkpt lat="47.35017" lon="-2.34331">
        <ele>12.199999809265</ele>
        <time>2021-07-11T08:52:17.000Z</time>
      </trkpt>
      <trkpt lat="47.35013" lon="-2.34311">
        <ele>12.60000038147</ele>
        <time>2021-07-11T08:52:21.000Z</time>
      </trkpt>
      <trkpt lat="47.35011" lon="-2.34305">
        <ele>13.39999961853</ele>
        <time>2021-07-11T08:52:22.000Z</time>
      </trkpt>
      <trkpt lat="47.35009" lon="-2.343">
        <ele>13.800000190735</ele>
        <time>2021-07-11T08:52:23.000Z</time>
      </trkpt>
      <trkpt lat="47.35007" lon="-2.34295">
        <ele>14.199999809265</ele>
        <time>2021-07-11T08:52:24.000Z</time>
      </trkpt>
      <trkpt lat="47.34997" lon="-2.34271">
        <ele>14.60000038147</ele>
        <time>2021-07-11T08:52:29.000Z</time>
      </trkpt>
      <trkpt lat="47.34996" lon="-2.34266">
        <ele>15</ele>
        <time>2021-07-11T08:52:30.000Z</time>
      </trkpt>
      <trkpt lat="47.34994" lon="-2.34262">
        <ele>15.39999961853</ele>
        <time>2021-07-11T08:52:31.000Z</time>
      </trkpt>
      <trkpt lat="47.34993" lon="-2.34256">
        <ele>16</ele>
        <time>2021-07-11T08:52:32.000Z</time>
      </trkpt>
      <trkpt lat="47.34992" lon="-2.3425">
        <ele>16.39999961853</ele>
        <time>2021-07-11T08:52:33.000Z</time>
      </trkpt>
      <trkpt lat="47.34988" lon="-2.34234">
        <ele>16.39999961853</ele>
        <time>2021-07-11T08:52:36.000Z</time>
      </trkpt>
      <trkpt lat="47.34987" lon="-2.34229">
        <ele>16.799999237061</ele>
        <time>2021-07-11T08:52:37.000Z</time>
      </trkpt>
      <trkpt lat="47.34987" lon="-2.34224">
        <ele>17.200000762939</ele>
        <time>2021-07-11T08:52:38.000Z</time>
      </trkpt>
      <trkpt lat="47.34985" lon="-2.3422">
        <ele>17.60000038147</ele>
        <time>2021-07-11T08:52:39.000Z</time>
      </trkpt>
      <trkpt lat="47.34984" lon="-2.34216">
        <ele>18</ele>
        <time>2021-07-11T08:52:40.000Z</time>
      </trkpt>
      <trkpt lat="47.34981" lon="-2.34213">
        <ele>18.39999961853</ele>
        <time>2021-07-11T08:52:41.000Z</time>
      </trkpt>
      <trkpt lat="47.3498" lon="-2.34212">
        <ele>18.39999961853</ele>
        <time>2021-07-11T08:52:42.000Z</time>
      </trkpt>
      <trkpt lat="47.34972" lon="-2.34202">
        <ele>18.799999237061</ele>
        <time>2021-07-11T08:52:46.000Z</time>
      </trkpt>
      <trkpt lat="47.34969" lon="-2.34202">
        <ele>19.60000038147</ele>
        <time>2021-07-11T08:52:47.000Z</time>
      </trkpt>
      <trkpt lat="47.34966" lon="-2.34202">
        <ele>20</ele>
        <time>2021-07-11T08:52:48.000Z</time>
      </trkpt>
      <trkpt lat="47.34962" lon="-2.34201">
        <ele>20.39999961853</ele>
        <time>2021-07-11T08:52:49.000Z</time>
      </trkpt>
      <trkpt lat="47.34949" lon="-2.34204">
        <ele>20.39999961853</ele>
        <time>2021-07-11T08:52:53.000Z</time>
      </trkpt>
      <trkpt lat="47.34934" lon="-2.34209">
        <ele>20.799999237061</ele>
        <time>2021-07-11T08:52:58.000Z</time>
      </trkpt>
      <trkpt lat="47.34931" lon="-2.34211">
        <ele>21.39999961853</ele>
        <time>2021-07-11T08:52:59.000Z</time>
      </trkpt>
      <trkpt lat="47.34929" lon="-2.34212">
        <ele>21.799999237061</ele>
        <time>2021-07-11T08:53:00.000Z</time>
      </trkpt>
      <trkpt lat="47.34926" lon="-2.34212">
        <ele>22.200000762939</ele>
        <time>2021-07-11T08:53:01.000Z</time>
      </trkpt>
      <trkpt lat="47.34922" lon="-2.34211">
        <ele>22.60000038147</ele>
        <time>2021-07-11T08:53:02.000Z</time>
      </trkpt>
      <trkpt lat="47.34912" lon="-2.34209">
        <ele>22.60000038147</ele>
        <time>2021-07-11T08:53:05.000Z</time>
      </trkpt>
      <trkpt lat="47.34895" lon="-2.34206">
        <ele>23.60000038147</ele>
        <time>2021-07-11T08:53:11.000Z</time>
      </trkpt>
      <trkpt lat="47.34893" lon="-2.34207">
        <ele>24</ele>
        <time>2021-07-11T08:53:12.000Z</time>
      </trkpt>
      <trkpt lat="47.34891" lon="-2.34207">
        <ele>24.39999961853</ele>
        <time>2021-07-11T08:53:13.000Z</time>
      </trkpt>
      <trkpt lat="47.34889" lon="-2.34208">
        <ele>24.799999237061</ele>
        <time>2021-07-11T08:53:14.000Z</time>
      </trkpt>
      <trkpt lat="47.34884" lon="-2.34211">
        <ele>24.799999237061</ele>
        <time>2021-07-11T08:53:17.000Z</time>
      </trkpt>
      <trkpt lat="47.34878" lon="-2.34215">
        <ele>24.799999237061</ele>
        <time>2021-07-11T08:53:19.000Z</time>
      </trkpt>
      <trkpt lat="47.34876" lon="-2.34219">
        <ele>24.799999237061</ele>
        <time>2021-07-11T08:53:20.000Z</time>
      </trkpt>
      <trkpt lat="47.34867" lon="-2.34233">
        <ele>24.799999237061</ele>
        <time>2021-07-11T08:53:23.000Z</time>
      </trkpt>
      <trkpt lat="47.34857" lon="-2.3424">
        <ele>24.799999237061</ele>
        <time>2021-07-11T08:53:26.000Z</time>
      </trkpt>
      <trkpt lat="47.34853" lon="-2.3424">
        <ele>24.799999237061</ele>
        <time>2021-07-11T08:53:27.000Z</time>
      </trkpt>
      <trkpt lat="47.34849" lon="-2.3424">
        <ele>24.799999237061</ele>
        <time>2021-07-11T08:53:28.000Z</time>
      </trkpt>
      <trkpt lat="47.34845" lon="-2.34239">
        <ele>24.39999961853</ele>
        <time>2021-07-11T08:53:29.000Z</time>
      </trkpt>
      <trkpt lat="47.34837" lon="-2.34239">
        <ele>24</ele>
        <time>2021-07-11T08:53:30.000Z</time>
      </trkpt>
      <trkpt lat="47.34831" lon="-2.3424">
        <ele>23.39999961853</ele>
        <time>2021-07-11T08:53:31.000Z</time>
      </trkpt>
      <trkpt lat="47.34823" lon="-2.34239">
        <ele>23</ele>
        <time>2021-07-11T08:53:32.000Z</time>
      </trkpt>
      <trkpt lat="47.34815" lon="-2.34239">
        <ele>22.60000038147</ele>
        <time>2021-07-11T08:53:33.000Z</time>
      </trkpt>
      <trkpt lat="47.34807" lon="-2.34239">
        <ele>22.200000762939</ele>
        <time>2021-07-11T08:53:34.000Z</time>
      </trkpt>
      <trkpt lat="47.34799" lon="-2.3424">
        <ele>21.60000038147</ele>
        <time>2021-07-11T08:53:35.000Z</time>
      </trkpt>
      <trkpt lat="47.34792" lon="-2.34242">
        <ele>20.799999237061</ele>
        <time>2021-07-11T08:53:36.000Z</time>
      </trkpt>
      <trkpt lat="47.34785" lon="-2.34244">
        <ele>20.39999961853</ele>
        <time>2021-07-11T08:53:37.000Z</time>
      </trkpt>
      <trkpt lat="47.34749" lon="-2.34254">
        <ele>20.39999961853</ele>
        <time>2021-07-11T08:53:42.000Z</time>
      </trkpt>
      <trkpt lat="47.34728" lon="-2.34258">
        <ele>20</ele>
        <time>2021-07-11T08:53:45.000Z</time>
      </trkpt>
      <trkpt lat="47.34722" lon="-2.3426">
        <ele>19.60000038147</ele>
        <time>2021-07-11T08:53:46.000Z</time>
      </trkpt>
      <trkpt lat="47.34715" lon="-2.34261">
        <ele>19.200000762939</ele>
        <time>2021-07-11T08:53:47.000Z</time>
      </trkpt>
      <trkpt lat="47.34708" lon="-2.34262">
        <ele>18.799999237061</ele>
        <time>2021-07-11T08:53:48.000Z</time>
      </trkpt>
      <trkpt lat="47.34702" lon="-2.34263">
        <ele>18.39999961853</ele>
        <time>2021-07-11T08:53:49.000Z</time>
      </trkpt>
      <trkpt lat="47.34685" lon="-2.34266">
        <ele>18.39999961853</ele>
        <time>2021-07-11T08:53:52.000Z</time>
      </trkpt>
      <trkpt lat="47.34674" lon="-2.34267">
        <ele>18</ele>
        <time>2021-07-11T08:53:54.000Z</time>
      </trkpt>
      <trkpt lat="47.34669" lon="-2.34269">
        <ele>17.60000038147</ele>
        <time>2021-07-11T08:53:55.000Z</time>
      </trkpt>
      <trkpt lat="47.34664" lon="-2.34271">
        <ele>17.200000762939</ele>
        <time>2021-07-11T08:53:56.000Z</time>
      </trkpt>
      <trkpt lat="47.3466" lon="-2.34273">
        <ele>16.799999237061</ele>
        <time>2021-07-11T08:53:57.000Z</time>
      </trkpt>
      <trkpt lat="47.34657" lon="-2.34275">
        <ele>16.39999961853</ele>
        <time>2021-07-11T08:53:58.000Z</time>
      </trkpt>
      <trkpt lat="47.34649" lon="-2.34279">
        <ele>16.39999961853</ele>
        <time>2021-07-11T08:54:04.000Z</time>
      </trkpt>
      <trkpt lat="47.34649" lon="-2.34278">
        <ele>16.39999961853</ele>
        <time>2021-07-11T08:54:05.000Z</time>
      </trkpt>
      <trkpt lat="47.34647" lon="-2.34279">
        <ele>16.39999961853</ele>
        <time>2021-07-11T08:54:30.000Z</time>
      </trkpt>
      <trkpt lat="47.34645" lon="-2.34279">
        <ele>16.39999961853</ele>
        <time>2021-07-11T08:54:31.000Z</time>
      </trkpt>
      <trkpt lat="47.34635" lon="-2.34289">
        <ele>16.39999961853</ele>
        <time>2021-07-11T08:54:36.000Z</time>
      </trkpt>
      <trkpt lat="47.34624" lon="-2.34296">
        <ele>16.39999961853</ele>
        <time>2021-07-11T08:54:40.000Z</time>
      </trkpt>
      <trkpt lat="47.34605" lon="-2.34298">
        <ele>16.39999961853</ele>
        <time>2021-07-11T08:54:45.000Z</time>
      </trkpt>
      <trkpt lat="47.34596" lon="-2.343">
        <ele>16.799999237061</ele>
        <time>2021-07-11T08:54:47.000Z</time>
      </trkpt>
      <trkpt lat="47.34591" lon="-2.34301">
        <ele>17.200000762939</ele>
        <time>2021-07-11T08:54:48.000Z</time>
      </trkpt>
      <trkpt lat="47.34586" lon="-2.34302">
        <ele>17.60000038147</ele>
        <time>2021-07-11T08:54:49.000Z</time>
      </trkpt>
      <trkpt lat="47.34582" lon="-2.34304">
        <ele>18</ele>
        <time>2021-07-11T08:54:50.000Z</time>
      </trkpt>
      <trkpt lat="47.34578" lon="-2.34306">
        <ele>18.39999961853</ele>
        <time>2021-07-11T08:54:51.000Z</time>
      </trkpt>
      <trkpt lat="47.34552" lon="-2.34325">
        <ele>18.799999237061</ele>
        <time>2021-07-11T08:54:58.000Z</time>
      </trkpt>
      <trkpt lat="47.34549" lon="-2.34328">
        <ele>19.200000762939</ele>
        <time>2021-07-11T08:54:59.000Z</time>
      </trkpt>
      <trkpt lat="47.34545" lon="-2.3433">
        <ele>19.60000038147</ele>
        <time>2021-07-11T08:55:00.000Z</time>
      </trkpt>
      <trkpt lat="47.34542" lon="-2.34334">
        <ele>20</ele>
        <time>2021-07-11T08:55:01.000Z</time>
      </trkpt>
      <trkpt lat="47.34538" lon="-2.34338">
        <ele>20.39999961853</ele>
        <time>2021-07-11T08:55:02.000Z</time>
      </trkpt>
      <trkpt lat="47.34534" lon="-2.34341">
        <ele>20.39999961853</ele>
        <time>2021-07-11T08:55:03.000Z</time>
      </trkpt>
      <trkpt lat="47.3453" lon="-2.34345">
        <ele>20.39999961853</ele>
        <time>2021-07-11T08:55:04.000Z</time>
      </trkpt>
      <trkpt lat="47.34519" lon="-2.34354">
        <ele>20.39999961853</ele>
        <time>2021-07-11T08:55:07.000Z</time>
      </trkpt>
      <trkpt lat="47.34509" lon="-2.34367">
        <ele>20.39999961853</ele>
        <time>2021-07-11T08:55:10.000Z</time>
      </trkpt>
      <trkpt lat="47.34486" lon="-2.3439">
        <ele>20.39999961853</ele>
        <time>2021-07-11T08:55:16.000Z</time>
      </trkpt>
      <trkpt lat="47.34467" lon="-2.34399">
        <ele>20.39999961853</ele>
        <time>2021-07-11T08:55:20.000Z</time>
      </trkpt>
      <trkpt lat="47.34457" lon="-2.34402">
        <ele>20.39999961853</ele>
        <time>2021-07-11T08:55:22.000Z</time>
      </trkpt>
      <trkpt lat="47.34442" lon="-2.34407">
        <ele>20.799999237061</ele>
        <time>2021-07-11T08:55:25.000Z</time>
      </trkpt>
      <trkpt lat="47.34437" lon="-2.34408">
        <ele>21.200000762939</ele>
        <time>2021-07-11T08:55:26.000Z</time>
      </trkpt>
      <trkpt lat="47.34432" lon="-2.3441">
        <ele>21.60000038147</ele>
        <time>2021-07-11T08:55:27.000Z</time>
      </trkpt>
      <trkpt lat="47.34428" lon="-2.34412">
        <ele>22</ele>
        <time>2021-07-11T08:55:28.000Z</time>
      </trkpt>
      <trkpt lat="47.34423" lon="-2.34414">
        <ele>22.39999961853</ele>
        <time>2021-07-11T08:55:29.000Z</time>
      </trkpt>
      <trkpt lat="47.34395" lon="-2.34429">
        <ele>22.39999961853</ele>
        <time>2021-07-11T08:55:35.000Z</time>
      </trkpt>
      <trkpt lat="47.34381" lon="-2.34435">
        <ele>22.39999961853</ele>
        <time>2021-07-11T08:55:38.000Z</time>
      </trkpt>
      <trkpt lat="47.34368" lon="-2.34442">
        <ele>22.39999961853</ele>
        <time>2021-07-11T08:55:41.000Z</time>
      </trkpt>
      <trkpt lat="47.34339" lon="-2.34461">
        <ele>22.39999961853</ele>
        <time>2021-07-11T08:55:47.000Z</time>
      </trkpt>
      <trkpt lat="47.34335" lon="-2.34463">
        <ele>22.39999961853</ele>
        <time>2021-07-11T08:55:48.000Z</time>
      </trkpt>
      <trkpt lat="47.34293" lon="-2.34469">
        <ele>22.39999961853</ele>
        <time>2021-07-11T08:55:56.000Z</time>
      </trkpt>
      <trkpt lat="47.34287" lon="-2.34469">
        <ele>22.39999961853</ele>
        <time>2021-07-11T08:55:57.000Z</time>
      </trkpt>
      <trkpt lat="47.34266" lon="-2.34475">
        <ele>22.39999961853</ele>
        <time>2021-07-11T08:56:01.000Z</time>
      </trkpt>
      <trkpt lat="47.34241" lon="-2.34486">
        <ele>22.39999961853</ele>
        <time>2021-07-11T08:56:06.000Z</time>
      </trkpt>
      <trkpt lat="47.34212" lon="-2.345">
        <ele>22.39999961853</ele>
        <time>2021-07-11T08:56:12.000Z</time>
      </trkpt>
      <trkpt lat="47.34179" lon="-2.34514">
        <ele>22.39999961853</ele>
        <time>2021-07-11T08:56:19.000Z</time>
      </trkpt>
      <trkpt lat="47.34157" lon="-2.34521">
        <ele>22.799999237061</ele>
        <time>2021-07-11T08:56:24.000Z</time>
      </trkpt>
      <trkpt lat="47.34152" lon="-2.34522">
        <ele>23.200000762939</ele>
        <time>2021-07-11T08:56:25.000Z</time>
      </trkpt>
      <trkpt lat="47.34147" lon="-2.34524">
        <ele>23.60000038147</ele>
        <time>2021-07-11T08:56:26.000Z</time>
      </trkpt>
      <trkpt lat="47.34142" lon="-2.34526">
        <ele>24</ele>
        <time>2021-07-11T08:56:27.000Z</time>
      </trkpt>
      <trkpt lat="47.34138" lon="-2.34529">
        <ele>24.39999961853</ele>
        <time>2021-07-11T08:56:28.000Z</time>
      </trkpt>
      <trkpt lat="47.34123" lon="-2.34535">
        <ele>24.39999961853</ele>
        <time>2021-07-11T08:56:31.000Z</time>
      </trkpt>
      <trkpt lat="47.34091" lon="-2.34555">
        <ele>24.39999961853</ele>
        <time>2021-07-11T08:56:38.000Z</time>
      </trkpt>
      <trkpt lat="47.34068" lon="-2.34575">
        <ele>24.39999961853</ele>
        <time>2021-07-11T08:56:43.000Z</time>
      </trkpt>
      <trkpt lat="47.34064" lon="-2.34579">
        <ele>24.39999961853</ele>
        <time>2021-07-11T08:56:44.000Z</time>
      </trkpt>
      <trkpt lat="47.34043" lon="-2.34594">
        <ele>24.39999961853</ele>
        <time>2021-07-11T08:56:49.000Z</time>
      </trkpt>
      <trkpt lat="47.34033" lon="-2.34599">
        <ele>24.39999961853</ele>
        <time>2021-07-11T08:56:51.000Z</time>
      </trkpt>
      <trkpt lat="47.3402" lon="-2.34602">
        <ele>24.39999961853</ele>
        <time>2021-07-11T08:56:54.000Z</time>
      </trkpt>
      <trkpt lat="47.34015" lon="-2.34602">
        <ele>24.39999961853</ele>
        <time>2021-07-11T08:56:55.000Z</time>
      </trkpt>
      <trkpt lat="47.3401" lon="-2.34602">
        <ele>24.799999237061</ele>
        <time>2021-07-11T08:56:56.000Z</time>
      </trkpt>
      <trkpt lat="47.34006" lon="-2.34602">
        <ele>25.200000762939</ele>
        <time>2021-07-11T08:56:57.000Z</time>
      </trkpt>
      <trkpt lat="47.34002" lon="-2.34601">
        <ele>25.799999237061</ele>
        <time>2021-07-11T08:56:58.000Z</time>
      </trkpt>
      <trkpt lat="47.33998" lon="-2.34599">
        <ele>26.200000762939</ele>
        <time>2021-07-11T08:56:59.000Z</time>
      </trkpt>
      <trkpt lat="47.33994" lon="-2.34598">
        <ele>26.60000038147</ele>
        <time>2021-07-11T08:57:00.000Z</time>
      </trkpt>
      <trkpt lat="47.3399" lon="-2.34597">
        <ele>26.60000038147</ele>
        <time>2021-07-11T08:57:01.000Z</time>
      </trkpt>
      <trkpt lat="47.33956" lon="-2.3459">
        <ele>26.60000038147</ele>
        <time>2021-07-11T08:57:08.000Z</time>
      </trkpt>
      <trkpt lat="47.33945" lon="-2.34591">
        <ele>26.60000038147</ele>
        <time>2021-07-11T08:57:10.000Z</time>
      </trkpt>
      <trkpt lat="47.33931" lon="-2.34595">
        <ele>26.60000038147</ele>
        <time>2021-07-11T08:57:13.000Z</time>
      </trkpt>
      <trkpt lat="47.33914" lon="-2.34594">
        <ele>26.60000038147</ele>
        <time>2021-07-11T08:57:17.000Z</time>
      </trkpt>
      <trkpt lat="47.3391" lon="-2.34596">
        <ele>26.60000038147</ele>
        <time>2021-07-11T08:57:18.000Z</time>
      </trkpt>
      <trkpt lat="47.33894" lon="-2.3461">
        <ele>26.60000038147</ele>
        <time>2021-07-11T08:57:23.000Z</time>
      </trkpt>
      <trkpt lat="47.33886" lon="-2.34628">
        <ele>26.60000038147</ele>
        <time>2021-07-11T08:57:28.000Z</time>
      </trkpt>
      <trkpt lat="47.3388" lon="-2.34661">
        <ele>26.60000038147</ele>
        <time>2021-07-11T08:57:34.000Z</time>
      </trkpt>
      <trkpt lat="47.33879" lon="-2.34691">
        <ele>26.60000038147</ele>
        <time>2021-07-11T08:57:39.000Z</time>
      </trkpt>
      <trkpt lat="47.33876" lon="-2.3473">
        <ele>26</ele>
        <time>2021-07-11T08:57:46.000Z</time>
      </trkpt>
      <trkpt lat="47.33875" lon="-2.34735">
        <ele>25.60000038147</ele>
        <time>2021-07-11T08:57:47.000Z</time>
      </trkpt>
      <trkpt lat="47.33875" lon="-2.34741">
        <ele>25.200000762939</ele>
        <time>2021-07-11T08:57:48.000Z</time>
      </trkpt>
      <trkpt lat="47.33874" lon="-2.34746">
        <ele>24.799999237061</ele>
        <time>2021-07-11T08:57:49.000Z</time>
      </trkpt>
      <trkpt lat="47.33874" lon="-2.34752">
        <ele>24.39999961853</ele>
        <time>2021-07-11T08:57:50.000Z</time>
      </trkpt>
      <trkpt lat="47.33874" lon="-2.34766">
        <ele>24.39999961853</ele>
        <time>2021-07-11T08:57:52.000Z</time>
      </trkpt>
      <trkpt lat="47.33866" lon="-2.34798">
        <ele>24.39999961853</ele>
        <time>2021-07-11T08:57:57.000Z</time>
      </trkpt>
      <trkpt lat="47.33864" lon="-2.34809">
        <ele>24</ele>
        <time>2021-07-11T08:58:00.000Z</time>
      </trkpt>
      <trkpt lat="47.33864" lon="-2.34812">
        <ele>23.60000038147</ele>
        <time>2021-07-11T08:58:01.000Z</time>
      </trkpt>
      <trkpt lat="47.33863" lon="-2.34815">
        <ele>23.200000762939</ele>
        <time>2021-07-11T08:58:02.000Z</time>
      </trkpt>
      <trkpt lat="47.33862" lon="-2.34819">
        <ele>22.60000038147</ele>
        <time>2021-07-11T08:58:03.000Z</time>
      </trkpt>
      <trkpt lat="47.33861" lon="-2.34822">
        <ele>22.200000762939</ele>
        <time>2021-07-11T08:58:04.000Z</time>
      </trkpt>
      <trkpt lat="47.33859" lon="-2.34829">
        <ele>22.200000762939</ele>
        <time>2021-07-11T08:58:08.000Z</time>
      </trkpt>
      <trkpt lat="47.33853" lon="-2.34839">
        <ele>22.200000762939</ele>
        <time>2021-07-11T08:58:14.000Z</time>
      </trkpt>
      <trkpt lat="47.33847" lon="-2.34844">
        <ele>22.200000762939</ele>
        <time>2021-07-11T08:58:17.000Z</time>
      </trkpt>
      <trkpt lat="47.33832" lon="-2.34863">
        <ele>22.200000762939</ele>
        <time>2021-07-11T08:58:23.000Z</time>
      </trkpt>
      <trkpt lat="47.33821" lon="-2.34878">
        <ele>22.200000762939</ele>
        <time>2021-07-11T08:58:29.000Z</time>
      </trkpt>
      <trkpt lat="47.33814" lon="-2.34891">
        <ele>22.200000762939</ele>
        <time>2021-07-11T08:58:35.000Z</time>
      </trkpt>
      <trkpt lat="47.33808" lon="-2.34899">
        <ele>22.200000762939</ele>
        <time>2021-07-11T08:58:40.000Z</time>
      </trkpt>
      <trkpt lat="47.33799" lon="-2.34915">
        <ele>22.200000762939</ele>
        <time>2021-07-11T08:58:46.000Z</time>
      </trkpt>
      <trkpt lat="47.33785" lon="-2.34933">
        <ele>22.200000762939</ele>
        <time>2021-07-11T08:58:52.000Z</time>
      </trkpt>
      <trkpt lat="47.33769" lon="-2.34957">
        <ele>22.200000762939</ele>
        <time>2021-07-11T08:58:58.000Z</time>
      </trkpt>
      <trkpt lat="47.33739" lon="-2.34983">
        <ele>22.200000762939</ele>
        <time>2021-07-11T08:59:06.000Z</time>
      </trkpt>
      <trkpt lat="47.33736" lon="-2.34986">
        <ele>22.60000038147</ele>
        <time>2021-07-11T08:59:07.000Z</time>
      </trkpt>
      <trkpt lat="47.33734" lon="-2.34989">
        <ele>23</ele>
        <time>2021-07-11T08:59:08.000Z</time>
      </trkpt>
      <trkpt lat="47.33731" lon="-2.34991">
        <ele>23.60000038147</ele>
        <time>2021-07-11T08:59:09.000Z</time>
      </trkpt>
      <trkpt lat="47.33727" lon="-2.34994">
        <ele>24</ele>
        <time>2021-07-11T08:59:10.000Z</time>
      </trkpt>
      <trkpt lat="47.33724" lon="-2.34996">
        <ele>24.39999961853</ele>
        <time>2021-07-11T08:59:11.000Z</time>
      </trkpt>
      <trkpt lat="47.33721" lon="-2.34999">
        <ele>24.39999961853</ele>
        <time>2021-07-11T08:59:12.000Z</time>
      </trkpt>
      <trkpt lat="47.33712" lon="-2.35006">
        <ele>24.39999961853</ele>
        <time>2021-07-11T08:59:17.000Z</time>
      </trkpt>
      <trkpt lat="47.33711" lon="-2.35006">
        <ele>24.39999961853</ele>
        <time>2021-07-11T08:59:20.000Z</time>
      </trkpt>
      <trkpt lat="47.33708" lon="-2.35002">
        <ele>24.39999961853</ele>
        <time>2021-07-11T08:59:39.000Z</time>
      </trkpt>
      <trkpt lat="47.33706" lon="-2.35001">
        <ele>24.39999961853</ele>
        <time>2021-07-11T08:59:40.000Z</time>
      </trkpt>
      <trkpt lat="47.337" lon="-2.34997">
        <ele>24.39999961853</ele>
        <time>2021-07-11T08:59:43.000Z</time>
      </trkpt>
      <trkpt lat="47.33696" lon="-2.34991">
        <ele>24.39999961853</ele>
        <time>2021-07-11T08:59:45.000Z</time>
      </trkpt>
      <trkpt lat="47.3368" lon="-2.34971">
        <ele>24.39999961853</ele>
        <time>2021-07-11T08:59:51.000Z</time>
      </trkpt>
      <trkpt lat="47.33662" lon="-2.34964">
        <ele>24.39999961853</ele>
        <time>2021-07-11T08:59:56.000Z</time>
      </trkpt>
      <trkpt lat="47.33647" lon="-2.34968">
        <ele>24.39999961853</ele>
        <time>2021-07-11T09:00:01.000Z</time>
      </trkpt>
      <trkpt lat="47.33639" lon="-2.34962">
        <ele>24.799999237061</ele>
        <time>2021-07-11T09:00:04.000Z</time>
      </trkpt>
      <trkpt lat="47.33636" lon="-2.34958">
        <ele>25.200000762939</ele>
        <time>2021-07-11T09:00:05.000Z</time>
      </trkpt>
      <trkpt lat="47.33633" lon="-2.34956">
        <ele>25.60000038147</ele>
        <time>2021-07-11T09:00:06.000Z</time>
      </trkpt>
      <trkpt lat="47.33629" lon="-2.34954">
        <ele>26</ele>
        <time>2021-07-11T09:00:07.000Z</time>
      </trkpt>
      <trkpt lat="47.33625" lon="-2.34951">
        <ele>26.39999961853</ele>
        <time>2021-07-11T09:00:08.000Z</time>
      </trkpt>
      <trkpt lat="47.33606" lon="-2.34941">
        <ele>26.39999961853</ele>
        <time>2021-07-11T09:00:14.000Z</time>
      </trkpt>
      <trkpt lat="47.33589" lon="-2.34932">
        <ele>26.39999961853</ele>
        <time>2021-07-11T09:00:19.000Z</time>
      </trkpt>
      <trkpt lat="47.3358" lon="-2.34928">
        <ele>26.799999237061</ele>
        <time>2021-07-11T09:00:22.000Z</time>
      </trkpt>
      <trkpt lat="47.33577" lon="-2.34926">
        <ele>27.200000762939</ele>
        <time>2021-07-11T09:00:23.000Z</time>
      </trkpt>
      <trkpt lat="47.33573" lon="-2.34924">
        <ele>27.60000038147</ele>
        <time>2021-07-11T09:00:24.000Z</time>
      </trkpt>
      <trkpt lat="47.33569" lon="-2.34922">
        <ele>28</ele>
        <time>2021-07-11T09:00:25.000Z</time>
      </trkpt>
      <trkpt lat="47.33564" lon="-2.34921">
        <ele>28.39999961853</ele>
        <time>2021-07-11T09:00:26.000Z</time>
      </trkpt>
      <trkpt lat="47.33555" lon="-2.34918">
        <ele>28.39999961853</ele>
        <time>2021-07-11T09:00:28.000Z</time>
      </trkpt>
      <trkpt lat="47.33537" lon="-2.3491">
        <ele>28.39999961853</ele>
        <time>2021-07-11T09:00:32.000Z</time>
      </trkpt>
      <trkpt lat="47.3351" lon="-2.34893">
        <ele>28.39999961853</ele>
        <time>2021-07-11T09:00:38.000Z</time>
      </trkpt>
      <trkpt lat="47.33501" lon="-2.34892">
        <ele>28.39999961853</ele>
        <time>2021-07-11T09:00:40.000Z</time>
      </trkpt>
      <trkpt lat="47.33491" lon="-2.34895">
        <ele>28.39999961853</ele>
        <time>2021-07-11T09:00:42.000Z</time>
      </trkpt>
      <trkpt lat="47.33482" lon="-2.349">
        <ele>28.39999961853</ele>
        <time>2021-07-11T09:00:44.000Z</time>
      </trkpt>
      <trkpt lat="47.33467" lon="-2.34905">
        <ele>28.39999961853</ele>
        <time>2021-07-11T09:00:47.000Z</time>
      </trkpt>
      <trkpt lat="47.33428" lon="-2.34923">
        <ele>28.39999961853</ele>
        <time>2021-07-11T09:00:54.000Z</time>
      </trkpt>
      <trkpt lat="47.33406" lon="-2.34931">
        <ele>28.39999961853</ele>
        <time>2021-07-11T09:00:59.000Z</time>
      </trkpt>
      <trkpt lat="47.33391" lon="-2.34931">
        <ele>28.39999961853</ele>
        <time>2021-07-11T09:01:03.000Z</time>
      </trkpt>
      <trkpt lat="47.33383" lon="-2.34931">
        <ele>28.39999961853</ele>
        <time>2021-07-11T09:01:08.000Z</time>
      </trkpt>
      <trkpt lat="47.33382" lon="-2.34933">
        <ele>28.39999961853</ele>
        <time>2021-07-11T09:01:09.000Z</time>
      </trkpt>
      <trkpt lat="47.33379" lon="-2.34935">
        <ele>28.39999961853</ele>
        <time>2021-07-11T09:01:12.000Z</time>
      </trkpt>
      <trkpt lat="47.33377" lon="-2.34936">
        <ele>28.39999961853</ele>
        <time>2021-07-11T09:01:13.000Z</time>
      </trkpt>
      <trkpt lat="47.33362" lon="-2.3494">
        <ele>28.39999961853</ele>
        <time>2021-07-11T09:01:17.000Z</time>
      </trkpt>
      <trkpt lat="47.33346" lon="-2.3494">
        <ele>28.39999961853</ele>
        <time>2021-07-11T09:01:22.000Z</time>
      </trkpt>
      <trkpt lat="47.3334" lon="-2.34939">
        <ele>28.39999961853</ele>
        <time>2021-07-11T09:01:25.000Z</time>
      </trkpt>
      <trkpt lat="47.33335" lon="-2.34939">
        <ele>28.39999961853</ele>
        <time>2021-07-11T09:01:28.000Z</time>
      </trkpt>
      <trkpt lat="47.33335" lon="-2.34939">
        <ele>28.39999961853</ele>
        <time>2021-07-11T09:01:29.000Z</time>
      </trkpt>
      <trkpt lat="47.33323" lon="-2.34937">
        <ele>26.799999237061</ele>
        <time>2021-07-11T09:02:07.000Z</time>
      </trkpt>
      <trkpt lat="47.33321" lon="-2.34937">
        <ele>26.39999961853</ele>
        <time>2021-07-11T09:02:08.000Z</time>
      </trkpt>
      <trkpt lat="47.33321" lon="-2.34937">
        <ele>26.39999961853</ele>
        <time>2021-07-11T09:02:09.000Z</time>
      </trkpt>
      <trkpt lat="47.3332" lon="-2.34937">
        <ele>26.39999961853</ele>
        <time>2021-07-11T09:02:10.000Z</time>
      </trkpt>
      <trkpt lat="47.33318" lon="-2.34938">
        <ele>26.39999961853</ele>
        <time>2021-07-11T09:02:12.000Z</time>
      </trkpt>
      <trkpt lat="47.33313" lon="-2.34938">
        <ele>26.39999961853</ele>
        <time>2021-07-11T09:02:14.000Z</time>
      </trkpt>
      <trkpt lat="47.33291" lon="-2.3494">
        <ele>26.39999961853</ele>
        <time>2021-07-11T09:02:19.000Z</time>
      </trkpt>
      <trkpt lat="47.33272" lon="-2.34941">
        <ele>26.39999961853</ele>
        <time>2021-07-11T09:02:23.000Z</time>
      </trkpt>
      <trkpt lat="47.33263" lon="-2.34943">
        <ele>26.39999961853</ele>
        <time>2021-07-11T09:02:25.000Z</time>
      </trkpt>
      <trkpt lat="47.33246" lon="-2.3495">
        <ele>26.39999961853</ele>
        <time>2021-07-11T09:02:30.000Z</time>
      </trkpt>
      <trkpt lat="47.33233" lon="-2.34955">
        <ele>26.39999961853</ele>
        <time>2021-07-11T09:02:35.000Z</time>
      </trkpt>
      <trkpt lat="47.33217" lon="-2.34969">
        <ele>26.39999961853</ele>
        <time>2021-07-11T09:02:40.000Z</time>
      </trkpt>
      <trkpt lat="47.33201" lon="-2.34989">
        <ele>26.39999961853</ele>
        <time>2021-07-11T09:02:45.000Z</time>
      </trkpt>
      <trkpt lat="47.33194" lon="-2.34998">
        <ele>26.39999961853</ele>
        <time>2021-07-11T09:02:47.000Z</time>
      </trkpt>
      <trkpt lat="47.33187" lon="-2.35007">
        <ele>26.39999961853</ele>
        <time>2021-07-11T09:02:49.000Z</time>
      </trkpt>
      <trkpt lat="47.33173" lon="-2.35019">
        <ele>26.39999961853</ele>
        <time>2021-07-11T09:02:53.000Z</time>
      </trkpt>
      <trkpt lat="47.33168" lon="-2.35018">
        <ele>26.39999961853</ele>
        <time>2021-07-11T09:02:56.000Z</time>
      </trkpt>
      <trkpt lat="47.33166" lon="-2.35017">
        <ele>26.39999961853</ele>
        <time>2021-07-11T09:02:57.000Z</time>
      </trkpt>
      <trkpt lat="47.33156" lon="-2.35011">
        <ele>26.39999961853</ele>
        <time>2021-07-11T09:03:01.000Z</time>
      </trkpt>
      <trkpt lat="47.33149" lon="-2.35018">
        <ele>26.39999961853</ele>
        <time>2021-07-11T09:03:04.000Z</time>
      </trkpt>
      <trkpt lat="47.33145" lon="-2.35024">
        <ele>26.39999961853</ele>
        <time>2021-07-11T09:03:06.000Z</time>
      </trkpt>
      <trkpt lat="47.33134" lon="-2.35047">
        <ele>26.39999961853</ele>
        <time>2021-07-11T09:03:11.000Z</time>
      </trkpt>
      <trkpt lat="47.33116" lon="-2.35068">
        <ele>26.39999961853</ele>
        <time>2021-07-11T09:03:16.000Z</time>
      </trkpt>
      <trkpt lat="47.33105" lon="-2.35086">
        <ele>26.39999961853</ele>
        <time>2021-07-11T09:03:20.000Z</time>
      </trkpt>
      <trkpt lat="47.33092" lon="-2.35102">
        <ele>26.39999961853</ele>
        <time>2021-07-11T09:03:24.000Z</time>
      </trkpt>
      <trkpt lat="47.33078" lon="-2.35121">
        <ele>26.799999237061</ele>
        <time>2021-07-11T09:03:28.000Z</time>
      </trkpt>
      <trkpt lat="47.33075" lon="-2.35124">
        <ele>27.200000762939</ele>
        <time>2021-07-11T09:03:29.000Z</time>
      </trkpt>
      <trkpt lat="47.33073" lon="-2.35128">
        <ele>27.60000038147</ele>
        <time>2021-07-11T09:03:30.000Z</time>
      </trkpt>
      <trkpt lat="47.3307" lon="-2.35134">
        <ele>28.39999961853</ele>
        <time>2021-07-11T09:03:31.000Z</time>
      </trkpt>
      <trkpt lat="47.33064" lon="-2.35144">
        <ele>28.39999961853</ele>
        <time>2021-07-11T09:03:33.000Z</time>
      </trkpt>
      <trkpt lat="47.33061" lon="-2.35149">
        <ele>28.39999961853</ele>
        <time>2021-07-11T09:03:34.000Z</time>
      </trkpt>
      <trkpt lat="47.33051" lon="-2.35173">
        <ele>28.39999961853</ele>
        <time>2021-07-11T09:03:38.000Z</time>
      </trkpt>
      <trkpt lat="47.33048" lon="-2.35178">
        <ele>28.39999961853</ele>
        <time>2021-07-11T09:03:39.000Z</time>
      </trkpt>
      <trkpt lat="47.3304" lon="-2.35189">
        <ele>28.39999961853</ele>
        <time>2021-07-11T09:03:42.000Z</time>
      </trkpt>
      <trkpt lat="47.33032" lon="-2.35204">
        <ele>28.39999961853</ele>
        <time>2021-07-11T09:03:47.000Z</time>
      </trkpt>
      <trkpt lat="47.33027" lon="-2.3521">
        <ele>28.39999961853</ele>
        <time>2021-07-11T09:03:51.000Z</time>
      </trkpt>
      <trkpt lat="47.33027" lon="-2.35206">
        <ele>28.39999961853</ele>
        <time>2021-07-11T09:04:17.000Z</time>
      </trkpt>
      <trkpt lat="47.33026" lon="-2.35188">
        <ele>28.39999961853</ele>
        <time>2021-07-11T09:04:22.000Z</time>
      </trkpt>
      <trkpt lat="47.33025" lon="-2.35156">
        <ele>28.39999961853</ele>
        <time>2021-07-11T09:04:28.000Z</time>
      </trkpt>
      <trkpt lat="47.33021" lon="-2.35114">
        <ele>28.39999961853</ele>
        <time>2021-07-11T09:04:34.000Z</time>
      </trkpt>
      <trkpt lat="47.33016" lon="-2.35086">
        <ele>28.39999961853</ele>
        <time>2021-07-11T09:04:40.000Z</time>
      </trkpt>
      <trkpt lat="47.33009" lon="-2.35063">
        <ele>28.39999961853</ele>
        <time>2021-07-11T09:04:46.000Z</time>
      </trkpt>
      <trkpt lat="47.33005" lon="-2.35039">
        <ele>28.39999961853</ele>
        <time>2021-07-11T09:04:52.000Z</time>
      </trkpt>
      <trkpt lat="47.33003" lon="-2.35027">
        <ele>28</ele>
        <time>2021-07-11T09:04:55.000Z</time>
      </trkpt>
      <trkpt lat="47.33002" lon="-2.35023">
        <ele>27.60000038147</ele>
        <time>2021-07-11T09:04:56.000Z</time>
      </trkpt>
      <trkpt lat="47.33001" lon="-2.35019">
        <ele>27.200000762939</ele>
        <time>2021-07-11T09:04:57.000Z</time>
      </trkpt>
      <trkpt lat="47.33" lon="-2.35017">
        <ele>26.799999237061</ele>
        <time>2021-07-11T09:04:58.000Z</time>
      </trkpt>
      <trkpt lat="47.32998" lon="-2.35013">
        <ele>26.39999961853</ele>
        <time>2021-07-11T09:04:59.000Z</time>
      </trkpt>
      <trkpt lat="47.3299" lon="-2.34996">
        <ele>26.39999961853</ele>
        <time>2021-07-11T09:05:03.000Z</time>
      </trkpt>
      <trkpt lat="47.32979" lon="-2.34975">
        <ele>26.39999961853</ele>
        <time>2021-07-11T09:05:08.000Z</time>
      </trkpt>
      <trkpt lat="47.3297" lon="-2.34944">
        <ele>26.39999961853</ele>
        <time>2021-07-11T09:05:14.000Z</time>
      </trkpt>
      <trkpt lat="47.32956" lon="-2.34907">
        <ele>26.39999961853</ele>
        <time>2021-07-11T09:05:20.000Z</time>
      </trkpt>
      <trkpt lat="47.32946" lon="-2.34877">
        <ele>26.39999961853</ele>
        <time>2021-07-11T09:05:25.000Z</time>
      </trkpt>
      <trkpt lat="47.32943" lon="-2.3487">
        <ele>26.39999961853</ele>
        <time>2021-07-11T09:05:26.000Z</time>
      </trkpt>
      <trkpt lat="47.32934" lon="-2.34842">
        <ele>26.39999961853</ele>
        <time>2021-07-11T09:05:30.000Z</time>
      </trkpt>
      <trkpt lat="47.32925" lon="-2.3482">
        <ele>26.39999961853</ele>
        <time>2021-07-11T09:05:33.000Z</time>
      </trkpt>
      <trkpt lat="47.3292" lon="-2.34807">
        <ele>26</ele>
        <time>2021-07-11T09:05:35.000Z</time>
      </trkpt>
      <trkpt lat="47.32917" lon="-2.34801">
        <ele>25.60000038147</ele>
        <time>2021-07-11T09:05:36.000Z</time>
      </trkpt>
      <trkpt lat="47.32914" lon="-2.34795">
        <ele>25.200000762939</ele>
        <time>2021-07-11T09:05:37.000Z</time>
      </trkpt>
      <trkpt lat="47.32911" lon="-2.3479">
        <ele>24.799999237061</ele>
        <time>2021-07-11T09:05:38.000Z</time>
      </trkpt>
      <trkpt lat="47.32907" lon="-2.34787">
        <ele>24.39999961853</ele>
        <time>2021-07-11T09:05:39.000Z</time>
      </trkpt>
      <trkpt lat="47.32905" lon="-2.34784">
        <ele>24.39999961853</ele>
        <time>2021-07-11T09:05:40.000Z</time>
      </trkpt>
      <trkpt lat="47.32901" lon="-2.34785">
        <ele>24.39999961853</ele>
        <time>2021-07-11T09:05:41.000Z</time>
      </trkpt>
      <trkpt lat="47.32894" lon="-2.34789">
        <ele>24.39999961853</ele>
        <time>2021-07-11T09:05:43.000Z</time>
      </trkpt>
      <trkpt lat="47.3287" lon="-2.34809">
        <ele>24.39999961853</ele>
        <time>2021-07-11T09:05:48.000Z</time>
      </trkpt>
      <trkpt lat="47.32865" lon="-2.34813">
        <ele>24.39999961853</ele>
        <time>2021-07-11T09:05:49.000Z</time>
      </trkpt>
      <trkpt lat="47.32856" lon="-2.3482">
        <ele>24.39999961853</ele>
        <time>2021-07-11T09:05:51.000Z</time>
      </trkpt>
      <trkpt lat="47.32837" lon="-2.34834">
        <ele>24.39999961853</ele>
        <time>2021-07-11T09:05:54.000Z</time>
      </trkpt>
      <trkpt lat="47.32798" lon="-2.34863">
        <ele>24.39999961853</ele>
        <time>2021-07-11T09:06:01.000Z</time>
      </trkpt>
      <trkpt lat="47.32793" lon="-2.34866">
        <ele>24.799999237061</ele>
        <time>2021-07-11T09:06:02.000Z</time>
      </trkpt>
      <trkpt lat="47.32788" lon="-2.3487">
        <ele>25.200000762939</ele>
        <time>2021-07-11T09:06:03.000Z</time>
      </trkpt>
      <trkpt lat="47.32783" lon="-2.34874">
        <ele>25.60000038147</ele>
        <time>2021-07-11T09:06:04.000Z</time>
      </trkpt>
      <trkpt lat="47.32778" lon="-2.34878">
        <ele>26</ele>
        <time>2021-07-11T09:06:05.000Z</time>
      </trkpt>
      <trkpt lat="47.32773" lon="-2.34881">
        <ele>26.39999961853</ele>
        <time>2021-07-11T09:06:06.000Z</time>
      </trkpt>
      <trkpt lat="47.32768" lon="-2.34885">
        <ele>26.39999961853</ele>
        <time>2021-07-11T09:06:07.000Z</time>
      </trkpt>
      <trkpt lat="47.32749" lon="-2.34899">
        <ele>26.39999961853</ele>
        <time>2021-07-11T09:06:11.000Z</time>
      </trkpt>
      <trkpt lat="47.32731" lon="-2.34912">
        <ele>26.39999961853</ele>
        <time>2021-07-11T09:06:15.000Z</time>
      </trkpt>
      <trkpt lat="47.32702" lon="-2.34933">
        <ele>26.39999961853</ele>
        <time>2021-07-11T09:06:22.000Z</time>
      </trkpt>
      <trkpt lat="47.32676" lon="-2.34953">
        <ele>26.39999961853</ele>
        <time>2021-07-11T09:06:29.000Z</time>
      </trkpt>
      <trkpt lat="47.32657" lon="-2.34965">
        <ele>26.39999961853</ele>
        <time>2021-07-11T09:06:34.000Z</time>
      </trkpt>
      <trkpt lat="47.32634" lon="-2.34978">
        <ele>26.39999961853</ele>
        <time>2021-07-11T09:06:39.000Z</time>
      </trkpt>
      <trkpt lat="47.32626" lon="-2.34982">
        <ele>26.799999237061</ele>
        <time>2021-07-11T09:06:41.000Z</time>
      </trkpt>
      <trkpt lat="47.32623" lon="-2.34984">
        <ele>27.200000762939</ele>
        <time>2021-07-11T09:06:42.000Z</time>
      </trkpt>
      <trkpt lat="47.32619" lon="-2.34986">
        <ele>27.60000038147</ele>
        <time>2021-07-11T09:06:43.000Z</time>
      </trkpt>
      <trkpt lat="47.32616" lon="-2.34988">
        <ele>28.200000762939</ele>
        <time>2021-07-11T09:06:44.000Z</time>
      </trkpt>
      <trkpt lat="47.32612" lon="-2.34991">
        <ele>28.60000038147</ele>
        <time>2021-07-11T09:06:45.000Z</time>
      </trkpt>
      <trkpt lat="47.3259" lon="-2.35004">
        <ele>28.60000038147</ele>
        <time>2021-07-11T09:06:50.000Z</time>
      </trkpt>
      <trkpt lat="47.32563" lon="-2.35014">
        <ele>28.60000038147</ele>
        <time>2021-07-11T09:06:56.000Z</time>
      </trkpt>
      <trkpt lat="47.3253" lon="-2.35024">
        <ele>28.60000038147</ele>
        <time>2021-07-11T09:07:03.000Z</time>
      </trkpt>
      <trkpt lat="47.3252" lon="-2.35025">
        <ele>29</ele>
        <time>2021-07-11T09:07:05.000Z</time>
      </trkpt>
      <trkpt lat="47.32516" lon="-2.35026">
        <ele>29.39999961853</ele>
        <time>2021-07-11T09:07:06.000Z</time>
      </trkpt>
      <trkpt lat="47.32511" lon="-2.35026">
        <ele>29.799999237061</ele>
        <time>2021-07-11T09:07:07.000Z</time>
      </trkpt>
      <trkpt lat="47.32506" lon="-2.35027">
        <ele>30.200000762939</ele>
        <time>2021-07-11T09:07:08.000Z</time>
      </trkpt>
      <trkpt lat="47.325" lon="-2.35028">
        <ele>30.60000038147</ele>
        <time>2021-07-11T09:07:09.000Z</time>
      </trkpt>
      <trkpt lat="47.32489" lon="-2.35029">
        <ele>30.60000038147</ele>
        <time>2021-07-11T09:07:11.000Z</time>
      </trkpt>
      <trkpt lat="47.32472" lon="-2.35033">
        <ele>30.60000038147</ele>
        <time>2021-07-11T09:07:14.000Z</time>
      </trkpt>
      <trkpt lat="47.32436" lon="-2.35042">
        <ele>30.60000038147</ele>
        <time>2021-07-11T09:07:21.000Z</time>
      </trkpt>
      <trkpt lat="47.32401" lon="-2.35045">
        <ele>30.60000038147</ele>
        <time>2021-07-11T09:07:27.000Z</time>
      </trkpt>
      <trkpt lat="47.32367" lon="-2.35046">
        <ele>30.60000038147</ele>
        <time>2021-07-11T09:07:33.000Z</time>
      </trkpt>
      <trkpt lat="47.32313" lon="-2.35046">
        <ele>30.60000038147</ele>
        <time>2021-07-11T09:07:42.000Z</time>
      </trkpt>
      <trkpt lat="47.32277" lon="-2.35046">
        <ele>30.60000038147</ele>
        <time>2021-07-11T09:07:48.000Z</time>
      </trkpt>
      <trkpt lat="47.32239" lon="-2.35048">
        <ele>30.60000038147</ele>
        <time>2021-07-11T09:07:53.000Z</time>
      </trkpt>
      <trkpt lat="47.32189" lon="-2.35053">
        <ele>30.60000038147</ele>
        <time>2021-07-11T09:08:00.000Z</time>
      </trkpt>
      <trkpt lat="47.32163" lon="-2.35056">
        <ele>30.200000762939</ele>
        <time>2021-07-11T09:08:04.000Z</time>
      </trkpt>
      <trkpt lat="47.32156" lon="-2.35056">
        <ele>29.799999237061</ele>
        <time>2021-07-11T09:08:05.000Z</time>
      </trkpt>
      <trkpt lat="47.3215" lon="-2.35057">
        <ele>29.39999961853</ele>
        <time>2021-07-11T09:08:06.000Z</time>
      </trkpt>
      <trkpt lat="47.32143" lon="-2.35058">
        <ele>29</ele>
        <time>2021-07-11T09:08:07.000Z</time>
      </trkpt>
      <trkpt lat="47.32136" lon="-2.35059">
        <ele>28.60000038147</ele>
        <time>2021-07-11T09:08:08.000Z</time>
      </trkpt>
      <trkpt lat="47.32105" lon="-2.35061">
        <ele>28.60000038147</ele>
        <time>2021-07-11T09:08:13.000Z</time>
      </trkpt>
      <trkpt lat="47.32055" lon="-2.35057">
        <ele>28.60000038147</ele>
        <time>2021-07-11T09:08:21.000Z</time>
      </trkpt>
      <trkpt lat="47.32049" lon="-2.35056">
        <ele>28.60000038147</ele>
        <time>2021-07-11T09:08:22.000Z</time>
      </trkpt>
      <trkpt lat="47.32041" lon="-2.35061">
        <ele>28.60000038147</ele>
        <time>2021-07-11T09:08:24.000Z</time>
      </trkpt>
      <trkpt lat="47.32041" lon="-2.35075">
        <ele>28.60000038147</ele>
        <time>2021-07-11T09:08:27.000Z</time>
      </trkpt>
      <trkpt lat="47.32043" lon="-2.35081">
        <ele>28.200000762939</ele>
        <time>2021-07-11T09:08:28.000Z</time>
      </trkpt>
      <trkpt lat="47.32045" lon="-2.35088">
        <ele>27.799999237061</ele>
        <time>2021-07-11T09:08:29.000Z</time>
      </trkpt>
      <trkpt lat="47.32047" lon="-2.35094">
        <ele>27.39999961853</ele>
        <time>2021-07-11T09:08:30.000Z</time>
      </trkpt>
      <trkpt lat="47.32048" lon="-2.35101">
        <ele>27</ele>
        <time>2021-07-11T09:08:31.000Z</time>
      </trkpt>
      <trkpt lat="47.32049" lon="-2.35106">
        <ele>26.60000038147</ele>
        <time>2021-07-11T09:08:32.000Z</time>
      </trkpt>
      <trkpt lat="47.32045" lon="-2.35118">
        <ele>26.60000038147</ele>
        <time>2021-07-11T09:08:35.000Z</time>
      </trkpt>
      <trkpt lat="47.3203" lon="-2.35137">
        <ele>26.60000038147</ele>
        <time>2021-07-11T09:08:41.000Z</time>
      </trkpt>
      <trkpt lat="47.3201" lon="-2.35158">
        <ele>26.60000038147</ele>
        <time>2021-07-11T09:08:46.000Z</time>
      </trkpt>
      <trkpt lat="47.3198" lon="-2.3519">
        <ele>26.60000038147</ele>
        <time>2021-07-11T09:08:52.000Z</time>
      </trkpt>
      <trkpt lat="47.31945" lon="-2.35223">
        <ele>26.60000038147</ele>
        <time>2021-07-11T09:08:59.000Z</time>
      </trkpt>
      <trkpt lat="47.3193" lon="-2.35239">
        <ele>27</ele>
        <time>2021-07-11T09:09:02.000Z</time>
      </trkpt>
      <trkpt lat="47.31926" lon="-2.35242">
        <ele>27.39999961853</ele>
        <time>2021-07-11T09:09:03.000Z</time>
      </trkpt>
      <trkpt lat="47.31921" lon="-2.35246">
        <ele>27.799999237061</ele>
        <time>2021-07-11T09:09:04.000Z</time>
      </trkpt>
      <trkpt lat="47.31917" lon="-2.3525">
        <ele>28.200000762939</ele>
        <time>2021-07-11T09:09:05.000Z</time>
      </trkpt>
      <trkpt lat="47.31911" lon="-2.35254">
        <ele>28.60000038147</ele>
        <time>2021-07-11T09:09:06.000Z</time>
      </trkpt>
      <trkpt lat="47.31881" lon="-2.35281">
        <ele>28.60000038147</ele>
        <time>2021-07-11T09:09:13.000Z</time>
      </trkpt>
      <trkpt lat="47.31851" lon="-2.35304">
        <ele>29</ele>
        <time>2021-07-11T09:09:19.000Z</time>
      </trkpt>
      <trkpt lat="47.31846" lon="-2.35308">
        <ele>29.39999961853</ele>
        <time>2021-07-11T09:09:20.000Z</time>
      </trkpt>
      <trkpt lat="47.31841" lon="-2.35311">
        <ele>29.799999237061</ele>
        <time>2021-07-11T09:09:21.000Z</time>
      </trkpt>
      <trkpt lat="47.31836" lon="-2.35314">
        <ele>30.200000762939</ele>
        <time>2021-07-11T09:09:22.000Z</time>
      </trkpt>
      <trkpt lat="47.31832" lon="-2.35316">
        <ele>30.60000038147</ele>
        <time>2021-07-11T09:09:23.000Z</time>
      </trkpt>
      <trkpt lat="47.31819" lon="-2.35323">
        <ele>30.60000038147</ele>
        <time>2021-07-11T09:09:26.000Z</time>
      </trkpt>
      <trkpt lat="47.31795" lon="-2.3534">
        <ele>31</ele>
        <time>2021-07-11T09:09:32.000Z</time>
      </trkpt>
      <trkpt lat="47.31791" lon="-2.35343">
        <ele>31.39999961853</ele>
        <time>2021-07-11T09:09:33.000Z</time>
      </trkpt>
      <trkpt lat="47.31786" lon="-2.35347">
        <ele>31.799999237061</ele>
        <time>2021-07-11T09:09:34.000Z</time>
      </trkpt>
      <trkpt lat="47.31781" lon="-2.35351">
        <ele>32.200000762939</ele>
        <time>2021-07-11T09:09:35.000Z</time>
      </trkpt>
      <trkpt lat="47.31776" lon="-2.35354">
        <ele>32.599998474121</ele>
        <time>2021-07-11T09:09:36.000Z</time>
      </trkpt>
      <trkpt lat="47.31767" lon="-2.35362">
        <ele>32.599998474121</ele>
        <time>2021-07-11T09:09:39.000Z</time>
      </trkpt>
      <trkpt lat="47.3177" lon="-2.35378">
        <ele>32.599998474121</ele>
        <time>2021-07-11T09:09:43.000Z</time>
      </trkpt>
      <trkpt lat="47.31784" lon="-2.35411">
        <ele>32.599998474121</ele>
        <time>2021-07-11T09:09:49.000Z</time>
      </trkpt>
      <trkpt lat="47.31799" lon="-2.35431">
        <ele>32.599998474121</ele>
        <time>2021-07-11T09:09:54.000Z</time>
      </trkpt>
      <trkpt lat="47.31803" lon="-2.35438">
        <ele>32.200000762939</ele>
        <time>2021-07-11T09:09:57.000Z</time>
      </trkpt>
      <trkpt lat="47.31803" lon="-2.35442">
        <ele>31.799999237061</ele>
        <time>2021-07-11T09:09:58.000Z</time>
      </trkpt>
      <trkpt lat="47.31803" lon="-2.35445">
        <ele>31.39999961853</ele>
        <time>2021-07-11T09:09:59.000Z</time>
      </trkpt>
      <trkpt lat="47.31803" lon="-2.35448">
        <ele>31</ele>
        <time>2021-07-11T09:10:00.000Z</time>
      </trkpt>
      <trkpt lat="47.31804" lon="-2.35451">
        <ele>30.60000038147</ele>
        <time>2021-07-11T09:10:01.000Z</time>
      </trkpt>
      <trkpt lat="47.31805" lon="-2.35461">
        <ele>30.60000038147</ele>
        <time>2021-07-11T09:10:05.000Z</time>
      </trkpt>
      <trkpt lat="47.31811" lon="-2.35476">
        <ele>30.60000038147</ele>
        <time>2021-07-11T09:10:13.000Z</time>
      </trkpt>
      <trkpt lat="47.31813" lon="-2.35479">
        <ele>30.60000038147</ele>
        <time>2021-07-11T09:10:15.000Z</time>
      </trkpt>
      <trkpt lat="47.31818" lon="-2.35493">
        <ele>30.60000038147</ele>
        <time>2021-07-11T09:10:25.000Z</time>
      </trkpt>
      <trkpt lat="47.31821" lon="-2.35501">
        <ele>30.60000038147</ele>
        <time>2021-07-11T09:10:27.000Z</time>
      </trkpt>
      <trkpt lat="47.31833" lon="-2.35527">
        <ele>30.60000038147</ele>
        <time>2021-07-11T09:10:33.000Z</time>
      </trkpt>
      <trkpt lat="47.31837" lon="-2.35545">
        <ele>30.60000038147</ele>
        <time>2021-07-11T09:10:38.000Z</time>
      </trkpt>
      <trkpt lat="47.31835" lon="-2.35553">
        <ele>30.60000038147</ele>
        <time>2021-07-11T09:10:42.000Z</time>
      </trkpt>
      <trkpt lat="47.31833" lon="-2.35555">
        <ele>30.60000038147</ele>
        <time>2021-07-11T09:10:43.000Z</time>
      </trkpt>
      <trkpt lat="47.31824" lon="-2.35566">
        <ele>30.60000038147</ele>
        <time>2021-07-11T09:10:48.000Z</time>
      </trkpt>
      <trkpt lat="47.31813" lon="-2.35583">
        <ele>30.60000038147</ele>
        <time>2021-07-11T09:10:55.000Z</time>
      </trkpt>
      <trkpt lat="47.318" lon="-2.35608">
        <ele>30.60000038147</ele>
        <time>2021-07-11T09:11:01.000Z</time>
      </trkpt>
      <trkpt lat="47.31786" lon="-2.35635">
        <ele>30.60000038147</ele>
        <time>2021-07-11T09:11:07.000Z</time>
      </trkpt>
      <trkpt lat="47.31783" lon="-2.35662">
        <ele>30.60000038147</ele>
        <time>2021-07-11T09:11:13.000Z</time>
      </trkpt>
      <trkpt lat="47.31784" lon="-2.3567">
        <ele>31</ele>
        <time>2021-07-11T09:11:15.000Z</time>
      </trkpt>
      <trkpt lat="47.31783" lon="-2.35674">
        <ele>31.39999961853</ele>
        <time>2021-07-11T09:11:16.000Z</time>
      </trkpt>
      <trkpt lat="47.31783" lon="-2.3568">
        <ele>31.799999237061</ele>
        <time>2021-07-11T09:11:17.000Z</time>
      </trkpt>
      <trkpt lat="47.31782" lon="-2.35685">
        <ele>32.200000762939</ele>
        <time>2021-07-11T09:11:18.000Z</time>
      </trkpt>
      <trkpt lat="47.31783" lon="-2.3569">
        <ele>32.599998474121</ele>
        <time>2021-07-11T09:11:19.000Z</time>
      </trkpt>
      <trkpt lat="47.31783" lon="-2.35726">
        <ele>32.599998474121</ele>
        <time>2021-07-11T09:11:25.000Z</time>
      </trkpt>
      <trkpt lat="47.31782" lon="-2.3574">
        <ele>33</ele>
        <time>2021-07-11T09:11:27.000Z</time>
      </trkpt>
      <trkpt lat="47.31782" lon="-2.35747">
        <ele>33.400001525879</ele>
        <time>2021-07-11T09:11:28.000Z</time>
      </trkpt>
      <trkpt lat="47.31783" lon="-2.35753">
        <ele>33.799999237061</ele>
        <time>2021-07-11T09:11:29.000Z</time>
      </trkpt>
      <trkpt lat="47.31783" lon="-2.3576">
        <ele>34.200000762939</ele>
        <time>2021-07-11T09:11:30.000Z</time>
      </trkpt>
      <trkpt lat="47.31784" lon="-2.35767">
        <ele>34.599998474121</ele>
        <time>2021-07-11T09:11:31.000Z</time>
      </trkpt>
      <trkpt lat="47.3179" lon="-2.35796">
        <ele>34.599998474121</ele>
        <time>2021-07-11T09:11:36.000Z</time>
      </trkpt>
      <trkpt lat="47.3181" lon="-2.35825">
        <ele>34.599998474121</ele>
        <time>2021-07-11T09:11:42.000Z</time>
      </trkpt>
      <trkpt lat="47.31825" lon="-2.35852">
        <ele>34.599998474121</ele>
        <time>2021-07-11T09:11:48.000Z</time>
      </trkpt>
      <trkpt lat="47.31827" lon="-2.35868">
        <ele>34.599998474121</ele>
        <time>2021-07-11T09:11:51.000Z</time>
      </trkpt>
      <trkpt lat="47.31825" lon="-2.35874">
        <ele>34.599998474121</ele>
        <time>2021-07-11T09:11:52.000Z</time>
      </trkpt>
      <trkpt lat="47.31812" lon="-2.35894">
        <ele>34.599998474121</ele>
        <time>2021-07-11T09:11:58.000Z</time>
      </trkpt>
      <trkpt lat="47.31783" lon="-2.35906">
        <ele>34.599998474121</ele>
        <time>2021-07-11T09:12:05.000Z</time>
      </trkpt>
      <trkpt lat="47.31766" lon="-2.35915">
        <ele>34.599998474121</ele>
        <time>2021-07-11T09:12:10.000Z</time>
      </trkpt>
      <trkpt lat="47.31746" lon="-2.35926">
        <ele>35.200000762939</ele>
        <time>2021-07-11T09:12:15.000Z</time>
      </trkpt>
      <trkpt lat="47.31742" lon="-2.35929">
        <ele>35.599998474121</ele>
        <time>2021-07-11T09:12:16.000Z</time>
      </trkpt>
      <trkpt lat="47.31739" lon="-2.35932">
        <ele>36</ele>
        <time>2021-07-11T09:12:17.000Z</time>
      </trkpt>
      <trkpt lat="47.31735" lon="-2.35934">
        <ele>36.400001525879</ele>
        <time>2021-07-11T09:12:18.000Z</time>
      </trkpt>
      <trkpt lat="47.31731" lon="-2.35936">
        <ele>36.799999237061</ele>
        <time>2021-07-11T09:12:19.000Z</time>
      </trkpt>
      <trkpt lat="47.31715" lon="-2.35945">
        <ele>36.799999237061</ele>
        <time>2021-07-11T09:12:23.000Z</time>
      </trkpt>
      <trkpt lat="47.31692" lon="-2.35956">
        <ele>36.799999237061</ele>
        <time>2021-07-11T09:12:29.000Z</time>
      </trkpt>
      <trkpt lat="47.31688" lon="-2.35958">
        <ele>37.200000762939</ele>
        <time>2021-07-11T09:12:30.000Z</time>
      </trkpt>
      <trkpt lat="47.31685" lon="-2.3596">
        <ele>37.599998474121</ele>
        <time>2021-07-11T09:12:31.000Z</time>
      </trkpt>
      <trkpt lat="47.31681" lon="-2.35963">
        <ele>38</ele>
        <time>2021-07-11T09:12:32.000Z</time>
      </trkpt>
      <trkpt lat="47.31678" lon="-2.35965">
        <ele>38.400001525879</ele>
        <time>2021-07-11T09:12:33.000Z</time>
      </trkpt>
      <trkpt lat="47.31674" lon="-2.35967">
        <ele>38.799999237061</ele>
        <time>2021-07-11T09:12:34.000Z</time>
      </trkpt>
      <trkpt lat="47.31671" lon="-2.35969">
        <ele>38.799999237061</ele>
        <time>2021-07-11T09:12:35.000Z</time>
      </trkpt>
      <trkpt lat="47.31657" lon="-2.35982">
        <ele>38.799999237061</ele>
        <time>2021-07-11T09:12:40.000Z</time>
      </trkpt>
      <trkpt lat="47.31636" lon="-2.36005">
        <ele>38.799999237061</ele>
        <time>2021-07-11T09:12:47.000Z</time>
      </trkpt>
      <trkpt lat="47.3161" lon="-2.36032">
        <ele>38.799999237061</ele>
        <time>2021-07-11T09:12:53.000Z</time>
      </trkpt>
      <trkpt lat="47.31605" lon="-2.36035">
        <ele>38.799999237061</ele>
        <time>2021-07-11T09:12:54.000Z</time>
      </trkpt>
      <trkpt lat="47.31592" lon="-2.36046">
        <ele>39.200000762939</ele>
        <time>2021-07-11T09:12:57.000Z</time>
      </trkpt>
      <trkpt lat="47.31588" lon="-2.36049">
        <ele>39.599998474121</ele>
        <time>2021-07-11T09:12:58.000Z</time>
      </trkpt>
      <trkpt lat="47.31584" lon="-2.36053">
        <ele>40</ele>
        <time>2021-07-11T09:12:59.000Z</time>
      </trkpt>
      <trkpt lat="47.3158" lon="-2.36056">
        <ele>40.400001525879</ele>
        <time>2021-07-11T09:13:00.000Z</time>
      </trkpt>
      <trkpt lat="47.31575" lon="-2.36059">
        <ele>41</ele>
        <time>2021-07-11T09:13:01.000Z</time>
      </trkpt>
      <trkpt lat="47.31556" lon="-2.36076">
        <ele>41</ele>
        <time>2021-07-11T09:13:06.000Z</time>
      </trkpt>
      <trkpt lat="47.31534" lon="-2.36098">
        <ele>41</ele>
        <time>2021-07-11T09:13:12.000Z</time>
      </trkpt>
      <trkpt lat="47.31508" lon="-2.3613">
        <ele>41</ele>
        <time>2021-07-11T09:13:20.000Z</time>
      </trkpt>
      <trkpt lat="47.31482" lon="-2.36161">
        <ele>41</ele>
        <time>2021-07-11T09:13:27.000Z</time>
      </trkpt>
      <trkpt lat="47.3147" lon="-2.36173">
        <ele>41</ele>
        <time>2021-07-11T09:13:32.000Z</time>
      </trkpt>
      <trkpt lat="47.31464" lon="-2.36178">
        <ele>41</ele>
        <time>2021-07-11T09:13:37.000Z</time>
      </trkpt>
      <trkpt lat="47.31461" lon="-2.36183">
        <ele>41</ele>
        <time>2021-07-11T09:15:09.000Z</time>
      </trkpt>
      <trkpt lat="47.31453" lon="-2.36193">
        <ele>41</ele>
        <time>2021-07-11T09:15:14.000Z</time>
      </trkpt>
      <trkpt lat="47.31437" lon="-2.36202">
        <ele>41</ele>
        <time>2021-07-11T09:15:19.000Z</time>
      </trkpt>
      <trkpt lat="47.3142" lon="-2.36213">
        <ele>41</ele>
        <time>2021-07-11T09:15:24.000Z</time>
      </trkpt>
      <trkpt lat="47.31416" lon="-2.36215">
        <ele>41.400001525879</ele>
        <time>2021-07-11T09:15:25.000Z</time>
      </trkpt>
      <trkpt lat="47.31411" lon="-2.36217">
        <ele>41.799999237061</ele>
        <time>2021-07-11T09:15:26.000Z</time>
      </trkpt>
      <trkpt lat="47.31407" lon="-2.36219">
        <ele>42.200000762939</ele>
        <time>2021-07-11T09:15:27.000Z</time>
      </trkpt>
      <trkpt lat="47.31403" lon="-2.3622">
        <ele>42.599998474121</ele>
        <time>2021-07-11T09:15:28.000Z</time>
      </trkpt>
      <trkpt lat="47.31398" lon="-2.36222">
        <ele>43</ele>
        <time>2021-07-11T09:15:29.000Z</time>
      </trkpt>
      <trkpt lat="47.31381" lon="-2.36229">
        <ele>43</ele>
        <time>2021-07-11T09:15:33.000Z</time>
      </trkpt>
      <trkpt lat="47.31368" lon="-2.36238">
        <ele>43</ele>
        <time>2021-07-11T09:15:36.000Z</time>
      </trkpt>
      <trkpt lat="47.31355" lon="-2.36249">
        <ele>43</ele>
        <time>2021-07-11T09:15:39.000Z</time>
      </trkpt>
      <trkpt lat="47.31327" lon="-2.36277">
        <ele>43</ele>
        <time>2021-07-11T09:15:46.000Z</time>
      </trkpt>
      <trkpt lat="47.31309" lon="-2.36291">
        <ele>43</ele>
        <time>2021-07-11T09:15:50.000Z</time>
      </trkpt>
      <trkpt lat="47.313" lon="-2.36296">
        <ele>43</ele>
        <time>2021-07-11T09:15:52.000Z</time>
      </trkpt>
      <trkpt lat="47.31276" lon="-2.36307">
        <ele>43</ele>
        <time>2021-07-11T09:15:58.000Z</time>
      </trkpt>
      <trkpt lat="47.31262" lon="-2.36313">
        <ele>43</ele>
        <time>2021-07-11T09:16:02.000Z</time>
      </trkpt>
      <trkpt lat="47.31258" lon="-2.36316">
        <ele>43</ele>
        <time>2021-07-11T09:16:03.000Z</time>
      </trkpt>
      <trkpt lat="47.3123" lon="-2.36336">
        <ele>43</ele>
        <time>2021-07-11T09:16:09.000Z</time>
      </trkpt>
      <trkpt lat="47.31196" lon="-2.36356">
        <ele>43</ele>
        <time>2021-07-11T09:16:15.000Z</time>
      </trkpt>
      <trkpt lat="47.31157" lon="-2.36386">
        <ele>43</ele>
        <time>2021-07-11T09:16:22.000Z</time>
      </trkpt>
      <trkpt lat="47.31151" lon="-2.3639">
        <ele>42.599998474121</ele>
        <time>2021-07-11T09:16:23.000Z</time>
      </trkpt>
      <trkpt lat="47.31145" lon="-2.36393">
        <ele>42.200000762939</ele>
        <time>2021-07-11T09:16:24.000Z</time>
      </trkpt>
      <trkpt lat="47.3114" lon="-2.36396">
        <ele>41.799999237061</ele>
        <time>2021-07-11T09:16:25.000Z</time>
      </trkpt>
      <trkpt lat="47.31135" lon="-2.36399">
        <ele>41.400001525879</ele>
        <time>2021-07-11T09:16:26.000Z</time>
      </trkpt>
      <trkpt lat="47.3113" lon="-2.36401">
        <ele>41</ele>
        <time>2021-07-11T09:16:27.000Z</time>
      </trkpt>
      <trkpt lat="47.31104" lon="-2.36414">
        <ele>41</ele>
        <time>2021-07-11T09:16:33.000Z</time>
      </trkpt>
      <trkpt lat="47.31081" lon="-2.36416">
        <ele>41</ele>
        <time>2021-07-11T09:16:39.000Z</time>
      </trkpt>
      <trkpt lat="47.31055" lon="-2.36417">
        <ele>41</ele>
        <time>2021-07-11T09:16:44.000Z</time>
      </trkpt>
      <trkpt lat="47.3105" lon="-2.36418">
        <ele>41</ele>
        <time>2021-07-11T09:16:45.000Z</time>
      </trkpt>
      <trkpt lat="47.31019" lon="-2.36424">
        <ele>41</ele>
        <time>2021-07-11T09:16:51.000Z</time>
      </trkpt>
      <trkpt lat="47.30989" lon="-2.36441">
        <ele>41</ele>
        <time>2021-07-11T09:16:57.000Z</time>
      </trkpt>
      <trkpt lat="47.30962" lon="-2.36454">
        <ele>41</ele>
        <time>2021-07-11T09:17:02.000Z</time>
      </trkpt>
      <trkpt lat="47.30951" lon="-2.36457">
        <ele>41.400001525879</ele>
        <time>2021-07-11T09:17:04.000Z</time>
      </trkpt>
      <trkpt lat="47.30946" lon="-2.36458">
        <ele>41.799999237061</ele>
        <time>2021-07-11T09:17:05.000Z</time>
      </trkpt>
      <trkpt lat="47.3094" lon="-2.3646">
        <ele>42.200000762939</ele>
        <time>2021-07-11T09:17:06.000Z</time>
      </trkpt>
      <trkpt lat="47.30935" lon="-2.36461">
        <ele>43</ele>
        <time>2021-07-11T09:17:07.000Z</time>
      </trkpt>
      <trkpt lat="47.30929" lon="-2.36463">
        <ele>43</ele>
        <time>2021-07-11T09:17:08.000Z</time>
      </trkpt>
      <trkpt lat="47.30888" lon="-2.36479">
        <ele>43</ele>
        <time>2021-07-11T09:17:15.000Z</time>
      </trkpt>
      <trkpt lat="47.30882" lon="-2.3648">
        <ele>43</ele>
        <time>2021-07-11T09:17:16.000Z</time>
      </trkpt>
      <trkpt lat="47.30858" lon="-2.36485">
        <ele>43</ele>
        <time>2021-07-11T09:17:20.000Z</time>
      </trkpt>
      <trkpt lat="47.30833" lon="-2.36487">
        <ele>43</ele>
        <time>2021-07-11T09:17:25.000Z</time>
      </trkpt>
      <trkpt lat="47.30828" lon="-2.36485">
        <ele>43</ele>
        <time>2021-07-11T09:17:26.000Z</time>
      </trkpt>
      <trkpt lat="47.30813" lon="-2.36474">
        <ele>43</ele>
        <time>2021-07-11T09:17:29.000Z</time>
      </trkpt>
      <trkpt lat="47.30809" lon="-2.36473">
        <ele>43</ele>
        <time>2021-07-11T09:17:30.000Z</time>
      </trkpt>
      <trkpt lat="47.30787" lon="-2.3648">
        <ele>43</ele>
        <time>2021-07-11T09:17:34.000Z</time>
      </trkpt>
      <trkpt lat="47.30745" lon="-2.36495">
        <ele>43</ele>
        <time>2021-07-11T09:17:42.000Z</time>
      </trkpt>
      <trkpt lat="47.30726" lon="-2.36504">
        <ele>43.400001525879</ele>
        <time>2021-07-11T09:17:46.000Z</time>
      </trkpt>
      <trkpt lat="47.30722" lon="-2.36506">
        <ele>43.799999237061</ele>
        <time>2021-07-11T09:17:47.000Z</time>
      </trkpt>
      <trkpt lat="47.30718" lon="-2.36508">
        <ele>44.200000762939</ele>
        <time>2021-07-11T09:17:48.000Z</time>
      </trkpt>
      <trkpt lat="47.30715" lon="-2.36511">
        <ele>44.599998474121</ele>
        <time>2021-07-11T09:17:49.000Z</time>
      </trkpt>
      <trkpt lat="47.30712" lon="-2.36515">
        <ele>45.200000762939</ele>
        <time>2021-07-11T09:17:50.000Z</time>
      </trkpt>
      <trkpt lat="47.30704" lon="-2.36521">
        <ele>45.200000762939</ele>
        <time>2021-07-11T09:17:53.000Z</time>
      </trkpt>
      <trkpt lat="47.30696" lon="-2.36513">
        <ele>45.200000762939</ele>
        <time>2021-07-11T09:17:56.000Z</time>
      </trkpt>
      <trkpt lat="47.30685" lon="-2.36515">
        <ele>45.200000762939</ele>
        <time>2021-07-11T09:17:59.000Z</time>
      </trkpt>
      <trkpt lat="47.30681" lon="-2.36516">
        <ele>45.200000762939</ele>
        <time>2021-07-11T09:18:00.000Z</time>
      </trkpt>
      <trkpt lat="47.30667" lon="-2.36522">
        <ele>45.599998474121</ele>
        <time>2021-07-11T09:18:03.000Z</time>
      </trkpt>
      <trkpt lat="47.30663" lon="-2.36524">
        <ele>46</ele>
        <time>2021-07-11T09:18:04.000Z</time>
      </trkpt>
      <trkpt lat="47.30659" lon="-2.36526">
        <ele>46.400001525879</ele>
        <time>2021-07-11T09:18:05.000Z</time>
      </trkpt>
      <trkpt lat="47.30655" lon="-2.36529">
        <ele>46.799999237061</ele>
        <time>2021-07-11T09:18:06.000Z</time>
      </trkpt>
      <trkpt lat="47.30651" lon="-2.36531">
        <ele>47.200000762939</ele>
        <time>2021-07-11T09:18:07.000Z</time>
      </trkpt>
      <trkpt lat="47.30646" lon="-2.36534">
        <ele>47.200000762939</ele>
        <time>2021-07-11T09:18:08.000Z</time>
      </trkpt>
      <trkpt lat="47.3063" lon="-2.36542">
        <ele>47.200000762939</ele>
        <time>2021-07-11T09:18:12.000Z</time>
      </trkpt>
      <trkpt lat="47.30626" lon="-2.36544">
        <ele>47.200000762939</ele>
        <time>2021-07-11T09:18:13.000Z</time>
      </trkpt>
      <trkpt lat="47.30622" lon="-2.36545">
        <ele>47.200000762939</ele>
        <time>2021-07-11T09:18:14.000Z</time>
      </trkpt>
      <trkpt lat="47.30608" lon="-2.36548">
        <ele>47.200000762939</ele>
        <time>2021-07-11T09:18:17.000Z</time>
      </trkpt>
      <trkpt lat="47.3058" lon="-2.36557">
        <ele>47.200000762939</ele>
        <time>2021-07-11T09:18:23.000Z</time>
      </trkpt>
      <trkpt lat="47.30569" lon="-2.36563">
        <ele>47.200000762939</ele>
        <time>2021-07-11T09:18:25.000Z</time>
      </trkpt>
      <trkpt lat="47.30554" lon="-2.36574">
        <ele>47.200000762939</ele>
        <time>2021-07-11T09:18:28.000Z</time>
      </trkpt>
      <trkpt lat="47.3055" lon="-2.36578">
        <ele>47.200000762939</ele>
        <time>2021-07-11T09:18:29.000Z</time>
      </trkpt>
      <trkpt lat="47.30531" lon="-2.36591">
        <ele>47.200000762939</ele>
        <time>2021-07-11T09:18:33.000Z</time>
      </trkpt>
      <trkpt lat="47.305" lon="-2.36602">
        <ele>47.200000762939</ele>
        <time>2021-07-11T09:18:40.000Z</time>
      </trkpt>
      <trkpt lat="47.30485" lon="-2.36607">
        <ele>47.200000762939</ele>
        <time>2021-07-11T09:18:43.000Z</time>
      </trkpt>
      <trkpt lat="47.30475" lon="-2.36612">
        <ele>47.200000762939</ele>
        <time>2021-07-11T09:18:45.000Z</time>
      </trkpt>
      <trkpt lat="47.30448" lon="-2.36633">
        <ele>47.200000762939</ele>
        <time>2021-07-11T09:18:51.000Z</time>
      </trkpt>
      <trkpt lat="47.30427" lon="-2.3665">
        <ele>47.200000762939</ele>
        <time>2021-07-11T09:18:56.000Z</time>
      </trkpt>
      <trkpt lat="47.30419" lon="-2.36654">
        <ele>47.200000762939</ele>
        <time>2021-07-11T09:18:58.000Z</time>
      </trkpt>
      <trkpt lat="47.3041" lon="-2.36657">
        <ele>47.200000762939</ele>
        <time>2021-07-11T09:19:00.000Z</time>
      </trkpt>
      <trkpt lat="47.30392" lon="-2.36659">
        <ele>47.200000762939</ele>
        <time>2021-07-11T09:19:04.000Z</time>
      </trkpt>
      <trkpt lat="47.30387" lon="-2.36658">
        <ele>47.200000762939</ele>
        <time>2021-07-11T09:19:05.000Z</time>
      </trkpt>
      <trkpt lat="47.30365" lon="-2.36656">
        <ele>47.200000762939</ele>
        <time>2021-07-11T09:19:09.000Z</time>
      </trkpt>
      <trkpt lat="47.30313" lon="-2.36646">
        <ele>47.200000762939</ele>
        <time>2021-07-11T09:19:17.000Z</time>
      </trkpt>
      <trkpt lat="47.30307" lon="-2.36646">
        <ele>47.200000762939</ele>
        <time>2021-07-11T09:19:18.000Z</time>
      </trkpt>
      <trkpt lat="47.30297" lon="-2.36649">
        <ele>47.200000762939</ele>
        <time>2021-07-11T09:19:20.000Z</time>
      </trkpt>
      <trkpt lat="47.30288" lon="-2.36655">
        <ele>47.200000762939</ele>
        <time>2021-07-11T09:19:22.000Z</time>
      </trkpt>
      <trkpt lat="47.30251" lon="-2.36667">
        <ele>47.200000762939</ele>
        <time>2021-07-11T09:19:29.000Z</time>
      </trkpt>
      <trkpt lat="47.30213" lon="-2.36672">
        <ele>47.200000762939</ele>
        <time>2021-07-11T09:19:36.000Z</time>
      </trkpt>
      <trkpt lat="47.30199" lon="-2.36674">
        <ele>47.200000762939</ele>
        <time>2021-07-11T09:19:39.000Z</time>
      </trkpt>
      <trkpt lat="47.30189" lon="-2.36678">
        <ele>47.200000762939</ele>
        <time>2021-07-11T09:19:42.000Z</time>
      </trkpt>
      <trkpt lat="47.30187" lon="-2.36677">
        <ele>46.799999237061</ele>
        <time>2021-07-11T09:19:44.000Z</time>
      </trkpt>
      <trkpt lat="47.30187" lon="-2.36677">
        <ele>46.400001525879</ele>
        <time>2021-07-11T09:19:45.000Z</time>
      </trkpt>
      <trkpt lat="47.30175" lon="-2.3668">
        <ele>45.200000762939</ele>
        <time>2021-07-11T09:21:09.000Z</time>
      </trkpt>
      <trkpt lat="47.3017" lon="-2.36681">
        <ele>45.200000762939</ele>
        <time>2021-07-11T09:21:12.000Z</time>
      </trkpt>
      <trkpt lat="47.30155" lon="-2.36683">
        <ele>45.200000762939</ele>
        <time>2021-07-11T09:21:17.000Z</time>
      </trkpt>
      <trkpt lat="47.3015" lon="-2.36685">
        <ele>45.200000762939</ele>
        <time>2021-07-11T09:21:18.000Z</time>
      </trkpt>
      <trkpt lat="47.3014" lon="-2.36693">
        <ele>44.799999237061</ele>
        <time>2021-07-11T09:21:20.000Z</time>
      </trkpt>
      <trkpt lat="47.30134" lon="-2.36697">
        <ele>44.400001525879</ele>
        <time>2021-07-11T09:21:21.000Z</time>
      </trkpt>
      <trkpt lat="47.30129" lon="-2.36701">
        <ele>43.799999237061</ele>
        <time>2021-07-11T09:21:22.000Z</time>
      </trkpt>
      <trkpt lat="47.30124" lon="-2.36705">
        <ele>43.400001525879</ele>
        <time>2021-07-11T09:21:23.000Z</time>
      </trkpt>
      <trkpt lat="47.30119" lon="-2.36708">
        <ele>43</ele>
        <time>2021-07-11T09:21:24.000Z</time>
      </trkpt>
      <trkpt lat="47.30104" lon="-2.36721">
        <ele>43</ele>
        <time>2021-07-11T09:21:27.000Z</time>
      </trkpt>
      <trkpt lat="47.301" lon="-2.36725">
        <ele>43</ele>
        <time>2021-07-11T09:21:28.000Z</time>
      </trkpt>
      <trkpt lat="47.30075" lon="-2.36752">
        <ele>43</ele>
        <time>2021-07-11T09:21:35.000Z</time>
      </trkpt>
      <trkpt lat="47.30068" lon="-2.36759">
        <ele>43.400001525879</ele>
        <time>2021-07-11T09:21:37.000Z</time>
      </trkpt>
      <trkpt lat="47.30064" lon="-2.36763">
        <ele>44.400001525879</ele>
        <time>2021-07-11T09:21:38.000Z</time>
      </trkpt>
      <trkpt lat="47.30061" lon="-2.36767">
        <ele>44.799999237061</ele>
        <time>2021-07-11T09:21:39.000Z</time>
      </trkpt>
      <trkpt lat="47.30057" lon="-2.36772">
        <ele>45.200000762939</ele>
        <time>2021-07-11T09:21:40.000Z</time>
      </trkpt>
      <trkpt lat="47.3005" lon="-2.36782">
        <ele>45.200000762939</ele>
        <time>2021-07-11T09:21:42.000Z</time>
      </trkpt>
      <trkpt lat="47.30019" lon="-2.36818">
        <ele>45.200000762939</ele>
        <time>2021-07-11T09:21:50.000Z</time>
      </trkpt>
      <trkpt lat="47.29984" lon="-2.3686">
        <ele>45.200000762939</ele>
        <time>2021-07-11T09:21:58.000Z</time>
      </trkpt>
      <trkpt lat="47.29948" lon="-2.36902">
        <ele>45.200000762939</ele>
        <time>2021-07-11T09:22:06.000Z</time>
      </trkpt>
      <trkpt lat="47.29922" lon="-2.36934">
        <ele>45.200000762939</ele>
        <time>2021-07-11T09:22:13.000Z</time>
      </trkpt>
      <trkpt lat="47.29912" lon="-2.36945">
        <ele>45.200000762939</ele>
        <time>2021-07-11T09:22:16.000Z</time>
      </trkpt>
      <trkpt lat="47.29905" lon="-2.36961">
        <ele>45.200000762939</ele>
        <time>2021-07-11T09:22:19.000Z</time>
      </trkpt>
      <trkpt lat="47.29903" lon="-2.36967">
        <ele>45.200000762939</ele>
        <time>2021-07-11T09:22:20.000Z</time>
      </trkpt>
      <trkpt lat="47.299" lon="-2.36971">
        <ele>45.200000762939</ele>
        <time>2021-07-11T09:22:21.000Z</time>
      </trkpt>
      <trkpt lat="47.29891" lon="-2.36973">
        <ele>45.200000762939</ele>
        <time>2021-07-11T09:22:23.000Z</time>
      </trkpt>
      <trkpt lat="47.29882" lon="-2.36976">
        <ele>45.200000762939</ele>
        <time>2021-07-11T09:22:25.000Z</time>
      </trkpt>
      <trkpt lat="47.29868" lon="-2.36988">
        <ele>45.200000762939</ele>
        <time>2021-07-11T09:22:28.000Z</time>
      </trkpt>
      <trkpt lat="47.29861" lon="-2.36998">
        <ele>45.200000762939</ele>
        <time>2021-07-11T09:22:30.000Z</time>
      </trkpt>
      <trkpt lat="47.2984" lon="-2.37022">
        <ele>45.200000762939</ele>
        <time>2021-07-11T09:22:35.000Z</time>
      </trkpt>
      <trkpt lat="47.29836" lon="-2.37027">
        <ele>45.599998474121</ele>
        <time>2021-07-11T09:22:36.000Z</time>
      </trkpt>
      <trkpt lat="47.29832" lon="-2.37033">
        <ele>46</ele>
        <time>2021-07-11T09:22:37.000Z</time>
      </trkpt>
      <trkpt lat="47.29828" lon="-2.37039">
        <ele>46.400001525879</ele>
        <time>2021-07-11T09:22:38.000Z</time>
      </trkpt>
      <trkpt lat="47.29825" lon="-2.37044">
        <ele>47</ele>
        <time>2021-07-11T09:22:39.000Z</time>
      </trkpt>
      <trkpt lat="47.29822" lon="-2.3705">
        <ele>47.400001525879</ele>
        <time>2021-07-11T09:22:40.000Z</time>
      </trkpt>
      <trkpt lat="47.29819" lon="-2.37056">
        <ele>47.400001525879</ele>
        <time>2021-07-11T09:22:41.000Z</time>
      </trkpt>
      <trkpt lat="47.29816" lon="-2.37063">
        <ele>47.400001525879</ele>
        <time>2021-07-11T09:22:42.000Z</time>
      </trkpt>
      <trkpt lat="47.29809" lon="-2.3709">
        <ele>47.400001525879</ele>
        <time>2021-07-11T09:22:46.000Z</time>
      </trkpt>
      <trkpt lat="47.29808" lon="-2.37097">
        <ele>47.400001525879</ele>
        <time>2021-07-11T09:22:47.000Z</time>
      </trkpt>
      <trkpt lat="47.29797" lon="-2.37143">
        <ele>47.400001525879</ele>
        <time>2021-07-11T09:22:53.000Z</time>
      </trkpt>
      <trkpt lat="47.29781" lon="-2.37166">
        <ele>47.400001525879</ele>
        <time>2021-07-11T09:22:57.000Z</time>
      </trkpt>
      <trkpt lat="47.2977" lon="-2.37175">
        <ele>47.400001525879</ele>
        <time>2021-07-11T09:22:59.000Z</time>
      </trkpt>
      <trkpt lat="47.29759" lon="-2.37181">
        <ele>47.400001525879</ele>
        <time>2021-07-11T09:23:01.000Z</time>
      </trkpt>
      <trkpt lat="47.29754" lon="-2.37183">
        <ele>47.400001525879</ele>
        <time>2021-07-11T09:23:02.000Z</time>
      </trkpt>
      <trkpt lat="47.29724" lon="-2.37186">
        <ele>47.400001525879</ele>
        <time>2021-07-11T09:23:07.000Z</time>
      </trkpt>
      <trkpt lat="47.29712" lon="-2.3719">
        <ele>47.400001525879</ele>
        <time>2021-07-11T09:23:09.000Z</time>
      </trkpt>
      <trkpt lat="47.29694" lon="-2.37198">
        <ele>47.400001525879</ele>
        <time>2021-07-11T09:23:12.000Z</time>
      </trkpt>
      <trkpt lat="47.29647" lon="-2.37216">
        <ele>47.400001525879</ele>
        <time>2021-07-11T09:23:20.000Z</time>
      </trkpt>
      <trkpt lat="47.29641" lon="-2.37218">
        <ele>47</ele>
        <time>2021-07-11T09:23:21.000Z</time>
      </trkpt>
      <trkpt lat="47.29636" lon="-2.3722">
        <ele>46.599998474121</ele>
        <time>2021-07-11T09:23:22.000Z</time>
      </trkpt>
      <trkpt lat="47.2963" lon="-2.37222">
        <ele>46.200000762939</ele>
        <time>2021-07-11T09:23:23.000Z</time>
      </trkpt>
      <trkpt lat="47.29624" lon="-2.37225">
        <ele>45.599998474121</ele>
        <time>2021-07-11T09:23:24.000Z</time>
      </trkpt>
      <trkpt lat="47.29619" lon="-2.37228">
        <ele>45.200000762939</ele>
        <time>2021-07-11T09:23:25.000Z</time>
      </trkpt>
      <trkpt lat="47.29601" lon="-2.37239">
        <ele>45.200000762939</ele>
        <time>2021-07-11T09:23:28.000Z</time>
      </trkpt>
      <trkpt lat="47.29552" lon="-2.37267">
        <ele>45.200000762939</ele>
        <time>2021-07-11T09:23:36.000Z</time>
      </trkpt>
      <trkpt lat="47.29546" lon="-2.3727">
        <ele>44.799999237061</ele>
        <time>2021-07-11T09:23:37.000Z</time>
      </trkpt>
      <trkpt lat="47.2954" lon="-2.37274">
        <ele>44.400001525879</ele>
        <time>2021-07-11T09:23:38.000Z</time>
      </trkpt>
      <trkpt lat="47.29534" lon="-2.37278">
        <ele>44</ele>
        <time>2021-07-11T09:23:39.000Z</time>
      </trkpt>
      <trkpt lat="47.29528" lon="-2.37282">
        <ele>43.400001525879</ele>
        <time>2021-07-11T09:23:40.000Z</time>
      </trkpt>
      <trkpt lat="47.29521" lon="-2.37285">
        <ele>43</ele>
        <time>2021-07-11T09:23:41.000Z</time>
      </trkpt>
      <trkpt lat="47.29514" lon="-2.37287">
        <ele>43</ele>
        <time>2021-07-11T09:23:42.000Z</time>
      </trkpt>
      <trkpt lat="47.29507" lon="-2.37288">
        <ele>43</ele>
        <time>2021-07-11T09:23:43.000Z</time>
      </trkpt>
      <trkpt lat="47.295" lon="-2.37289">
        <ele>42.599998474121</ele>
        <time>2021-07-11T09:23:44.000Z</time>
      </trkpt>
      <trkpt lat="47.29493" lon="-2.37288">
        <ele>42</ele>
        <time>2021-07-11T09:23:45.000Z</time>
      </trkpt>
      <trkpt lat="47.29487" lon="-2.37288">
        <ele>41.599998474121</ele>
        <time>2021-07-11T09:23:46.000Z</time>
      </trkpt>
      <trkpt lat="47.29483" lon="-2.37291">
        <ele>41</ele>
        <time>2021-07-11T09:23:47.000Z</time>
      </trkpt>
      <trkpt lat="47.2948" lon="-2.37296">
        <ele>40.400001525879</ele>
        <time>2021-07-11T09:23:48.000Z</time>
      </trkpt>
      <trkpt lat="47.29479" lon="-2.37303">
        <ele>39.799999237061</ele>
        <time>2021-07-11T09:23:49.000Z</time>
      </trkpt>
      <trkpt lat="47.29482" lon="-2.37307">
        <ele>39.200000762939</ele>
        <time>2021-07-11T09:23:50.000Z</time>
      </trkpt>
      <trkpt lat="47.29485" lon="-2.3731">
        <ele>38.599998474121</ele>
        <time>2021-07-11T09:23:51.000Z</time>
      </trkpt>
      <trkpt lat="47.29488" lon="-2.37314">
        <ele>38</ele>
        <time>2021-07-11T09:23:52.000Z</time>
      </trkpt>
      <trkpt lat="47.29493" lon="-2.37319">
        <ele>38</ele>
        <time>2021-07-11T09:23:53.000Z</time>
      </trkpt>
      <trkpt lat="47.29497" lon="-2.37324">
        <ele>38</ele>
        <time>2021-07-11T09:23:54.000Z</time>
      </trkpt>
      <trkpt lat="47.29534" lon="-2.37367">
        <ele>38</ele>
        <time>2021-07-11T09:24:02.000Z</time>
      </trkpt>
      <trkpt lat="47.29564" lon="-2.37406">
        <ele>38.599998474121</ele>
        <time>2021-07-11T09:24:09.000Z</time>
      </trkpt>
      <trkpt lat="47.29568" lon="-2.37413">
        <ele>39</ele>
        <time>2021-07-11T09:24:10.000Z</time>
      </trkpt>
      <trkpt lat="47.29571" lon="-2.37419">
        <ele>39.599998474121</ele>
        <time>2021-07-11T09:24:11.000Z</time>
      </trkpt>
      <trkpt lat="47.29575" lon="-2.37425">
        <ele>40</ele>
        <time>2021-07-11T09:24:12.000Z</time>
      </trkpt>
      <trkpt lat="47.2958" lon="-2.37432">
        <ele>40.400001525879</ele>
        <time>2021-07-11T09:24:13.000Z</time>
      </trkpt>
      <trkpt lat="47.29594" lon="-2.3746">
        <ele>40.400001525879</ele>
        <time>2021-07-11T09:24:17.000Z</time>
      </trkpt>
      <trkpt lat="47.29618" lon="-2.37492">
        <ele>40.400001525879</ele>
        <time>2021-07-11T09:24:22.000Z</time>
      </trkpt>
      <trkpt lat="47.29624" lon="-2.37497">
        <ele>40.400001525879</ele>
        <time>2021-07-11T09:24:23.000Z</time>
      </trkpt>
      <trkpt lat="47.29646" lon="-2.37512">
        <ele>40</ele>
        <time>2021-07-11T09:24:26.000Z</time>
      </trkpt>
      <trkpt lat="47.29654" lon="-2.37517">
        <ele>39.599998474121</ele>
        <time>2021-07-11T09:24:27.000Z</time>
      </trkpt>
      <trkpt lat="47.29662" lon="-2.37522">
        <ele>39.200000762939</ele>
        <time>2021-07-11T09:24:28.000Z</time>
      </trkpt>
      <trkpt lat="47.2967" lon="-2.37528">
        <ele>38.799999237061</ele>
        <time>2021-07-11T09:24:29.000Z</time>
      </trkpt>
      <trkpt lat="47.29678" lon="-2.37534">
        <ele>38.400001525879</ele>
        <time>2021-07-11T09:24:30.000Z</time>
      </trkpt>
      <trkpt lat="47.29704" lon="-2.37558">
        <ele>38.400001525879</ele>
        <time>2021-07-11T09:24:34.000Z</time>
      </trkpt>
      <trkpt lat="47.29736" lon="-2.37593">
        <ele>38.400001525879</ele>
        <time>2021-07-11T09:24:40.000Z</time>
      </trkpt>
      <trkpt lat="47.29762" lon="-2.37629">
        <ele>38.400001525879</ele>
        <time>2021-07-11T09:24:46.000Z</time>
      </trkpt>
      <trkpt lat="47.29775" lon="-2.37646">
        <ele>38.799999237061</ele>
        <time>2021-07-11T09:24:49.000Z</time>
      </trkpt>
      <trkpt lat="47.29779" lon="-2.37652">
        <ele>39.200000762939</ele>
        <time>2021-07-11T09:24:50.000Z</time>
      </trkpt>
      <trkpt lat="47.29783" lon="-2.37658">
        <ele>39.599998474121</ele>
        <time>2021-07-11T09:24:51.000Z</time>
      </trkpt>
      <trkpt lat="47.29787" lon="-2.37664">
        <ele>40.200000762939</ele>
        <time>2021-07-11T09:24:52.000Z</time>
      </trkpt>
      <trkpt lat="47.2979" lon="-2.3767">
        <ele>40.599998474121</ele>
        <time>2021-07-11T09:24:53.000Z</time>
      </trkpt>
      <trkpt lat="47.29798" lon="-2.37681">
        <ele>40.599998474121</ele>
        <time>2021-07-11T09:24:55.000Z</time>
      </trkpt>
      <trkpt lat="47.29827" lon="-2.37732">
        <ele>40.599998474121</ele>
        <time>2021-07-11T09:25:03.000Z</time>
      </trkpt>
      <trkpt lat="47.2986" lon="-2.37784">
        <ele>40.599998474121</ele>
        <time>2021-07-11T09:25:11.000Z</time>
      </trkpt>
      <trkpt lat="47.29872" lon="-2.37804">
        <ele>40.599998474121</ele>
        <time>2021-07-11T09:25:14.000Z</time>
      </trkpt>
      <trkpt lat="47.29872" lon="-2.37817">
        <ele>40.599998474121</ele>
        <time>2021-07-11T09:25:16.000Z</time>
      </trkpt>
      <trkpt lat="47.2987" lon="-2.37823">
        <ele>40.200000762939</ele>
        <time>2021-07-11T09:25:17.000Z</time>
      </trkpt>
      <trkpt lat="47.29868" lon="-2.37829">
        <ele>39.599998474121</ele>
        <time>2021-07-11T09:25:18.000Z</time>
      </trkpt>
      <trkpt lat="47.29865" lon="-2.37835">
        <ele>39.200000762939</ele>
        <time>2021-07-11T09:25:19.000Z</time>
      </trkpt>
      <trkpt lat="47.29862" lon="-2.37842">
        <ele>38.200000762939</ele>
        <time>2021-07-11T09:25:20.000Z</time>
      </trkpt>
      <trkpt lat="47.29849" lon="-2.37867">
        <ele>38.200000762939</ele>
        <time>2021-07-11T09:25:24.000Z</time>
      </trkpt>
      <trkpt lat="47.29841" lon="-2.37877">
        <ele>38.200000762939</ele>
        <time>2021-07-11T09:25:26.000Z</time>
      </trkpt>
      <trkpt lat="47.29833" lon="-2.37885">
        <ele>38.200000762939</ele>
        <time>2021-07-11T09:25:28.000Z</time>
      </trkpt>
      <trkpt lat="47.29824" lon="-2.37892">
        <ele>38.200000762939</ele>
        <time>2021-07-11T09:25:30.000Z</time>
      </trkpt>
      <trkpt lat="47.298" lon="-2.37907">
        <ele>38.200000762939</ele>
        <time>2021-07-11T09:25:35.000Z</time>
      </trkpt>
      <trkpt lat="47.29773" lon="-2.37923">
        <ele>38.200000762939</ele>
        <time>2021-07-11T09:25:40.000Z</time>
      </trkpt>
      <trkpt lat="47.2975" lon="-2.37946">
        <ele>38.200000762939</ele>
        <time>2021-07-11T09:25:45.000Z</time>
      </trkpt>
      <trkpt lat="47.29747" lon="-2.37953">
        <ele>38.200000762939</ele>
        <time>2021-07-11T09:25:46.000Z</time>
      </trkpt>
      <trkpt lat="47.29738" lon="-2.37973">
        <ele>37.799999237061</ele>
        <time>2021-07-11T09:25:49.000Z</time>
      </trkpt>
      <trkpt lat="47.29735" lon="-2.37979">
        <ele>37.400001525879</ele>
        <time>2021-07-11T09:25:50.000Z</time>
      </trkpt>
      <trkpt lat="47.29733" lon="-2.37986">
        <ele>37</ele>
        <time>2021-07-11T09:25:51.000Z</time>
      </trkpt>
      <trkpt lat="47.29731" lon="-2.37993">
        <ele>36.200000762939</ele>
        <time>2021-07-11T09:25:52.000Z</time>
      </trkpt>
      <trkpt lat="47.2973" lon="-2.38002">
        <ele>35.599998474121</ele>
        <time>2021-07-11T09:25:53.000Z</time>
      </trkpt>
      <trkpt lat="47.29731" lon="-2.38009">
        <ele>35</ele>
        <time>2021-07-11T09:25:54.000Z</time>
      </trkpt>
      <trkpt lat="47.29732" lon="-2.38017">
        <ele>34.200000762939</ele>
        <time>2021-07-11T09:25:55.000Z</time>
      </trkpt>
      <trkpt lat="47.29734" lon="-2.38024">
        <ele>33.599998474121</ele>
        <time>2021-07-11T09:25:56.000Z</time>
      </trkpt>
      <trkpt lat="47.29734" lon="-2.3803">
        <ele>32.799999237061</ele>
        <time>2021-07-11T09:25:57.000Z</time>
      </trkpt>
      <trkpt lat="47.29733" lon="-2.38035">
        <ele>31.799999237061</ele>
        <time>2021-07-11T09:25:58.000Z</time>
      </trkpt>
      <trkpt lat="47.29731" lon="-2.38039">
        <ele>31</ele>
        <time>2021-07-11T09:25:59.000Z</time>
      </trkpt>
      <trkpt lat="47.29727" lon="-2.38041">
        <ele>30.200000762939</ele>
        <time>2021-07-11T09:26:00.000Z</time>
      </trkpt>
      <trkpt lat="47.29724" lon="-2.38044">
        <ele>29.60000038147</ele>
        <time>2021-07-11T09:26:01.000Z</time>
      </trkpt>
      <trkpt lat="47.29719" lon="-2.38047">
        <ele>28.799999237061</ele>
        <time>2021-07-11T09:26:02.000Z</time>
      </trkpt>
      <trkpt lat="47.29715" lon="-2.3805">
        <ele>28</ele>
        <time>2021-07-11T09:26:03.000Z</time>
      </trkpt>
      <trkpt lat="47.2971" lon="-2.38054">
        <ele>27.200000762939</ele>
        <time>2021-07-11T09:26:04.000Z</time>
      </trkpt>
      <trkpt lat="47.29705" lon="-2.38059">
        <ele>26.799999237061</ele>
        <time>2021-07-11T09:26:05.000Z</time>
      </trkpt>
      <trkpt lat="47.29699" lon="-2.38065">
        <ele>26.39999961853</ele>
        <time>2021-07-11T09:26:06.000Z</time>
      </trkpt>
      <trkpt lat="47.29692" lon="-2.3807">
        <ele>26</ele>
        <time>2021-07-11T09:26:07.000Z</time>
      </trkpt>
      <trkpt lat="47.29684" lon="-2.38074">
        <ele>25.39999961853</ele>
        <time>2021-07-11T09:26:08.000Z</time>
      </trkpt>
      <trkpt lat="47.29675" lon="-2.38079">
        <ele>24</ele>
        <time>2021-07-11T09:26:09.000Z</time>
      </trkpt>
      <trkpt lat="47.29667" lon="-2.38085">
        <ele>23.200000762939</ele>
        <time>2021-07-11T09:26:10.000Z</time>
      </trkpt>
      <trkpt lat="47.29659" lon="-2.38089">
        <ele>22.39999961853</ele>
        <time>2021-07-11T09:26:11.000Z</time>
      </trkpt>
      <trkpt lat="47.29651" lon="-2.38093">
        <ele>21.60000038147</ele>
        <time>2021-07-11T09:26:12.000Z</time>
      </trkpt>
      <trkpt lat="47.29642" lon="-2.38098">
        <ele>20.799999237061</ele>
        <time>2021-07-11T09:26:13.000Z</time>
      </trkpt>
      <trkpt lat="47.29625" lon="-2.38106">
        <ele>20.39999961853</ele>
        <time>2021-07-11T09:26:15.000Z</time>
      </trkpt>
      <trkpt lat="47.29616" lon="-2.38109">
        <ele>20</ele>
        <time>2021-07-11T09:26:16.000Z</time>
      </trkpt>
      <trkpt lat="47.29607" lon="-2.38112">
        <ele>19.60000038147</ele>
        <time>2021-07-11T09:26:17.000Z</time>
      </trkpt>
      <trkpt lat="47.29599" lon="-2.38114">
        <ele>19.200000762939</ele>
        <time>2021-07-11T09:26:18.000Z</time>
      </trkpt>
      <trkpt lat="47.2959" lon="-2.38116">
        <ele>18.799999237061</ele>
        <time>2021-07-11T09:26:19.000Z</time>
      </trkpt>
      <trkpt lat="47.29573" lon="-2.3812">
        <ele>18.200000762939</ele>
        <time>2021-07-11T09:26:21.000Z</time>
      </trkpt>
      <trkpt lat="47.29565" lon="-2.38121">
        <ele>17.799999237061</ele>
        <time>2021-07-11T09:26:22.000Z</time>
      </trkpt>
      <trkpt lat="47.29557" lon="-2.38123">
        <ele>17.39999961853</ele>
        <time>2021-07-11T09:26:23.000Z</time>
      </trkpt>
      <trkpt lat="47.29548" lon="-2.38124">
        <ele>17</ele>
        <time>2021-07-11T09:26:24.000Z</time>
      </trkpt>
      <trkpt lat="47.2954" lon="-2.38124">
        <ele>16.39999961853</ele>
        <time>2021-07-11T09:26:25.000Z</time>
      </trkpt>
      <trkpt lat="47.29523" lon="-2.38124">
        <ele>16</ele>
        <time>2021-07-11T09:26:27.000Z</time>
      </trkpt>
      <trkpt lat="47.29515" lon="-2.38124">
        <ele>15.60000038147</ele>
        <time>2021-07-11T09:26:28.000Z</time>
      </trkpt>
      <trkpt lat="47.29507" lon="-2.38123">
        <ele>15.199999809265</ele>
        <time>2021-07-11T09:26:29.000Z</time>
      </trkpt>
      <trkpt lat="47.29499" lon="-2.38123">
        <ele>14.60000038147</ele>
        <time>2021-07-11T09:26:30.000Z</time>
      </trkpt>
      <trkpt lat="47.29491" lon="-2.38126">
        <ele>14.199999809265</ele>
        <time>2021-07-11T09:26:31.000Z</time>
      </trkpt>
      <trkpt lat="47.29484" lon="-2.38129">
        <ele>14.199999809265</ele>
        <time>2021-07-11T09:26:32.000Z</time>
      </trkpt>
      <trkpt lat="47.29477" lon="-2.38133">
        <ele>13.800000190735</ele>
        <time>2021-07-11T09:26:33.000Z</time>
      </trkpt>
      <trkpt lat="47.29471" lon="-2.38137">
        <ele>13</ele>
        <time>2021-07-11T09:26:34.000Z</time>
      </trkpt>
      <trkpt lat="47.29465" lon="-2.38142">
        <ele>12.60000038147</ele>
        <time>2021-07-11T09:26:35.000Z</time>
      </trkpt>
      <trkpt lat="47.29459" lon="-2.38146">
        <ele>12.199999809265</ele>
        <time>2021-07-11T09:26:36.000Z</time>
      </trkpt>
      <trkpt lat="47.29451" lon="-2.38153">
        <ele>11.60000038147</ele>
        <time>2021-07-11T09:26:38.000Z</time>
      </trkpt>
      <trkpt lat="47.29448" lon="-2.38154">
        <ele>11.199999809265</ele>
        <time>2021-07-11T09:26:39.000Z</time>
      </trkpt>
      <trkpt lat="47.29447" lon="-2.38154">
        <ele>10.60000038147</ele>
        <time>2021-07-11T09:26:40.000Z</time>
      </trkpt>
      <trkpt lat="47.29446" lon="-2.38154">
        <ele>10</ele>
        <time>2021-07-11T09:26:41.000Z</time>
      </trkpt>
      <trkpt lat="47.29445" lon="-2.38155">
        <ele>9.3999996185303</ele>
        <time>2021-07-11T09:26:42.000Z</time>
      </trkpt>
      <trkpt lat="47.29444" lon="-2.38155">
        <ele>8.8000001907349</ele>
        <time>2021-07-11T09:26:43.000Z</time>
      </trkpt>
      <trkpt lat="47.29445" lon="-2.38155">
        <ele>8.1999998092651</ele>
        <time>2021-07-11T09:26:44.000Z</time>
      </trkpt>
      <trkpt lat="47.29445" lon="-2.38155">
        <ele>7.5999999046326</ele>
        <time>2021-07-11T09:26:45.000Z</time>
      </trkpt>
      <trkpt lat="47.29443" lon="-2.38151">
        <ele>7.5999999046326</ele>
        <time>2021-07-11T09:26:48.000Z</time>
      </trkpt>
      <trkpt lat="47.29437" lon="-2.38132">
        <ele>7.5999999046326</ele>
        <time>2021-07-11T09:26:52.000Z</time>
      </trkpt>
      <trkpt lat="47.29427" lon="-2.38094">
        <ele>7.5999999046326</ele>
        <time>2021-07-11T09:26:59.000Z</time>
      </trkpt>
      <trkpt lat="47.29414" lon="-2.38058">
        <ele>7.5999999046326</ele>
        <time>2021-07-11T09:27:06.000Z</time>
      </trkpt>
      <trkpt lat="47.29399" lon="-2.38017">
        <ele>7.5999999046326</ele>
        <time>2021-07-11T09:27:14.000Z</time>
      </trkpt>
      <trkpt lat="47.29385" lon="-2.37975">
        <ele>7.5999999046326</ele>
        <time>2021-07-11T09:27:22.000Z</time>
      </trkpt>
      <trkpt lat="47.29376" lon="-2.37946">
        <ele>8</ele>
        <time>2021-07-11T09:27:27.000Z</time>
      </trkpt>
      <trkpt lat="47.29374" lon="-2.37941">
        <ele>8.3999996185303</ele>
        <time>2021-07-11T09:27:28.000Z</time>
      </trkpt>
      <trkpt lat="47.29372" lon="-2.37935">
        <ele>8.8000001907349</ele>
        <time>2021-07-11T09:27:29.000Z</time>
      </trkpt>
      <trkpt lat="47.29371" lon="-2.3793">
        <ele>9.3999996185303</ele>
        <time>2021-07-11T09:27:30.000Z</time>
      </trkpt>
      <trkpt lat="47.29369" lon="-2.37924">
        <ele>9.8000001907349</ele>
        <time>2021-07-11T09:27:31.000Z</time>
      </trkpt>
      <trkpt lat="47.29356" lon="-2.37889">
        <ele>9.8000001907349</ele>
        <time>2021-07-11T09:27:37.000Z</time>
      </trkpt>
      <trkpt lat="47.29341" lon="-2.37838">
        <ele>9.8000001907349</ele>
        <time>2021-07-11T09:27:46.000Z</time>
      </trkpt>
      <trkpt lat="47.29339" lon="-2.37826">
        <ele>10.199999809265</ele>
        <time>2021-07-11T09:27:48.000Z</time>
      </trkpt>
      <trkpt lat="47.29338" lon="-2.3782">
        <ele>11</ele>
        <time>2021-07-11T09:27:49.000Z</time>
      </trkpt>
      <trkpt lat="47.29338" lon="-2.37814">
        <ele>11.39999961853</ele>
        <time>2021-07-11T09:27:50.000Z</time>
      </trkpt>
      <trkpt lat="47.29337" lon="-2.37808">
        <ele>11.800000190735</ele>
        <time>2021-07-11T09:27:51.000Z</time>
      </trkpt>
      <trkpt lat="47.29337" lon="-2.37796">
        <ele>11.800000190735</ele>
        <time>2021-07-11T09:27:53.000Z</time>
      </trkpt>
      <trkpt lat="47.29336" lon="-2.37751">
        <ele>12.199999809265</ele>
        <time>2021-07-11T09:28:01.000Z</time>
      </trkpt>
      <trkpt lat="47.29335" lon="-2.37745">
        <ele>12.60000038147</ele>
        <time>2021-07-11T09:28:02.000Z</time>
      </trkpt>
      <trkpt lat="47.29335" lon="-2.3774">
        <ele>13</ele>
        <time>2021-07-11T09:28:03.000Z</time>
      </trkpt>
      <trkpt lat="47.29335" lon="-2.37735">
        <ele>13.39999961853</ele>
        <time>2021-07-11T09:28:04.000Z</time>
      </trkpt>
      <trkpt lat="47.29334" lon="-2.37729">
        <ele>13.800000190735</ele>
        <time>2021-07-11T09:28:05.000Z</time>
      </trkpt>
      <trkpt lat="47.29332" lon="-2.37708">
        <ele>13.800000190735</ele>
        <time>2021-07-11T09:28:09.000Z</time>
      </trkpt>
      <trkpt lat="47.29331" lon="-2.37703">
        <ele>14.199999809265</ele>
        <time>2021-07-11T09:28:10.000Z</time>
      </trkpt>
      <trkpt lat="47.2933" lon="-2.37698">
        <ele>14.60000038147</ele>
        <time>2021-07-11T09:28:11.000Z</time>
      </trkpt>
      <trkpt lat="47.29329" lon="-2.37693">
        <ele>15</ele>
        <time>2021-07-11T09:28:12.000Z</time>
      </trkpt>
      <trkpt lat="47.29329" lon="-2.37688">
        <ele>15.800000190735</ele>
        <time>2021-07-11T09:28:13.000Z</time>
      </trkpt>
      <trkpt lat="47.29328" lon="-2.37667">
        <ele>15.800000190735</ele>
        <time>2021-07-11T09:28:17.000Z</time>
      </trkpt>
      <trkpt lat="47.29327" lon="-2.37652">
        <ele>16.39999961853</ele>
        <time>2021-07-11T09:28:20.000Z</time>
      </trkpt>
      <trkpt lat="47.29327" lon="-2.37646">
        <ele>16.799999237061</ele>
        <time>2021-07-11T09:28:21.000Z</time>
      </trkpt>
      <trkpt lat="47.29326" lon="-2.3764">
        <ele>17.200000762939</ele>
        <time>2021-07-11T09:28:22.000Z</time>
      </trkpt>
      <trkpt lat="47.29324" lon="-2.37635">
        <ele>17.60000038147</ele>
        <time>2021-07-11T09:28:23.000Z</time>
      </trkpt>
      <trkpt lat="47.29323" lon="-2.3763">
        <ele>18</ele>
        <time>2021-07-11T09:28:24.000Z</time>
      </trkpt>
      <trkpt lat="47.29315" lon="-2.37609">
        <ele>18</ele>
        <time>2021-07-11T09:28:28.000Z</time>
      </trkpt>
      <trkpt lat="47.29297" lon="-2.3758">
        <ele>18</ele>
        <time>2021-07-11T09:28:34.000Z</time>
      </trkpt>
      <trkpt lat="47.29274" lon="-2.37542">
        <ele>18</ele>
        <time>2021-07-11T09:28:40.000Z</time>
      </trkpt>
      <trkpt lat="47.29249" lon="-2.37501">
        <ele>18</ele>
        <time>2021-07-11T09:28:47.000Z</time>
      </trkpt>
      <trkpt lat="47.29222" lon="-2.37458">
        <ele>18.39999961853</ele>
        <time>2021-07-11T09:28:54.000Z</time>
      </trkpt>
      <trkpt lat="47.29218" lon="-2.37453">
        <ele>19</ele>
        <time>2021-07-11T09:28:55.000Z</time>
      </trkpt>
      <trkpt lat="47.29215" lon="-2.37448">
        <ele>19.39999961853</ele>
        <time>2021-07-11T09:28:56.000Z</time>
      </trkpt>
      <trkpt lat="47.29211" lon="-2.37442">
        <ele>19.799999237061</ele>
        <time>2021-07-11T09:28:57.000Z</time>
      </trkpt>
      <trkpt lat="47.29207" lon="-2.37436">
        <ele>20.200000762939</ele>
        <time>2021-07-11T09:28:58.000Z</time>
      </trkpt>
      <trkpt lat="47.29197" lon="-2.37417">
        <ele>20.200000762939</ele>
        <time>2021-07-11T09:29:01.000Z</time>
      </trkpt>
      <trkpt lat="47.29184" lon="-2.37395">
        <ele>20.60000038147</ele>
        <time>2021-07-11T09:29:05.000Z</time>
      </trkpt>
      <trkpt lat="47.2918" lon="-2.37391">
        <ele>21.200000762939</ele>
        <time>2021-07-11T09:29:06.000Z</time>
      </trkpt>
      <trkpt lat="47.29177" lon="-2.37386">
        <ele>21.60000038147</ele>
        <time>2021-07-11T09:29:07.000Z</time>
      </trkpt>
      <trkpt lat="47.29173" lon="-2.37381">
        <ele>22</ele>
        <time>2021-07-11T09:29:08.000Z</time>
      </trkpt>
      <trkpt lat="47.2917" lon="-2.37376">
        <ele>22.39999961853</ele>
        <time>2021-07-11T09:29:09.000Z</time>
      </trkpt>
      <trkpt lat="47.29154" lon="-2.37343">
        <ele>22.39999961853</ele>
        <time>2021-07-11T09:29:14.000Z</time>
      </trkpt>
      <trkpt lat="47.29152" lon="-2.37336">
        <ele>22.39999961853</ele>
        <time>2021-07-11T09:29:15.000Z</time>
      </trkpt>
      <trkpt lat="47.29147" lon="-2.37324">
        <ele>22.39999961853</ele>
        <time>2021-07-11T09:29:17.000Z</time>
      </trkpt>
      <trkpt lat="47.29135" lon="-2.37308">
        <ele>22.39999961853</ele>
        <time>2021-07-11T09:29:20.000Z</time>
      </trkpt>
      <trkpt lat="47.2913" lon="-2.37303">
        <ele>22.799999237061</ele>
        <time>2021-07-11T09:29:21.000Z</time>
      </trkpt>
      <trkpt lat="47.29125" lon="-2.37298">
        <ele>23.39999961853</ele>
        <time>2021-07-11T09:29:22.000Z</time>
      </trkpt>
      <trkpt lat="47.29121" lon="-2.37294">
        <ele>23.799999237061</ele>
        <time>2021-07-11T09:29:23.000Z</time>
      </trkpt>
      <trkpt lat="47.29116" lon="-2.37289">
        <ele>24.200000762939</ele>
        <time>2021-07-11T09:29:24.000Z</time>
      </trkpt>
      <trkpt lat="47.29112" lon="-2.37284">
        <ele>24.60000038147</ele>
        <time>2021-07-11T09:29:25.000Z</time>
      </trkpt>
      <trkpt lat="47.29102" lon="-2.37273">
        <ele>24.60000038147</ele>
        <time>2021-07-11T09:29:27.000Z</time>
      </trkpt>
      <trkpt lat="47.29065" lon="-2.37235">
        <ele>24.60000038147</ele>
        <time>2021-07-11T09:29:34.000Z</time>
      </trkpt>
      <trkpt lat="47.29039" lon="-2.37209">
        <ele>24.200000762939</ele>
        <time>2021-07-11T09:29:39.000Z</time>
      </trkpt>
      <trkpt lat="47.29034" lon="-2.37204">
        <ele>23.60000038147</ele>
        <time>2021-07-11T09:29:40.000Z</time>
      </trkpt>
      <trkpt lat="47.29029" lon="-2.37199">
        <ele>23.200000762939</ele>
        <time>2021-07-11T09:29:41.000Z</time>
      </trkpt>
      <trkpt lat="47.29023" lon="-2.37192">
        <ele>22.60000038147</ele>
        <time>2021-07-11T09:29:42.000Z</time>
      </trkpt>
      <trkpt lat="47.29019" lon="-2.37187">
        <ele>22.200000762939</ele>
        <time>2021-07-11T09:29:43.000Z</time>
      </trkpt>
      <trkpt lat="47.29006" lon="-2.37174">
        <ele>22.200000762939</ele>
        <time>2021-07-11T09:29:46.000Z</time>
      </trkpt>
      <trkpt lat="47.29002" lon="-2.37173">
        <ele>21.60000038147</ele>
        <time>2021-07-11T09:29:47.000Z</time>
      </trkpt>
      <trkpt lat="47.28996" lon="-2.37173">
        <ele>21</ele>
        <time>2021-07-11T09:29:48.000Z</time>
      </trkpt>
      <trkpt lat="47.28991" lon="-2.37175">
        <ele>20.60000038147</ele>
        <time>2021-07-11T09:29:49.000Z</time>
      </trkpt>
      <trkpt lat="47.28986" lon="-2.37178">
        <ele>20</ele>
        <time>2021-07-11T09:29:50.000Z</time>
      </trkpt>
      <trkpt lat="47.2898" lon="-2.37181">
        <ele>19.39999961853</ele>
        <time>2021-07-11T09:29:51.000Z</time>
      </trkpt>
      <trkpt lat="47.28976" lon="-2.37184">
        <ele>18.60000038147</ele>
        <time>2021-07-11T09:29:52.000Z</time>
      </trkpt>
      <trkpt lat="47.28972" lon="-2.37187">
        <ele>18</ele>
        <time>2021-07-11T09:29:53.000Z</time>
      </trkpt>
      <trkpt lat="47.28969" lon="-2.3719">
        <ele>17.60000038147</ele>
        <time>2021-07-11T09:29:54.000Z</time>
      </trkpt>
      <trkpt lat="47.28966" lon="-2.37193">
        <ele>17.200000762939</ele>
        <time>2021-07-11T09:29:55.000Z</time>
      </trkpt>
      <trkpt lat="47.28963" lon="-2.37196">
        <ele>16.60000038147</ele>
        <time>2021-07-11T09:29:56.000Z</time>
      </trkpt>
      <trkpt lat="47.28959" lon="-2.37199">
        <ele>16.200000762939</ele>
        <time>2021-07-11T09:29:57.000Z</time>
      </trkpt>
      <trkpt lat="47.28955" lon="-2.37202">
        <ele>15.60000038147</ele>
        <time>2021-07-11T09:29:58.000Z</time>
      </trkpt>
      <trkpt lat="47.2895" lon="-2.37203">
        <ele>15.199999809265</ele>
        <time>2021-07-11T09:29:59.000Z</time>
      </trkpt>
      <trkpt lat="47.28929" lon="-2.37213">
        <ele>15.199999809265</ele>
        <time>2021-07-11T09:30:03.000Z</time>
      </trkpt>
      <trkpt lat="47.28923" lon="-2.37215">
        <ele>14.60000038147</ele>
        <time>2021-07-11T09:30:04.000Z</time>
      </trkpt>
      <trkpt lat="47.28918" lon="-2.37217">
        <ele>14.199999809265</ele>
        <time>2021-07-11T09:30:05.000Z</time>
      </trkpt>
      <trkpt lat="47.28912" lon="-2.3722">
        <ele>13.800000190735</ele>
        <time>2021-07-11T09:30:06.000Z</time>
      </trkpt>
      <trkpt lat="47.28907" lon="-2.37223">
        <ele>13.39999961853</ele>
        <time>2021-07-11T09:30:07.000Z</time>
      </trkpt>
      <trkpt lat="47.28901" lon="-2.37225">
        <ele>13</ele>
        <time>2021-07-11T09:30:08.000Z</time>
      </trkpt>
      <trkpt lat="47.28891" lon="-2.3723">
        <ele>13</ele>
        <time>2021-07-11T09:30:10.000Z</time>
      </trkpt>
      <trkpt lat="47.28877" lon="-2.37237">
        <ele>12.60000038147</ele>
        <time>2021-07-11T09:30:13.000Z</time>
      </trkpt>
      <trkpt lat="47.28872" lon="-2.3724">
        <ele>12.199999809265</ele>
        <time>2021-07-11T09:30:14.000Z</time>
      </trkpt>
      <trkpt lat="47.28869" lon="-2.37241">
        <ele>11.60000038147</ele>
        <time>2021-07-11T09:30:15.000Z</time>
      </trkpt>
      <trkpt lat="47.28866" lon="-2.37242">
        <ele>10.800000190735</ele>
        <time>2021-07-11T09:30:16.000Z</time>
      </trkpt>
      <trkpt lat="47.28857" lon="-2.37246">
        <ele>10.800000190735</ele>
        <time>2021-07-11T09:30:20.000Z</time>
      </trkpt>
      <trkpt lat="47.28847" lon="-2.3725">
        <ele>10.800000190735</ele>
        <time>2021-07-11T09:30:25.000Z</time>
      </trkpt>
      <trkpt lat="47.28847" lon="-2.37248">
        <ele>10.800000190735</ele>
        <time>2021-07-11T09:30:45.000Z</time>
      </trkpt>
      <trkpt lat="47.28843" lon="-2.37238">
        <ele>10.800000190735</ele>
        <time>2021-07-11T09:30:48.000Z</time>
      </trkpt>
      <trkpt lat="47.2884" lon="-2.37226">
        <ele>10.800000190735</ele>
        <time>2021-07-11T09:30:51.000Z</time>
      </trkpt>
      <trkpt lat="47.28838" lon="-2.37213">
        <ele>10.800000190735</ele>
        <time>2021-07-11T09:30:54.000Z</time>
      </trkpt>
      <trkpt lat="47.28833" lon="-2.37187">
        <ele>10.800000190735</ele>
        <time>2021-07-11T09:31:00.000Z</time>
      </trkpt>
      <trkpt lat="47.28827" lon="-2.37151">
        <ele>10.800000190735</ele>
        <time>2021-07-11T09:31:07.000Z</time>
      </trkpt>
      <trkpt lat="47.28826" lon="-2.37135">
        <ele>10.800000190735</ele>
        <time>2021-07-11T09:31:11.000Z</time>
      </trkpt>
      <trkpt lat="47.28827" lon="-2.37133">
        <ele>10.800000190735</ele>
        <time>2021-07-11T09:31:12.000Z</time>
      </trkpt>
      <trkpt lat="47.28832" lon="-2.3712">
        <ele>10.800000190735</ele>
        <time>2021-07-11T09:31:18.000Z</time>
      </trkpt>
      <trkpt lat="47.28834" lon="-2.37114">
        <ele>10.800000190735</ele>
        <time>2021-07-11T09:31:22.000Z</time>
      </trkpt>
      <trkpt lat="47.28832" lon="-2.37115">
        <ele>10.800000190735</ele>
        <time>2021-07-11T09:31:24.000Z</time>
      </trkpt>
      <trkpt lat="47.28829" lon="-2.37117">
        <ele>11.199999809265</ele>
        <time>2021-07-11T09:31:26.000Z</time>
      </trkpt>
      <trkpt lat="47.28827" lon="-2.37118">
        <ele>11.800000190735</ele>
        <time>2021-07-11T09:31:27.000Z</time>
      </trkpt>
      <trkpt lat="47.28825" lon="-2.37119">
        <ele>12.199999809265</ele>
        <time>2021-07-11T09:31:28.000Z</time>
      </trkpt>
      <trkpt lat="47.28824" lon="-2.37119">
        <ele>12.60000038147</ele>
        <time>2021-07-11T09:31:29.000Z</time>
      </trkpt>
      <trkpt lat="47.28822" lon="-2.37119">
        <ele>13</ele>
        <time>2021-07-11T09:31:30.000Z</time>
      </trkpt>
      <trkpt lat="47.28819" lon="-2.37119">
        <ele>14</ele>
        <time>2021-07-11T09:31:31.000Z</time>
      </trkpt>
      <trkpt lat="47.28816" lon="-2.3712">
        <ele>14.39999961853</ele>
        <time>2021-07-11T09:31:32.000Z</time>
      </trkpt>
      <trkpt lat="47.28814" lon="-2.3712">
        <ele>14.800000190735</ele>
        <time>2021-07-11T09:31:33.000Z</time>
      </trkpt>
      <trkpt lat="47.28809" lon="-2.37121">
        <ele>15.199999809265</ele>
        <time>2021-07-11T09:31:34.000Z</time>
      </trkpt>
      <trkpt lat="47.28805" lon="-2.37119">
        <ele>15.199999809265</ele>
        <time>2021-07-11T09:31:36.000Z</time>
      </trkpt>
      <trkpt lat="47.28804" lon="-2.37117">
        <ele>15.199999809265</ele>
        <time>2021-07-11T09:31:37.000Z</time>
      </trkpt>
      <trkpt lat="47.288" lon="-2.37105">
        <ele>15.60000038147</ele>
        <time>2021-07-11T09:31:41.000Z</time>
      </trkpt>
      <trkpt lat="47.28799" lon="-2.37103">
        <ele>16</ele>
        <time>2021-07-11T09:31:42.000Z</time>
      </trkpt>
      <trkpt lat="47.28798" lon="-2.37101">
        <ele>16.39999961853</ele>
        <time>2021-07-11T09:31:43.000Z</time>
      </trkpt>
      <trkpt lat="47.28797" lon="-2.37097">
        <ele>16.799999237061</ele>
        <time>2021-07-11T09:31:44.000Z</time>
      </trkpt>
      <trkpt lat="47.28796" lon="-2.37094">
        <ele>17.200000762939</ele>
        <time>2021-07-11T09:31:45.000Z</time>
      </trkpt>
      <trkpt lat="47.28794" lon="-2.37086">
        <ele>17.200000762939</ele>
        <time>2021-07-11T09:31:48.000Z</time>
      </trkpt>
      <trkpt lat="47.28792" lon="-2.37069">
        <ele>17.799999237061</ele>
        <time>2021-07-11T09:31:53.000Z</time>
      </trkpt>
      <trkpt lat="47.28791" lon="-2.37066">
        <ele>18.200000762939</ele>
        <time>2021-07-11T09:31:54.000Z</time>
      </trkpt>
      <trkpt lat="47.28789" lon="-2.37062">
        <ele>19</ele>
        <time>2021-07-11T09:31:55.000Z</time>
      </trkpt>
      <trkpt lat="47.28788" lon="-2.37059">
        <ele>19.39999961853</ele>
        <time>2021-07-11T09:31:56.000Z</time>
      </trkpt>
      <trkpt lat="47.28785" lon="-2.37049">
        <ele>20</ele>
        <time>2021-07-11T09:31:59.000Z</time>
      </trkpt>
      <trkpt lat="47.28784" lon="-2.37045">
        <ele>20.39999961853</ele>
        <time>2021-07-11T09:32:00.000Z</time>
      </trkpt>
      <trkpt lat="47.28783" lon="-2.37042">
        <ele>20.799999237061</ele>
        <time>2021-07-11T09:32:01.000Z</time>
      </trkpt>
      <trkpt lat="47.28782" lon="-2.37038">
        <ele>21.200000762939</ele>
        <time>2021-07-11T09:32:02.000Z</time>
      </trkpt>
      <trkpt lat="47.28781" lon="-2.37034">
        <ele>21.60000038147</ele>
        <time>2021-07-11T09:32:03.000Z</time>
      </trkpt>
      <trkpt lat="47.28775" lon="-2.37013">
        <ele>21.60000038147</ele>
        <time>2021-07-11T09:32:08.000Z</time>
      </trkpt>
      <trkpt lat="47.28769" lon="-2.36999">
        <ele>22</ele>
        <time>2021-07-11T09:32:12.000Z</time>
      </trkpt>
      <trkpt lat="47.28767" lon="-2.36995">
        <ele>22.39999961853</ele>
        <time>2021-07-11T09:32:13.000Z</time>
      </trkpt>
      <trkpt lat="47.28764" lon="-2.36991">
        <ele>22.799999237061</ele>
        <time>2021-07-11T09:32:14.000Z</time>
      </trkpt>
      <trkpt lat="47.28762" lon="-2.36987">
        <ele>23.200000762939</ele>
        <time>2021-07-11T09:32:15.000Z</time>
      </trkpt>
      <trkpt lat="47.2876" lon="-2.36982">
        <ele>23.60000038147</ele>
        <time>2021-07-11T09:32:16.000Z</time>
      </trkpt>
      <trkpt lat="47.28758" lon="-2.36967">
        <ele>23.60000038147</ele>
        <time>2021-07-11T09:32:20.000Z</time>
      </trkpt>
      <trkpt lat="47.28758" lon="-2.36961">
        <ele>23.200000762939</ele>
        <time>2021-07-11T09:32:21.000Z</time>
      </trkpt>
      <trkpt lat="47.28756" lon="-2.36955">
        <ele>22.799999237061</ele>
        <time>2021-07-11T09:32:22.000Z</time>
      </trkpt>
      <trkpt lat="47.28754" lon="-2.36949">
        <ele>22.39999961853</ele>
        <time>2021-07-11T09:32:23.000Z</time>
      </trkpt>
      <trkpt lat="47.28751" lon="-2.36944">
        <ele>22</ele>
        <time>2021-07-11T09:32:24.000Z</time>
      </trkpt>
      <trkpt lat="47.28749" lon="-2.36938">
        <ele>21.60000038147</ele>
        <time>2021-07-11T09:32:25.000Z</time>
      </trkpt>
      <trkpt lat="47.28745" lon="-2.36932">
        <ele>21.60000038147</ele>
        <time>2021-07-11T09:32:26.000Z</time>
      </trkpt>
      <trkpt lat="47.28737" lon="-2.36922">
        <ele>21.200000762939</ele>
        <time>2021-07-11T09:32:28.000Z</time>
      </trkpt>
      <trkpt lat="47.28733" lon="-2.36919">
        <ele>20.799999237061</ele>
        <time>2021-07-11T09:32:29.000Z</time>
      </trkpt>
      <trkpt lat="47.2873" lon="-2.36917">
        <ele>20.39999961853</ele>
        <time>2021-07-11T09:32:30.000Z</time>
      </trkpt>
      <trkpt lat="47.28726" lon="-2.36914">
        <ele>19.799999237061</ele>
        <time>2021-07-11T09:32:31.000Z</time>
      </trkpt>
      <trkpt lat="47.28724" lon="-2.36912">
        <ele>19.39999961853</ele>
        <time>2021-07-11T09:32:32.000Z</time>
      </trkpt>
      <trkpt lat="47.28722" lon="-2.3691">
        <ele>19.39999961853</ele>
        <time>2021-07-11T09:32:33.000Z</time>
      </trkpt>
      <trkpt lat="47.28709" lon="-2.36888">
        <ele>19.39999961853</ele>
        <time>2021-07-11T09:32:40.000Z</time>
      </trkpt>
      <trkpt lat="47.28704" lon="-2.36878">
        <ele>19.799999237061</ele>
        <time>2021-07-11T09:32:42.000Z</time>
      </trkpt>
      <trkpt lat="47.28702" lon="-2.36872">
        <ele>20.200000762939</ele>
        <time>2021-07-11T09:32:43.000Z</time>
      </trkpt>
      <trkpt lat="47.28699" lon="-2.36865">
        <ele>21</ele>
        <time>2021-07-11T09:32:44.000Z</time>
      </trkpt>
      <trkpt lat="47.28694" lon="-2.36856">
        <ele>21.39999961853</ele>
        <time>2021-07-11T09:32:45.000Z</time>
      </trkpt>
      <trkpt lat="47.28691" lon="-2.36849">
        <ele>21.39999961853</ele>
        <time>2021-07-11T09:32:46.000Z</time>
      </trkpt>
      <trkpt lat="47.28681" lon="-2.36819">
        <ele>21.39999961853</ele>
        <time>2021-07-11T09:32:51.000Z</time>
      </trkpt>
      <trkpt lat="47.28666" lon="-2.36799">
        <ele>21.39999961853</ele>
        <time>2021-07-11T09:32:57.000Z</time>
      </trkpt>
      <trkpt lat="47.28664" lon="-2.36798">
        <ele>21.39999961853</ele>
        <time>2021-07-11T09:32:58.000Z</time>
      </trkpt>
      <trkpt lat="47.28658" lon="-2.368">
        <ele>21.39999961853</ele>
        <time>2021-07-11T09:33:00.000Z</time>
      </trkpt>
      <trkpt lat="47.28647" lon="-2.3681">
        <ele>21.39999961853</ele>
        <time>2021-07-11T09:33:03.000Z</time>
      </trkpt>
      <trkpt lat="47.28635" lon="-2.36824">
        <ele>21.39999961853</ele>
        <time>2021-07-11T09:33:06.000Z</time>
      </trkpt>
      <trkpt lat="47.28631" lon="-2.36829">
        <ele>21.39999961853</ele>
        <time>2021-07-11T09:33:07.000Z</time>
      </trkpt>
      <trkpt lat="47.28612" lon="-2.36849">
        <ele>21.39999961853</ele>
        <time>2021-07-11T09:33:12.000Z</time>
      </trkpt>
      <trkpt lat="47.28606" lon="-2.36852">
        <ele>21.39999961853</ele>
        <time>2021-07-11T09:33:15.000Z</time>
      </trkpt>
      <trkpt lat="47.28602" lon="-2.36852">
        <ele>21.39999961853</ele>
        <time>2021-07-11T09:33:16.000Z</time>
      </trkpt>
      <trkpt lat="47.28594" lon="-2.36839">
        <ele>21.39999961853</ele>
        <time>2021-07-11T09:33:19.000Z</time>
      </trkpt>
      <trkpt lat="47.28573" lon="-2.36798">
        <ele>21.39999961853</ele>
        <time>2021-07-11T09:33:27.000Z</time>
      </trkpt>
      <trkpt lat="47.28552" lon="-2.36758">
        <ele>21.39999961853</ele>
        <time>2021-07-11T09:33:34.000Z</time>
      </trkpt>
      <trkpt lat="47.28549" lon="-2.36753">
        <ele>21.39999961853</ele>
        <time>2021-07-11T09:33:35.000Z</time>
      </trkpt>
      <trkpt lat="47.28533" lon="-2.36728">
        <ele>21.39999961853</ele>
        <time>2021-07-11T09:33:40.000Z</time>
      </trkpt>
      <trkpt lat="47.2853" lon="-2.36723">
        <ele>21.39999961853</ele>
        <time>2021-07-11T09:33:41.000Z</time>
      </trkpt>
      <trkpt lat="47.28528" lon="-2.36719">
        <ele>22</ele>
        <time>2021-07-11T09:33:42.000Z</time>
      </trkpt>
      <trkpt lat="47.28527" lon="-2.36714">
        <ele>22.39999961853</ele>
        <time>2021-07-11T09:33:43.000Z</time>
      </trkpt>
      <trkpt lat="47.28525" lon="-2.3671">
        <ele>22.799999237061</ele>
        <time>2021-07-11T09:33:44.000Z</time>
      </trkpt>
      <trkpt lat="47.28523" lon="-2.36706">
        <ele>23.200000762939</ele>
        <time>2021-07-11T09:33:45.000Z</time>
      </trkpt>
      <trkpt lat="47.28521" lon="-2.36702">
        <ele>23.60000038147</ele>
        <time>2021-07-11T09:33:46.000Z</time>
      </trkpt>
      <trkpt lat="47.28512" lon="-2.36687">
        <ele>24</ele>
        <time>2021-07-11T09:33:51.000Z</time>
      </trkpt>
      <trkpt lat="47.2851" lon="-2.36685">
        <ele>24.39999961853</ele>
        <time>2021-07-11T09:33:52.000Z</time>
      </trkpt>
      <trkpt lat="47.28508" lon="-2.36683">
        <ele>24.799999237061</ele>
        <time>2021-07-11T09:33:53.000Z</time>
      </trkpt>
      <trkpt lat="47.28507" lon="-2.36682">
        <ele>25.39999961853</ele>
        <time>2021-07-11T09:33:54.000Z</time>
      </trkpt>
      <trkpt lat="47.28506" lon="-2.36681">
        <ele>25.799999237061</ele>
        <time>2021-07-11T09:33:55.000Z</time>
      </trkpt>
      <trkpt lat="47.28506" lon="-2.3668">
        <ele>25.799999237061</ele>
        <time>2021-07-11T09:33:56.000Z</time>
      </trkpt>
      <trkpt lat="47.28506" lon="-2.3668">
        <ele>25.799999237061</ele>
        <time>2021-07-11T09:33:57.000Z</time>
      </trkpt>
      <trkpt lat="47.28504" lon="-2.36679">
        <ele>25.799999237061</ele>
        <time>2021-07-11T09:34:14.000Z</time>
      </trkpt>
      <trkpt lat="47.28501" lon="-2.36675">
        <ele>25.799999237061</ele>
        <time>2021-07-11T09:34:16.000Z</time>
      </trkpt>
      <trkpt lat="47.285" lon="-2.36668">
        <ele>25.799999237061</ele>
        <time>2021-07-11T09:34:21.000Z</time>
      </trkpt>
      <trkpt lat="47.285" lon="-2.36667">
        <ele>25.799999237061</ele>
        <time>2021-07-11T09:34:22.000Z</time>
      </trkpt>
      <trkpt lat="47.28496" lon="-2.36661">
        <ele>25.799999237061</ele>
        <time>2021-07-11T09:34:26.000Z</time>
      </trkpt>
      <trkpt lat="47.28493" lon="-2.36657">
        <ele>25.799999237061</ele>
        <time>2021-07-11T09:34:28.000Z</time>
      </trkpt>
      <trkpt lat="47.28493" lon="-2.36651">
        <ele>25.799999237061</ele>
        <time>2021-07-11T09:34:30.000Z</time>
      </trkpt>
      <trkpt lat="47.2849" lon="-2.3664">
        <ele>25.799999237061</ele>
        <time>2021-07-11T09:34:35.000Z</time>
      </trkpt>
      <trkpt lat="47.28489" lon="-2.36637">
        <ele>25.799999237061</ele>
        <time>2021-07-11T09:34:36.000Z</time>
      </trkpt>
      <trkpt lat="47.28482" lon="-2.36618">
        <ele>25.799999237061</ele>
        <time>2021-07-11T09:34:42.000Z</time>
      </trkpt>
      <trkpt lat="47.28475" lon="-2.36593">
        <ele>25.799999237061</ele>
        <time>2021-07-11T09:34:49.000Z</time>
      </trkpt>
      <trkpt lat="47.28467" lon="-2.36577">
        <ele>25.799999237061</ele>
        <time>2021-07-11T09:34:55.000Z</time>
      </trkpt>
      <trkpt lat="47.28466" lon="-2.36572">
        <ele>25.799999237061</ele>
        <time>2021-07-11T09:34:57.000Z</time>
      </trkpt>
      <trkpt lat="47.28467" lon="-2.36566">
        <ele>25.799999237061</ele>
        <time>2021-07-11T09:35:01.000Z</time>
      </trkpt>
      <trkpt lat="47.28468" lon="-2.36567">
        <ele>25.799999237061</ele>
        <time>2021-07-11T09:35:02.000Z</time>
      </trkpt>
      <trkpt lat="47.2847" lon="-2.36563">
        <ele>25.799999237061</ele>
        <time>2021-07-11T09:35:19.000Z</time>
      </trkpt>
      <trkpt lat="47.28472" lon="-2.3656">
        <ele>25.799999237061</ele>
        <time>2021-07-11T09:35:20.000Z</time>
      </trkpt>
      <trkpt lat="47.28483" lon="-2.36548">
        <ele>25.799999237061</ele>
        <time>2021-07-11T09:35:25.000Z</time>
      </trkpt>
      <trkpt lat="47.28493" lon="-2.36536">
        <ele>25.799999237061</ele>
        <time>2021-07-11T09:35:29.000Z</time>
      </trkpt>
      <trkpt lat="47.285" lon="-2.36527">
        <ele>26.200000762939</ele>
        <time>2021-07-11T09:35:32.000Z</time>
      </trkpt>
      <trkpt lat="47.28503" lon="-2.36524">
        <ele>26.60000038147</ele>
        <time>2021-07-11T09:35:33.000Z</time>
      </trkpt>
      <trkpt lat="47.28505" lon="-2.36521">
        <ele>27</ele>
        <time>2021-07-11T09:35:34.000Z</time>
      </trkpt>
      <trkpt lat="47.28508" lon="-2.36519">
        <ele>27.39999961853</ele>
        <time>2021-07-11T09:35:35.000Z</time>
      </trkpt>
      <trkpt lat="47.2851" lon="-2.36516">
        <ele>28</ele>
        <time>2021-07-11T09:35:36.000Z</time>
      </trkpt>
      <trkpt lat="47.2852" lon="-2.36499">
        <ele>28.39999961853</ele>
        <time>2021-07-11T09:35:41.000Z</time>
      </trkpt>
      <trkpt lat="47.28521" lon="-2.36495">
        <ele>28.799999237061</ele>
        <time>2021-07-11T09:35:42.000Z</time>
      </trkpt>
      <trkpt lat="47.2852" lon="-2.3649">
        <ele>29.200000762939</ele>
        <time>2021-07-11T09:35:43.000Z</time>
      </trkpt>
      <trkpt lat="47.2852" lon="-2.36485">
        <ele>29.60000038147</ele>
        <time>2021-07-11T09:35:44.000Z</time>
      </trkpt>
      <trkpt lat="47.2852" lon="-2.3648">
        <ele>30</ele>
        <time>2021-07-11T09:35:45.000Z</time>
      </trkpt>
      <trkpt lat="47.28515" lon="-2.36461">
        <ele>30</ele>
        <time>2021-07-11T09:35:49.000Z</time>
      </trkpt>
      <trkpt lat="47.28502" lon="-2.36445">
        <ele>30</ele>
        <time>2021-07-11T09:35:54.000Z</time>
      </trkpt>
      <trkpt lat="47.28481" lon="-2.36428">
        <ele>30</ele>
        <time>2021-07-11T09:36:01.000Z</time>
      </trkpt>
      <trkpt lat="47.28476" lon="-2.36423">
        <ele>30.39999961853</ele>
        <time>2021-07-11T09:36:03.000Z</time>
      </trkpt>
      <trkpt lat="47.28475" lon="-2.36421">
        <ele>31</ele>
        <time>2021-07-11T09:36:04.000Z</time>
      </trkpt>
      <trkpt lat="47.28473" lon="-2.36418">
        <ele>31.39999961853</ele>
        <time>2021-07-11T09:36:05.000Z</time>
      </trkpt>
      <trkpt lat="47.28472" lon="-2.36416">
        <ele>31.799999237061</ele>
        <time>2021-07-11T09:36:06.000Z</time>
      </trkpt>
      <trkpt lat="47.28471" lon="-2.36414">
        <ele>32.200000762939</ele>
        <time>2021-07-11T09:36:07.000Z</time>
      </trkpt>
      <trkpt lat="47.28469" lon="-2.36412">
        <ele>32.200000762939</ele>
        <time>2021-07-11T09:36:08.000Z</time>
      </trkpt>
      <trkpt lat="47.28459" lon="-2.364">
        <ele>32.200000762939</ele>
        <time>2021-07-11T09:36:12.000Z</time>
      </trkpt>
      <trkpt lat="47.28451" lon="-2.3639">
        <ele>32.200000762939</ele>
        <time>2021-07-11T09:36:14.000Z</time>
      </trkpt>
      <trkpt lat="47.28436" lon="-2.36379">
        <ele>32.200000762939</ele>
        <time>2021-07-11T09:36:17.000Z</time>
      </trkpt>
      <trkpt lat="47.28431" lon="-2.36375">
        <ele>32.200000762939</ele>
        <time>2021-07-11T09:36:18.000Z</time>
      </trkpt>
      <trkpt lat="47.28419" lon="-2.36358">
        <ele>31.799999237061</ele>
        <time>2021-07-11T09:36:21.000Z</time>
      </trkpt>
      <trkpt lat="47.28415" lon="-2.36352">
        <ele>31.39999961853</ele>
        <time>2021-07-11T09:36:22.000Z</time>
      </trkpt>
      <trkpt lat="47.28411" lon="-2.36346">
        <ele>31</ele>
        <time>2021-07-11T09:36:23.000Z</time>
      </trkpt>
      <trkpt lat="47.28406" lon="-2.36341">
        <ele>30.60000038147</ele>
        <time>2021-07-11T09:36:24.000Z</time>
      </trkpt>
      <trkpt lat="47.28402" lon="-2.36336">
        <ele>30.200000762939</ele>
        <time>2021-07-11T09:36:25.000Z</time>
      </trkpt>
      <trkpt lat="47.28397" lon="-2.3633">
        <ele>30.200000762939</ele>
        <time>2021-07-11T09:36:26.000Z</time>
      </trkpt>
      <trkpt lat="47.28378" lon="-2.36315">
        <ele>29.799999237061</ele>
        <time>2021-07-11T09:36:31.000Z</time>
      </trkpt>
      <trkpt lat="47.28374" lon="-2.36313">
        <ele>29.39999961853</ele>
        <time>2021-07-11T09:36:32.000Z</time>
      </trkpt>
      <trkpt lat="47.28371" lon="-2.36311">
        <ele>29</ele>
        <time>2021-07-11T09:36:33.000Z</time>
      </trkpt>
      <trkpt lat="47.28369" lon="-2.36308">
        <ele>28.39999961853</ele>
        <time>2021-07-11T09:36:34.000Z</time>
      </trkpt>
      <trkpt lat="47.28367" lon="-2.36305">
        <ele>28</ele>
        <time>2021-07-11T09:36:35.000Z</time>
      </trkpt>
      <trkpt lat="47.28365" lon="-2.36302">
        <ele>28</ele>
        <time>2021-07-11T09:36:36.000Z</time>
      </trkpt>
      <trkpt lat="47.28367" lon="-2.36285">
        <ele>28</ele>
        <time>2021-07-11T09:36:40.000Z</time>
      </trkpt>
      <trkpt lat="47.28367" lon="-2.36279">
        <ele>27.60000038147</ele>
        <time>2021-07-11T09:36:42.000Z</time>
      </trkpt>
      <trkpt lat="47.28367" lon="-2.36276">
        <ele>27.200000762939</ele>
        <time>2021-07-11T09:36:43.000Z</time>
      </trkpt>
      <trkpt lat="47.28367" lon="-2.36273">
        <ele>26.799999237061</ele>
        <time>2021-07-11T09:36:44.000Z</time>
      </trkpt>
      <trkpt lat="47.28367" lon="-2.3627">
        <ele>26.39999961853</ele>
        <time>2021-07-11T09:36:45.000Z</time>
      </trkpt>
      <trkpt lat="47.28368" lon="-2.36268">
        <ele>26</ele>
        <time>2021-07-11T09:36:46.000Z</time>
      </trkpt>
      <trkpt lat="47.28377" lon="-2.36256">
        <ele>26.39999961853</ele>
        <time>2021-07-11T09:36:52.000Z</time>
      </trkpt>
      <trkpt lat="47.28379" lon="-2.36253">
        <ele>26.799999237061</ele>
        <time>2021-07-11T09:36:53.000Z</time>
      </trkpt>
      <trkpt lat="47.28381" lon="-2.36249">
        <ele>27.39999961853</ele>
        <time>2021-07-11T09:36:54.000Z</time>
      </trkpt>
      <trkpt lat="47.28384" lon="-2.36245">
        <ele>27.799999237061</ele>
        <time>2021-07-11T09:36:55.000Z</time>
      </trkpt>
      <trkpt lat="47.28386" lon="-2.36242">
        <ele>28.200000762939</ele>
        <time>2021-07-11T09:36:56.000Z</time>
      </trkpt>
      <trkpt lat="47.28392" lon="-2.36234">
        <ele>28.60000038147</ele>
        <time>2021-07-11T09:36:58.000Z</time>
      </trkpt>
      <trkpt lat="47.28395" lon="-2.36231">
        <ele>29</ele>
        <time>2021-07-11T09:36:59.000Z</time>
      </trkpt>
      <trkpt lat="47.28399" lon="-2.36226">
        <ele>29.39999961853</ele>
        <time>2021-07-11T09:37:00.000Z</time>
      </trkpt>
      <trkpt lat="47.28403" lon="-2.36221">
        <ele>29.799999237061</ele>
        <time>2021-07-11T09:37:01.000Z</time>
      </trkpt>
      <trkpt lat="47.28406" lon="-2.36219">
        <ele>30.200000762939</ele>
        <time>2021-07-11T09:37:02.000Z</time>
      </trkpt>
      <trkpt lat="47.28411" lon="-2.36216">
        <ele>30.200000762939</ele>
        <time>2021-07-11T09:37:04.000Z</time>
      </trkpt>
      <trkpt lat="47.28414" lon="-2.36216">
        <ele>30.60000038147</ele>
        <time>2021-07-11T09:37:05.000Z</time>
      </trkpt>
      <trkpt lat="47.28417" lon="-2.36214">
        <ele>31</ele>
        <time>2021-07-11T09:37:06.000Z</time>
      </trkpt>
      <trkpt lat="47.2842" lon="-2.36213">
        <ele>31.39999961853</ele>
        <time>2021-07-11T09:37:07.000Z</time>
      </trkpt>
      <trkpt lat="47.28423" lon="-2.36211">
        <ele>31.799999237061</ele>
        <time>2021-07-11T09:37:08.000Z</time>
      </trkpt>
      <trkpt lat="47.28426" lon="-2.36209">
        <ele>32.200000762939</ele>
        <time>2021-07-11T09:37:09.000Z</time>
      </trkpt>
      <trkpt lat="47.28429" lon="-2.36206">
        <ele>32.200000762939</ele>
        <time>2021-07-11T09:37:10.000Z</time>
      </trkpt>
      <trkpt lat="47.28435" lon="-2.36202">
        <ele>32.200000762939</ele>
        <time>2021-07-11T09:37:15.000Z</time>
      </trkpt>
      <trkpt lat="47.28443" lon="-2.36195">
        <ele>32.200000762939</ele>
        <time>2021-07-11T09:37:31.000Z</time>
      </trkpt>
      <trkpt lat="47.28444" lon="-2.36187">
        <ele>32.200000762939</ele>
        <time>2021-07-11T09:37:34.000Z</time>
      </trkpt>
      <trkpt lat="47.28443" lon="-2.36182">
        <ele>32.599998474121</ele>
        <time>2021-07-11T09:37:37.000Z</time>
      </trkpt>
      <trkpt lat="47.28443" lon="-2.3618">
        <ele>33</ele>
        <time>2021-07-11T09:37:38.000Z</time>
      </trkpt>
      <trkpt lat="47.28444" lon="-2.36177">
        <ele>33.400001525879</ele>
        <time>2021-07-11T09:37:39.000Z</time>
      </trkpt>
      <trkpt lat="47.28445" lon="-2.36174">
        <ele>34.400001525879</ele>
        <time>2021-07-11T09:37:40.000Z</time>
      </trkpt>
      <trkpt lat="47.28449" lon="-2.36159">
        <ele>34.799999237061</ele>
        <time>2021-07-11T09:37:44.000Z</time>
      </trkpt>
      <trkpt lat="47.28448" lon="-2.36155">
        <ele>35.200000762939</ele>
        <time>2021-07-11T09:37:45.000Z</time>
      </trkpt>
      <trkpt lat="47.28447" lon="-2.36151">
        <ele>35.599998474121</ele>
        <time>2021-07-11T09:37:46.000Z</time>
      </trkpt>
      <trkpt lat="47.28445" lon="-2.36148">
        <ele>36</ele>
        <time>2021-07-11T09:37:47.000Z</time>
      </trkpt>
      <trkpt lat="47.28444" lon="-2.36144">
        <ele>36.400001525879</ele>
        <time>2021-07-11T09:37:48.000Z</time>
      </trkpt>
      <trkpt lat="47.28442" lon="-2.36127">
        <ele>36.799999237061</ele>
        <time>2021-07-11T09:37:52.000Z</time>
      </trkpt>
      <trkpt lat="47.28441" lon="-2.36123">
        <ele>37.200000762939</ele>
        <time>2021-07-11T09:37:53.000Z</time>
      </trkpt>
      <trkpt lat="47.2844" lon="-2.36119">
        <ele>37.599998474121</ele>
        <time>2021-07-11T09:37:54.000Z</time>
      </trkpt>
      <trkpt lat="47.28439" lon="-2.36114">
        <ele>38</ele>
        <time>2021-07-11T09:37:55.000Z</time>
      </trkpt>
      <trkpt lat="47.28438" lon="-2.36109">
        <ele>38.400001525879</ele>
        <time>2021-07-11T09:37:56.000Z</time>
      </trkpt>
      <trkpt lat="47.28437" lon="-2.361">
        <ele>38.400001525879</ele>
        <time>2021-07-11T09:37:58.000Z</time>
      </trkpt>
      <trkpt lat="47.28437" lon="-2.36092">
        <ele>38.799999237061</ele>
        <time>2021-07-11T09:38:00.000Z</time>
      </trkpt>
      <trkpt lat="47.28437" lon="-2.36087">
        <ele>39.200000762939</ele>
        <time>2021-07-11T09:38:01.000Z</time>
      </trkpt>
      <trkpt lat="47.28437" lon="-2.36082">
        <ele>39.599998474121</ele>
        <time>2021-07-11T09:38:02.000Z</time>
      </trkpt>
      <trkpt lat="47.28437" lon="-2.36078">
        <ele>40</ele>
        <time>2021-07-11T09:38:03.000Z</time>
      </trkpt>
      <trkpt lat="47.28437" lon="-2.36074">
        <ele>40.400001525879</ele>
        <time>2021-07-11T09:38:04.000Z</time>
      </trkpt>
      <trkpt lat="47.28437" lon="-2.3607">
        <ele>40.400001525879</ele>
        <time>2021-07-11T09:38:05.000Z</time>
      </trkpt>
      <trkpt lat="47.28436" lon="-2.3605">
        <ele>40.799999237061</ele>
        <time>2021-07-11T09:38:10.000Z</time>
      </trkpt>
      <trkpt lat="47.28437" lon="-2.36047">
        <ele>41.200000762939</ele>
        <time>2021-07-11T09:38:11.000Z</time>
      </trkpt>
      <trkpt lat="47.28437" lon="-2.36044">
        <ele>41.599998474121</ele>
        <time>2021-07-11T09:38:12.000Z</time>
      </trkpt>
      <trkpt lat="47.28437" lon="-2.36041">
        <ele>42</ele>
        <time>2021-07-11T09:38:13.000Z</time>
      </trkpt>
      <trkpt lat="47.28437" lon="-2.36038">
        <ele>42.400001525879</ele>
        <time>2021-07-11T09:38:14.000Z</time>
      </trkpt>
      <trkpt lat="47.28437" lon="-2.36034">
        <ele>42.400001525879</ele>
        <time>2021-07-11T09:38:17.000Z</time>
      </trkpt>
      <trkpt lat="47.28438" lon="-2.36025">
        <ele>42.400001525879</ele>
        <time>2021-07-11T09:38:25.000Z</time>
      </trkpt>
      <trkpt lat="47.28439" lon="-2.3602">
        <ele>42.400001525879</ele>
        <time>2021-07-11T09:38:28.000Z</time>
      </trkpt>
      <trkpt lat="47.28442" lon="-2.36012">
        <ele>42.400001525879</ele>
        <time>2021-07-11T09:38:31.000Z</time>
      </trkpt>
      <trkpt lat="47.28447" lon="-2.35999">
        <ele>42.400001525879</ele>
        <time>2021-07-11T09:38:35.000Z</time>
      </trkpt>
      <trkpt lat="47.28447" lon="-2.35997">
        <ele>42.400001525879</ele>
        <time>2021-07-11T09:38:36.000Z</time>
      </trkpt>
      <trkpt lat="47.2844" lon="-2.35993">
        <ele>42.400001525879</ele>
        <time>2021-07-11T09:38:40.000Z</time>
      </trkpt>
      <trkpt lat="47.28438" lon="-2.35994">
        <ele>42.400001525879</ele>
        <time>2021-07-11T09:38:41.000Z</time>
      </trkpt>
      <trkpt lat="47.28427" lon="-2.36002">
        <ele>42.400001525879</ele>
        <time>2021-07-11T09:38:46.000Z</time>
      </trkpt>
      <trkpt lat="47.28407" lon="-2.36018">
        <ele>42.400001525879</ele>
        <time>2021-07-11T09:38:52.000Z</time>
      </trkpt>
      <trkpt lat="47.28385" lon="-2.3602">
        <ele>42.400001525879</ele>
        <time>2021-07-11T09:38:57.000Z</time>
      </trkpt>
      <trkpt lat="47.28366" lon="-2.36019">
        <ele>42</ele>
        <time>2021-07-11T09:39:00.000Z</time>
      </trkpt>
      <trkpt lat="47.2836" lon="-2.36019">
        <ele>41.599998474121</ele>
        <time>2021-07-11T09:39:01.000Z</time>
      </trkpt>
      <trkpt lat="47.28355" lon="-2.3602">
        <ele>41.200000762939</ele>
        <time>2021-07-11T09:39:02.000Z</time>
      </trkpt>
      <trkpt lat="47.28349" lon="-2.36022">
        <ele>40.799999237061</ele>
        <time>2021-07-11T09:39:03.000Z</time>
      </trkpt>
      <trkpt lat="47.28344" lon="-2.36026">
        <ele>40.200000762939</ele>
        <time>2021-07-11T09:39:04.000Z</time>
      </trkpt>
      <trkpt lat="47.28338" lon="-2.36032">
        <ele>39.599998474121</ele>
        <time>2021-07-11T09:39:05.000Z</time>
      </trkpt>
      <trkpt lat="47.28332" lon="-2.36037">
        <ele>39</ele>
        <time>2021-07-11T09:39:06.000Z</time>
      </trkpt>
      <trkpt lat="47.28326" lon="-2.36039">
        <ele>38.599998474121</ele>
        <time>2021-07-11T09:39:07.000Z</time>
      </trkpt>
      <trkpt lat="47.28321" lon="-2.3604">
        <ele>38</ele>
        <time>2021-07-11T09:39:08.000Z</time>
      </trkpt>
      <trkpt lat="47.28315" lon="-2.3604">
        <ele>37.400001525879</ele>
        <time>2021-07-11T09:39:09.000Z</time>
      </trkpt>
      <trkpt lat="47.28309" lon="-2.3604">
        <ele>37</ele>
        <time>2021-07-11T09:39:10.000Z</time>
      </trkpt>
      <trkpt lat="47.28304" lon="-2.36038">
        <ele>36.400001525879</ele>
        <time>2021-07-11T09:39:11.000Z</time>
      </trkpt>
      <trkpt lat="47.28299" lon="-2.36036">
        <ele>35.799999237061</ele>
        <time>2021-07-11T09:39:12.000Z</time>
      </trkpt>
      <trkpt lat="47.2829" lon="-2.36029">
        <ele>35.400001525879</ele>
        <time>2021-07-11T09:39:14.000Z</time>
      </trkpt>
      <trkpt lat="47.28285" lon="-2.36025">
        <ele>35</ele>
        <time>2021-07-11T09:39:15.000Z</time>
      </trkpt>
      <trkpt lat="47.28281" lon="-2.3602">
        <ele>34.200000762939</ele>
        <time>2021-07-11T09:39:16.000Z</time>
      </trkpt>
      <trkpt lat="47.28278" lon="-2.36015">
        <ele>33.599998474121</ele>
        <time>2021-07-11T09:39:17.000Z</time>
      </trkpt>
      <trkpt lat="47.28275" lon="-2.3601">
        <ele>32</ele>
        <time>2021-07-11T09:39:18.000Z</time>
      </trkpt>
      <trkpt lat="47.28273" lon="-2.36005">
        <ele>31.200000762939</ele>
        <time>2021-07-11T09:39:19.000Z</time>
      </trkpt>
      <trkpt lat="47.28272" lon="-2.36">
        <ele>30.39999961853</ele>
        <time>2021-07-11T09:39:20.000Z</time>
      </trkpt>
      <trkpt lat="47.28271" lon="-2.35994">
        <ele>29.60000038147</ele>
        <time>2021-07-11T09:39:21.000Z</time>
      </trkpt>
      <trkpt lat="47.2827" lon="-2.35989">
        <ele>28.799999237061</ele>
        <time>2021-07-11T09:39:22.000Z</time>
      </trkpt>
      <trkpt lat="47.28263" lon="-2.35967">
        <ele>28.799999237061</ele>
        <time>2021-07-11T09:39:26.000Z</time>
      </trkpt>
      <trkpt lat="47.28249" lon="-2.3593">
        <ele>28.799999237061</ele>
        <time>2021-07-11T09:39:33.000Z</time>
      </trkpt>
      <trkpt lat="47.28239" lon="-2.35918">
        <ele>28.799999237061</ele>
        <time>2021-07-11T09:39:37.000Z</time>
      </trkpt>
      <trkpt lat="47.2822" lon="-2.35912">
        <ele>28.799999237061</ele>
        <time>2021-07-11T09:39:42.000Z</time>
      </trkpt>
      <trkpt lat="47.282" lon="-2.35901">
        <ele>28.799999237061</ele>
        <time>2021-07-11T09:39:47.000Z</time>
      </trkpt>
      <trkpt lat="47.28192" lon="-2.35882">
        <ele>28.799999237061</ele>
        <time>2021-07-11T09:39:51.000Z</time>
      </trkpt>
      <trkpt lat="47.28182" lon="-2.35857">
        <ele>28.799999237061</ele>
        <time>2021-07-11T09:39:57.000Z</time>
      </trkpt>
      <trkpt lat="47.28168" lon="-2.35842">
        <ele>28.799999237061</ele>
        <time>2021-07-11T09:40:02.000Z</time>
      </trkpt>
      <trkpt lat="47.28155" lon="-2.35824">
        <ele>28.200000762939</ele>
        <time>2021-07-11T09:40:06.000Z</time>
      </trkpt>
      <trkpt lat="47.28153" lon="-2.35819">
        <ele>27.799999237061</ele>
        <time>2021-07-11T09:40:07.000Z</time>
      </trkpt>
      <trkpt lat="47.2815" lon="-2.35815">
        <ele>27</ele>
        <time>2021-07-11T09:40:08.000Z</time>
      </trkpt>
      <trkpt lat="47.28149" lon="-2.3581">
        <ele>26.60000038147</ele>
        <time>2021-07-11T09:40:09.000Z</time>
      </trkpt>
      <trkpt lat="47.28146" lon="-2.35801">
        <ele>26.60000038147</ele>
        <time>2021-07-11T09:40:11.000Z</time>
      </trkpt>
      <trkpt lat="47.28145" lon="-2.35791">
        <ele>26.60000038147</ele>
        <time>2021-07-11T09:40:13.000Z</time>
      </trkpt>
      <trkpt lat="47.28142" lon="-2.35783">
        <ele>26.60000038147</ele>
        <time>2021-07-11T09:40:15.000Z</time>
      </trkpt>
      <trkpt lat="47.28135" lon="-2.3577">
        <ele>26.60000038147</ele>
        <time>2021-07-11T09:40:18.000Z</time>
      </trkpt>
      <trkpt lat="47.28126" lon="-2.35762">
        <ele>26.60000038147</ele>
        <time>2021-07-11T09:40:20.000Z</time>
      </trkpt>
      <trkpt lat="47.28117" lon="-2.35769">
        <ele>26.200000762939</ele>
        <time>2021-07-11T09:40:22.000Z</time>
      </trkpt>
      <trkpt lat="47.28112" lon="-2.35778">
        <ele>25.799999237061</ele>
        <time>2021-07-11T09:40:23.000Z</time>
      </trkpt>
      <trkpt lat="47.28107" lon="-2.35786">
        <ele>25.39999961853</ele>
        <time>2021-07-11T09:40:24.000Z</time>
      </trkpt>
      <trkpt lat="47.28104" lon="-2.35792">
        <ele>25</ele>
        <time>2021-07-11T09:40:25.000Z</time>
      </trkpt>
      <trkpt lat="47.28101" lon="-2.35797">
        <ele>24.60000038147</ele>
        <time>2021-07-11T09:40:26.000Z</time>
      </trkpt>
      <trkpt lat="47.28099" lon="-2.35803">
        <ele>24.60000038147</ele>
        <time>2021-07-11T09:40:27.000Z</time>
      </trkpt>
      <trkpt lat="47.28085" lon="-2.35819">
        <ele>24.60000038147</ele>
        <time>2021-07-11T09:40:32.000Z</time>
      </trkpt>
      <trkpt lat="47.2808" lon="-2.3581">
        <ele>24.60000038147</ele>
        <time>2021-07-11T09:40:35.000Z</time>
      </trkpt>
      <trkpt lat="47.28081" lon="-2.35797">
        <ele>24.60000038147</ele>
        <time>2021-07-11T09:40:37.000Z</time>
      </trkpt>
      <trkpt lat="47.28082" lon="-2.35791">
        <ele>25</ele>
        <time>2021-07-11T09:40:38.000Z</time>
      </trkpt>
      <trkpt lat="47.28083" lon="-2.35786">
        <ele>25.39999961853</ele>
        <time>2021-07-11T09:40:39.000Z</time>
      </trkpt>
      <trkpt lat="47.28085" lon="-2.35781">
        <ele>26</ele>
        <time>2021-07-11T09:40:40.000Z</time>
      </trkpt>
      <trkpt lat="47.28086" lon="-2.35776">
        <ele>26.39999961853</ele>
        <time>2021-07-11T09:40:41.000Z</time>
      </trkpt>
      <trkpt lat="47.28087" lon="-2.3577">
        <ele>26.799999237061</ele>
        <time>2021-07-11T09:40:42.000Z</time>
      </trkpt>
      <trkpt lat="47.28089" lon="-2.35758">
        <ele>26.799999237061</ele>
        <time>2021-07-11T09:40:44.000Z</time>
      </trkpt>
      <trkpt lat="47.28093" lon="-2.35733">
        <ele>27.200000762939</ele>
        <time>2021-07-11T09:40:48.000Z</time>
      </trkpt>
      <trkpt lat="47.28094" lon="-2.35729">
        <ele>27.60000038147</ele>
        <time>2021-07-11T09:40:49.000Z</time>
      </trkpt>
      <trkpt lat="47.28094" lon="-2.35724">
        <ele>28</ele>
        <time>2021-07-11T09:40:50.000Z</time>
      </trkpt>
      <trkpt lat="47.28095" lon="-2.3572">
        <ele>28.39999961853</ele>
        <time>2021-07-11T09:40:51.000Z</time>
      </trkpt>
      <trkpt lat="47.28096" lon="-2.35716">
        <ele>29</ele>
        <time>2021-07-11T09:40:52.000Z</time>
      </trkpt>
      <trkpt lat="47.28095" lon="-2.35701">
        <ele>29</ele>
        <time>2021-07-11T09:40:55.000Z</time>
      </trkpt>
      <trkpt lat="47.28091" lon="-2.3568">
        <ele>29</ele>
        <time>2021-07-11T09:40:58.000Z</time>
      </trkpt>
      <trkpt lat="47.28086" lon="-2.35664">
        <ele>29</ele>
        <time>2021-07-11T09:41:00.000Z</time>
      </trkpt>
      <trkpt lat="47.28085" lon="-2.35657">
        <ele>29</ele>
        <time>2021-07-11T09:41:01.000Z</time>
      </trkpt>
      <trkpt lat="47.28081" lon="-2.35632">
        <ele>28.39999961853</ele>
        <time>2021-07-11T09:41:04.000Z</time>
      </trkpt>
      <trkpt lat="47.28079" lon="-2.35622">
        <ele>28</ele>
        <time>2021-07-11T09:41:05.000Z</time>
      </trkpt>
      <trkpt lat="47.28078" lon="-2.35613">
        <ele>27.60000038147</ele>
        <time>2021-07-11T09:41:06.000Z</time>
      </trkpt>
      <trkpt lat="47.28076" lon="-2.35604">
        <ele>27</ele>
        <time>2021-07-11T09:41:07.000Z</time>
      </trkpt>
      <trkpt lat="47.28074" lon="-2.35597">
        <ele>26.60000038147</ele>
        <time>2021-07-11T09:41:08.000Z</time>
      </trkpt>
      <trkpt lat="47.28071" lon="-2.35591">
        <ele>26</ele>
        <time>2021-07-11T09:41:09.000Z</time>
      </trkpt>
      <trkpt lat="47.28066" lon="-2.35588">
        <ele>25.39999961853</ele>
        <time>2021-07-11T09:41:10.000Z</time>
      </trkpt>
      <trkpt lat="47.28062" lon="-2.35585">
        <ele>25</ele>
        <time>2021-07-11T09:41:11.000Z</time>
      </trkpt>
      <trkpt lat="47.28057" lon="-2.35583">
        <ele>24.39999961853</ele>
        <time>2021-07-11T09:41:12.000Z</time>
      </trkpt>
      <trkpt lat="47.28047" lon="-2.35582">
        <ele>24</ele>
        <time>2021-07-11T09:41:15.000Z</time>
      </trkpt>
      <trkpt lat="47.28042" lon="-2.35578">
        <ele>20</ele>
        <time>2021-07-11T09:43:22.000Z</time>
      </trkpt>
      <trkpt lat="47.28037" lon="-2.35572">
        <ele>20</ele>
        <time>2021-07-11T09:43:25.000Z</time>
      </trkpt>
      <trkpt lat="47.28035" lon="-2.35567">
        <ele>20</ele>
        <time>2021-07-11T09:43:28.000Z</time>
      </trkpt>
      <trkpt lat="47.28034" lon="-2.35565">
        <ele>20</ele>
        <time>2021-07-11T09:43:36.000Z</time>
      </trkpt>
      <trkpt lat="47.28023" lon="-2.35561">
        <ele>20</ele>
        <time>2021-07-11T09:43:40.000Z</time>
      </trkpt>
      <trkpt lat="47.28" lon="-2.35564">
        <ele>20</ele>
        <time>2021-07-11T09:43:46.000Z</time>
      </trkpt>
      <trkpt lat="47.27995" lon="-2.35565">
        <ele>20</ele>
        <time>2021-07-11T09:43:47.000Z</time>
      </trkpt>
      <trkpt lat="47.27977" lon="-2.35573">
        <ele>20</ele>
        <time>2021-07-11T09:43:51.000Z</time>
      </trkpt>
      <trkpt lat="47.27936" lon="-2.35588">
        <ele>20</ele>
        <time>2021-07-11T09:44:00.000Z</time>
      </trkpt>
      <trkpt lat="47.27899" lon="-2.35596">
        <ele>20</ele>
        <time>2021-07-11T09:44:07.000Z</time>
      </trkpt>
      <trkpt lat="47.2787" lon="-2.35603">
        <ele>19.60000038147</ele>
        <time>2021-07-11T09:44:12.000Z</time>
      </trkpt>
      <trkpt lat="47.27864" lon="-2.35604">
        <ele>19.200000762939</ele>
        <time>2021-07-11T09:44:13.000Z</time>
      </trkpt>
      <trkpt lat="47.27858" lon="-2.35606">
        <ele>18.39999961853</ele>
        <time>2021-07-11T09:44:14.000Z</time>
      </trkpt>
      <trkpt lat="47.27853" lon="-2.35607">
        <ele>18</ele>
        <time>2021-07-11T09:44:15.000Z</time>
      </trkpt>
      <trkpt lat="47.27828" lon="-2.35613">
        <ele>17.60000038147</ele>
        <time>2021-07-11T09:44:19.000Z</time>
      </trkpt>
      <trkpt lat="47.27822" lon="-2.35615">
        <ele>17.200000762939</ele>
        <time>2021-07-11T09:44:20.000Z</time>
      </trkpt>
      <trkpt lat="47.27816" lon="-2.35617">
        <ele>16.799999237061</ele>
        <time>2021-07-11T09:44:21.000Z</time>
      </trkpt>
      <trkpt lat="47.2781" lon="-2.35619">
        <ele>16.39999961853</ele>
        <time>2021-07-11T09:44:22.000Z</time>
      </trkpt>
      <trkpt lat="47.27804" lon="-2.35621">
        <ele>16</ele>
        <time>2021-07-11T09:44:23.000Z</time>
      </trkpt>
      <trkpt lat="47.2777" lon="-2.35643">
        <ele>16</ele>
        <time>2021-07-11T09:44:29.000Z</time>
      </trkpt>
      <trkpt lat="47.27747" lon="-2.35673">
        <ele>16</ele>
        <time>2021-07-11T09:44:34.000Z</time>
      </trkpt>
      <trkpt lat="47.27743" lon="-2.35679">
        <ele>15.60000038147</ele>
        <time>2021-07-11T09:44:35.000Z</time>
      </trkpt>
      <trkpt lat="47.27739" lon="-2.35685">
        <ele>15</ele>
        <time>2021-07-11T09:44:36.000Z</time>
      </trkpt>
      <trkpt lat="47.27735" lon="-2.35692">
        <ele>14.60000038147</ele>
        <time>2021-07-11T09:44:37.000Z</time>
      </trkpt>
      <trkpt lat="47.2773" lon="-2.35698">
        <ele>14.199999809265</ele>
        <time>2021-07-11T09:44:38.000Z</time>
      </trkpt>
      <trkpt lat="47.27725" lon="-2.35704">
        <ele>13.800000190735</ele>
        <time>2021-07-11T09:44:39.000Z</time>
      </trkpt>
      <trkpt lat="47.27715" lon="-2.35715">
        <ele>13.800000190735</ele>
        <time>2021-07-11T09:44:41.000Z</time>
      </trkpt>
      <trkpt lat="47.27688" lon="-2.35739">
        <ele>13.39999961853</ele>
        <time>2021-07-11T09:44:46.000Z</time>
      </trkpt>
      <trkpt lat="47.27684" lon="-2.35745">
        <ele>13</ele>
        <time>2021-07-11T09:44:47.000Z</time>
      </trkpt>
      <trkpt lat="47.27678" lon="-2.35748">
        <ele>12.60000038147</ele>
        <time>2021-07-11T09:44:48.000Z</time>
      </trkpt>
      <trkpt lat="47.27672" lon="-2.35747">
        <ele>12.199999809265</ele>
        <time>2021-07-11T09:44:49.000Z</time>
      </trkpt>
      <trkpt lat="47.27668" lon="-2.35742">
        <ele>11.800000190735</ele>
        <time>2021-07-11T09:44:50.000Z</time>
      </trkpt>
      <trkpt lat="47.27659" lon="-2.3573">
        <ele>11.800000190735</ele>
        <time>2021-07-11T09:44:52.000Z</time>
      </trkpt>
      <trkpt lat="47.27637" lon="-2.35717">
        <ele>11.39999961853</ele>
        <time>2021-07-11T09:44:56.000Z</time>
      </trkpt>
      <trkpt lat="47.2763" lon="-2.35714">
        <ele>11</ele>
        <time>2021-07-11T09:44:57.000Z</time>
      </trkpt>
      <trkpt lat="47.27624" lon="-2.35713">
        <ele>10.60000038147</ele>
        <time>2021-07-11T09:44:58.000Z</time>
      </trkpt>
      <trkpt lat="47.27616" lon="-2.35711">
        <ele>10.199999809265</ele>
        <time>2021-07-11T09:44:59.000Z</time>
      </trkpt>
      <trkpt lat="47.2761" lon="-2.35709">
        <ele>9.8000001907349</ele>
        <time>2021-07-11T09:45:00.000Z</time>
      </trkpt>
      <trkpt lat="47.27603" lon="-2.35708">
        <ele>9.8000001907349</ele>
        <time>2021-07-11T09:45:01.000Z</time>
      </trkpt>
      <trkpt lat="47.27558" lon="-2.35697">
        <ele>9.8000001907349</ele>
        <time>2021-07-11T09:45:08.000Z</time>
      </trkpt>
      <trkpt lat="47.27552" lon="-2.35695">
        <ele>9.3999996185303</ele>
        <time>2021-07-11T09:45:09.000Z</time>
      </trkpt>
      <trkpt lat="47.27546" lon="-2.35694">
        <ele>9</ele>
        <time>2021-07-11T09:45:10.000Z</time>
      </trkpt>
      <trkpt lat="47.27539" lon="-2.35693">
        <ele>8.6000003814697</ele>
        <time>2021-07-11T09:45:11.000Z</time>
      </trkpt>
      <trkpt lat="47.27533" lon="-2.35691">
        <ele>8.1999998092651</ele>
        <time>2021-07-11T09:45:12.000Z</time>
      </trkpt>
      <trkpt lat="47.27527" lon="-2.35689">
        <ele>7.5999999046326</ele>
        <time>2021-07-11T09:45:13.000Z</time>
      </trkpt>
      <trkpt lat="47.27515" lon="-2.35686">
        <ele>7.5999999046326</ele>
        <time>2021-07-11T09:45:15.000Z</time>
      </trkpt>
      <trkpt lat="47.2748" lon="-2.35679">
        <ele>7.1999998092651</ele>
        <time>2021-07-11T09:45:21.000Z</time>
      </trkpt>
      <trkpt lat="47.27474" lon="-2.35679">
        <ele>6.8000001907349</ele>
        <time>2021-07-11T09:45:22.000Z</time>
      </trkpt>
      <trkpt lat="47.27469" lon="-2.35679">
        <ele>6.4000000953674</ele>
        <time>2021-07-11T09:45:23.000Z</time>
      </trkpt>
      <trkpt lat="47.27463" lon="-2.35679">
        <ele>6</ele>
        <time>2021-07-11T09:45:24.000Z</time>
      </trkpt>
      <trkpt lat="47.27457" lon="-2.35678">
        <ele>5.5999999046326</ele>
        <time>2021-07-11T09:45:25.000Z</time>
      </trkpt>
      <trkpt lat="47.27452" lon="-2.35677">
        <ele>5.5999999046326</ele>
        <time>2021-07-11T09:45:26.000Z</time>
      </trkpt>
      <trkpt lat="47.27438" lon="-2.35673">
        <ele>5.5999999046326</ele>
        <time>2021-07-11T09:45:29.000Z</time>
      </trkpt>
      <trkpt lat="47.27406" lon="-2.35669">
        <ele>5.5999999046326</ele>
        <time>2021-07-11T09:45:35.000Z</time>
      </trkpt>
      <trkpt lat="47.2739" lon="-2.3568">
        <ele>5.5999999046326</ele>
        <time>2021-07-11T09:45:38.000Z</time>
      </trkpt>
      <trkpt lat="47.27364" lon="-2.35698">
        <ele>5.5999999046326</ele>
        <time>2021-07-11T09:45:43.000Z</time>
      </trkpt>
      <trkpt lat="47.27359" lon="-2.35702">
        <ele>5.5999999046326</ele>
        <time>2021-07-11T09:45:44.000Z</time>
      </trkpt>
      <trkpt lat="47.27334" lon="-2.3572">
        <ele>5.5999999046326</ele>
        <time>2021-07-11T09:45:49.000Z</time>
      </trkpt>
      <trkpt lat="47.27327" lon="-2.35728">
        <ele>5.5999999046326</ele>
        <time>2021-07-11T09:45:51.000Z</time>
      </trkpt>
      <trkpt lat="47.2732" lon="-2.35738">
        <ele>5.5999999046326</ele>
        <time>2021-07-11T09:45:54.000Z</time>
      </trkpt>
      <trkpt lat="47.27314" lon="-2.35743">
        <ele>5.5999999046326</ele>
        <time>2021-07-11T09:45:56.000Z</time>
      </trkpt>
      <trkpt lat="47.27309" lon="-2.35737">
        <ele>5.5999999046326</ele>
        <time>2021-07-11T09:45:58.000Z</time>
      </trkpt>
      <trkpt lat="47.27303" lon="-2.3572">
        <ele>5.5999999046326</ele>
        <time>2021-07-11T09:46:01.000Z</time>
      </trkpt>
      <trkpt lat="47.273" lon="-2.35714">
        <ele>5.5999999046326</ele>
        <time>2021-07-11T09:46:02.000Z</time>
      </trkpt>
      <trkpt lat="47.27298" lon="-2.35708">
        <ele>5.5999999046326</ele>
        <time>2021-07-11T09:46:03.000Z</time>
      </trkpt>
      <trkpt lat="47.27284" lon="-2.3568">
        <ele>5.5999999046326</ele>
        <time>2021-07-11T09:46:08.000Z</time>
      </trkpt>
      <trkpt lat="47.27263" lon="-2.35635">
        <ele>5.5999999046326</ele>
        <time>2021-07-11T09:46:16.000Z</time>
      </trkpt>
      <trkpt lat="47.27243" lon="-2.35589">
        <ele>5.5999999046326</ele>
        <time>2021-07-11T09:46:23.000Z</time>
      </trkpt>
      <trkpt lat="47.27219" lon="-2.35535">
        <ele>6</ele>
        <time>2021-07-11T09:46:29.000Z</time>
      </trkpt>
      <trkpt lat="47.27215" lon="-2.35526">
        <ele>6.4000000953674</ele>
        <time>2021-07-11T09:46:30.000Z</time>
      </trkpt>
      <trkpt lat="47.27211" lon="-2.35517">
        <ele>6.8000001907349</ele>
        <time>2021-07-11T09:46:31.000Z</time>
      </trkpt>
      <trkpt lat="47.27206" lon="-2.35508">
        <ele>7.1999998092651</ele>
        <time>2021-07-11T09:46:32.000Z</time>
      </trkpt>
      <trkpt lat="47.27202" lon="-2.35499">
        <ele>7.8000001907349</ele>
        <time>2021-07-11T09:46:33.000Z</time>
      </trkpt>
      <trkpt lat="47.27183" lon="-2.35463">
        <ele>7.8000001907349</ele>
        <time>2021-07-11T09:46:37.000Z</time>
      </trkpt>
      <trkpt lat="47.27146" lon="-2.35391">
        <ele>7.8000001907349</ele>
        <time>2021-07-11T09:46:45.000Z</time>
      </trkpt>
      <trkpt lat="47.27141" lon="-2.35383">
        <ele>7.8000001907349</ele>
        <time>2021-07-11T09:46:46.000Z</time>
      </trkpt>
      <trkpt lat="47.27105" lon="-2.35322">
        <ele>7.8000001907349</ele>
        <time>2021-07-11T09:46:53.000Z</time>
      </trkpt>
      <trkpt lat="47.27095" lon="-2.35306">
        <ele>7.8000001907349</ele>
        <time>2021-07-11T09:46:55.000Z</time>
      </trkpt>
      <trkpt lat="47.27068" lon="-2.35263">
        <ele>7.8000001907349</ele>
        <time>2021-07-11T09:47:01.000Z</time>
      </trkpt>
      <trkpt lat="47.27028" lon="-2.35202">
        <ele>7.8000001907349</ele>
        <time>2021-07-11T09:47:10.000Z</time>
      </trkpt>
      <trkpt lat="47.2699" lon="-2.35142">
        <ele>7.8000001907349</ele>
        <time>2021-07-11T09:47:20.000Z</time>
      </trkpt>
      <trkpt lat="47.2695" lon="-2.35082">
        <ele>7.8000001907349</ele>
        <time>2021-07-11T09:47:29.000Z</time>
      </trkpt>
      <trkpt lat="47.26909" lon="-2.35021">
        <ele>7.8000001907349</ele>
        <time>2021-07-11T09:47:39.000Z</time>
      </trkpt>
      <trkpt lat="47.26868" lon="-2.3496">
        <ele>7.8000001907349</ele>
        <time>2021-07-11T09:47:49.000Z</time>
      </trkpt>
      <trkpt lat="47.26827" lon="-2.34899">
        <ele>7.8000001907349</ele>
        <time>2021-07-11T09:47:59.000Z</time>
      </trkpt>
      <trkpt lat="47.26822" lon="-2.34892">
        <ele>7.8000001907349</ele>
        <time>2021-07-11T09:48:00.000Z</time>
      </trkpt>
      <trkpt lat="47.26784" lon="-2.34837">
        <ele>7.4000000953674</ele>
        <time>2021-07-11T09:48:09.000Z</time>
      </trkpt>
      <trkpt lat="47.2678" lon="-2.34831">
        <ele>7</ele>
        <time>2021-07-11T09:48:10.000Z</time>
      </trkpt>
      <trkpt lat="47.26776" lon="-2.34825">
        <ele>6.5999999046326</ele>
        <time>2021-07-11T09:48:11.000Z</time>
      </trkpt>
      <trkpt lat="47.26772" lon="-2.34818">
        <ele>6.1999998092651</ele>
        <time>2021-07-11T09:48:12.000Z</time>
      </trkpt>
      <trkpt lat="47.26768" lon="-2.34812">
        <ele>5.5999999046326</ele>
        <time>2021-07-11T09:48:13.000Z</time>
      </trkpt>
      <trkpt lat="47.26754" lon="-2.34793">
        <ele>5.5999999046326</ele>
        <time>2021-07-11T09:48:16.000Z</time>
      </trkpt>
      <trkpt lat="47.26712" lon="-2.34742">
        <ele>5.5999999046326</ele>
        <time>2021-07-11T09:48:24.000Z</time>
      </trkpt>
      <trkpt lat="47.26672" lon="-2.34693">
        <ele>5.5999999046326</ele>
        <time>2021-07-11T09:48:32.000Z</time>
      </trkpt>
      <trkpt lat="47.26629" lon="-2.34638">
        <ele>5.5999999046326</ele>
        <time>2021-07-11T09:48:41.000Z</time>
      </trkpt>
      <trkpt lat="47.26598" lon="-2.34601">
        <ele>5.5999999046326</ele>
        <time>2021-07-11T09:48:48.000Z</time>
      </trkpt>
      <trkpt lat="47.26562" lon="-2.34564">
        <ele>5.5999999046326</ele>
        <time>2021-07-11T09:48:56.000Z</time>
      </trkpt>
      <trkpt lat="47.26537" lon="-2.34538">
        <ele>5.5999999046326</ele>
        <time>2021-07-11T09:49:02.000Z</time>
      </trkpt>
      <trkpt lat="47.26503" lon="-2.3451">
        <ele>5.5999999046326</ele>
        <time>2021-07-11T09:49:08.000Z</time>
      </trkpt>
      <trkpt lat="47.26452" lon="-2.34472">
        <ele>5.5999999046326</ele>
        <time>2021-07-11T09:49:17.000Z</time>
      </trkpt>
      <trkpt lat="47.26446" lon="-2.34468">
        <ele>5.5999999046326</ele>
        <time>2021-07-11T09:49:18.000Z</time>
      </trkpt>
      <trkpt lat="47.26402" lon="-2.34434">
        <ele>5.5999999046326</ele>
        <time>2021-07-11T09:49:26.000Z</time>
      </trkpt>
      <trkpt lat="47.26359" lon="-2.34396">
        <ele>5.5999999046326</ele>
        <time>2021-07-11T09:49:34.000Z</time>
      </trkpt>
      <trkpt lat="47.26354" lon="-2.34391">
        <ele>5.5999999046326</ele>
        <time>2021-07-11T09:49:35.000Z</time>
      </trkpt>
      <trkpt lat="47.26342" lon="-2.34383">
        <ele>5.5999999046326</ele>
        <time>2021-07-11T09:49:37.000Z</time>
      </trkpt>
      <trkpt lat="47.26329" lon="-2.34378">
        <ele>5.5999999046326</ele>
        <time>2021-07-11T09:49:39.000Z</time>
      </trkpt>
      <trkpt lat="47.26323" lon="-2.34373">
        <ele>5.5999999046326</ele>
        <time>2021-07-11T09:49:40.000Z</time>
      </trkpt>
      <trkpt lat="47.26315" lon="-2.34358">
        <ele>5.5999999046326</ele>
        <time>2021-07-11T09:49:42.000Z</time>
      </trkpt>
      <trkpt lat="47.26293" lon="-2.34335">
        <ele>5.5999999046326</ele>
        <time>2021-07-11T09:49:46.000Z</time>
      </trkpt>
      <trkpt lat="47.2626" lon="-2.34301">
        <ele>5.5999999046326</ele>
        <time>2021-07-11T09:49:52.000Z</time>
      </trkpt>
      <trkpt lat="47.26248" lon="-2.34288">
        <ele>6.1999998092651</ele>
        <time>2021-07-11T09:49:54.000Z</time>
      </trkpt>
      <trkpt lat="47.26243" lon="-2.34282">
        <ele>6.5999999046326</ele>
        <time>2021-07-11T09:49:55.000Z</time>
      </trkpt>
      <trkpt lat="47.26237" lon="-2.34277">
        <ele>7</ele>
        <time>2021-07-11T09:49:56.000Z</time>
      </trkpt>
      <trkpt lat="47.26232" lon="-2.34271">
        <ele>7.4000000953674</ele>
        <time>2021-07-11T09:49:57.000Z</time>
      </trkpt>
      <trkpt lat="47.26227" lon="-2.34265">
        <ele>7.8000001907349</ele>
        <time>2021-07-11T09:49:58.000Z</time>
      </trkpt>
      <trkpt lat="47.26206" lon="-2.34242">
        <ele>7.8000001907349</ele>
        <time>2021-07-11T09:50:02.000Z</time>
      </trkpt>
      <trkpt lat="47.26173" lon="-2.34208">
        <ele>7.8000001907349</ele>
        <time>2021-07-11T09:50:08.000Z</time>
      </trkpt>
      <trkpt lat="47.26143" lon="-2.34183">
        <ele>7.8000001907349</ele>
        <time>2021-07-11T09:50:14.000Z</time>
      </trkpt>
      <trkpt lat="47.26133" lon="-2.34177">
        <ele>7.8000001907349</ele>
        <time>2021-07-11T09:50:16.000Z</time>
      </trkpt>
      <trkpt lat="47.26124" lon="-2.34168">
        <ele>7.8000001907349</ele>
        <time>2021-07-11T09:50:18.000Z</time>
      </trkpt>
      <trkpt lat="47.26108" lon="-2.34157">
        <ele>7.4000000953674</ele>
        <time>2021-07-11T09:50:22.000Z</time>
      </trkpt>
      <trkpt lat="47.26103" lon="-2.34154">
        <ele>7</ele>
        <time>2021-07-11T09:50:23.000Z</time>
      </trkpt>
      <trkpt lat="47.26097" lon="-2.34152">
        <ele>6.5999999046326</ele>
        <time>2021-07-11T09:50:24.000Z</time>
      </trkpt>
      <trkpt lat="47.26091" lon="-2.34149">
        <ele>6.1999998092651</ele>
        <time>2021-07-11T09:50:25.000Z</time>
      </trkpt>
      <trkpt lat="47.26085" lon="-2.34146">
        <ele>5.8000001907349</ele>
        <time>2021-07-11T09:50:26.000Z</time>
      </trkpt>
      <trkpt lat="47.26079" lon="-2.34143">
        <ele>5.8000001907349</ele>
        <time>2021-07-11T09:50:27.000Z</time>
      </trkpt>
      <trkpt lat="47.26026" lon="-2.34116">
        <ele>5.8000001907349</ele>
        <time>2021-07-11T09:50:35.000Z</time>
      </trkpt>
      <trkpt lat="47.25975" lon="-2.34091">
        <ele>5.8000001907349</ele>
        <time>2021-07-11T09:50:43.000Z</time>
      </trkpt>
      <trkpt lat="47.25926" lon="-2.34071">
        <ele>5.8000001907349</ele>
        <time>2021-07-11T09:50:51.000Z</time>
      </trkpt>
      <trkpt lat="47.2592" lon="-2.3407">
        <ele>5.8000001907349</ele>
        <time>2021-07-11T09:50:52.000Z</time>
      </trkpt>
      <trkpt lat="47.25908" lon="-2.34064">
        <ele>5.8000001907349</ele>
        <time>2021-07-11T09:50:54.000Z</time>
      </trkpt>
      <trkpt lat="47.25901" lon="-2.3404">
        <ele>5.8000001907349</ele>
        <time>2021-07-11T09:50:57.000Z</time>
      </trkpt>
      <trkpt lat="47.25906" lon="-2.34017">
        <ele>5.8000001907349</ele>
        <time>2021-07-11T09:51:00.000Z</time>
      </trkpt>
      <trkpt lat="47.25912" lon="-2.33992">
        <ele>5.8000001907349</ele>
        <time>2021-07-11T09:51:03.000Z</time>
      </trkpt>
      <trkpt lat="47.25916" lon="-2.33977">
        <ele>5.8000001907349</ele>
        <time>2021-07-11T09:51:05.000Z</time>
      </trkpt>
      <trkpt lat="47.25924" lon="-2.33957">
        <ele>5.8000001907349</ele>
        <time>2021-07-11T09:51:08.000Z</time>
      </trkpt>
      <trkpt lat="47.25931" lon="-2.33944">
        <ele>5.8000001907349</ele>
        <time>2021-07-11T09:51:10.000Z</time>
      </trkpt>
      <trkpt lat="47.25935" lon="-2.33937">
        <ele>5.8000001907349</ele>
        <time>2021-07-11T09:51:11.000Z</time>
      </trkpt>
      <trkpt lat="47.25945" lon="-2.3392">
        <ele>5.8000001907349</ele>
        <time>2021-07-11T09:51:14.000Z</time>
      </trkpt>
      <trkpt lat="47.25947" lon="-2.33905">
        <ele>5.8000001907349</ele>
        <time>2021-07-11T09:51:16.000Z</time>
      </trkpt>
      <trkpt lat="47.25951" lon="-2.33893">
        <ele>5.8000001907349</ele>
        <time>2021-07-11T09:51:19.000Z</time>
      </trkpt>
      <trkpt lat="47.25951" lon="-2.33892">
        <ele>5.4000000953674</ele>
        <time>2021-07-11T09:51:20.000Z</time>
      </trkpt>
      <trkpt lat="47.25952" lon="-2.33891">
        <ele>4.8000001907349</ele>
        <time>2021-07-11T09:51:21.000Z</time>
      </trkpt>
      <trkpt lat="47.25953" lon="-2.33889">
        <ele>4.4000000953674</ele>
        <time>2021-07-11T09:51:22.000Z</time>
      </trkpt>
      <trkpt lat="47.25954" lon="-2.33889">
        <ele>4</ele>
        <time>2021-07-11T09:51:23.000Z</time>
      </trkpt>
      <trkpt lat="47.25954" lon="-2.33888">
        <ele>3.5999999046326</ele>
        <time>2021-07-11T09:51:24.000Z</time>
      </trkpt>
      <trkpt lat="47.25954" lon="-2.33888">
        <ele>3.5999999046326</ele>
        <time>2021-07-11T09:51:25.000Z</time>
      </trkpt>
      <trkpt lat="47.25956" lon="-2.33885">
        <ele>3.5999999046326</ele>
        <time>2021-07-11T09:51:29.000Z</time>
      </trkpt>
      <trkpt lat="47.25959" lon="-2.33877">
        <ele>3.5999999046326</ele>
        <time>2021-07-11T09:51:31.000Z</time>
      </trkpt>
      <trkpt lat="47.25965" lon="-2.33861">
        <ele>3.5999999046326</ele>
        <time>2021-07-11T09:51:34.000Z</time>
      </trkpt>
      <trkpt lat="47.25969" lon="-2.33847">
        <ele>3.5999999046326</ele>
        <time>2021-07-11T09:51:36.000Z</time>
      </trkpt>
      <trkpt lat="47.25985" lon="-2.33796">
        <ele>3.5999999046326</ele>
        <time>2021-07-11T09:51:42.000Z</time>
      </trkpt>
      <trkpt lat="47.26005" lon="-2.33735">
        <ele>3.5999999046326</ele>
        <time>2021-07-11T09:51:49.000Z</time>
      </trkpt>
      <trkpt lat="47.26019" lon="-2.33692">
        <ele>3.5999999046326</ele>
        <time>2021-07-11T09:51:54.000Z</time>
      </trkpt>
      <trkpt lat="47.26021" lon="-2.33683">
        <ele>3.5999999046326</ele>
        <time>2021-07-11T09:51:55.000Z</time>
      </trkpt>
      <trkpt lat="47.26029" lon="-2.33668">
        <ele>3.5999999046326</ele>
        <time>2021-07-11T09:51:58.000Z</time>
      </trkpt>
      <trkpt lat="47.26042" lon="-2.33669">
        <ele>3.5999999046326</ele>
        <time>2021-07-11T09:52:01.000Z</time>
      </trkpt>
      <trkpt lat="47.26057" lon="-2.33663">
        <ele>3.5999999046326</ele>
        <time>2021-07-11T09:52:05.000Z</time>
      </trkpt>
      <trkpt lat="47.26064" lon="-2.33636">
        <ele>3.5999999046326</ele>
        <time>2021-07-11T09:52:09.000Z</time>
      </trkpt>
      <trkpt lat="47.26081" lon="-2.33586">
        <ele>3.5999999046326</ele>
        <time>2021-07-11T09:52:16.000Z</time>
      </trkpt>
      <trkpt lat="47.26088" lon="-2.33565">
        <ele>3.5999999046326</ele>
        <time>2021-07-11T09:52:19.000Z</time>
      </trkpt>
      <trkpt lat="47.26096" lon="-2.33545">
        <ele>3.5999999046326</ele>
        <time>2021-07-11T09:52:22.000Z</time>
      </trkpt>
      <trkpt lat="47.26114" lon="-2.33498">
        <ele>3.5999999046326</ele>
        <time>2021-07-11T09:52:29.000Z</time>
      </trkpt>
      <trkpt lat="47.26117" lon="-2.33492">
        <ele>3.5999999046326</ele>
        <time>2021-07-11T09:52:30.000Z</time>
      </trkpt>
      <trkpt lat="47.26121" lon="-2.33474">
        <ele>3.5999999046326</ele>
        <time>2021-07-11T09:52:33.000Z</time>
      </trkpt>
      <trkpt lat="47.26128" lon="-2.33456">
        <ele>3.5999999046326</ele>
        <time>2021-07-11T09:52:38.000Z</time>
      </trkpt>
      <trkpt lat="47.26135" lon="-2.33438">
        <ele>3.5999999046326</ele>
        <time>2021-07-11T09:52:43.000Z</time>
      </trkpt>
      <trkpt lat="47.26137" lon="-2.33433">
        <ele>3.5999999046326</ele>
        <time>2021-07-11T09:52:44.000Z</time>
      </trkpt>
      <trkpt lat="47.26137" lon="-2.33421">
        <ele>3.5999999046326</ele>
        <time>2021-07-11T09:52:46.000Z</time>
      </trkpt>
      <trkpt lat="47.26127" lon="-2.33414">
        <ele>3.5999999046326</ele>
        <time>2021-07-11T09:52:49.000Z</time>
      </trkpt>
      <trkpt lat="47.26111" lon="-2.33399">
        <ele>3.5999999046326</ele>
        <time>2021-07-11T09:52:53.000Z</time>
      </trkpt>
      <trkpt lat="47.26104" lon="-2.33389">
        <ele>3.5999999046326</ele>
        <time>2021-07-11T09:52:55.000Z</time>
      </trkpt>
      <trkpt lat="47.26096" lon="-2.3338">
        <ele>3.5999999046326</ele>
        <time>2021-07-11T09:52:57.000Z</time>
      </trkpt>
      <trkpt lat="47.26087" lon="-2.33371">
        <ele>3.5999999046326</ele>
        <time>2021-07-11T09:52:59.000Z</time>
      </trkpt>
      <trkpt lat="47.2608" lon="-2.33359">
        <ele>3.5999999046326</ele>
        <time>2021-07-11T09:53:01.000Z</time>
      </trkpt>
      <trkpt lat="47.26072" lon="-2.3334">
        <ele>3.5999999046326</ele>
        <time>2021-07-11T09:53:04.000Z</time>
      </trkpt>
      <trkpt lat="47.2607" lon="-2.33334">
        <ele>3.5999999046326</ele>
        <time>2021-07-11T09:53:05.000Z</time>
      </trkpt>
      <trkpt lat="47.26049" lon="-2.33275">
        <ele>3.5999999046326</ele>
        <time>2021-07-11T09:53:14.000Z</time>
      </trkpt>
      <trkpt lat="47.26022" lon="-2.33199">
        <ele>3.5999999046326</ele>
        <time>2021-07-11T09:53:25.000Z</time>
      </trkpt>
      <trkpt lat="47.25997" lon="-2.33124">
        <ele>3.5999999046326</ele>
        <time>2021-07-11T09:53:36.000Z</time>
      </trkpt>
      <trkpt lat="47.25995" lon="-2.33117">
        <ele>3.5999999046326</ele>
        <time>2021-07-11T09:53:37.000Z</time>
      </trkpt>
      <trkpt lat="47.25987" lon="-2.33088">
        <ele>3.5999999046326</ele>
        <time>2021-07-11T09:53:41.000Z</time>
      </trkpt>
      <trkpt lat="47.25982" lon="-2.33075">
        <ele>3.5999999046326</ele>
        <time>2021-07-11T09:53:43.000Z</time>
      </trkpt>
      <trkpt lat="47.25971" lon="-2.33051">
        <ele>3.5999999046326</ele>
        <time>2021-07-11T09:53:47.000Z</time>
      </trkpt>
      <trkpt lat="47.25967" lon="-2.33038">
        <ele>3.5999999046326</ele>
        <time>2021-07-11T09:53:49.000Z</time>
      </trkpt>
      <trkpt lat="47.25948" lon="-2.32984">
        <ele>3.5999999046326</ele>
        <time>2021-07-11T09:53:57.000Z</time>
      </trkpt>
      <trkpt lat="47.25938" lon="-2.32957">
        <ele>3.5999999046326</ele>
        <time>2021-07-11T09:54:01.000Z</time>
      </trkpt>
      <trkpt lat="47.25935" lon="-2.32942">
        <ele>3.5999999046326</ele>
        <time>2021-07-11T09:54:03.000Z</time>
      </trkpt>
      <trkpt lat="47.2593" lon="-2.32919">
        <ele>3.5999999046326</ele>
        <time>2021-07-11T09:54:06.000Z</time>
      </trkpt>
      <trkpt lat="47.25926" lon="-2.32906">
        <ele>3.5999999046326</ele>
        <time>2021-07-11T09:54:08.000Z</time>
      </trkpt>
      <trkpt lat="47.25901" lon="-2.3284">
        <ele>3.5999999046326</ele>
        <time>2021-07-11T09:54:18.000Z</time>
      </trkpt>
      <trkpt lat="47.25885" lon="-2.32794">
        <ele>3.5999999046326</ele>
        <time>2021-07-11T09:54:25.000Z</time>
      </trkpt>
      <trkpt lat="47.2587" lon="-2.32742">
        <ele>3.5999999046326</ele>
        <time>2021-07-11T09:54:33.000Z</time>
      </trkpt>
      <trkpt lat="47.25871" lon="-2.32737">
        <ele>3.5999999046326</ele>
        <time>2021-07-11T09:54:34.000Z</time>
      </trkpt>
      <trkpt lat="47.25876" lon="-2.32727">
        <ele>3.5999999046326</ele>
        <time>2021-07-11T09:54:36.000Z</time>
      </trkpt>
      <trkpt lat="47.25889" lon="-2.32714">
        <ele>3.5999999046326</ele>
        <time>2021-07-11T09:54:39.000Z</time>
      </trkpt>
      <trkpt lat="47.25893" lon="-2.32709">
        <ele>3.5999999046326</ele>
        <time>2021-07-11T09:54:40.000Z</time>
      </trkpt>
      <trkpt lat="47.25914" lon="-2.3269">
        <ele>3.5999999046326</ele>
        <time>2021-07-11T09:54:45.000Z</time>
      </trkpt>
      <trkpt lat="47.25917" lon="-2.32687">
        <ele>3.5999999046326</ele>
        <time>2021-07-11T09:54:46.000Z</time>
      </trkpt>
      <trkpt lat="47.25946" lon="-2.32669">
        <ele>3.5999999046326</ele>
        <time>2021-07-11T09:54:54.000Z</time>
      </trkpt>
      <trkpt lat="47.25951" lon="-2.32665">
        <ele>3.5999999046326</ele>
        <time>2021-07-11T09:54:56.000Z</time>
      </trkpt>
      <trkpt lat="47.2595" lon="-2.32658">
        <ele>3.5999999046326</ele>
        <time>2021-07-11T09:54:58.000Z</time>
      </trkpt>
      <trkpt lat="47.25949" lon="-2.3265">
        <ele>3.5999999046326</ele>
        <time>2021-07-11T09:55:00.000Z</time>
      </trkpt>
      <trkpt lat="47.25947" lon="-2.32647">
        <ele>3.5999999046326</ele>
        <time>2021-07-11T09:55:01.000Z</time>
      </trkpt>
      <trkpt lat="47.25942" lon="-2.32641">
        <ele>3.5999999046326</ele>
        <time>2021-07-11T09:55:03.000Z</time>
      </trkpt>
      <trkpt lat="47.25922" lon="-2.32622">
        <ele>3.5999999046326</ele>
        <time>2021-07-11T09:55:10.000Z</time>
      </trkpt>
      <trkpt lat="47.25914" lon="-2.32606">
        <ele>3.5999999046326</ele>
        <time>2021-07-11T09:55:14.000Z</time>
      </trkpt>
      <trkpt lat="47.25895" lon="-2.32585">
        <ele>3.5999999046326</ele>
        <time>2021-07-11T09:55:22.000Z</time>
      </trkpt>
      <trkpt lat="47.25878" lon="-2.32569">
        <ele>3.5999999046326</ele>
        <time>2021-07-11T09:55:29.000Z</time>
      </trkpt>
      <trkpt lat="47.25865" lon="-2.32552">
        <ele>3.5999999046326</ele>
        <time>2021-07-11T09:55:36.000Z</time>
      </trkpt>
      <trkpt lat="47.25856" lon="-2.32537">
        <ele>3.5999999046326</ele>
        <time>2021-07-11T09:55:41.000Z</time>
      </trkpt>
      <trkpt lat="47.25839" lon="-2.32512">
        <ele>3.5999999046326</ele>
        <time>2021-07-11T09:55:48.000Z</time>
      </trkpt>
      <trkpt lat="47.25823" lon="-2.32487">
        <ele>3.5999999046326</ele>
        <time>2021-07-11T09:55:55.000Z</time>
      </trkpt>
      <trkpt lat="47.25824" lon="-2.32483">
        <ele>3.5999999046326</ele>
        <time>2021-07-11T09:55:56.000Z</time>
      </trkpt>
      <trkpt lat="47.25829" lon="-2.3248">
        <ele>3.5999999046326</ele>
        <time>2021-07-11T09:55:58.000Z</time>
      </trkpt>
      <trkpt lat="47.25844" lon="-2.32482">
        <ele>3.5999999046326</ele>
        <time>2021-07-11T09:56:02.000Z</time>
      </trkpt>
      <trkpt lat="47.25848" lon="-2.32483">
        <ele>3.5999999046326</ele>
        <time>2021-07-11T09:56:03.000Z</time>
      </trkpt>
      <trkpt lat="47.25877" lon="-2.32483">
        <ele>3.5999999046326</ele>
        <time>2021-07-11T09:56:11.000Z</time>
      </trkpt>
      <trkpt lat="47.2589" lon="-2.32478">
        <ele>3.5999999046326</ele>
        <time>2021-07-11T09:56:15.000Z</time>
      </trkpt>
      <trkpt lat="47.25891" lon="-2.32475">
        <ele>3.5999999046326</ele>
        <time>2021-07-11T09:56:16.000Z</time>
      </trkpt>
      <trkpt lat="47.25905" lon="-2.32453">
        <ele>3.5999999046326</ele>
        <time>2021-07-11T09:56:22.000Z</time>
      </trkpt>
      <trkpt lat="47.25925" lon="-2.32431">
        <ele>3.5999999046326</ele>
        <time>2021-07-11T09:56:28.000Z</time>
      </trkpt>
      <trkpt lat="47.25931" lon="-2.32422">
        <ele>3.5999999046326</ele>
        <time>2021-07-11T09:56:30.000Z</time>
      </trkpt>
      <trkpt lat="47.25952" lon="-2.32393">
        <ele>3.5999999046326</ele>
        <time>2021-07-11T09:56:37.000Z</time>
      </trkpt>
      <trkpt lat="47.25976" lon="-2.32363">
        <ele>3.5999999046326</ele>
        <time>2021-07-11T09:56:44.000Z</time>
      </trkpt>
      <trkpt lat="47.26003" lon="-2.32327">
        <ele>3.5999999046326</ele>
        <time>2021-07-11T09:56:52.000Z</time>
      </trkpt>
      <trkpt lat="47.26027" lon="-2.32296">
        <ele>3.5999999046326</ele>
        <time>2021-07-11T09:56:59.000Z</time>
      </trkpt>
      <trkpt lat="47.26058" lon="-2.32263">
        <ele>3.5999999046326</ele>
        <time>2021-07-11T09:57:07.000Z</time>
      </trkpt>
      <trkpt lat="47.26077" lon="-2.32243">
        <ele>3.5999999046326</ele>
        <time>2021-07-11T09:57:13.000Z</time>
      </trkpt>
      <trkpt lat="47.26101" lon="-2.32206">
        <ele>3.5999999046326</ele>
        <time>2021-07-11T09:57:21.000Z</time>
      </trkpt>
      <trkpt lat="47.26103" lon="-2.32201">
        <ele>3.5999999046326</ele>
        <time>2021-07-11T09:57:22.000Z</time>
      </trkpt>
      <trkpt lat="47.26117" lon="-2.32168">
        <ele>3.5999999046326</ele>
        <time>2021-07-11T09:57:28.000Z</time>
      </trkpt>
      <trkpt lat="47.26133" lon="-2.3212">
        <ele>3.5999999046326</ele>
        <time>2021-07-11T09:57:36.000Z</time>
      </trkpt>
      <trkpt lat="47.26149" lon="-2.32066">
        <ele>3.5999999046326</ele>
        <time>2021-07-11T09:57:45.000Z</time>
      </trkpt>
      <trkpt lat="47.2616" lon="-2.3202">
        <ele>3.5999999046326</ele>
        <time>2021-07-11T09:57:52.000Z</time>
      </trkpt>
      <trkpt lat="47.26163" lon="-2.32">
        <ele>3.5999999046326</ele>
        <time>2021-07-11T09:57:55.000Z</time>
      </trkpt>
      <trkpt lat="47.2616" lon="-2.31981">
        <ele>3.5999999046326</ele>
        <time>2021-07-11T09:57:58.000Z</time>
      </trkpt>
      <trkpt lat="47.26157" lon="-2.31956">
        <ele>3.5999999046326</ele>
        <time>2021-07-11T09:58:02.000Z</time>
      </trkpt>
      <trkpt lat="47.26153" lon="-2.31937">
        <ele>3.5999999046326</ele>
        <time>2021-07-11T09:58:05.000Z</time>
      </trkpt>
      <trkpt lat="47.26146" lon="-2.31888">
        <ele>3.5999999046326</ele>
        <time>2021-07-11T09:58:13.000Z</time>
      </trkpt>
      <trkpt lat="47.26141" lon="-2.31851">
        <ele>3.5999999046326</ele>
        <time>2021-07-11T09:58:19.000Z</time>
      </trkpt>
      <trkpt lat="47.26136" lon="-2.31796">
        <ele>3.5999999046326</ele>
        <time>2021-07-11T09:58:27.000Z</time>
      </trkpt>
      <trkpt lat="47.26129" lon="-2.31747">
        <ele>3.5999999046326</ele>
        <time>2021-07-11T09:58:35.000Z</time>
      </trkpt>
      <trkpt lat="47.26124" lon="-2.3171">
        <ele>3.5999999046326</ele>
        <time>2021-07-11T09:58:41.000Z</time>
      </trkpt>
      <trkpt lat="47.26121" lon="-2.31672">
        <ele>3.5999999046326</ele>
        <time>2021-07-11T09:58:47.000Z</time>
      </trkpt>
      <trkpt lat="47.26119" lon="-2.31666">
        <ele>3.5999999046326</ele>
        <time>2021-07-11T09:58:48.000Z</time>
      </trkpt>
      <trkpt lat="47.26114" lon="-2.31641">
        <ele>3.5999999046326</ele>
        <time>2021-07-11T09:58:52.000Z</time>
      </trkpt>
      <trkpt lat="47.26116" lon="-2.31619">
        <ele>3.5999999046326</ele>
        <time>2021-07-11T09:58:56.000Z</time>
      </trkpt>
      <trkpt lat="47.26119" lon="-2.31615">
        <ele>3.5999999046326</ele>
        <time>2021-07-11T09:58:57.000Z</time>
      </trkpt>
      <trkpt lat="47.26128" lon="-2.3161">
        <ele>3.5999999046326</ele>
        <time>2021-07-11T09:58:59.000Z</time>
      </trkpt>
      <trkpt lat="47.26145" lon="-2.31612">
        <ele>3.5999999046326</ele>
        <time>2021-07-11T09:59:03.000Z</time>
      </trkpt>
      <trkpt lat="47.26149" lon="-2.3161">
        <ele>3.5999999046326</ele>
        <time>2021-07-11T09:59:04.000Z</time>
      </trkpt>
      <trkpt lat="47.26164" lon="-2.31602">
        <ele>3.5999999046326</ele>
        <time>2021-07-11T09:59:07.000Z</time>
      </trkpt>
      <trkpt lat="47.26196" lon="-2.31591">
        <ele>3.5999999046326</ele>
        <time>2021-07-11T09:59:14.000Z</time>
      </trkpt>
      <trkpt lat="47.26211" lon="-2.31587">
        <ele>3.5999999046326</ele>
        <time>2021-07-11T09:59:17.000Z</time>
      </trkpt>
      <trkpt lat="47.2622" lon="-2.31589">
        <ele>3.5999999046326</ele>
        <time>2021-07-11T09:59:19.000Z</time>
      </trkpt>
      <trkpt lat="47.26236" lon="-2.31595">
        <ele>3.5999999046326</ele>
        <time>2021-07-11T09:59:23.000Z</time>
      </trkpt>
      <trkpt lat="47.26248" lon="-2.31605">
        <ele>3.5999999046326</ele>
        <time>2021-07-11T09:59:26.000Z</time>
      </trkpt>
      <trkpt lat="47.26255" lon="-2.31613">
        <ele>3.5999999046326</ele>
        <time>2021-07-11T09:59:28.000Z</time>
      </trkpt>
      <trkpt lat="47.26258" lon="-2.31618">
        <ele>3.5999999046326</ele>
        <time>2021-07-11T09:59:29.000Z</time>
      </trkpt>
      <trkpt lat="47.26269" lon="-2.31637">
        <ele>3.5999999046326</ele>
        <time>2021-07-11T09:59:33.000Z</time>
      </trkpt>
      <trkpt lat="47.2628" lon="-2.31664">
        <ele>3.5999999046326</ele>
        <time>2021-07-11T09:59:38.000Z</time>
      </trkpt>
      <trkpt lat="47.26284" lon="-2.31676">
        <ele>3.5999999046326</ele>
        <time>2021-07-11T09:59:40.000Z</time>
      </trkpt>
      <trkpt lat="47.26302" lon="-2.31706">
        <ele>3.5999999046326</ele>
        <time>2021-07-11T09:59:46.000Z</time>
      </trkpt>
      <trkpt lat="47.26312" lon="-2.31705">
        <ele>3.5999999046326</ele>
        <time>2021-07-11T09:59:49.000Z</time>
      </trkpt>
      <trkpt lat="47.2633" lon="-2.31692">
        <ele>3.5999999046326</ele>
        <time>2021-07-11T09:59:55.000Z</time>
      </trkpt>
      <trkpt lat="47.26335" lon="-2.31686">
        <ele>3.5999999046326</ele>
        <time>2021-07-11T09:59:57.000Z</time>
      </trkpt>
      <trkpt lat="47.26342" lon="-2.31684">
        <ele>3.5999999046326</ele>
        <time>2021-07-11T09:59:59.000Z</time>
      </trkpt>
      <trkpt lat="47.26345" lon="-2.31682">
        <ele>4</ele>
        <time>2021-07-11T10:00:00.000Z</time>
      </trkpt>
      <trkpt lat="47.26348" lon="-2.31681">
        <ele>4.4000000953674</ele>
        <time>2021-07-11T10:00:01.000Z</time>
      </trkpt>
      <trkpt lat="47.26351" lon="-2.31678">
        <ele>5</ele>
        <time>2021-07-11T10:00:02.000Z</time>
      </trkpt>
      <trkpt lat="47.26354" lon="-2.31677">
        <ele>5.4000000953674</ele>
        <time>2021-07-11T10:00:03.000Z</time>
      </trkpt>
      <trkpt lat="47.26357" lon="-2.31675">
        <ele>5.8000001907349</ele>
        <time>2021-07-11T10:00:04.000Z</time>
      </trkpt>
      <trkpt lat="47.26363" lon="-2.31673">
        <ele>5.8000001907349</ele>
        <time>2021-07-11T10:00:06.000Z</time>
      </trkpt>
      <trkpt lat="47.26386" lon="-2.31663">
        <ele>5.8000001907349</ele>
        <time>2021-07-11T10:00:13.000Z</time>
      </trkpt>
      <trkpt lat="47.26399" lon="-2.31657">
        <ele>5.8000001907349</ele>
        <time>2021-07-11T10:00:19.000Z</time>
      </trkpt>
      <trkpt lat="47.26413" lon="-2.31645">
        <ele>5.8000001907349</ele>
        <time>2021-07-11T10:00:25.000Z</time>
      </trkpt>
      <trkpt lat="47.26411" lon="-2.3163">
        <ele>6.1999998092651</ele>
        <time>2021-07-11T10:00:29.000Z</time>
      </trkpt>
      <trkpt lat="47.26411" lon="-2.31625">
        <ele>6.5999999046326</ele>
        <time>2021-07-11T10:00:30.000Z</time>
      </trkpt>
      <trkpt lat="47.26411" lon="-2.31621">
        <ele>7</ele>
        <time>2021-07-11T10:00:31.000Z</time>
      </trkpt>
      <trkpt lat="47.26411" lon="-2.31616">
        <ele>7.4000000953674</ele>
        <time>2021-07-11T10:00:32.000Z</time>
      </trkpt>
      <trkpt lat="47.26412" lon="-2.31612">
        <ele>7.8000001907349</ele>
        <time>2021-07-11T10:00:33.000Z</time>
      </trkpt>
      <trkpt lat="47.26411" lon="-2.31595">
        <ele>7.8000001907349</ele>
        <time>2021-07-11T10:00:37.000Z</time>
      </trkpt>
      <trkpt lat="47.26411" lon="-2.31575">
        <ele>7.8000001907349</ele>
        <time>2021-07-11T10:00:42.000Z</time>
      </trkpt>
      <trkpt lat="47.26412" lon="-2.31554">
        <ele>7.8000001907349</ele>
        <time>2021-07-11T10:00:48.000Z</time>
      </trkpt>
      <trkpt lat="47.26417" lon="-2.31553">
        <ele>7.8000001907349</ele>
        <time>2021-07-11T10:00:51.000Z</time>
      </trkpt>
      <trkpt lat="47.26418" lon="-2.31553">
        <ele>7.8000001907349</ele>
        <time>2021-07-11T10:00:54.000Z</time>
      </trkpt>
    </trkseg>
  </trk>
</gpx>